# Wetter Temperatur Luftdruck Luftfeuchtigkeit Sichtweite Windgeschwindigkeit Windrichtung Zeit
1 Rain 2 1017 92 0 0.45 203 10:18 08.04.2020
2 Rain 2 1017 91 0 1.34 232 09:42 08.04.2020
3 Rain 2 1017 91 0 1.34 220 09:20 08.04.2020
4 Rain 3 1016 90 0 2.24 341 08:59 08.04.2020
5 Rain 3 1016 90 0 1.79 321 08:41 08.04.2020
6 Rain 3 1017 90 0 3.58 339 08:21 08.04.2020
7 Rain 3 1017 88 0 1.34 285 07:43 08.04.2020
8 Rain 4 1016 89 0 1.79 320 07:23 08.04.2020
9 Rain 4 1016 89 0 1.79 337 06:48 08.04.2020
10 Rain 5 1017 86 0 1.04 333 05:49 08.04.2020
11 Rain 8 1016 66 0 1.79 31 03:34 08.04.2020
12 Rain 9 1016 56 0 1.79 40 02:49 08.04.2020
13 Rain 9 1016 52 0 2.24 21 02:19 08.04.2020
14 Rain 11 1017 47 0 2.24 16 01:30 08.04.2020
15 Rain 13 1017 41 0 1.34 85 00:59 08.04.2020
16 Rain 13 1017 41 0 1.34 85 00:59 08.04.2020
17 Rain 18 1014 46 0 2.69 38 00:40 08.04.2020
18 Rain 16 1017 51 0 2.52 73 00:20 08.04.2020
19 Rain 16 1017 51 0 2.52 73 23:39 07.04.2020
20 Rain 16 1017 51 0 2.52 73 23:20 07.04.2020
21 Rain 16 1017 51 0 2.52 73 22:57 07.04.2020
22 Rain 16 1017 51 0 2.52 73 22:39 07.04.2020
23 Rain 16 1017 51 0 2.52 73 22:19 07.04.2020
24 Rain 12 1020 49 0 1.34 40 21:56 07.04.2020
25 Rain 17 1016 49 0 2.45 47 21:38 07.04.2020
26 Rain 14 1018 58 0 0.64 5 21:19 07.04.2020
27 Rain 14 1018 58 0 0.64 5 20:55 07.04.2020
28 Rain 14 1018 58 0 0.64 5 20:37 07.04.2020
29 Rain 14 1018 58 0 0.64 5 20:18 07.04.2020
30 Rain 8 1021 66 0 0.89 121 19:56 07.04.2020
31 Rain 8 1021 59 0 0.89 314 19:36 07.04.2020
32 Rain 8 1021 64 0 0.89 104 19:18 07.04.2020
33 Rain 7 1020 73 0 0.45 116 18:54 07.04.2020
34 Rain 5 1020 69 0 0.64 5 18:36 07.04.2020
35 Rain 4 1020 77 0 0.89 39 18:18 07.04.2020
36 Rain 3 1020 87 0 0.45 74 17:41 07.04.2020
37 Rain 3 1020 90 0 0.45 64 17:20 07.04.2020
38 Rain 1 1019 93 0 0.89 39 16:45 07.04.2020
39 Rain 1 1019 93 0 0.89 39 16:26 07.04.2020
40 Rain 13 1018 60 0 0.89 39 15:55 07.04.2020
41 Rain 1 1019 90 0 0.89 39 15:36 07.04.2020
42 Rain 1 1018 91 0 1.12 72 15:18 07.04.2020
43 Rain 2 1018 86 0 1.08 128 14:39 07.04.2020
44 Rain 2 1017 87 0 1.08 128 14:21 07.04.2020
45 Rain 2 1017 88 0 1.34 33 13:56 07.04.2020
46 Rain 1 1017 88 0 1.79 26 13:37 07.04.2020
47 Rain 1 1017 88 0 1.79 5 13:18 07.04.2020
48 Rain 2 1017 89 0 2.24 4 12:54 07.04.2020
49 Rain 2 1017 89 0 2.24 4 12:36 07.04.2020
50 Rain 2 1016 89 0 1.34 25 12:18 07.04.2020
51 Rain 2 1016 87 0 0.45 21 11:42 07.04.2020
52 Rain 2 1016 85 0 1.34 20 11:22 07.04.2020
53 Rain 2 1016 88 0 1.49 167 10:57 07.04.2020
54 Rain 2 1017 88 0 1.49 167 10:37 07.04.2020
55 Rain 2 1017 86 0 1.49 167 10:18 07.04.2020
56 Rain 1 1016 87 0 1.49 167 09:44 07.04.2020
57 Rain 15 1014 52 0 2.05 188 09:18 07.04.2020
58 Rain 1 1016 83 0 2.05 188 08:43 07.04.2020
59 Rain 2 1015 81 0 2.05 188 08:25 07.04.2020
60 Rain 3 1015 80 0 1.34 214 07:59 07.04.2020
61 Rain 3 1015 80 0 2.24 223 07:40 07.04.2020
62 Rain 3 1015 80 0 2.24 223 07:40 07.04.2020
63 Rain 4 1015 80 0 0.89 232 07:21 07.04.2020
64 Rain 4 1015 79 0 0.89 168 06:49 07.04.2020
65 Clouds 4 1014 79 0 0.45 164 06:21 07.04.2020
66 Clouds 4 1014 78 0 0.89 106 05:38 07.04.2020
67 Clouds 5 1013 78 0 1.79 178 04:46 07.04.2020
68 Rain 7 1012 77 0 1.79 143 03:26 07.04.2020
69 Rain 7 1012 77 0 2.24 179 02:54 07.04.2020
70 Rain 7 1011 77 0 3.58 147 01:48 07.04.2020
71 Rain 8 1011 77 0 5.36 189 01:25 07.04.2020
72 Rain 7 1011 75 0 3.58 201 00:29 07.04.2020
73 Rain 7 1011 75 0 3.58 201 00:29 07.04.2020
74 Rain 8 1010 75 0 4.02 202 23:56 06.04.2020
75 Rain 7 1011 84 0 4.02 251 23:36 06.04.2020
76 Rain 7 1011 82 0 3.13 167 23:18 06.04.2020
77 Rain 8 1010 78 0 3.58 274 22:40 06.04.2020
78 Rain 8 1010 81 0 3.13 177 22:21 06.04.2020
79 Rain 7 1010 83 0 3.13 198 21:57 06.04.2020
80 Rain 7 1010 84 0 1.79 152 21:39 06.04.2020
81 Rain 6 1010 86 0 2.24 232 21:19 06.04.2020
82 Rain 5 1010 86 0 2.68 126 20:55 06.04.2020
83 Rain 15 1010 57 0 3.7 178 20:37 06.04.2020
84 Rain 15 1010 57 0 3.7 178 20:18 06.04.2020
85 Rain 15 1010 57 0 3.7 178 19:41 06.04.2020
86 Rain 15 1010 57 0 3.7 178 19:23 06.04.2020
87 Rain 15 1010 57 0 3.7 178 18:59 06.04.2020
88 Rain 4 1008 82 0 2.68 147 18:40 06.04.2020
89 Rain 4 1008 82 0 3.58 184 18:22 06.04.2020
90 Rain 4 1008 84 0 2.24 125 17:55 06.04.2020
91 Rain 4 1007 85 0 1.79 199 17:36 06.04.2020
92 Rain 4 1007 85 0 1.34 145 17:18 06.04.2020
93 Rain 4 1007 87 0 2.24 198 16:44 06.04.2020
94 Rain 4 1007 86 0 3.58 209 16:26 06.04.2020
95 Rain 3 1006 84 0 3.58 206 14:45 06.04.2020
96 Rain 3 1006 84 0 3.58 206 14:45 06.04.2020
97 Rain 3 1006 84 0 3.58 206 14:45 06.04.2020
98 Rain 3 1006 84 0 3.58 206 14:45 06.04.2020
99 Rain 3 1006 84 0 3.58 206 14:45 06.04.2020
100 Rain 4 1005 85 0 4.02 243 13:44 06.04.2020
101 Rain 4 1005 85 0 4.02 243 13:44 06.04.2020
102 Rain 4 1005 85 0 4.02 243 13:44 06.04.2020
103 Rain 4 1005 85 0 4.02 243 13:44 06.04.2020
104 Rain 4 1005 85 0 4.02 243 13:44 06.04.2020
105 Rain 4 1005 80 0 4.02 175 13:20 06.04.2020
106 Rain 4 1005 80 0 4.02 175 13:20 06.04.2020
107 Rain 4 1005 80 0 4.02 175 13:20 06.04.2020
108 Rain 4 1005 80 0 4.02 175 13:20 06.04.2020
109 Rain 4 1005 82 0 5.36 240 12:26 06.04.2020
110 Clouds 4 1005 82 0 4.02 229 12:01 06.04.2020
111 Clouds 4 1005 81 0 3.13 247 11:40 06.04.2020
112 Clouds 4 1005 81 0 3.13 247 11:40 06.04.2020
113 Clouds 4 1005 81 0 3.13 247 11:40 06.04.2020
114 Clouds 4 1005 81 0 3.13 247 11:40 06.04.2020
115 Clouds 4 1005 80 0 4.47 203 10:53 06.04.2020
116 Clouds 4 1005 80 0 4.47 203 10:53 06.04.2020
117 Clouds 4 1005 80 0 4.47 203 10:53 06.04.2020
118 Clouds 4 1005 80 0 4.47 203 10:53 06.04.2020
119 Clouds 4 1005 80 0 4.47 203 10:53 06.04.2020
120 Clouds 4 1006 78 0 3.13 252 10:23 06.04.2020
121 Clouds 4 1006 78 0 3.13 252 10:23 06.04.2020
122 Clouds 4 1006 78 0 3.13 252 10:23 06.04.2020
123 Clouds 4 1006 78 0 3.13 252 10:23 06.04.2020
124 Clouds 4 1006 78 0 3.13 252 10:23 06.04.2020
125 Clouds 4 1006 76 0 1.34 125 09:57 06.04.2020
126 Clouds 4 1006 76 0 1.34 125 09:57 06.04.2020
127 Clouds 4 1006 76 0 1.34 125 09:55 06.04.2020
128 Clouds 4 1006 76 0 1.34 125 09:55 06.04.2020
129 Clouds 4 1006 76 0 1.34 125 09:55 06.04.2020
130 Clouds 4 1006 74 0 1.34 106 09:26 06.04.2020
131 Clouds 4 1006 75 0 1.34 258 08:55 06.04.2020
132 Clouds 4 1006 75 0 1.34 258 08:55 06.04.2020
133 Clouds 4 1006 75 0 2.68 111 08:36 06.04.2020
134 Clouds 4 1006 75 0 2.68 111 08:36 06.04.2020
135 Clouds 4 1006 75 0 2.68 111 08:36 06.04.2020
136 Clouds 4 1006 73 0 3.58 220 07:56 06.04.2020
137 Clouds 5 1006 73 0 3.58 151 07:19 06.04.2020
138 Clouds 5 1005 74 0 3.58 172 06:26 06.04.2020
139 Clouds 5 1005 75 0 3.58 161 05:40 06.04.2020
140 Clouds 5 1005 75 0 3.58 161 05:39 06.04.2020
141 Clouds 5 1005 75 0 4.02 146 05:28 06.04.2020
142 Clouds 8 1004 68 0 3.13 158 03:29 06.04.2020
143 Clouds 9 1004 62 0 3.13 162 02:48 06.04.2020
144 Clouds 10 1004 56 0 2.68 223 01:52 06.04.2020
145 Clouds 12 1003 49 0 3.13 106 00:51 06.04.2020
146 Clouds 12 1004 47 0 4.02 119 00:27 06.04.2020
147 Clouds 12 1004 47 0 4.02 119 00:27 06.04.2020
148 Clouds 14 1004 39 0 4.02 237 23:49 05.04.2020
149 Clouds 13 1004 41 0 3.58 204 23:30 05.04.2020
150 Clouds 13 1004 41 0 3.58 204 23:30 05.04.2020
151 Clouds 13 1004 42 0 4.47 239 22:56 05.04.2020
152 Clouds 13 1004 43 0 4.02 225 22:38 05.04.2020
153 Clouds 13 1004 43 0 4.02 225 22:38 05.04.2020
154 Clouds 13 1005 46 0 4.47 150 22:19 05.04.2020
155 Clouds 13 1005 43 0 3.58 272 21:58 05.04.2020
156 Clouds 11 1005 48 0 4.02 250 21:39 05.04.2020
157 Clouds 11 1005 48 0 2.68 212 21:21 05.04.2020
158 Clear 9 1006 56 0 1.34 199 20:21 05.04.2020
159 Clear 11 1006 53 0 2.68 237 19:41 05.04.2020
160 Clear 12 1006 51 0 2.68 228 19:22 05.04.2020
161 Clear 11 1005 52 0 2.68 189 18:47 05.04.2020
162 Clouds 9 1005 56 0 3.13 245 17:59 05.04.2020
163 Clouds 9 1005 56 0 3.13 245 17:59 05.04.2020
164 Clouds 9 1005 56 0 3.13 245 17:59 05.04.2020
165 Clouds 9 1005 56 0 3.13 245 17:59 05.04.2020
166 Clouds 9 1005 57 0 3.13 202 17:40 05.04.2020
167 Clouds 9 1005 57 0 3.13 202 17:40 05.04.2020
168 Clouds 9 1005 57 0 3.13 202 17:40 05.04.2020
169 Clouds 9 1005 57 0 3.13 202 17:40 05.04.2020
170 Clouds 9 1005 57 0 3.13 202 17:40 05.04.2020
171 Clouds 8 1005 60 0 2.68 257 17:20 05.04.2020
172 Clouds 7 1005 62 0 3.13 220 16:46 05.04.2020
173 Clouds 7 1005 62 0 3.13 220 16:46 05.04.2020
174 Clouds 7 1005 62 0 3.13 220 16:46 05.04.2020
175 Clouds 7 1005 62 0 3.13 220 16:46 05.04.2020
176 Clouds 7 1005 62 0 3.13 220 16:46 05.04.2020
177 Clouds 6 1004 66 0 3.58 245 16:18 05.04.2020
178 Clouds 5 1004 66 0 2.24 123 15:45 05.04.2020
179 Clouds 5 1004 65 0 1.79 200 15:25 05.04.2020
180 Clouds 17 1005 47 0 3.11 211 14:48 05.04.2020
181 Clouds 17 1005 47 0 3.11 211 14:48 05.04.2020
182 Clouds 17 1005 47 0 3.11 211 14:48 05.04.2020
183 Clouds 17 1005 47 0 3.11 211 14:48 05.04.2020
184 Clear 17 1005 46 0 3.13 215 13:47 05.04.2020
185 Clear 17 1005 46 0 3.13 215 13:47 05.04.2020
186 Clear 17 1005 46 0 3.13 215 13:01 05.04.2020
187 Clear 18 1004 40 0 3.47 213 11:58 05.04.2020
188 Clear 18 1004 40 0 3.47 213 11:39 05.04.2020
189 Clear 18 1004 40 0 3.47 213 11:19 05.04.2020
190 Clear 18 1004 40 0 3.47 213 10:46 05.04.2020
191 Clear 18 1004 40 0 3.47 213 10:45 05.04.2020
192 Clear 18 1004 40 0 3.47 213 10:21 05.04.2020
193 Clear 7 1004 50 0 0.89 161 09:52 05.04.2020
194 Clear 7 1004 50 0 0.89 161 09:52 05.04.2020
195 Clear 7 1004 49 0 0.45 313 09:25 05.04.2020
196 Clear 7 1004 49 0 0.45 313 09:25 05.04.2020
197 Clear 7 1004 49 0 0.45 313 09:25 05.04.2020
198 Clear 7 1004 49 0 0.45 313 09:25 05.04.2020
199 Clear 7 1004 49 0 0.45 313 09:25 05.04.2020
200 Clear 9 1003 42 0 1.34 173 07:58 05.04.2020
201 Clear 13 1003 32 0 3.13 218 05:37 05.04.2020
202 Clear 13 1003 32 0 3.13 218 05:37 05.04.2020
203 Clear 14 1003 28 0 4.47 236 03:58 05.04.2020
204 Clear 15 1003 30 0 3.58 260 03:24 05.04.2020
205 Clear 18 1003 23 0 4.47 223 02:18 05.04.2020
206 Clear 17 1003 25 0 4.47 200 01:42 05.04.2020
207 Clear 16 1003 26 0 4.92 230 01:18 05.04.2020
208 Clear 16 1003 26 0 4.92 230 01:18 05.04.2020
209 Clear 16 1004 25 0 3.13 266 00:37 05.04.2020
210 Clear 18 1004 24 0 2.68 247 00:18 05.04.2020
211 Clear 18 1005 23 0 2.24 229 23:41 04.04.2020
212 Clear 18 1005 22 0 2.24 175 23:21 04.04.2020
213 Clear 25 1005 19 0 5.29 165 22:57 04.04.2020
214 Clear 25 1005 19 0 5.29 165 22:39 04.04.2020
215 Clear 25 1005 19 0 5.29 165 22:20 04.04.2020
216 Clear 25 1005 19 0 5.29 165 21:57 04.04.2020
217 Clear 25 1005 19 0 5.29 165 21:39 04.04.2020
218 Clear 22 1008 22 0 3.62 153 21:19 04.04.2020
219 Clear 22 1008 23 0 3.54 156 20:55 04.04.2020
220 Clear 22 1008 22 0 3.67 159 20:37 04.04.2020
221 Clear 22 1008 23 0 3.54 156 20:19 04.04.2020
222 Clear 22 1008 23 0 3.54 156 19:42 04.04.2020
223 Clear 22 1008 23 0 3.54 156 19:21 04.04.2020
224 Clear 22 1008 22 0 3.67 159 18:59 04.04.2020
225 Clear 22 1008 23 0 3.54 156 18:40 04.04.2020
226 Clear 13 1008 35 0 0.45 122 18:21 04.04.2020
227 Clear 12 1008 37 0 1.46 177 17:59 04.04.2020
228 Clear 11 1008 39 0 0.45 146 17:39 04.04.2020
229 Clear 11 1008 39 0 0.45 146 17:39 04.04.2020
230 Clear 8 1008 46 0 1.4 173 17:19 04.04.2020
231 Clear 19 1009 27 0 1.4 173 16:46 04.04.2020
232 Clear 19 1009 27 0 1.4 173 16:27 04.04.2020
233 Clear 19 1009 27 0 1.46 177 15:59 04.04.2020
234 Clear 19 1009 27 0 1.4 173 15:39 04.04.2020
235 Clear 19 1009 27 0 1.4 173 15:20 04.04.2020
236 Clear 19 1009 27 0 1.4 173 15:20 04.04.2020
237 Clear 18 1008 29 0 0.73 226 14:56 04.04.2020
238 Clear 18 1008 29 0 0.73 226 14:38 04.04.2020
239 Clear 18 1008 29 0 0.86 224 14:20 04.04.2020
240 Clear 18 1008 29 0 0.86 224 13:54 04.04.2020
241 Clear 18 1008 29 0 0.86 224 13:36 04.04.2020
242 Clear 18 1008 29 0 0.86 224 13:18 04.04.2020
243 Clear 18 1008 29 0 0.86 224 12:43 04.04.2020
244 Clear 18 1008 29 0 0.86 224 12:23 04.04.2020
245 Clear 20 1008 26 0 1.18 189 11:55 04.04.2020
246 Clear 20 1008 26 0 1.18 189 11:36 04.04.2020
247 Clear 20 1008 26 0 1.18 189 11:18 04.04.2020
248 Clear 20 1008 26 0 1.18 189 10:55 04.04.2020
249 Clear 20 1008 26 0 1.18 189 10:37 04.04.2020
250 Clear 20 1008 26 0 1.18 189 10:18 04.04.2020
251 Clear 20 1008 26 0 1.18 189 09:54 04.04.2020
252 Clear 20 1008 26 0 1.18 189 09:36 04.04.2020
253 Clear 21 1009 24 0 0.78 162 09:18 04.04.2020
254 Clear 21 1009 24 0 0.78 162 08:38 04.04.2020
255 Clear 21 1009 24 0 0.78 162 08:19 04.04.2020
256 Clear 21 1009 24 0 0.78 162 07:41 04.04.2020
257 Clear 21 1009 24 0 0.78 162 07:23 04.04.2020
258 Clear 21 1009 24 0 0.78 162 06:47 04.04.2020
259 Clear 23 1008 21 0 1.31 118 06:18 04.04.2020
260 Clear 10 1008 33 0 1.31 118 05:41 04.04.2020
261 Clear 11 1008 30 0 1.31 118 05:23 04.04.2020
262 Clear 12 1008 26 0 1.79 360 04:27 04.04.2020
263 Clear 16 1008 22 0 0.89 50 03:49 04.04.2020
264 Clouds 19 1008 18 0 1.79 34 02:50 04.04.2020
265 Clouds 25 1008 19 0 2 142 02:32 04.04.2020
266 Clouds 25 1008 19 0 1.96 132 01:53 04.04.2020
267 Clouds 25 1008 19 0 1.96 132 01:24 04.04.2020
268 Clouds 25 1008 19 0 1.96 132 00:48 04.04.2020
269 Clouds 25 1008 19 0 1.96 132 00:28 04.04.2020
270 Clouds 24 1010 19 0 1.54 132 23:39 03.04.2020
271 Clouds 24 1010 19 0 1.54 132 23:21 03.04.2020
272 Clouds 24 1010 19 0 1.54 132 22:58 03.04.2020
273 Clouds 24 1010 19 0 1.54 132 22:39 03.04.2020
274 Clouds 24 1010 19 0 1.54 132 22:18 03.04.2020
275 Clouds 24 1010 19 0 1.54 132 22:18 03.04.2020
276 Clouds 24 1010 19 0 1.54 132 21:44 03.04.2020
277 Clouds 24 1010 19 0 1.9 135 21:25 03.04.2020
278 Clouds 22 1013 21 0 1.78 125 20:57 03.04.2020
279 Clouds 22 1013 21 0 1.78 125 20:38 03.04.2020
280 Clouds 22 1013 21 0 1.78 125 20:20 03.04.2020
281 Clouds 22 1013 21 0 1.78 125 19:57 03.04.2020
282 Clouds 22 1013 21 0 1.78 125 19:39 03.04.2020
283 Clouds 22 1013 21 0 1.78 125 19:21 03.04.2020
284 Clouds 22 1013 21 0 1.78 125 18:59 03.04.2020
285 Clouds 22 1013 21 0 1.78 125 18:59 03.04.2020
286 Clouds 14 1013 28 0 1.34 40 18:41 03.04.2020
287 Clouds 14 1013 29 0 1.34 94 18:23 03.04.2020
288 Clouds 12 1013 34 0 0.89 94 17:57 03.04.2020
289 Clouds 10 1013 35 0 0.19 107 17:39 03.04.2020
290 Clouds 7 1013 44 0 0.19 107 17:18 03.04.2020
291 Clouds 19 1014 25 0 0.19 107 16:45 03.04.2020
292 Clouds 19 1014 25 0 0.19 107 16:22 03.04.2020
293 Clouds 19 1014 25 0 0.19 107 15:58 03.04.2020
294 Clouds 19 1014 25 0 0.19 107 15:40 03.04.2020
295 Clouds 19 1014 25 0 0.19 107 15:21 03.04.2020
296 Clear 17 1013 29 0 0.08 21 14:56 03.04.2020
297 Clear 17 1013 29 0 0.08 21 14:38 03.04.2020
298 Clear 17 1013 29 0 0.08 21 14:20 03.04.2020
299 Clear 17 1014 29 0 0.27 67 13:43 03.04.2020
300 Clear 17 1014 29 0 0.27 67 13:25 03.04.2020
301 Clear 17 1014 29 0 0.27 67 12:56 03.04.2020
302 Clear 17 1014 29 0 0.27 67 12:37 03.04.2020
303 Clear 19 1013 27 0 0.43 353 12:18 03.04.2020
304 Clear 19 1013 27 0 0.43 353 11:54 03.04.2020
305 Clear 19 1013 27 0 0.43 353 11:36 03.04.2020
306 Clear 19 1013 27 0 0.43 353 11:18 03.04.2020
307 Clear 19 1013 27 0 0.43 353 10:54 03.04.2020
308 Clear 19 1013 27 0 0.43 353 10:36 03.04.2020
309 Clear 19 1013 27 0 0.43 353 10:18 03.04.2020
310 Clear 19 1013 27 0 0.43 353 09:40 03.04.2020
311 Clear 18 1014 27 0 0.83 13 09:22 03.04.2020
312 Clear 20 1014 25 0 0.47 343 08:57 03.04.2020
313 Clear 20 1014 25 0 0.47 343 08:39 03.04.2020
314 Clear 20 1014 25 0 0.47 343 08:20 03.04.2020
315 Clear 20 1014 25 0 0.47 343 07:50 03.04.2020
316 Clear 20 1014 25 0 0.47 343 07:31 03.04.2020
317 Clear 20 1014 25 0 0.47 343 06:50 03.04.2020
318 Clear 20 1014 25 0 0.47 343 06:25 03.04.2020
319 Clear 8 1011 35 0 0.71 30 05:40 03.04.2020
320 Clear 14 1010 21 0 1.34 31 03:45 03.04.2020
321 Clear 14 1010 20 0 2.24 45 03:23 03.04.2020
322 Clear 23 1011 19 0 1.78 12 02:28 03.04.2020
323 Clear 23 1011 19 0 1.73 25 01:23 03.04.2020
324 Clear 23 1011 19 0 1.73 25 00:40 03.04.2020
325 Clear 22 1013 20 0 3.04 8 00:20 03.04.2020
326 Clear 22 1013 20 0 3.04 8 23:42 02.04.2020
327 Clear 22 1013 20 0 3.04 8 23:23 02.04.2020
328 Clear 22 1013 20 0 3.04 8 22:59 02.04.2020
329 Clear 22 1013 20 0 3.04 8 22:41 02.04.2020
330 Clear 22 1013 20 0 3.04 8 22:20 02.04.2020
331 Clear 22 1013 20 0 3.04 8 21:55 02.04.2020
332 Clear 22 1013 20 0 3.04 8 21:36 02.04.2020
333 Clear 20 1014 24 0 4.51 6 21:18 02.04.2020
334 Clear 20 1014 24 0 4.51 6 20:42 02.04.2020
335 Clear 20 1014 24 0 4.51 6 20:22 02.04.2020
336 Clear 20 1014 24 0 4.51 6 19:55 02.04.2020
337 Clear 20 1014 24 0 4.51 6 19:37 02.04.2020
338 Clear 20 1014 24 0 4.51 6 19:18 02.04.2020
339 Clear 11 1011 25 0 1.79 310 18:41 02.04.2020
340 Clear 10 1011 26 0 2.24 334 18:21 02.04.2020
341 Clear 10 1011 26 0 2.24 334 18:21 02.04.2020
342 Clear 9 1011 26 0 2.68 299 17:57 02.04.2020
343 Clear 8 1010 28 0 3.13 335 17:39 02.04.2020
344 Clear 7 1010 30 0 4.02 327 17:20 02.04.2020
345 Clear 6 1010 31 0 4.02 334 16:57 02.04.2020
346 Clear 6 1009 32 0 3.13 336 16:39 02.04.2020
347 Clear 5 1008 33 0 3.13 333 16:21 02.04.2020
348 Clear 4 1008 33 0 1.79 330 15:55 02.04.2020
349 Clear 4 1008 33 0 2.68 325 15:37 02.04.2020
350 Clear 4 1008 36 0 3.13 318 15:18 02.04.2020
351 Clear 4 1007 37 0 1.34 339 14:40 02.04.2020
352 Clear 6 1007 33 0 4.02 341 14:21 02.04.2020
353 Clear 6 1007 33 0 4.02 341 13:59 02.04.2020
354 Clear 6 1007 33 0 2.68 318 13:40 02.04.2020
355 Clear 6 1006 36 0 2.24 325 13:21 02.04.2020
356 Clear 17 1010 31 0 2.87 349 12:57 02.04.2020
357 Clear 17 1010 31 0 2.87 349 12:39 02.04.2020
358 Clear 19 1008 31 0 2.41 313 12:19 02.04.2020
359 Clear 19 1008 31 0 2.41 313 12:19 02.04.2020
360 Clear 19 1008 31 0 2.41 313 12:19 02.04.2020
361 Clear 19 1008 31 0 2.41 313 12:19 02.04.2020
362 Clear 19 1008 31 0 2.41 313 11:57 02.04.2020
363 Clear 19 1008 31 0 2.41 313 11:38 02.04.2020
364 Clear 19 1008 31 0 2.41 313 11:19 02.04.2020
365 Clear 19 1008 31 0 2.41 313 11:19 02.04.2020
366 Clear 19 1008 31 0 2.41 313 10:55 02.04.2020
367 Clear 19 1008 31 0 2.41 313 10:37 02.04.2020
368 Clear 19 1008 31 0 2.41 313 10:19 02.04.2020
369 Clear 19 1008 31 0 2.41 313 09:56 02.04.2020
370 Clear 19 1008 31 0 2.41 313 09:38 02.04.2020
371 Clear 22 1005 24 0 3.5 226 09:19 02.04.2020
372 Clear 22 1005 24 0 3.7 238 08:46 02.04.2020
373 Clear 22 1005 24 0 3.7 238 08:26 02.04.2020
374 Clear 11 1004 33 0 0.89 82 07:45 02.04.2020
375 Clear 11 1004 32 0 1.34 2 07:21 02.04.2020
376 Clear 12 1004 31 0 1.79 92 06:59 02.04.2020
377 Clear 12 1003 30 0 3.7 238 06:22 02.04.2020
378 Clear 26 1003 19 0 3.61 260 05:45 02.04.2020
379 Clear 14 1002 24 0 3.13 235 04:46 02.04.2020
380 Clear 22 1001 13 0 3.58 240 01:54 02.04.2020
381 Clear 22 1002 13 0 3.58 252 00:54 02.04.2020
382 Clear 30 1002 14 0 4.14 213 00:31 02.04.2020
383 Clear 27 1005 24 0 2.81 174 23:59 01.04.2020
384 Clear 22 1003 28 0 2.68 27 23:38 01.04.2020
385 Clear 27 1005 24 0 2.81 174 23:18 01.04.2020
386 Clear 27 1005 24 0 2.81 174 22:41 01.04.2020
387 Clear 27 1005 24 0 2.81 174 22:22 01.04.2020
388 Clear 27 1005 24 0 2.81 174 21:58 01.04.2020
389 Clear 21 1005 34 0 2.68 45 21:39 01.04.2020
390 Clear 24 1008 33 0 2.65 162 21:19 01.04.2020
391 Clear 24 1008 33 0 2.65 162 20:56 01.04.2020
392 Clear 19 1006 37 0 2.24 50 20:38 01.04.2020
393 Clear 24 1008 33 0 2.65 162 20:19 01.04.2020
394 Clear 24 1008 33 0 2.65 162 19:57 01.04.2020
395 Clear 24 1008 33 0 2.65 162 19:37 01.04.2020
396 Clear 24 1008 33 0 2.65 162 19:37 01.04.2020
397 Clear 18 1007 40 0 1.34 54 19:19 01.04.2020
398 Clear 17 1007 41 0 1.34 67 18:41 01.04.2020
399 Clear 16 1007 43 0 1.34 76 18:22 01.04.2020
400 Clear 14 1007 46 0 0.89 50 17:57 01.04.2020
401 Clear 13 1007 48 0 1.34 59 17:37 01.04.2020
402 Clear 11 1007 57 0 0.45 63 17:19 01.04.2020
403 Clear 10 1007 62 0 0.89 59 16:56 01.04.2020
404 Clear 8 1007 67 0 0.45 45 16:38 01.04.2020
405 Clear 21 1008 39 0 1.28 188 16:20 01.04.2020
406 Clear 21 1008 39 0 1.28 188 15:43 01.04.2020
407 Clear 21 1008 39 0 1.28 188 15:24 01.04.2020
408 Clouds 20 1008 40 0 0.5 246 14:59 01.04.2020
409 Clouds 20 1008 40 0 0.5 246 14:40 01.04.2020
410 Clouds 20 1008 40 0 0.5 246 14:40 01.04.2020
411 Clouds 20 1008 40 0 0.5 246 14:21 01.04.2020
412 Clouds 20 1008 40 0 0.7 240 13:59 01.04.2020
413 Clouds 20 1008 40 0 0.7 240 13:39 01.04.2020
414 Clouds 20 1008 40 0 0.7 240 13:20 01.04.2020
415 Clouds 20 1008 40 0 0.7 240 12:58 01.04.2020
416 Clouds 20 1008 40 0 0.7 240 12:40 01.04.2020
417 Clouds 20 1008 40 0 0.7 240 12:21 01.04.2020
418 Clouds 22 1010 35 0 0.54 255 11:57 01.04.2020
419 Clouds 22 1010 35 0 0.54 255 11:37 01.04.2020
420 Clouds 22 1010 35 0 0.54 255 11:37 01.04.2020
421 Clouds 22 1010 35 0 0.54 255 11:19 01.04.2020
422 Clouds 22 1010 35 0 0.54 255 10:40 01.04.2020
423 Clouds 22 1010 35 0 0.54 255 10:21 01.04.2020
424 Clouds 22 1010 35 0 0.54 255 09:59 01.04.2020
425 Clouds 22 1010 35 0 0.54 255 09:40 01.04.2020
426 Clouds 22 1010 35 0 0.54 255 09:20 01.04.2020
427 Clouds 23 1011 27 0 0.84 195 08:56 01.04.2020
428 Clouds 23 1011 27 0 0.84 195 08:37 01.04.2020
429 Clouds 23 1011 27 0 0.84 195 08:18 01.04.2020
430 Clouds 23 1011 27 0 0.84 195 07:41 01.04.2020
431 Clouds 23 1011 27 0 0.84 195 07:19 01.04.2020
432 Clouds 23 1011 27 0 0.84 195 06:47 01.04.2020
433 Clouds 23 1011 27 0 0.84 195 06:21 01.04.2020
434 Clouds 25 1011 22 0 1.67 169 05:50 01.04.2020
435 Clouds 16 1012 36 0 1.34 110 04:29 01.04.2020
436 Clouds 22 1012 24 0 0.89 106 03:21 01.04.2020
437 Clouds 22 1012 24 0 2.68 10 02:41 01.04.2020
438 Clouds 27 1011 17 0 2.29 152 01:53 01.04.2020
439 Clouds 27 1011 17 0 2.29 152 01:27 01.04.2020
440 Clouds 27 1011 17 0 2.29 152 00:47 01.04.2020
441 Clouds 27 1011 17 0 2.29 152 00:25 01.04.2020
442 Clouds 26 1015 18 0 2.03 130 23:59 31.03.2020
443 Clouds 26 1015 18 0 2.03 130 23:41 31.03.2020
444 Clouds 26 1015 18 0 2.03 130 23:22 31.03.2020
445 Clouds 26 1015 18 0 2.03 130 22:42 31.03.2020
446 Clouds 26 1015 18 0 2.03 130 22:22 31.03.2020
447 Clouds 26 1015 18 0 2.03 130 21:59 31.03.2020
448 Clouds 26 1015 18 0 2.03 130 21:59 31.03.2020
449 Clouds 26 1015 18 0 2.03 130 21:41 31.03.2020
450 Clear 26 1015 18 0 2.31 134 21:22 31.03.2020
451 Clear 24 1018 21 0 1.42 109 20:58 31.03.2020
452 Clear 24 1018 21 0 1.42 109 20:38 31.03.2020
453 Clear 24 1018 21 0 1.42 109 20:20 31.03.2020
454 Clear 24 1018 21 0 1.42 109 19:59 31.03.2020
455 Clear 24 1018 21 0 1.42 109 19:40 31.03.2020
456 Clear 24 1018 21 0 1.42 109 19:21 31.03.2020
457 Clear 24 1018 21 0 1.42 109 18:55 31.03.2020
458 Clear 17 1020 34 0 0.89 92 18:37 31.03.2020
459 Clear 21 1019 27 0 0.25 94 18:18 31.03.2020
460 Clear 14 1020 39 0 0.45 78 17:54 31.03.2020
461 Clear 13 1020 41 0 0.25 94 17:36 31.03.2020
462 Clear 10 1020 50 0 0.89 277 17:18 31.03.2020
463 Clear 21 1019 27 0 0.25 94 16:38 31.03.2020
464 Clear 21 1019 27 0 0.25 94 16:19 31.03.2020
465 Clear 21 1019 27 0 0.25 94 15:57 31.03.2020
466 Clear 21 1019 27 0 0.25 94 15:38 31.03.2020
467 Clear 18 1019 32 0 0.66 342 15:19 31.03.2020
468 Clear 18 1019 32 0 0.66 342 14:56 31.03.2020
469 Clear 18 1019 32 0 0.66 342 14:38 31.03.2020
470 Clear 18 1018 32 0 0.48 352 14:20 31.03.2020
471 Clear 18 1018 32 0 0.48 352 13:42 31.03.2020
472 Clear 18 1018 32 0 0.48 352 13:19 31.03.2020
473 Clear 18 1018 32 0 0.48 352 12:55 31.03.2020
474 Clear 18 1018 32 0 0.48 352 12:37 31.03.2020
475 Clear 19 1020 30 0 0.36 197 12:18 31.03.2020
476 Clear 19 1020 30 0 0.36 197 11:39 31.03.2020
477 Clear 19 1020 30 0 0.36 197 11:20 31.03.2020
478 Clear 19 1020 30 0 0.36 197 10:58 31.03.2020
479 Clear 19 1020 30 0 0.36 197 10:40 31.03.2020
480 Clear 19 1020 30 0 0.36 197 10:21 31.03.2020
481 Clear 19 1020 30 0 0.36 197 09:56 31.03.2020
482 Clear 19 1020 30 0 0.36 197 09:37 31.03.2020
483 Clear 21 1021 27 0 1.05 200 09:19 31.03.2020
484 Clear 21 1021 27 0 1.05 200 08:56 31.03.2020
485 Clear 21 1021 27 0 1.05 200 08:56 31.03.2020
486 Clear 21 1021 27 0 1.05 200 08:37 31.03.2020
487 Clear 21 1021 27 0 1.05 200 08:19 31.03.2020
488 Clear 21 1021 27 0 1.05 200 07:55 31.03.2020
489 Clear 21 1021 27 0 1.05 200 07:37 31.03.2020
490 Clear 21 1021 27 0 1.05 200 07:18 31.03.2020
491 Clear 21 1021 27 0 1.05 200 06:42 31.03.2020
492 Clear 23 1020 23 0 0.82 157 05:57 31.03.2020
493 Clear 23 1020 23 0 0.82 157 05:38 31.03.2020
494 Clear 15 1021 27 0 0.89 116 03:27 31.03.2020
495 Clear 25 1018 19 0 2.21 165 01:52 31.03.2020
496 Clear 25 1018 19 0 2.21 165 01:33 31.03.2020
497 Clear 25 1018 19 0 2.21 165 00:46 31.03.2020
498 Clear 25 1018 19 0 2.21 165 00:24 31.03.2020
499 Clear 23 1021 22 0 2.24 157 23:41 30.03.2020
500 Clear 23 1021 22 0 2.24 157 23:20 30.03.2020
501 Clear 23 1021 22 0 2.24 157 22:58 30.03.2020
502 Clear 23 1021 22 0 2.24 157 22:39 30.03.2020
503 Clear 23 1021 22 0 2.24 157 22:20 30.03.2020
504 Clear 23 1021 22 0 2.24 157 21:58 30.03.2020
505 Clear 23 1021 22 0 2.24 157 21:39 30.03.2020
506 Clear 23 1021 22 0 2.24 157 21:20 30.03.2020
507 Clear 21 1023 29 0 2.32 142 20:59 30.03.2020
508 Clear 21 1023 29 0 2.32 142 20:39 30.03.2020
509 Clear 21 1023 29 0 2.32 142 20:20 30.03.2020
510 Clear 21 1023 29 0 2.32 142 20:20 30.03.2020
511 Clear 21 1023 29 0 2.32 142 20:20 30.03.2020
512 Clear 21 1023 29 0 2.32 142 19:57 30.03.2020
513 Clear 12 1025 42 0 0.89 181 19:39 30.03.2020
514 Clear 21 1023 29 0 2.32 142 19:20 30.03.2020
515 Clear 12 1025 45 0 0.45 125 18:43 30.03.2020
516 Clear 11 1024 46 0 0.89 130 18:25 30.03.2020
517 Clear 8 1024 58 0 0.74 117 17:58 30.03.2020
518 Clear 7 1024 60 0 0.74 117 17:39 30.03.2020
519 Clear 5 1024 70 0 0.45 106 17:21 30.03.2020
520 Clear 18 1022 37 0 0.74 117 16:59 30.03.2020
521 Clear 18 1022 37 0 0.74 117 16:40 30.03.2020
522 Clear 18 1022 37 0 0.74 117 16:20 30.03.2020
523 Clear 18 1022 37 0 0.74 117 15:56 30.03.2020
524 Clear 18 1022 37 0 0.74 117 15:38 30.03.2020
525 Clear 18 1022 37 0 0.74 117 15:38 30.03.2020
526 Clear 15 1020 44 0 0.83 254 15:20 30.03.2020
527 Clear 15 1020 44 0 0.83 254 14:56 30.03.2020
528 Clear 15 1020 44 0 0.83 254 14:37 30.03.2020
529 Clear 15 1020 44 0 0.83 254 14:18 30.03.2020
530 Clear 16 1020 40 0 1.01 269 13:56 30.03.2020
531 Clear 16 1020 40 0 1.01 269 13:37 30.03.2020
532 Clear 16 1020 40 0 1.01 269 13:19 30.03.2020
533 Clear 16 1020 40 0 1.01 269 12:44 30.03.2020
534 Clear 16 1020 40 0 1.01 269 12:21 30.03.2020
535 Clear 17 1019 39 0 0.69 263 11:58 30.03.2020
536 Clear 17 1019 39 0 0.69 263 11:39 30.03.2020
537 Clear 17 1019 39 0 0.69 263 11:21 30.03.2020
538 Clear 17 1019 39 0 0.69 263 10:55 30.03.2020
539 Clear 17 1019 39 0 0.69 263 10:36 30.03.2020
540 Clear 4 1020 68 0 0.89 339 10:18 30.03.2020
541 Clear 4 1020 69 0 1.34 331 09:40 30.03.2020
542 Clouds 18 1018 38 0 0.41 332 09:19 30.03.2020
543 Clouds 18 1018 38 0 0.41 332 08:56 30.03.2020
544 Clouds 18 1018 38 0 0.41 332 08:36 30.03.2020
545 Clouds 18 1018 38 0 0.41 332 08:18 30.03.2020
546 Clouds 18 1018 38 0 0.41 332 07:42 30.03.2020
547 Clouds 18 1018 38 0 0.41 332 07:20 30.03.2020
548 Clouds 18 1018 38 0 0.41 332 06:42 30.03.2020
549 Clouds 18 1018 38 0 0.41 332 06:23 30.03.2020
550 Clouds 19 1015 32 0 1.08 16 05:43 30.03.2020
551 Clouds 7 1017 60 0 0.45 349 04:29 30.03.2020
552 Clouds 8 1016 53 0 0.89 329 03:54 30.03.2020
553 Rain 9 1016 56 0 0.45 245 02:44 30.03.2020
554 Rain 8 1015 62 0 2.24 147 01:55 30.03.2020
555 Rain 20 1013 31 0 1.03 3 00:59 30.03.2020
556 Rain 7 1015 67 0 1.79 169 00:28 30.03.2020
557 Clouds 8 1016 63 0 2.24 184 23:56 29.03.2020
558 Clouds 7 1016 72 0 1.79 243 23:37 29.03.2020
559 Clouds 8 1015 47 0 2.24 223 23:18 29.03.2020
560 Clouds 9 1015 43 0 1.79 226 22:40 29.03.2020
561 Clouds 19 1015 33 0 1.62 20 22:20 29.03.2020
562 Clouds 19 1015 33 0 1.62 20 21:59 29.03.2020
563 Clouds 19 1015 33 0 1.62 20 21:38 29.03.2020
564 Clouds 19 1016 29 0 1.01 140 21:20 29.03.2020
565 Clouds 19 1016 29 0 1.01 140 20:55 29.03.2020
566 Clouds 19 1016 29 0 1.01 140 20:37 29.03.2020
567 Clouds 19 1016 29 0 1.01 140 20:19 29.03.2020
568 Clouds 11 1016 42 0 0.89 21 19:57 29.03.2020
569 Clouds 11 1016 42 0 0.89 21 19:57 29.03.2020
570 Clouds 11 1016 41 0 0.89 13 19:39 29.03.2020
571 Clouds 11 1016 41 0 0.89 13 19:39 29.03.2020
572 Clouds 10 1016 43 0 1.79 25 19:21 29.03.2020
573 Clouds 10 1016 42 0 1.34 40 18:57 29.03.2020
574 Clouds 10 1016 43 0 0.89 69 18:38 29.03.2020
575 Clouds 16 1016 35 0 1.34 226 18:19 29.03.2020
576 Clouds 9 1016 48 0 0.45 96 17:55 29.03.2020
577 Clouds 8 1015 52 0 1.34 226 17:37 29.03.2020
578 Clouds 4 1016 63 0 0.45 72 17:18 29.03.2020
579 Clouds 3 1016 68 0 0.45 75 16:56 29.03.2020
580 Clouds 16 1016 35 0 1.34 226 16:38 29.03.2020
581 Clouds 16 1016 35 0 1.34 226 16:18 29.03.2020
582 Clouds 16 1016 35 0 1.34 226 15:41 29.03.2020
583 Clouds 16 1016 35 0 1.34 226 15:23 29.03.2020
584 Clouds 16 1016 35 0 1.34 226 15:23 29.03.2020
585 Clouds 3 1015 65 0 1.51 218 14:58 29.03.2020
586 Clouds 3 1015 63 0 1.51 218 14:40 29.03.2020
587 Clouds 4 1015 62 0 1.34 6 14:20 29.03.2020
588 Clouds 4 1015 61 0 1.79 20 13:57 29.03.2020
589 Clouds 4 1015 61 0 0.89 31 13:39 29.03.2020
590 Clouds 4 1015 59 0 1.34 50 13:20 29.03.2020
591 Clouds 4 1015 59 0 1.79 18 12:55 29.03.2020
592 Clouds 4 1015 58 0 1.79 36 12:37 29.03.2020
593 Clouds 4 1015 61 0 0.89 26 12:19 29.03.2020
594 Clouds 4 1015 61 0 0.89 26 12:19 29.03.2020
595 Clouds 5 1016 58 0 0.45 45 11:55 29.03.2020
596 Clouds 5 1016 56 0 1.66 176 11:37 29.03.2020
597 Clouds 5 1016 57 0 0.45 83 11:18 29.03.2020
598 Clouds 5 1016 57 0 0.45 83 11:18 29.03.2020
599 Clouds 5 1016 55 0 0.45 100 10:38 29.03.2020
600 Clouds 6 1016 54 0 0.89 86 10:19 29.03.2020
601 Clouds 6 1017 52 0 0.89 180 09:41 29.03.2020
602 Clouds 6 1017 52 0 0.89 166 09:22 29.03.2020
603 Clouds 7 1017 52 0 0.89 155 08:56 29.03.2020
604 Clouds 7 1017 51 0 2.24 159 08:38 29.03.2020
605 Clouds 7 1017 53 0 0.89 220 08:19 29.03.2020
606 Clouds 6 1017 56 0 0.45 106 07:42 29.03.2020
607 Clouds 6 1017 56 0 0.45 106 07:21 29.03.2020
608 Clouds 6 1017 51 0 0.45 127 05:58 29.03.2020
609 Clouds 7 1017 45 0 1.34 181 04:55 29.03.2020
610 Clouds 9 1017 35 0 2.68 228 03:33 29.03.2020
611 Clouds 11 1018 34 0 2.24 235 01:52 29.03.2020
612 Clouds 10 1018 34 0 1.79 212 01:24 29.03.2020
613 Clouds 12 1018 30 0 2.68 207 00:58 29.03.2020
614 Clouds 12 1018 31 0 3.13 158 00:34 29.03.2020
615 Clouds 12 1018 34 0 2.24 210 23:59 28.03.2020
616 Clouds 13 1018 27 0 1.79 102 23:40 28.03.2020
617 Clouds 20 1015 25 0 4.02 164 23:22 28.03.2020
618 Clouds 19 1017 26 0 3.27 143 22:42 28.03.2020
619 Clouds 19 1017 26 0 3.27 143 22:22 28.03.2020
620 Clouds 19 1017 26 0 3.27 143 21:57 28.03.2020
621 Clouds 19 1017 26 0 3.27 143 21:39 28.03.2020
622 Clouds 19 1017 26 0 3.27 143 21:19 28.03.2020
623 Clouds 19 1017 26 0 3.27 143 20:56 28.03.2020
624 Clouds 19 1017 26 0 3.27 143 20:37 28.03.2020
625 Clouds 17 1020 30 0 2.6 133 20:19 28.03.2020
626 Clouds 17 1020 30 0 2.61 135 19:55 28.03.2020
627 Clouds 17 1020 30 0 2.61 135 19:36 28.03.2020
628 Clouds 17 1020 30 0 2.61 135 19:18 28.03.2020
629 Clouds 17 1020 30 0 2.61 135 18:41 28.03.2020
630 Clouds 17 1020 30 0 2.61 135 18:20 28.03.2020
631 Clouds 10 1022 39 0 1.34 54 17:43 28.03.2020
632 Clouds 9 1022 39 0 0.89 36 17:24 28.03.2020
633 Clouds 8 1022 47 0 0.89 77 16:59 28.03.2020
634 Clouds 7 1022 54 0 0.45 94 16:39 28.03.2020
635 Clouds 3 1023 69 0 1.31 140 16:18 28.03.2020
636 Clouds 15 1020 36 0 1.31 140 15:55 28.03.2020
637 Clouds 15 1020 36 0 1.31 140 15:37 28.03.2020
638 Clouds 15 1020 36 0 1.31 140 15:18 28.03.2020
639 Clouds 15 1020 36 0 1.31 140 14:41 28.03.2020
640 Clouds 15 1020 36 0 1.31 140 14:21 28.03.2020
641 Clear 14 1019 39 0 0.73 169 13:43 28.03.2020
642 Clear 14 1019 39 0 0.73 169 13:24 28.03.2020
643 Clear 14 1019 38 0 0.68 193 12:43 28.03.2020
644 Clear 14 1019 38 0 0.68 193 12:24 28.03.2020
645 Clear 14 1019 38 0 0.68 193 11:59 28.03.2020
646 Clear 14 1019 38 0 0.68 193 11:41 28.03.2020
647 Clear 14 1019 38 0 0.68 193 11:21 28.03.2020
648 Clear 15 1019 36 0 1.14 235 10:40 28.03.2020
649 Clear 15 1019 36 0 1.14 235 10:22 28.03.2020
650 Clear 15 1019 36 0 1.14 235 09:56 28.03.2020
651 Clear 15 1019 36 0 1.14 235 09:37 28.03.2020
652 Clear 15 1019 36 0 1.14 235 09:19 28.03.2020
653 Clear 15 1019 36 0 1.14 235 08:42 28.03.2020
654 Clear 15 1019 36 0 1.14 235 08:22 28.03.2020
655 Clear 17 1018 31 0 1.48 228 07:46 28.03.2020
656 Clear 17 1018 31 0 1.48 228 07:28 28.03.2020
657 Clear 17 1018 31 0 1.48 228 06:41 28.03.2020
658 Clear 17 1018 31 0 1.48 228 06:18 28.03.2020
659 Clear 17 1018 31 0 1.48 228 05:23 28.03.2020
660 Clear 18 1015 25 0 2.03 173 04:43 28.03.2020
661 Clear 18 1015 25 0 2.03 173 04:20 28.03.2020
662 Clear 9 1018 28 0 1.34 182 02:46 28.03.2020
663 Clear 11 1018 25 0 2.68 220 01:46 28.03.2020
664 Clear 12 1018 23 0 1.34 162 01:20 28.03.2020
665 Clear 20 1013 21 0 0.85 314 00:47 28.03.2020
666 Clear 20 1013 21 0 0.85 314 00:21 28.03.2020
667 Clear 20 1013 21 0 0.85 314 23:43 27.03.2020
668 Clear 20 1013 21 0 0.85 314 23:24 27.03.2020
669 Clear 12 1019 19 0 0.89 270 22:57 27.03.2020
670 Clear 11 1019 19 0 1.79 192 22:39 27.03.2020
671 Clear 9 1019 24 0 0.89 339 22:20 27.03.2020
672 Clear 9 1019 24 0 1.34 298 21:57 27.03.2020
673 Clear 9 1019 24 0 1.34 251 21:38 27.03.2020
674 Clear 9 1020 27 0 1.34 277 21:20 27.03.2020
675 Clear 9 1020 24 0 0.89 260 20:55 27.03.2020
676 Clear 9 1020 29 0 0.89 94 20:37 27.03.2020
677 Clear 8 1020 30 0 0.89 339 20:19 27.03.2020
678 Clear 8 1020 28 0 1.34 309 19:43 27.03.2020
679 Clear 8 1020 28 0 0.89 247 19:23 27.03.2020
680 Clear 7 1020 39 0 0.89 277 18:57 27.03.2020
681 Clear 6 1020 41 0 1.34 326 18:39 27.03.2020
682 Clear 3 1020 47 0 2.24 243 18:20 27.03.2020
683 Clear 3 1020 47 0 4.02 229 17:40 27.03.2020
684 Clear 3 1019 49 0 2.24 255 17:20 27.03.2020
685 Clear 2 1019 53 0 1.34 274 16:57 27.03.2020
686 Clear 2 1019 54 0 1.34 303 16:38 27.03.2020
687 Clear 0 1019 57 0 1.34 254 16:20 27.03.2020
688 Clear 14 1016 37 0 2.93 308 15:43 27.03.2020
689 Clear 14 1016 37 0 2.93 308 15:25 27.03.2020
690 Clear 14 1016 37 0 2.93 308 14:48 27.03.2020
691 Clear 14 1016 37 0 2.93 308 14:27 27.03.2020
692 Clouds 13 1014 41 0 1.77 296 13:58 27.03.2020
693 Clouds 13 1014 41 0 1.77 296 13:40 27.03.2020
694 Clouds 13 1014 40 0 1.71 293 13:21 27.03.2020
695 Clouds 13 1014 40 0 1.71 293 12:58 27.03.2020
696 Clouds 13 1014 40 0 1.71 293 12:39 27.03.2020
697 Clouds 13 1014 40 0 1.71 293 12:19 27.03.2020
698 Clouds 13 1014 40 0 1.71 293 11:42 27.03.2020
699 Clouds 13 1014 40 0 1.71 293 11:24 27.03.2020
700 Rain 14 1013 39 0 1.94 266 10:55 27.03.2020
701 Rain 14 1013 39 0 1.94 266 10:37 27.03.2020
702 Rain 14 1013 39 0 1.94 266 10:19 27.03.2020
703 Rain 14 1013 39 0 1.94 266 09:57 27.03.2020
704 Rain 14 1013 39 0 1.94 266 09:38 27.03.2020
705 Rain 14 1013 39 0 1.94 266 09:19 27.03.2020
706 Rain 14 1013 39 0 1.94 266 08:56 27.03.2020
707 Rain 14 1013 39 0 1.94 266 08:38 27.03.2020
708 Rain 14 1012 37 0 1 257 08:20 27.03.2020
709 Rain 14 1012 39 0 0.36 166 07:52 27.03.2020
710 Rain 14 1012 39 0 0.36 166 07:25 27.03.2020
711 Rain 14 1012 39 0 0.36 166 06:53 27.03.2020
712 Rain 14 1012 39 0 0.36 166 06:35 27.03.2020
713 Rain 14 1010 43 0 0.22 5 04:59 27.03.2020
714 Rain 14 1010 43 0 0.22 5 02:46 27.03.2020
715 Rain 16 1009 32 0 1.93 225 01:23 27.03.2020
716 Rain 16 1009 33 0 1.55 230 00:51 27.03.2020
717 Rain 16 1009 33 0 1.55 230 00:32 27.03.2020
718 Rain 16 1009 33 0 1.55 230 23:44 26.03.2020
719 Rain 16 1009 33 0 1.55 230 23:23 26.03.2020
720 Rain 16 1011 33 0 1.57 162 22:59 26.03.2020
721 Rain 16 1011 33 0 1.57 162 22:39 26.03.2020
722 Rain 16 1011 33 0 1.57 162 22:20 26.03.2020
723 Rain 16 1011 33 0 1.57 162 21:58 26.03.2020
724 Rain 16 1011 33 0 1.57 162 21:39 26.03.2020
725 Rain 16 1011 33 0 1.57 162 21:21 26.03.2020
726 Rain 16 1011 33 0 1.57 162 20:58 26.03.2020
727 Rain 16 1011 33 0 1.57 162 20:38 26.03.2020
728 Rain 14 1013 39 0 1.02 143 20:20 26.03.2020
729 Rain 14 1013 39 0 1.02 143 19:56 26.03.2020
730 Rain 14 1013 39 0 1.02 143 19:38 26.03.2020
731 Rain 14 1013 39 0 1.02 143 19:38 26.03.2020
732 Rain 14 1013 39 0 1.02 143 19:20 26.03.2020
733 Rain 14 1013 39 0 1.02 143 18:55 26.03.2020
734 Rain 14 1013 39 0 1.02 143 18:37 26.03.2020
735 Rain 14 1013 39 0 1.02 143 18:19 26.03.2020
736 Rain 14 1013 39 0 1.02 143 17:42 26.03.2020
737 Rain 12 1014 45 0 0.36 87 17:19 26.03.2020
738 Rain 12 1014 45 0 0.36 87 17:19 26.03.2020
739 Rain 12 1014 45 0 0.36 87 16:45 26.03.2020
740 Rain 12 1014 45 0 0.36 87 16:27 26.03.2020
741 Rain 12 1014 45 0 0.36 87 15:59 26.03.2020
742 Rain 12 1014 45 0 0.36 87 15:40 26.03.2020
743 Rain 12 1014 45 0 0.36 87 15:22 26.03.2020
744 Rain 12 1014 45 0 0.36 87 14:58 26.03.2020
745 Rain 12 1014 45 0 0.36 87 14:39 26.03.2020
746 Clear 12 1012 45 0 2.25 280 14:19 26.03.2020
747 Clear 12 1012 45 0 2.25 280 13:44 26.03.2020
748 Clear 12 1012 45 0 2.25 280 13:23 26.03.2020
749 Clouds 12 1012 46 0 2.1 282 12:57 26.03.2020
750 Clouds 12 1012 46 0 2.1 282 12:38 26.03.2020
751 Clouds 12 1012 46 0 2.1 282 12:19 26.03.2020
752 Clouds 12 1012 46 0 2.1 282 11:45 26.03.2020
753 Clouds 12 1012 46 0 2.1 282 11:22 26.03.2020
754 Clear 13 1011 40 0 2.88 233 10:56 26.03.2020
755 Clear 13 1011 40 0 2.88 233 10:37 26.03.2020
756 Clear 13 1011 40 0 2.88 233 10:19 26.03.2020
757 Clear 13 1011 40 0 2.88 233 09:44 26.03.2020
758 -273 0 0 0 0 0 09:20 26.03.2020
759 Clear 13 1011 40 0 2.88 233 08:55 26.03.2020
760 Clear 13 1011 40 0 2.88 233 08:37 26.03.2020
761 Clear 15 1010 41 0 4.75 219 08:18 26.03.2020
762 Clear 15 1010 41 0 4.75 219 07:44 26.03.2020
763 Clear 15 1010 41 0 4.75 219 07:22 26.03.2020
764 Clear 15 1010 41 0 4.75 219 06:56 26.03.2020
765 Clear 15 1010 41 0 4.75 219 05:59 26.03.2020
766 Clear 17 1007 31 0 7.84 221 04:49 26.03.2020
767 Clear 17 1007 31 0 7.84 221 03:44 26.03.2020
768 Clear 17 1007 31 0 7.84 221 02:55 26.03.2020
769 Clouds 21 1006 24 0 8.74 215 01:50 26.03.2020
770 Clouds 21 1006 24 0 8.48 218 00:55 26.03.2020
771 Clouds 21 1006 24 0 8.48 218 00:22 26.03.2020
772 Clouds 21 1006 24 0 8.48 218 23:41 25.03.2020
773 Clouds 21 1006 24 0 8.48 218 23:21 25.03.2020
774 Clouds 21 1009 24 0 4.59 207 22:42 25.03.2020
775 Clouds 21 1009 24 0 4.59 207 22:21 25.03.2020
776 Clouds 21 1009 24 0 4.59 207 21:56 25.03.2020
777 Clouds 21 1009 24 0 4.59 207 21:38 25.03.2020
778 Clouds 21 1009 24 0 4.59 207 21:20 25.03.2020
779 Clouds 21 1009 24 0 4.59 207 20:56 25.03.2020
780 Clouds 21 1009 24 0 4.59 207 20:37 25.03.2020
781 Clouds 18 1012 33 0 2.61 198 20:18 25.03.2020
782 Clouds 18 1012 33 0 2.61 198 20:18 25.03.2020
783 Clouds 18 1012 33 0 2.61 198 19:43 25.03.2020
784 Clouds 17 1013 33 0 2.32 198 19:23 25.03.2020
785 Clouds 17 1013 33 0 2.32 198 18:59 25.03.2020
786 Clouds 18 1012 33 0 2.61 198 18:40 25.03.2020
787 Clouds 18 1012 33 0 2.61 198 18:22 25.03.2020
788 Clouds 17 1013 33 0 2.32 198 17:56 25.03.2020
789 Clouds 18 1012 33 0 2.61 198 17:38 25.03.2020
790 Clouds 18 1012 33 0 2.61 198 17:38 25.03.2020
791 Clouds 15 1013 46 0 2.59 210 17:20 25.03.2020
792 Clouds 15 1013 46 0 2.74 211 16:55 25.03.2020
793 Clouds 15 1013 46 0 2.74 211 16:36 25.03.2020
794 Clouds 15 1013 46 0 2.74 211 16:18 25.03.2020
795 Clouds 15 1013 46 0 2.74 211 15:41 25.03.2020
796 Clouds 15 1013 46 0 2.74 211 15:20 25.03.2020
797 Clouds 15 1013 46 0 2.59 210 14:56 25.03.2020
798 Clouds 15 1013 46 0 2.74 211 14:37 25.03.2020
799 Clouds 15 1013 48 0 2.71 211 14:18 25.03.2020
800 Clouds 15 1013 48 0 2.71 211 13:42 25.03.2020
801 Clouds 15 1013 48 0 2.54 220 13:22 25.03.2020
802 Clouds 15 1013 48 0 2.54 220 12:38 25.03.2020
803 Clouds 15 1013 48 0 2.54 220 12:20 25.03.2020
804 Clouds 15 1013 48 0 2.54 220 11:56 25.03.2020
805 Clouds 15 1013 48 0 2.54 220 11:38 25.03.2020
806 Clouds 16 1013 45 0 3.01 221 11:20 25.03.2020
807 Clouds 16 1013 45 0 3.01 221 10:57 25.03.2020
808 Clouds 16 1013 45 0 3.01 221 10:39 25.03.2020
809 Clouds 16 1013 45 0 3.01 221 10:18 25.03.2020
810 Clouds 16 1013 45 0 3.01 221 09:43 25.03.2020
811 Clouds 16 1013 45 0 3.01 221 09:24 25.03.2020
812 Clouds 16 1013 45 0 3.01 221 08:57 25.03.2020
813 Clouds 16 1013 45 0 3.01 221 08:39 25.03.2020
814 Clouds 18 1013 41 0 3.86 222 08:19 25.03.2020
815 Clouds 18 1013 39 0 3.82 222 07:41 25.03.2020
816 Clouds 18 1013 39 0 3.82 222 07:22 25.03.2020
817 Clouds 18 1013 39 0 3.82 222 06:50 25.03.2020
818 Clouds 18 1013 39 0 3.82 222 06:28 25.03.2020
819 Clouds 18 1013 39 0 3.82 222 05:57 25.03.2020
820 Clouds 18 1013 39 0 3.82 222 05:37 25.03.2020
821 Clouds 20 1012 28 0 4.43 217 04:41 25.03.2020
822 Clouds 20 1012 28 0 4.43 217 03:52 25.03.2020
823 Clouds 20 1012 28 0 4.43 217 03:29 25.03.2020
824 Clouds 24 1012 21 0 4.44 209 01:31 25.03.2020
825 Clouds 24 1011 21 0 4.45 222 00:49 25.03.2020
826 Clouds 24 1011 21 0 4.45 222 00:26 25.03.2020
827 Clouds 24 1011 21 0 4.45 222 23:53 24.03.2020
828 Clouds 24 1011 21 0 4.45 222 23:28 24.03.2020
829 Clouds 22 1014 28 0 3.53 197 22:57 24.03.2020
830 Clouds 22 1014 28 0 3.53 197 22:38 24.03.2020
831 Clouds 22 1014 28 0 3.53 197 22:19 24.03.2020
832 Clouds 22 1014 28 0 3.53 197 22:19 24.03.2020
833 Clouds 22 1014 28 0 3.53 197 21:57 24.03.2020
834 Clouds 22 1014 28 0 3.53 197 21:39 24.03.2020
835 Clouds 22 1014 28 0 3.53 197 21:18 24.03.2020
836 Clouds 22 1014 28 0 3.53 197 20:57 24.03.2020
837 Clouds 22 1014 28 0 3.53 197 20:39 24.03.2020
838 Clouds 22 1014 28 0 3.53 197 20:21 24.03.2020
839 Clear 19 1017 41 0 3.56 175 19:46 24.03.2020
840 Clear 19 1017 41 0 3.56 175 19:20 24.03.2020
841 Clear 19 1017 41 0 3.56 175 18:56 24.03.2020
842 Clear 19 1017 41 0 3.56 175 18:38 24.03.2020
843 Clear 19 1017 41 0 3.56 175 18:20 24.03.2020
844 Clear 19 1017 41 0 3.56 175 17:56 24.03.2020
845 Clear 19 1017 41 0 3.56 175 17:38 24.03.2020
846 Clear 16 1017 53 0 2.15 173 17:20 24.03.2020
847 Clear 4 1017 87 0 0.45 67 16:56 24.03.2020
848 Clear 4 1017 89 0 0.89 30 16:37 24.03.2020
849 Clear 4 1017 92 0 0.89 84 16:19 24.03.2020
850 Clear 3 1017 93 0 0.45 33 15:42 24.03.2020
851 Clear 3 1017 94 0 0.45 33 15:24 24.03.2020
852 Clear 2 1017 94 0 2.19 234 14:44 24.03.2020
853 Clear 2 1017 94 0 2.19 234 14:44 24.03.2020
854 Clear 16 1017 53 0 2.15 173 14:23 24.03.2020
855 Clear 15 1017 54 0 1.41 189 13:59 24.03.2020
856 Clear 15 1017 54 0 1.41 189 13:41 24.03.2020
857 Clear 15 1017 54 0 1.41 189 13:22 24.03.2020
858 Clear 15 1017 52 0 0.88 201 12:43 24.03.2020
859 Clear 15 1017 52 0 0.88 201 12:25 24.03.2020
860 Clear 15 1017 52 0 0.88 201 11:56 24.03.2020
861 Clear 15 1017 52 0 0.88 201 11:37 24.03.2020
862 Clear 8 1017 66 0 3.28 244 11:18 24.03.2020
863 Clear 8 1017 66 0 3.28 244 10:41 24.03.2020
864 Clear 8 1017 66 0 3.28 244 10:19 24.03.2020
865 Clear 8 1017 66 0 3.28 244 10:19 24.03.2020
866 Clear 8 1017 66 0 3.28 244 09:48 24.03.2020
867 Clear 8 1017 66 0 3.28 244 09:27 24.03.2020
868 Clear 8 1017 66 0 3.28 244 08:58 24.03.2020
869 Clear 8 1017 66 0 3.28 244 08:38 24.03.2020
870 Clear 11 1017 55 0 2.39 243 08:20 24.03.2020
871 Clear 11 1017 55 0 2.39 243 07:45 24.03.2020
872 Clear 11 1017 55 0 2.39 243 07:22 24.03.2020
873 Clear 11 1017 55 0 2.39 243 06:42 24.03.2020
874 Clear 11 1017 55 0 2.39 243 06:23 24.03.2020
875 Clear 13 1016 42 0 0.97 224 04:53 24.03.2020
876 Clear 9 1016 62 0 0.97 224 03:43 24.03.2020
877 Clear 12 1015 52 0 0.97 224 02:45 24.03.2020
878 Clear 14 1014 35 0 1.69 177 01:38 24.03.2020
879 Clear 14 1015 52 0 1.34 40 00:42 24.03.2020
880 Clear 13 1015 56 0 2.68 15 00:22 24.03.2020
881 Clear 16 1015 52 0 1.34 64 23:39 23.03.2020
882 Clear 16 1015 53 0 2.24 68 23:21 23.03.2020
883 Clouds 15 1015 56 0 2.68 27 22:55 23.03.2020
884 Clouds 15 1015 57 0 2.24 64 22:36 23.03.2020
885 Clouds 14 1016 58 0 2.24 24 22:18 23.03.2020
886 Clouds 14 1016 61 0 1.79 27 21:42 23.03.2020
887 Clouds 13 1015 38 0 0.42 272 21:20 23.03.2020
888 Clouds 13 1015 38 0 0.42 272 20:57 23.03.2020
889 Clouds 13 1015 38 0 0.42 272 20:57 23.03.2020
890 Clouds 13 1016 67 0 1.34 50 20:38 23.03.2020
891 Clouds 9 1016 56 0 3.04 280 20:19 23.03.2020
892 Clouds 9 1016 56 0 3.04 280 20:19 23.03.2020
893 Clouds 9 1016 56 0 3.04 280 19:45 23.03.2020
894 Clouds 11 1016 74 0 1.79 59 19:27 23.03.2020
895 Clouds 9 1016 67 0 1.34 142 18:59 23.03.2020
896 Clouds 8 1016 68 0 0.45 229 18:40 23.03.2020
897 Clouds 8 1015 71 0 0.45 275 18:21 23.03.2020
898 Clouds 7 1015 83 0 3.04 280 17:43 23.03.2020
899 Clouds 6 1015 83 0 3.04 280 17:21 23.03.2020
900 Rain 6 1015 92 0 0.45 71 16:59 23.03.2020
901 Rain 4 1015 89 0 4.92 221 16:41 23.03.2020
902 Rain 4 1014 91 0 0.89 25 16:23 23.03.2020
903 Rain 3 1013 92 0 4.92 221 15:42 23.03.2020
904 Rain 3 1013 88 0 0.45 109 15:20 23.03.2020
905 Rain 3 1013 88 0 0.89 156 14:55 23.03.2020
906 Rain 3 1013 90 0 1.34 137 14:36 23.03.2020
907 Rain 3 1012 92 0 1.34 133 14:18 23.03.2020
908 Rain 3 1013 91 0 2.89 210 13:40 23.03.2020
909 Rain 3 1013 91 0 2.89 210 13:40 23.03.2020
910 Rain 3 1013 92 0 0.89 121 13:22 23.03.2020
911 Rain 3 1013 92 0 3.87 201 12:55 23.03.2020
912 Rain 3 1013 92 0 3.87 201 12:37 23.03.2020
913 Rain 3 1014 92 0 3.87 201 12:19 23.03.2020
914 Rain 3 1014 92 0 3.87 201 11:42 23.03.2020
915 Rain 8 1013 78 0 3.87 201 11:21 23.03.2020
916 Rain 9 1014 74 0 2.91 238 10:58 23.03.2020
917 Rain 4 1015 90 0 0.45 169 10:39 23.03.2020
918 Rain 4 1015 89 0 2.91 238 10:21 23.03.2020
919 Rain 4 1015 87 0 0.89 197 09:57 23.03.2020
920 Rain 4 1015 84 0 2.91 238 09:37 23.03.2020
921 Rain 5 1016 83 0 1.79 157 09:18 23.03.2020
922 Rain 6 1016 78 0 0.89 219 08:37 23.03.2020
923 Clouds 6 1016 75 0 1.34 241 08:19 23.03.2020
924 Clouds 7 1017 70 0 2.24 232 07:50 23.03.2020
925 Clouds 7 1017 70 0 2.24 232 07:50 23.03.2020
926 Clouds 7 1017 68 0 1.34 196 07:31 23.03.2020
927 Clouds 7 1017 67 0 1.34 253 06:53 23.03.2020
928 Clouds 8 1017 62 0 1.34 225 06:25 23.03.2020
929 Clouds 8 1017 58 0 0.45 123 05:42 23.03.2020
930 Clouds 8 1017 52 0 0.45 121 03:45 23.03.2020
931 Clouds 10 1016 43 0 0.45 196 02:40 23.03.2020
932 Clouds 13 1017 40 0 0.45 148 01:38 23.03.2020
933 Clouds 13 1014 44 0 0.87 211 00:44 23.03.2020
934 Clouds 13 1014 44 0 0.87 211 23:54 22.03.2020
935 Clouds 13 1014 44 0 0.87 211 23:36 22.03.2020
936 Clouds 13 1016 40 0 2.24 130 23:18 22.03.2020
937 Clouds 9 1020 68 0 0.89 356 22:40 22.03.2020
938 Clouds 8 1020 77 0 0.89 304 22:19 22.03.2020
939 Clouds 8 1020 70 0 2.68 340 21:40 22.03.2020
940 Clouds 8 1021 75 0 0.89 323 21:21 22.03.2020
941 Clouds 8 1021 71 0 0.89 320 20:58 22.03.2020
942 Clouds 8 1021 71 0 0.89 320 20:39 22.03.2020
943 Clouds 9 1021 58 0 1.34 330 20:21 22.03.2020
944 Clouds 9 1021 58 0 0.45 318 19:56 22.03.2020
945 Clouds 9 1021 54 0 0.45 267 19:37 22.03.2020
946 Clouds 11 1021 54 0 0.45 69 19:19 22.03.2020
947 Clouds 11 1021 53 0 0.89 29 18:57 22.03.2020
948 Clouds 9 1021 55 0 0.45 252 18:38 22.03.2020
949 Clouds 8 1021 64 0 0.45 293 18:18 22.03.2020
950 Clouds 7 1022 66 0 0.45 293 17:56 22.03.2020
951 Clouds 7 1022 66 0 0.89 246 17:37 22.03.2020
952 Clouds 6 1022 68 0 2.24 299 17:19 22.03.2020
953 Clouds 6 1022 70 0 1.34 347 16:55 22.03.2020
954 Clouds 6 1022 72 0 0.45 318 16:37 22.03.2020
955 Clouds 5 1022 75 0 1.34 322 16:19 22.03.2020
956 Clouds 5 1022 75 0 1.34 322 16:19 22.03.2020
957 Clouds 4 1022 78 0 1.79 322 15:39 22.03.2020
958 Clouds 3 1021 80 0 1.79 325 15:19 22.03.2020
959 Clouds 3 1021 79 0 1.79 331 14:46 22.03.2020
960 Clouds 3 1021 78 0 2.24 341 14:18 22.03.2020
961 Clouds 3 1021 80 0 1.34 289 13:42 22.03.2020
962 Clouds 2 1021 79 0 1.79 321 13:20 22.03.2020
963 Clouds 2 1021 78 0 0.45 297 12:57 22.03.2020
964 Clouds 8 1019 58 0 0.28 144 12:38 22.03.2020
965 Clouds 2 1021 77 0 0.28 144 12:18 22.03.2020
966 Clouds 3 1021 77 0 0.28 144 11:43 22.03.2020
967 Clouds 3 1021 77 0 0.45 239 11:24 22.03.2020
968 Clear 3 1021 76 0 0.45 274 10:58 22.03.2020
969 Clear 3 1021 77 0 0.45 269 10:39 22.03.2020
970 Clear 3 1021 77 0 1.34 324 10:21 22.03.2020
971 Clear 3 1021 77 0 1.34 247 09:43 22.03.2020
972 Clear 3 1021 77 0 1.34 247 09:43 22.03.2020
973 Clear 3 1021 77 0 1.34 281 09:24 22.03.2020
974 Clear 3 1021 80 0 1.34 268 08:48 22.03.2020
975 Clear 3 1021 80 0 1.34 268 08:48 22.03.2020
976 Clear 3 1021 81 0 2.24 325 08:29 22.03.2020
977 Clouds 3 1021 82 0 3.13 349 07:54 22.03.2020
978 Clouds 3 1021 82 0 2.68 340 07:36 22.03.2020
979 Clouds 3 1022 78 0 3.13 333 06:41 22.03.2020
980 Clouds 4 1022 73 0 1.34 286 05:47 22.03.2020
981 Clouds 7 1021 61 0 2.25 240 04:39 22.03.2020
982 Clouds 9 1019 46 0 2.68 234 01:45 22.03.2020
983 Clouds 9 1019 46 0 1.79 231 00:50 22.03.2020
984 Clouds 9 1019 46 0 2.24 231 00:31 22.03.2020
985 Clouds 9 1019 49 0 0.89 235 23:46 21.03.2020
986 Clouds 9 1019 48 0 0.45 132 23:22 21.03.2020
987 Clouds 9 1020 46 0 1.34 259 22:59 21.03.2020
988 Clouds 9 1020 42 0 1.79 199 22:38 21.03.2020
989 Clouds 10 1020 41 0 0.89 206 22:20 21.03.2020
990 Clouds 10 1020 41 0 1.38 154 21:58 21.03.2020
991 Clouds 11 1020 39 0 1.79 228 21:38 21.03.2020
992 Clouds 12 1018 37 0 1.38 154 21:20 21.03.2020
993 Clouds 12 1021 39 0 1.34 98 20:43 21.03.2020
994 Clouds 11 1021 39 0 0.89 77 20:22 21.03.2020
995 Clouds 10 1020 46 0 0.92 46 19:55 21.03.2020
996 Clouds 10 1020 46 0 0.92 46 19:37 21.03.2020
997 Clouds 10 1020 46 0 0.92 46 19:18 21.03.2020
998 Clouds 8 1022 56 0 0.89 321 18:41 21.03.2020
999 Clouds 8 1022 59 0 0.89 268 18:21 21.03.2020
1000 Clouds 6 1022 68 0 0.89 262 17:59 21.03.2020
1001 Clouds 5 1022 71 0 0.89 283 17:41 21.03.2020
1002 Clouds 4 1022 74 0 0.89 268 17:22 21.03.2020
1003 Clouds 4 1022 75 0 0.89 270 16:43 21.03.2020
1004 Clouds 4 1022 77 0 0.89 229 16:24 21.03.2020
1005 Clouds 3 1022 79 0 0.45 284 15:59 21.03.2020
1006 Clouds 3 1022 80 0 1.34 336 15:41 21.03.2020
1007 Clouds 3 1022 81 0 0.45 310 15:23 21.03.2020
1008 Clouds 3 1022 82 0 0.89 318 14:58 21.03.2020
1009 Clouds 3 1022 83 0 0.45 318 14:40 21.03.2020
1010 Clouds 2 1022 84 0 0.45 307 14:20 21.03.2020
1011 Clouds 2 1022 84 0 0.45 314 13:59 21.03.2020
1012 Clouds 2 1022 86 0 1.33 312 13:40 21.03.2020
1013 Clouds 2 1022 85 0 0.45 293 13:21 21.03.2020
1014 Clouds 2 1022 85 0 0.45 293 13:21 21.03.2020
1015 Clouds 3 1022 83 0 0.45 299 12:59 21.03.2020
1016 Clouds 3 1022 80 0 1.32 328 12:38 21.03.2020
1017 Clouds 3 1022 77 0 0.89 292 12:19 21.03.2020
1018 Clouds 3 1022 72 0 1.32 328 11:56 21.03.2020
1019 Clouds 3 1022 70 0 1.32 328 11:38 21.03.2020
1020 Clouds 4 1022 70 0 0.45 226 11:19 21.03.2020
1021 Clouds 3 1022 71 0 0.45 210 10:56 21.03.2020
1022 Clouds 3 1022 71 0 0.81 6 10:38 21.03.2020
1023 Clouds 3 1023 71 0 0.81 6 10:19 21.03.2020
1024 Clouds 3 1023 71 0 0.81 6 09:56 21.03.2020
1025 Clouds 3 1023 72 0 0.45 218 09:37 21.03.2020
1026 Clouds 3 1023 77 0 0.81 6 09:19 21.03.2020
1027 Clouds 3 1023 76 0 0.81 6 08:43 21.03.2020
1028 Clouds 3 1023 74 0 0.61 209 08:24 21.03.2020
1029 Clouds 10 1020 47 0 0.84 70 07:45 21.03.2020
1030 Clouds 10 1020 47 0 0.84 70 07:27 21.03.2020
1031 Clouds 3 1024 68 0 0.84 70 06:48 21.03.2020
1032 Clouds 3 1024 65 0 0.84 70 06:28 21.03.2020
1033 Clouds 3 1023 66 0 0.84 70 05:48 21.03.2020
1034 Clouds 5 1023 55 0 1.59 114 04:47 21.03.2020
1035 Clouds 7 1023 41 0 0.89 123 02:55 21.03.2020
1036 Clouds 8 1023 39 0 0.89 159 02:33 21.03.2020
1037 Clouds 11 1023 40 0 0.89 83 01:38 21.03.2020
1038 Clouds 11 1023 41 0 0.89 210 01:18 21.03.2020
1039 Clouds 9 1023 44 0 1.34 173 00:38 21.03.2020
1040 Clouds 9 1024 49 0 0.45 106 23:58 20.03.2020
1041 Clouds 7 1024 57 0 0.89 231 23:40 20.03.2020
1042 Clouds 9 1024 46 0 0.45 214 23:18 20.03.2020
1043 Clouds 12 1024 36 0 0.89 40 22:42 20.03.2020
1044 Clouds 11 1021 36 0 2.31 165 22:24 20.03.2020
1045 Clouds 11 1021 36 0 2.31 165 21:57 20.03.2020
1046 Clouds 11 1021 36 0 2.31 165 21:39 20.03.2020
1047 Clouds 11 1021 36 0 2.31 165 21:18 20.03.2020
1048 Clouds 11 1021 36 0 2.31 165 20:57 20.03.2020
1049 Clouds 11 1021 36 0 2.31 165 20:39 20.03.2020
1050 Clear 8 1023 48 0 1.45 161 20:18 20.03.2020
1051 Clear 8 1023 48 0 1.45 161 19:46 20.03.2020
1052 Clear 8 1023 48 0 1.45 161 19:19 20.03.2020
1053 Clear 8 1023 48 0 1.45 161 18:56 20.03.2020
1054 Clear 8 1026 52 0 0.45 20 18:37 20.03.2020
1055 Clear 8 1026 55 0 0.89 347 18:19 20.03.2020
1056 Clear 7 1025 59 0 1.45 161 17:40 20.03.2020
1057 Clear 6 1025 65 0 0.89 333 17:21 20.03.2020
1058 Clear 5 1025 68 0 1.34 333 16:59 20.03.2020
1059 Clear 3 1025 72 0 1.34 331 16:41 20.03.2020
1060 Clear 1 1025 81 0 0.89 329 16:20 20.03.2020
1061 Clear 1 1025 81 0 0.89 329 16:20 20.03.2020
1062 Clear 5 1024 66 0 0.98 289 15:43 20.03.2020
1063 Clear 5 1024 66 0 0.98 289 15:22 20.03.2020
1064 Clear 5 1024 66 0 0.98 289 14:58 20.03.2020
1065 Clear 5 1024 66 0 0.98 289 14:40 20.03.2020
1066 Clear 4 1021 78 0 2.12 267 14:20 20.03.2020
1067 Clear 4 1021 78 0 2.12 267 13:48 20.03.2020
1068 Clear 4 1022 75 0 1.86 264 13:21 20.03.2020
1069 Clear 4 1022 75 0 1.86 264 12:57 20.03.2020
1070 Clear 4 1022 75 0 1.86 264 12:37 20.03.2020
1071 Clear 4 1022 75 0 1.86 264 12:18 20.03.2020
1072 Clear 4 1022 75 0 1.86 264 11:39 20.03.2020
1073 Rain 5 1021 73 0 2.23 251 11:20 20.03.2020
1074 Rain 5 1021 73 0 2.23 251 10:54 20.03.2020
1075 Rain 5 1021 73 0 2.23 251 10:36 20.03.2020
1076 Rain 5 1021 73 0 2.23 251 10:18 20.03.2020
1077 Rain 5 1021 73 0 2.23 251 09:44 20.03.2020
1078 Rain 0 1023 83 0 2.23 251 09:20 20.03.2020
1079 Rain 1 1022 81 0 0.45 268 08:43 20.03.2020
1080 Rain 1 1022 83 0 0.89 231 08:23 20.03.2020
1081 Rain 0 1022 86 0 3.13 339 07:57 20.03.2020
1082 Rain 0 1022 85 0 2.68 349 07:38 20.03.2020
1083 Rain 1 1022 83 0 1.79 332 07:19 20.03.2020
1084 Rain 1 1022 83 0 1.79 332 07:19 20.03.2020
1085 Rain 0 1022 84 0 0.89 312 06:42 20.03.2020
1086 Rain 6 1019 70 0 2.17 245 06:18 20.03.2020
1087 Clouds 1 1019 79 0 3.64 220 04:36 20.03.2020
1088 Clouds 2 1018 73 0 0.89 31 02:50 20.03.2020
1089 Clouds 3 1017 77 0 1.79 283 01:50 20.03.2020
1090 Clouds 6 1016 55 0 4.02 214 00:41 20.03.2020
1091 Clouds 4 1016 73 0 0.89 320 23:59 19.03.2020
1092 Clouds 4 1016 71 0 0.89 266 23:40 19.03.2020
1093 Clouds 4 1016 77 0 2.24 209 23:22 19.03.2020
1094 Clouds 10 1015 39 0 8.76 216 22:41 19.03.2020
1095 Clouds 10 1015 39 0 8.76 216 22:22 19.03.2020
1096 Clouds 7 1016 48 0 2.24 233 21:58 19.03.2020
1097 Clouds 8 1016 51 0 1.79 45 21:38 19.03.2020
1098 Clouds 8 1016 51 0 1.34 45 21:19 19.03.2020
1099 Clouds 9 1016 46 0 2.24 20 20:44 19.03.2020
1100 Clouds 10 1015 45 0 2.24 50 20:25 19.03.2020
1101 Clouds 8 1015 49 0 1.79 360 19:59 19.03.2020
1102 Clouds 8 1015 50 0 2.24 45 19:39 19.03.2020
1103 Clouds 7 1015 53 0 1.79 50 19:21 19.03.2020
1104 Clouds 8 1015 50 0 1.79 16 18:58 19.03.2020
1105 Clouds 8 1014 45 0 3.31 212 18:40 19.03.2020
1106 Clouds 8 1015 51 0 1.34 78 18:22 19.03.2020
1107 Clouds 7 1014 53 0 1.34 333 17:55 19.03.2020
1108 Clouds 7 1014 54 0 1.34 40 17:37 19.03.2020
1109 Clouds 6 1014 60 0 0.89 82 17:18 19.03.2020
1110 Clouds 3 1014 70 0 0.89 63 16:42 19.03.2020
1111 Clouds 2 1014 73 0 0.89 27 16:21 19.03.2020
1112 Clouds 4 1014 58 0 2.78 247 15:44 19.03.2020
1113 Clouds 4 1014 58 0 2.78 247 15:24 19.03.2020
1114 Clouds 4 1014 58 0 2.78 247 14:54 19.03.2020
1115 Clouds 4 1014 58 0 2.78 247 14:36 19.03.2020
1116 Clear 4 1011 59 0 3.46 253 14:18 19.03.2020
1117 Clear 4 1011 59 0 3.46 253 13:39 19.03.2020
1118 Clear 4 1011 56 0 3.21 255 13:18 19.03.2020
1119 Clear 4 1011 56 0 3.21 255 12:42 19.03.2020
1120 Clear 4 1011 56 0 3.21 255 12:24 19.03.2020
1121 Clear 4 1011 56 0 3.21 255 11:59 19.03.2020
1122 Clear 4 1011 56 0 3.21 255 11:41 19.03.2020
1123 Clear 4 1011 56 0 3.21 255 11:22 19.03.2020
1124 Clear 6 1009 47 0 2.93 253 10:44 19.03.2020
1125 Clear 6 1009 47 0 2.93 253 10:22 19.03.2020
1126 Clear 6 1009 47 0 2.93 253 09:58 19.03.2020
1127 Clear 6 1009 47 0 2.93 253 09:40 19.03.2020
1128 Clear 6 1009 47 0 2.93 253 09:20 19.03.2020
1129 Clear 6 1009 47 0 2.93 253 08:46 19.03.2020
1130 Clear 6 1009 47 0 2.93 253 08:23 19.03.2020
1131 Clouds 8 1007 36 0 0.66 175 07:48 19.03.2020
1132 Clouds 8 1007 36 0 0.66 175 07:30 19.03.2020
1133 Clouds 8 1007 36 0 0.66 175 06:55 19.03.2020
1134 Clouds 8 1007 36 0 0.66 175 06:18 19.03.2020
1135 Clouds 8 1007 36 0 0.66 175 05:23 19.03.2020
1136 Clouds 9 1006 29 0 0.61 228 04:41 19.03.2020
1137 Clouds 4 1007 42 0 0.45 220 03:44 19.03.2020
1138 Clouds 11 1006 32 0 2.24 23 01:45 19.03.2020
1139 Clouds 10 1005 26 0 1.55 197 00:39 19.03.2020
1140 Clouds 10 1005 26 0 1.55 197 00:18 19.03.2020
1141 Clouds 10 1005 26 0 1.55 197 23:41 18.03.2020
1142 Clouds 10 1005 26 0 1.55 197 23:21 18.03.2020
1143 Clouds 9 1007 29 0 2.08 136 22:42 18.03.2020
1144 Clouds 9 1007 29 0 2.08 136 22:22 18.03.2020
1145 Clouds 9 1007 29 0 2.08 136 21:55 18.03.2020
1146 Clouds 9 1007 29 0 2.08 136 21:37 18.03.2020
1147 Clouds 9 1007 29 0 2.08 136 21:19 18.03.2020
1148 Clouds 9 1007 29 0 2.08 136 20:55 18.03.2020
1149 Clouds 9 1007 29 0 2.08 136 20:37 18.03.2020
1150 Clouds 7 1009 42 0 1.99 83 20:18 18.03.2020
1151 Clouds 7 1009 42 0 1.99 83 19:40 18.03.2020
1152 Clouds 7 1009 42 0 1.99 83 19:21 18.03.2020
1153 Clouds 7 1009 42 0 1.99 83 18:56 18.03.2020
1154 Clouds 7 1009 42 0 1.99 83 18:38 18.03.2020
1155 Clouds 7 1011 43 0 0.89 75 18:19 18.03.2020
1156 Clouds 6 1011 46 0 1.34 79 17:55 18.03.2020
1157 Clouds 4 1011 44 0 0.89 292 17:37 18.03.2020
1158 Clouds 4 1011 49 0 1.34 341 17:18 18.03.2020
1159 Clouds 2 1011 57 0 1.34 309 16:42 18.03.2020
1160 Clouds -1 1011 70 0 1.34 311 16:20 18.03.2020
1161 Clouds -1 1011 70 0 1.34 311 16:20 18.03.2020
1162 Clouds -1 1011 70 0 1.34 311 16:20 18.03.2020
1163 Clouds 5 1011 51 0 1.84 329 15:57 18.03.2020
1164 Clouds 5 1011 51 0 1.84 329 15:38 18.03.2020
1165 Clouds 5 1011 51 0 1.84 329 15:19 18.03.2020
1166 Clouds 5 1011 51 0 1.84 329 14:42 18.03.2020
1167 Clouds 5 1011 51 0 1.84 329 14:21 18.03.2020
1168 Clear 4 1011 62 0 2.3 276 13:41 18.03.2020
1169 Clear 4 1011 62 0 2.3 276 13:19 18.03.2020
1170 Clouds 4 1011 61 0 1.98 278 12:55 18.03.2020
1171 Clouds 4 1011 61 0 1.98 278 12:37 18.03.2020
1172 Clouds 4 1011 61 0 1.98 278 12:18 18.03.2020
1173 Clouds 4 1011 61 0 1.98 278 11:38 18.03.2020
1174 Clear 5 1012 60 0 2.2 251 11:19 18.03.2020
1175 Clear 5 1012 60 0 2.2 251 10:57 18.03.2020
1176 Clear 5 1012 60 0 2.2 251 10:37 18.03.2020
1177 Clear 5 1012 60 0 2.2 251 10:19 18.03.2020
1178 Clear 5 1012 60 0 2.2 251 09:42 18.03.2020
1179 Clear 5 1012 60 0 2.2 251 09:23 18.03.2020
1180 Clear 5 1012 60 0 2.2 251 09:23 18.03.2020
1181 Clear 5 1012 60 0 2.2 251 08:55 18.03.2020
1182 Clear 5 1012 60 0 2.2 251 08:37 18.03.2020
1183 Clouds 6 1012 53 0 3.22 227 08:19 18.03.2020
1184 Clouds 6 1012 54 0 3.11 226 07:43 18.03.2020
1185 Clouds 6 1012 54 0 3.11 226 07:25 18.03.2020
1186 Clouds 6 1012 54 0 3.11 226 06:44 18.03.2020
1187 Clouds 6 1012 54 0 3.11 226 05:56 18.03.2020
1188 Clouds 6 1012 54 0 3.11 226 05:33 18.03.2020
1189 Clouds 7 1010 44 0 4.66 216 03:56 18.03.2020
1190 Clouds 3 1012 62 0 2.68 197 02:42 18.03.2020
1191 Clear 6 1011 51 0 3.58 200 01:47 18.03.2020
1192 Clear 7 1012 41 0 4.02 244 01:21 18.03.2020
1193 Clear 8 1012 43 0 3.13 187 00:23 18.03.2020
1194 Clear 8 1012 43 0 3.13 218 23:47 17.03.2020
1195 Clear 8 1012 43 0 3.13 218 23:47 17.03.2020
1196 Clear 7 1012 42 0 4.02 256 23:26 17.03.2020
1197 Clear 7 1012 44 0 3.58 154 22:55 17.03.2020
1198 Clear 7 1012 45 0 3.58 245 22:37 17.03.2020
1199 Clear 7 1012 43 0 3.13 241 22:18 17.03.2020
1200 Clear 7 1013 45 0 2.68 274 21:39 17.03.2020
1201 Clear 7 1013 47 0 1.79 202 21:21 17.03.2020
1202 Clear 9 1013 53 0 0.89 82 20:40 17.03.2020
1203 Clear 7 1014 44 0 1.34 150 20:21 17.03.2020
1204 Clouds 6 1014 45 0 0.89 131 19:58 17.03.2020
1205 Clouds 6 1014 48 0 1.34 213 19:39 17.03.2020
1206 Clouds 7 1014 68 0 1.34 23 19:18 17.03.2020
1207 Clouds 6 1014 73 0 1.34 92 18:55 17.03.2020
1208 Clouds 6 1014 73 0 1.79 60 18:37 17.03.2020
1209 Clouds 4 1014 74 0 0.89 54 18:19 17.03.2020
1210 Clouds 3 1014 67 0 0.89 73 17:40 17.03.2020
1211 Clouds 3 1014 65 0 2.24 100 17:21 17.03.2020
1212 Clouds 2 1013 64 0 1.79 91 16:55 17.03.2020
1213 Clouds 0 1013 72 0 1.34 95 16:36 17.03.2020
1214 Clouds -1 1013 71 0 0.89 89 16:18 17.03.2020
1215 Clouds 4 1014 48 0 3.79 226 15:41 17.03.2020
1216 Clouds 4 1014 48 0 3.79 226 15:19 17.03.2020
1217 Clouds 4 1014 48 0 3.79 226 14:42 17.03.2020
1218 Clouds 4 1014 48 0 3.79 226 14:21 17.03.2020
1219 Clouds -2 1012 86 0 0.89 204 13:44 17.03.2020
1220 Clouds -2 1012 85 0 0.45 181 13:26 17.03.2020
1221 Clouds -1 1012 84 0 0.89 189 12:58 17.03.2020
1222 Clouds -1 1011 83 0 0.45 181 12:40 17.03.2020
1223 Clouds -1 1011 83 0 1.34 141 12:21 17.03.2020
1224 Clouds -1 1011 83 0 3.46 214 11:46 17.03.2020
1225 Clouds 0 1011 83 0 4.25 235 11:27 17.03.2020
1226 Rain 1 1011 84 0 0.89 162 10:58 17.03.2020
1227 Rain 1 1011 85 0 0.45 160 10:38 17.03.2020
1228 Rain 1 1011 83 0 0.89 153 10:20 17.03.2020
1229 Rain 1 1011 84 0 0.89 149 09:55 17.03.2020
1230 Rain 1 1011 84 0 0.89 149 09:55 17.03.2020
1231 Rain 1 1011 86 0 0.89 155 09:36 17.03.2020
1232 Rain 1 1011 86 0 1.34 196 09:18 17.03.2020
1233 Rain 1 1011 88 0 1.34 131 08:42 17.03.2020
1234 Rain 1 1011 89 0 1.79 105 08:21 17.03.2020
1235 Rain 1 1011 90 0 1.79 119 07:50 17.03.2020
1236 Rain 1 1011 89 0 2.24 172 07:25 17.03.2020
1237 Rain 2 1011 89 0 2.68 207 06:56 17.03.2020
1238 Rain 2 1011 89 0 2.24 124 06:33 17.03.2020
1239 Rain 2 1011 88 0 2.24 139 05:41 17.03.2020
1240 Rain 3 1011 87 0 3.13 158 03:36 17.03.2020
1241 Rain 4 1010 83 0 1.79 258 02:45 17.03.2020
1242 Clouds 12 1008 46 0 8.15 185 01:41 17.03.2020
1243 Rain 7 1009 68 0 3.58 197 01:19 17.03.2020
1244 Rain 8 1010 52 0 3.58 245 00:25 17.03.2020
1245 Rain 9 1010 48 0 3.58 220 23:45 16.03.2020
1246 Rain 11 1010 45 0 2.68 149 23:23 16.03.2020
1247 Clouds 11 1011 41 0 4.92 190 22:40 16.03.2020
1248 Clouds 11 1012 43 0 3.58 175 22:22 16.03.2020
1249 Clouds 12 1012 42 0 3.58 248 21:55 16.03.2020
1250 Clouds 11 1013 52 0 1.79 102 21:36 16.03.2020
1251 Clouds 11 1013 54 0 0.89 91 21:18 16.03.2020
1252 Clouds 11 1013 53 0 1.79 50 20:43 16.03.2020
1253 Clouds 10 1014 49 0 2.24 99 20:24 16.03.2020
1254 Clouds 9 1014 51 0 2.24 188 19:56 16.03.2020
1255 Clouds 8 1015 56 0 3.13 203 19:37 16.03.2020
1256 Clouds 7 1015 62 0 1.79 191 19:18 16.03.2020
1257 Clouds 6 1016 66 0 3.58 264 18:41 16.03.2020
1258 Clouds 5 1016 69 0 2.24 238 18:20 16.03.2020
1259 Clouds 6 1016 66 0 1.34 185 17:47 16.03.2020
1260 Clouds 6 1016 68 0 2.24 101 17:26 16.03.2020
1261 Clouds 3 1016 73 0 1.34 180 16:59 16.03.2020
1262 Clouds 3 1016 74 0 1.34 169 16:41 16.03.2020
1263 Clouds 2 1016 74 0 2.24 237 16:22 16.03.2020
1264 Clouds 1 1016 81 0 0.89 107 15:44 16.03.2020
1265 Clouds 1 1016 79 0 0.45 247 15:25 16.03.2020
1266 Clouds 2 1016 77 0 0.89 231 14:49 16.03.2020
1267 Clouds 2 1016 76 0 2.24 213 14:27 16.03.2020
1268 Clear 2 1016 78 0 2.24 262 13:57 16.03.2020
1269 Clear 1 1016 80 0 2.68 204 13:38 16.03.2020
1270 Clear 1 1015 83 0 1.34 179 13:20 16.03.2020
1271 Clear 0 1016 84 0 0.45 169 12:44 16.03.2020
1272 Clear 0 1016 84 0 3.81 245 12:23 16.03.2020
1273 Clear 2 1016 80 0 3.81 245 11:46 16.03.2020
1274 Clear 2 1016 80 0 0.45 225 11:27 16.03.2020
1275 Clear 2 1016 80 0 1.34 243 10:56 16.03.2020
1276 Clear 2 1016 79 0 1.79 208 10:37 16.03.2020
1277 Clear 3 1016 80 0 1.34 231 10:18 16.03.2020
1278 Clear 3 1016 80 0 2.24 232 09:42 16.03.2020
1279 Clear 3 1016 80 0 2.68 226 09:21 16.03.2020
1280 Clear 3 1016 80 0 2.24 234 08:49 16.03.2020
1281 Clear 3 1016 80 0 3.13 229 08:25 16.03.2020
1282 Clear 3 1016 82 0 1.79 181 07:45 16.03.2020
1283 Clear 3 1016 81 0 1.79 212 07:21 16.03.2020
1284 Clear 3 1016 78 0 1.34 216 06:51 16.03.2020
1285 Clear 3 1016 77 0 2.24 234 06:23 16.03.2020
1286 Clear 10 1014 50 0 5.57 221 04:54 16.03.2020
1287 Clear 7 1015 63 0 3.58 180 02:41 16.03.2020
1288 Clear 12 1015 44 0 3.58 186 00:52 16.03.2020
1289 Clear 11 1015 46 0 3.13 250 00:32 16.03.2020
1290 Clear 9 1015 52 0 3.58 181 23:46 15.03.2020
1291 Clouds 9 1015 51 0 3.58 151 23:20 15.03.2020
1292 Clouds 10 1015 48 0 2.68 220 22:42 15.03.2020
1293 Clouds 9 1015 49 0 4.92 125 22:22 15.03.2020
1294 Clouds 9 1015 49 0 3.58 173 21:56 15.03.2020
1295 Clouds 11 1015 47 0 2.68 177 21:37 15.03.2020
1296 Clouds 9 1016 52 0 3.13 188 21:18 15.03.2020
1297 Clouds 8 1016 52 0 3.13 162 20:42 15.03.2020
1298 Clear 8 1016 56 0 2.68 161 20:20 15.03.2020
1299 Clear 8 1016 56 0 3.58 217 19:58 15.03.2020
1300 Clear 8 1016 56 0 4.02 168 19:38 15.03.2020
1301 Clear 8 1017 58 0 4.47 160 19:19 15.03.2020
1302 Clear 8 1017 59 0 3.58 200 18:55 15.03.2020
1303 Clear 8 1017 56 0 3.58 193 18:37 15.03.2020
1304 Clear 8 1017 59 0 3.13 210 18:18 15.03.2020
1305 Clear 7 1016 60 0 3.58 195 17:41 15.03.2020
1306 Clear 6 1016 65 0 2.68 247 17:21 15.03.2020
1307 Clear 6 1016 68 0 3.13 164 16:58 15.03.2020
1308 Clear 6 1016 68 0 3.13 164 16:58 15.03.2020
1309 Clear 5 1016 72 0 1.79 155 16:38 15.03.2020
1310 Clear 4 1016 74 0 3.58 162 16:19 15.03.2020
1311 Clear 3 1015 78 0 3.13 259 15:45 15.03.2020
1312 Clear 3 1015 79 0 3.13 239 15:27 15.03.2020
1313 Clear 2 1015 82 0 1.79 146 14:57 15.03.2020
1314 Clear 3 1015 79 0 2.68 229 14:38 15.03.2020
1315 Clouds 2 1015 80 0 2.68 189 14:18 15.03.2020
1316 Clouds 2 1015 80 0 2.68 189 14:18 15.03.2020
1317 Clouds 2 1015 80 0 3.13 223 13:54 15.03.2020
1318 Clouds 2 1015 80 0 2.24 232 13:36 15.03.2020
1319 Clouds 3 1015 80 0 1.79 167 13:18 15.03.2020
1320 Clouds 3 1015 80 0 1.79 167 13:18 15.03.2020
1321 Clouds 3 1015 81 0 2.24 101 12:39 15.03.2020
1322 Clouds 3 1015 82 0 1.34 152 12:21 15.03.2020
1323 Clouds 3 1015 83 0 1.79 146 11:43 15.03.2020
1324 Clouds 3 1015 82 0 1.34 139 11:24 15.03.2020
1325 Clouds 3 1015 82 0 2.24 81 10:57 15.03.2020
1326 Clouds 3 1016 82 0 1.34 226 10:39 15.03.2020
1327 Clouds 3 1016 80 0 0.89 235 10:21 15.03.2020
1328 Clouds 4 1016 80 0 1.79 212 09:44 15.03.2020
1329 Clouds 4 1016 79 0 1.79 220 09:25 15.03.2020
1330 Clouds 4 1016 78 0 1.79 232 08:59 15.03.2020
1331 Clouds 4 1016 78 0 1.79 175 08:40 15.03.2020
1332 Clouds 4 1016 79 0 2.24 164 08:19 15.03.2020
1333 Clouds 4 1017 78 0 1.34 149 07:44 15.03.2020
1334 Clouds 4 1016 78 0 3.13 104 07:18 15.03.2020
1335 Clouds 5 1016 78 0 2.68 76 06:36 15.03.2020
1336 Clouds 6 1016 79 0 2.24 98 05:46 15.03.2020
1337 Clouds 6 1016 79 0 0.89 137 04:55 15.03.2020
1338 Clouds 6 1016 79 0 2.24 123 04:37 15.03.2020
1339 Clouds 6 1015 78 0 3.13 99 04:18 15.03.2020
1340 Clouds 8 1014 73 0 3.13 110 02:54 15.03.2020
1341 Clouds 10 1014 65 0 1.34 217 02:21 15.03.2020
1342 Clouds 11 1014 58 0 2.68 148 00:58 15.03.2020
1343 Clouds 11 1014 60 0 1.79 260 00:40 15.03.2020
1344 Clouds 11 1014 57 0 3.13 130 00:19 15.03.2020
1345 Clouds 10 1013 61 0 4.02 157 23:39 14.03.2020
1346 Clouds 10 1014 61 0 3.58 197 23:20 14.03.2020
1347 Clouds 11 1014 61 0 3.13 233 22:56 14.03.2020
1348 Clouds 12 1014 57 0 4.02 189 22:37 14.03.2020
1349 Clouds 12 1014 58 0 4.92 239 22:19 14.03.2020
1350 Clouds 11 1014 59 0 3.58 191 21:55 14.03.2020
1351 Clouds 11 1014 59 0 3.58 191 21:55 14.03.2020
1352 Clouds 9 1015 62 0 5.36 152 21:36 14.03.2020
1353 Clouds 9 1015 63 0 4.92 259 21:18 14.03.2020
1354 Clouds 9 1015 63 0 3.58 207 20:56 14.03.2020
1355 Clouds 9 1015 63 0 3.58 207 20:56 14.03.2020
1356 Clouds 9 1015 62 0 4.02 187 20:38 14.03.2020
1357 Clouds 9 1015 64 0 3.58 157 20:18 14.03.2020
1358 Clouds 9 1014 64 0 5.81 275 19:41 14.03.2020
1359 Clouds 9 1014 65 0 6.26 233 19:20 14.03.2020
1360 Clouds 8 1014 70 0 5.36 250 18:40 14.03.2020
1361 Clouds 8 1014 73 0 4.92 200 18:21 14.03.2020
1362 Clouds 7 1014 77 0 4.92 239 17:43 14.03.2020
1363 Clouds 6 1014 78 0 4.47 191 17:24 14.03.2020
1364 Clouds 6 1014 80 0 4.47 227 16:59 14.03.2020
1365 Clouds 5 1013 83 0 3.13 240 16:39 14.03.2020
1366 Clouds 4 1013 85 0 3.58 233 16:20 14.03.2020
1367 Clouds 3 1013 86 0 3.58 185 15:51 14.03.2020
1368 Clouds 3 1013 87 0 2.24 179 15:25 14.03.2020
1369 Clouds 3 1013 88 0 1.34 227 14:45 14.03.2020
1370 Clouds 3 1012 88 0 1.79 202 14:23 14.03.2020
1371 Clouds 3 1012 88 0 1.79 130 13:57 14.03.2020
1372 Clouds 3 1012 88 0 2.24 114 13:39 14.03.2020
1373 Clouds 4 1011 86 0 3.58 121 13:20 14.03.2020
1374 Clouds 4 1011 89 0 2.24 110 12:45 14.03.2020
1375 Clouds 4 1011 89 0 2.68 148 12:26 14.03.2020
1376 Clouds 3 1011 90 0 1.34 135 11:56 14.03.2020
1377 Clouds 3 1011 90 0 1.34 135 11:56 14.03.2020
1378 Clouds 4 1012 90 0 1.79 133 11:38 14.03.2020
1379 Clouds 3 1012 93 0 4.31 230 11:19 14.03.2020
1380 Clouds 4 1012 95 0 0.45 81 10:42 14.03.2020
1381 Clouds 4 1012 95 0 0.45 50 10:23 14.03.2020
1382 Clouds 4 1012 94 0 0.89 76 09:46 14.03.2020
1383 Clouds 4 1011 94 0 0.89 50 09:24 14.03.2020
1384 Clouds 4 1011 94 0 1.34 76 08:51 14.03.2020
1385 Clouds 4 1011 93 0 1.79 55 08:29 14.03.2020
1386 Clouds 5 1011 93 0 1.34 85 07:56 14.03.2020
1387 Clouds 5 1011 93 0 1.34 29 07:38 14.03.2020
1388 Clouds 6 1011 91 0 1.34 55 07:19 14.03.2020
1389 Clouds 6 1010 91 0 1.34 90 06:40 14.03.2020
1390 Clouds 6 1010 91 0 1.34 90 06:40 14.03.2020
1391 Clouds 6 1010 84 0 0.45 123 05:43 14.03.2020
1392 Clouds 7 1008 84 0 0.89 125 03:49 14.03.2020
1393 Clouds 7 1008 86 0 0.45 107 03:24 14.03.2020
1394 Clouds 11 1007 79 0 0.89 94 02:23 14.03.2020
1395 Clouds 9 1007 83 0 2.24 108 00:49 14.03.2020
1396 Clouds 9 1007 84 0 1.79 113 23:51 13.03.2020
1397 Clouds 9 1007 82 0 1.79 205 23:30 13.03.2020
1398 Clouds 9 1006 86 0 2.24 50 22:52 13.03.2020
1399 Clouds 9 1006 86 0 2.24 50 22:52 13.03.2020
1400 Clouds 9 1006 83 0 1.34 150 22:26 13.03.2020
1401 Clouds 8 1006 92 0 1.79 71 21:44 13.03.2020
1402 Clouds 9 1006 91 0 1.34 102 21:22 13.03.2020
1403 Clouds 10 1006 90 0 1.79 60 20:59 13.03.2020
1404 Clouds 10 1006 93 0 0.89 64 20:41 13.03.2020
1405 Rain 9 1007 93 0 0.89 75 20:22 13.03.2020
1406 Rain 9 1006 93 0 1.34 69 19:49 13.03.2020
1407 Rain 9 1007 94 0 0.89 68 19:31 13.03.2020
1408 Rain 9 1007 96 0 0.45 97 18:55 13.03.2020
1409 Rain 8 1006 96 0 0.45 45 18:36 13.03.2020
1410 Rain 7 1007 96 0 0.45 50 18:18 13.03.2020
1411 Rain 7 1006 95 0 0.45 59 17:41 13.03.2020
1412 Rain 7 1006 96 0 0.45 64 17:21 13.03.2020
1413 Rain 7 1006 96 0 0.45 64 17:21 13.03.2020
1414 Rain 7 1006 96 0 0.45 80 16:56 13.03.2020
1415 Rain 7 1006 95 0 0.45 81 16:37 13.03.2020
1416 Rain 6 1006 95 0 0.45 82 16:19 13.03.2020
1417 Rain 6 1005 95 0 0.45 45 15:41 13.03.2020
1418 Rain 6 1005 95 0 0.45 50 15:21 13.03.2020
1419 Rain 6 1005 94 0 0.45 69 14:44 13.03.2020
1420 Rain 6 1005 94 0 0.45 68 14:23 13.03.2020
1421 Rain 6 1004 94 0 1.46 227 13:59 13.03.2020
1422 Rain 6 1005 94 0 0.45 27 13:40 13.03.2020
1423 Clouds 6 1004 93 0 0.96 196 13:21 13.03.2020
1424 Clouds 6 1004 93 0 0.96 196 12:56 13.03.2020
1425 Clouds 6 1004 93 0 0.96 196 12:38 13.03.2020
1426 Clouds 6 1004 92 0 0.96 196 12:19 13.03.2020
1427 Clouds 6 1005 92 0 0.89 27 11:46 13.03.2020
1428 Clouds 6 1004 92 0 0.96 196 11:26 13.03.2020
1429 Clouds 6 1005 91 0 2.1 35 10:59 13.03.2020
1430 Clouds 6 1005 90 0 2.1 35 10:41 13.03.2020
1431 Clouds 6 1005 90 0 0.45 322 10:23 13.03.2020
1432 Clouds 6 1006 89 0 1.34 339 09:45 13.03.2020
1433 Clouds 6 1006 87 0 1.34 331 09:26 13.03.2020
1434 Clouds 6 1007 88 0 1.79 25 08:56 13.03.2020
1435 Clouds 6 1007 89 0 0.89 351 08:37 13.03.2020
1436 Rain 7 1007 87 0 0.89 29 08:18 13.03.2020
1437 Rain 7 1008 86 0 0.89 354 07:43 13.03.2020
1438 Rain 7 1007 86 0 0.89 17 07:22 13.03.2020
1439 Rain 8 1008 80 0 0.89 55 06:46 13.03.2020
1440 Rain 9 1007 74 0 1.34 91 06:20 13.03.2020
1441 Rain 10 1007 60 0 1.79 229 05:43 13.03.2020
1442 Clouds 12 1005 49 0 2.68 357 04:39 13.03.2020
1443 Clouds 12 1005 43 0 3.58 333 03:50 13.03.2020
1444 Clouds 16 1005 38 0 4.07 104 02:29 13.03.2020
1445 Clouds 17 1006 36 0 5.12 110 01:20 13.03.2020
1446 Clouds 17 1006 36 0 5.12 110 00:59 13.03.2020
1447 Clouds 17 1006 36 0 5.12 110 00:39 13.03.2020
1448 Clouds 14 1008 40 0 3.58 356 00:18 13.03.2020
1449 Clouds 14 1008 39 0 2.24 334 23:38 12.03.2020
1450 Clouds 14 1009 38 0 1.34 352 23:19 12.03.2020
1451 Clouds 16 1009 35 0 2.68 62 22:44 12.03.2020
1452 Clouds 16 1010 35 0 1.79 40 22:25 12.03.2020
1453 Clouds 17 1010 32 0 2.68 50 21:56 12.03.2020
1454 Clouds 17 1011 32 0 2.24 17 21:38 12.03.2020
1455 Clouds 18 1012 29 0 1.79 77 21:20 12.03.2020
1456 Clouds 16 1012 34 0 4.02 320 20:42 12.03.2020
1457 Clear 14 1013 39 0 3.58 337 20:20 12.03.2020
1458 Clear 13 1013 42 0 4.92 345 19:42 12.03.2020
1459 Clear 13 1014 42 0 2.68 334 19:22 12.03.2020
1460 Clear 14 1014 44 0 4.02 345 18:59 12.03.2020
1461 Clear 13 1014 48 0 3.58 325 18:41 12.03.2020
1462 Clear 12 1014 51 0 4.02 344 18:22 12.03.2020
1463 Clear 13 1015 52 0 4.02 321 17:56 12.03.2020
1464 Clear 12 1015 53 0 4.92 355 17:37 12.03.2020
1465 Clear 11 1015 60 0 5.81 356 17:18 12.03.2020
1466 Clear 9 1015 65 0 4.92 335 16:41 12.03.2020
1467 Clear 8 1015 66 0 5.36 309 16:22 12.03.2020
1468 Clear 7 1015 67 0 4.47 343 15:49 12.03.2020
1469 Clear 7 1015 67 0 4.92 333 15:28 12.03.2020
1470 Clear 7 1015 67 0 4.92 333 15:28 12.03.2020
1471 Clear 7 1015 67 0 4.47 340 14:56 12.03.2020
1472 Clear 7 1015 68 0 3.58 320 14:38 12.03.2020
1473 Clear 7 1015 70 0 4.02 346 14:18 12.03.2020
1474 Clear 11 1013 61 0 2.9 357 13:40 12.03.2020
1475 Clear 11 1013 60 0 2.55 6 13:21 12.03.2020
1476 Clear 11 1013 60 0 2.55 6 12:55 12.03.2020
1477 Clear 11 1013 60 0 2.55 6 12:37 12.03.2020
1478 Clear 11 1013 60 0 2.55 6 12:18 12.03.2020
1479 Clear 11 1013 60 0 2.55 6 11:56 12.03.2020
1480 Clear 11 1013 60 0 2.55 6 11:37 12.03.2020
1481 Clear 6 1016 73 0 2.45 354 11:18 12.03.2020
1482 Clear 8 1017 70 0 1.79 350 10:43 12.03.2020
1483 Clear 8 1017 70 0 1.79 350 10:43 12.03.2020
1484 Clear 8 1016 70 0 2.68 343 10:24 12.03.2020
1485 Clear 12 1014 59 0 2.45 354 09:59 12.03.2020
1486 Clear 12 1014 59 0 2.45 354 09:41 12.03.2020
1487 Clear 6 1017 75 0 2.45 354 09:23 12.03.2020
1488 Clear 7 1017 75 0 1.79 341 08:39 12.03.2020
1489 Clear 13 1015 59 0 1.7 356 08:19 12.03.2020
1490 Clear 13 1015 59 0 1.7 356 07:48 12.03.2020
1491 Clear 13 1015 59 0 1.7 356 07:22 12.03.2020
1492 Clear 13 1015 59 0 1.7 356 06:33 12.03.2020
1493 Clear 13 1015 59 0 1.7 356 05:36 12.03.2020
1494 Clouds 9 1017 76 0 0.91 71 03:54 12.03.2020
1495 Clouds 14 1016 50 0 0.45 352 02:21 12.03.2020
1496 Rain 13 1016 52 0 0.45 227 01:29 12.03.2020
1497 Clouds 14 1016 50 0 0.89 245 00:42 12.03.2020
1498 Clouds 13 1017 53 0 1.79 226 23:59 11.03.2020
1499 Clouds 12 1017 62 0 2.24 201 23:37 11.03.2020
1500 Rain 12 1017 59 0 1.34 220 23:18 11.03.2020
1501 Rain 12 1018 56 0 1.34 220 22:42 11.03.2020
1502 Rain 13 1018 56 0 0.45 223 22:23 11.03.2020
1503 Rain 12 1018 65 0 1.79 204 21:58 11.03.2020
1504 Rain 11 1019 64 0 1.79 205 21:40 11.03.2020
1505 Rain 11 1019 72 0 1.34 177 21:22 11.03.2020
1506 Rain 10 1019 70 0 1.34 258 20:57 11.03.2020
1507 Rain 11 1019 64 0 0.89 268 20:38 11.03.2020
1508 Rain 12 1020 67 0 1.34 341 20:19 11.03.2020
1509 Clouds 11 1018 76 0 1.5 26 19:43 11.03.2020
1510 Clouds 13 1020 69 0 1.34 339 19:25 11.03.2020
1511 Clouds 9 1020 81 0 0.45 299 18:57 11.03.2020
1512 Clouds 9 1020 81 0 0.45 299 18:38 11.03.2020
1513 Clouds 8 1021 83 0 0.89 312 18:20 11.03.2020
1514 Clouds 8 1020 82 0 1.5 26 17:56 11.03.2020
1515 Clouds 8 1020 82 0 0.45 287 17:37 11.03.2020
1516 Clouds 7 1020 86 0 0.89 268 17:19 11.03.2020
1517 Clouds 6 1020 89 0 0.45 320 16:45 11.03.2020
1518 Clouds 5 1020 91 0 1.55 24 16:21 11.03.2020
1519 Clouds 4 1020 93 0 0.89 331 15:44 11.03.2020
1520 Clouds 3 1019 94 0 0.89 326 15:24 11.03.2020
1521 Clouds 3 1019 92 0 1.55 24 14:57 11.03.2020
1522 Clouds 3 1019 93 0 1.55 24 14:39 11.03.2020
1523 Clouds 3 1019 90 0 1.55 24 14:21 11.03.2020
1524 Rain 4 1019 89 0 1.56 1 13:44 11.03.2020
1525 Rain 4 1019 90 0 0.45 291 13:26 11.03.2020
1526 Rain 4 1019 90 0 1.71 28 12:58 11.03.2020
1527 Rain 4 1019 91 0 0.89 349 12:39 11.03.2020
1528 Rain 4 1019 93 0 1.79 334 12:19 11.03.2020
1529 Rain 4 1020 93 0 2.24 343 11:42 11.03.2020
1530 Rain 4 1020 93 0 0.89 293 11:24 11.03.2020
1531 Rain 4 1020 92 0 3.13 325 10:57 11.03.2020
1532 Rain 4 1020 93 0 2.24 315 10:39 11.03.2020
1533 Rain 4 1020 93 0 3.13 4 10:18 11.03.2020
1534 Rain 4 1020 93 0 3.58 318 09:42 11.03.2020
1535 Rain 4 1020 93 0 2.68 318 09:24 11.03.2020
1536 Rain 4 1020 92 0 1.34 328 08:45 11.03.2020
1537 Rain 4 1020 91 0 2.24 319 08:27 11.03.2020
1538 Rain 4 1020 90 0 2.68 344 07:56 11.03.2020
1539 Rain 4 1021 91 0 2.24 338 07:37 11.03.2020
1540 Rain 4 1020 90 0 2.68 333 07:18 11.03.2020
1541 Rain 5 1021 90 0 1.79 323 06:37 11.03.2020
1542 Rain 6 1020 88 0 2.68 316 05:34 11.03.2020
1543 Rain 6 1020 84 0 1.34 287 03:59 11.03.2020
1544 Clouds 7 1019 79 0 1.34 301 01:59 11.03.2020
1545 Clouds 7 1019 77 0 0.45 278 01:26 11.03.2020
1546 Rain 7 1020 75 0 0.89 299 00:45 11.03.2020
1547 Rain 7 1020 75 0 1.34 254 23:57 10.03.2020
1548 Rain 7 1020 76 0 0.89 284 23:39 10.03.2020
1549 Rain 8 1020 72 0 0.89 312 23:20 10.03.2020
1550 Rain 9 1020 71 0 0.45 323 22:38 10.03.2020
1551 Rain 8 1019 87 0 2.7 33 22:19 10.03.2020
1552 Rain 8 1019 87 0 2.7 33 21:56 10.03.2020
1553 Rain 8 1019 87 0 2.7 33 21:38 10.03.2020
1554 Rain 9 1021 64 0 1.34 354 21:20 10.03.2020
1555 Rain 8 1022 64 0 0.89 285 20:58 10.03.2020
1556 Rain 8 1022 69 0 0.89 316 20:40 10.03.2020
1557 Rain 7 1022 70 0 1.34 328 20:18 10.03.2020
1558 Rain 7 1022 72 0 1.79 318 19:56 10.03.2020
1559 Rain 7 1022 74 0 1.79 332 19:37 10.03.2020
1560 Rain 6 1022 74 0 2.24 317 19:18 10.03.2020
1561 Rain 6 1022 77 0 2.24 323 18:44 10.03.2020
1562 Rain 7 1022 75 0 1.34 291 18:25 10.03.2020
1563 Rain 6 1021 75 0 1.34 347 17:57 10.03.2020
1564 Rain 7 1021 74 0 0.89 264 17:38 10.03.2020
1565 Rain 8 1021 50 0 1.47 50 17:20 10.03.2020
1566 Rain 8 1021 51 0 0.89 20 16:39 10.03.2020
1567 Rain 7 1020 56 0 1.47 50 16:18 10.03.2020
1568 Rain 7 1020 52 0 1.47 50 15:55 10.03.2020
1569 Rain 7 1020 52 0 1.47 50 15:55 10.03.2020
1570 Rain 7 1020 50 0 1.47 50 15:37 10.03.2020
1571 Rain 7 1020 48 0 1.47 50 15:18 10.03.2020
1572 Rain 7 1020 48 0 0.45 13 14:41 10.03.2020
1573 Rain 6 1019 49 0 0.45 35 14:20 10.03.2020
1574 Rain 6 1019 51 0 3.03 354 13:57 10.03.2020
1575 Rain 6 1019 51 0 3.03 354 13:38 10.03.2020
1576 Clouds 6 1019 54 0 1.14 76 13:19 10.03.2020
1577 Clouds 6 1019 52 0 1.14 76 12:41 10.03.2020
1578 Clouds 6 1019 50 0 0.45 35 12:19 10.03.2020
1579 Clouds 6 1019 51 0 1.14 76 11:57 10.03.2020
1580 Clouds 6 1019 50 0 1.14 76 11:39 10.03.2020
1581 Clouds 6 1020 49 0 0.45 57 11:20 10.03.2020
1582 Clouds 5 1020 52 0 0.93 40 10:41 10.03.2020
1583 Clouds 4 1020 51 0 0.93 40 10:23 10.03.2020
1584 Clouds 5 1020 49 0 0.93 40 09:57 10.03.2020
1585 Clouds 6 1020 47 0 0.93 40 09:39 10.03.2020
1586 Clouds 6 1020 45 0 0.45 35 09:19 10.03.2020
1587 Clouds 6 1020 45 0 0.93 40 08:50 10.03.2020
1588 Clouds 6 1020 44 0 0.45 40 08:32 10.03.2020
1589 Clouds 7 1020 45 0 0.45 70 07:50 10.03.2020
1590 Clouds 7 1020 46 0 0.98 3 07:31 10.03.2020
1591 Clouds 7 1021 48 0 0.98 3 06:47 10.03.2020
1592 Clouds 7 1021 48 0 0.98 3 06:28 10.03.2020
1593 Clouds 7 1020 48 0 0.98 3 05:41 10.03.2020
1594 Clouds 8 1020 40 0 1.16 130 04:48 10.03.2020
1595 Clouds 9 1020 37 0 0.45 231 03:55 10.03.2020
1596 Clouds 10 1019 32 0 1.79 332 02:27 10.03.2020
1597 Clouds 12 1018 32 0 1.34 50 01:30 10.03.2020
1598 Clouds 12 1018 33 0 1.79 71 00:44 10.03.2020
1599 Clouds 13 1018 31 0 3.13 356 00:26 10.03.2020
1600 Clouds 13 1018 29 0 2.24 33 23:41 09.03.2020
1601 Clouds 14 1018 29 0 2.68 352 23:21 09.03.2020
1602 Clouds 13 1018 31 0 2.24 353 22:55 09.03.2020
1603 Clouds 14 1018 29 0 2.68 15 22:36 09.03.2020
1604 Clouds 13 1017 26 0 3.16 185 22:18 09.03.2020
1605 Clouds 11 1019 38 0 2.24 347 21:41 09.03.2020
1606 Clouds 12 1019 36 0 2.68 13 21:21 09.03.2020
1607 Clouds 12 1019 35 0 2.24 40 20:58 09.03.2020
1608 Clouds 13 1019 31 0 2.24 35 20:39 09.03.2020
1609 Clouds 11 1018 30 0 1.73 231 20:20 09.03.2020
1610 Clouds 11 1018 30 0 1.73 231 19:45 09.03.2020
1611 Clouds 11 1018 30 0 1.73 231 19:26 09.03.2020
1612 Clouds 11 1020 48 0 1.34 35 18:59 09.03.2020
1613 Clouds 9 1020 52 0 1.34 66 18:40 09.03.2020
1614 Clouds 9 1020 54 0 1.34 59 18:20 09.03.2020
1615 Clouds 8 1020 55 0 1.34 68 17:58 09.03.2020
1616 Clouds 8 1020 57 0 1.79 33 17:38 09.03.2020
1617 Clouds 7 1020 63 0 0.89 50 17:20 09.03.2020
1618 Clouds 5 1019 68 0 2.59 264 16:59 09.03.2020
1619 Clouds 3 1019 75 0 2.59 264 16:40 09.03.2020
1620 Clouds 8 1018 51 0 2.59 264 16:22 09.03.2020
1621 Clouds 8 1018 51 0 2.59 264 15:58 09.03.2020
1622 Clouds 8 1018 51 0 2.59 264 15:39 09.03.2020
1623 Clouds 8 1018 51 0 2.59 264 15:21 09.03.2020
1624 Clouds 8 1018 51 0 2.59 264 14:57 09.03.2020
1625 Clouds 8 1018 51 0 2.59 264 14:38 09.03.2020
1626 Clouds 8 1016 55 0 2.63 259 14:19 09.03.2020
1627 Clouds 8 1016 55 0 2.63 259 13:58 09.03.2020
1628 Clouds 8 1016 55 0 2.63 259 13:38 09.03.2020
1629 Clouds 2 1017 76 0 1.34 27 13:19 09.03.2020
1630 Clouds 2 1017 72 0 0.89 4 12:43 09.03.2020
1631 Clouds 2 1017 73 0 1.34 81 12:23 09.03.2020
1632 Clouds 3 1017 69 0 2.68 254 11:58 09.03.2020
1633 Clouds 3 1017 69 0 0.89 50 11:38 09.03.2020
1634 Clouds 4 1017 68 0 1.79 101 11:20 09.03.2020
1635 Clouds 4 1017 67 0 2.24 93 10:55 09.03.2020
1636 Clouds 4 1017 65 0 1.79 106 10:37 09.03.2020
1637 Clouds 4 1017 64 0 0.89 81 10:18 09.03.2020
1638 Clouds 4 1017 62 0 2.24 91 09:42 09.03.2020
1639 Clouds 4 1017 61 0 0.89 25 09:23 09.03.2020
1640 Clouds 5 1017 58 0 1.34 82 08:45 09.03.2020
1641 Clouds 5 1017 56 0 0.89 62 08:27 09.03.2020
1642 Clouds 7 1017 51 0 1.79 40 07:44 09.03.2020
1643 Clouds 7 1017 47 0 1.34 94 07:23 09.03.2020
1644 Clouds 7 1017 48 0 1.79 114 06:59 09.03.2020
1645 Clouds 7 1016 50 0 2.24 101 06:39 09.03.2020
1646 Clouds 6 1017 54 0 1.34 139 06:21 09.03.2020
1647 Clouds 6 1016 55 0 1.34 120 05:41 09.03.2020
1648 Clear 7 1015 55 0 2.24 148 04:56 09.03.2020
1649 Clear 7 1015 53 0 2.68 195 04:37 09.03.2020
1650 Clear 7 1015 53 0 2.68 195 04:37 09.03.2020
1651 Clear 7 1015 51 0 2.24 183 04:18 09.03.2020
1652 Clear 9 1014 39 0 0.89 169 02:51 09.03.2020
1653 Clouds 13 1013 32 0 2.24 231 00:42 09.03.2020
1654 Clouds 13 1013 31 0 1.79 202 00:24 09.03.2020
1655 Clouds 13 1011 34 0 3.28 225 23:58 08.03.2020
1656 Clouds 13 1011 34 0 3.28 225 23:58 08.03.2020
1657 Clouds 13 1011 34 0 3.28 225 23:38 08.03.2020
1658 Clouds 12 1012 42 0 1.82 180 23:18 08.03.2020
1659 Clouds 12 1012 42 0 1.82 180 22:40 08.03.2020
1660 Clouds 12 1012 42 0 1.82 180 22:22 08.03.2020
1661 Clouds 12 1012 42 0 1.82 180 21:59 08.03.2020
1662 Clouds 12 1012 42 0 1.82 180 21:40 08.03.2020
1663 Clouds 12 1012 42 0 1.82 180 21:20 08.03.2020
1664 Clouds 12 1012 42 0 1.82 180 20:57 08.03.2020
1665 Clouds 12 1012 42 0 1.82 180 20:37 08.03.2020
1666 Clear 9 1013 53 0 1.29 186 20:19 08.03.2020
1667 Clear 9 1013 53 0 1.29 186 19:40 08.03.2020
1668 Clear 9 1013 53 0 1.29 186 19:19 08.03.2020
1669 Clear 9 1013 53 0 1.29 186 18:55 08.03.2020
1670 Clear 9 1013 53 0 1.29 186 18:37 08.03.2020
1671 Clear 9 1015 53 0 0.89 130 18:18 08.03.2020
1672 Clear 7 1015 66 0 1.29 186 17:39 08.03.2020
1673 Clear 5 1015 71 0 0.45 177 17:21 08.03.2020
1674 Clear 3 1015 78 0 0.45 165 16:58 08.03.2020
1675 Clear 2 1014 87 0 2.19 268 16:40 08.03.2020
1676 Clear 1 1014 94 0 0.45 104 16:21 08.03.2020
1677 Clear 6 1014 72 0 2.19 268 15:41 08.03.2020
1678 Clear 6 1014 72 0 2.19 268 15:41 08.03.2020
1679 Clear 6 1014 72 0 2.19 268 15:22 08.03.2020
1680 Clear 6 1014 72 0 2.19 268 14:59 08.03.2020
1681 Clear 6 1014 72 0 2.19 268 14:38 08.03.2020
1682 Clear 5 1011 77 0 3.04 254 14:19 08.03.2020
1683 Clear 5 1011 77 0 3.04 254 13:42 08.03.2020
1684 Clear 5 1011 77 0 3.04 254 13:21 08.03.2020
1685 Clouds 5 1012 77 0 2.89 254 12:57 08.03.2020
1686 Clouds 5 1012 77 0 2.89 254 12:37 08.03.2020
1687 Clouds 5 1012 77 0 2.89 254 12:18 08.03.2020
1688 Clouds 5 1012 77 0 2.89 254 11:41 08.03.2020
1689 Clouds 5 1012 77 0 2.89 254 11:22 08.03.2020
1690 Clouds 7 1012 73 0 4.66 242 10:57 08.03.2020
1691 Clouds 7 1012 73 0 4.66 242 10:39 08.03.2020
1692 Clouds 7 1012 73 0 4.66 242 10:21 08.03.2020
1693 Clouds 7 1012 73 0 4.66 242 09:39 08.03.2020
1694 Clouds 7 1012 73 0 4.66 242 09:21 08.03.2020
1695 Clouds 3 1011 58 0 4.66 242 08:46 08.03.2020
1696 Clouds 3 1010 57 0 0.89 104 08:21 08.03.2020
1697 Clouds 8 1011 67 0 4.74 236 07:49 08.03.2020
1698 Clouds 8 1011 67 0 4.74 236 07:28 08.03.2020
1699 Clouds 8 1011 67 0 4.74 236 06:45 08.03.2020
1700 Clouds 4 1010 49 0 1.34 229 06:27 08.03.2020
1701 Clouds 6 1009 50 0 2.24 176 05:47 08.03.2020
1702 Clouds 8 1008 44 0 1.79 183 03:52 08.03.2020
1703 Clouds 8 1007 43 0 3.58 204 02:59 08.03.2020
1704 Clouds 12 1007 43 0 2.24 159 01:38 08.03.2020
1705 Clouds 12 1007 38 0 4.02 143 01:19 08.03.2020
1706 Clouds 13 1007 36 0 3.58 151 00:41 08.03.2020
1707 Clouds 14 1007 37 0 4.02 225 23:59 07.03.2020
1708 Clouds 13 1007 36 0 3.13 202 23:41 07.03.2020
1709 Clouds 12 1007 35 0 3.58 176 23:19 07.03.2020
1710 Clouds 12 1007 34 0 3.13 154 22:38 07.03.2020
1711 Clouds 13 1007 35 0 3.58 179 22:19 07.03.2020
1712 Clouds 13 1007 34 0 4.02 215 21:45 07.03.2020
1713 Clouds 12 1008 36 0 5.36 240 21:24 07.03.2020
1714 Clouds 12 1008 37 0 3.58 137 20:42 07.03.2020
1715 Clouds 12 1008 35 0 3.13 168 20:22 07.03.2020
1716 Clouds 11 1008 34 0 3.13 216 19:57 07.03.2020
1717 Clouds 11 1008 35 0 2.68 204 19:38 07.03.2020
1718 Clouds 10 1008 36 0 2.24 174 19:19 07.03.2020
1719 Clouds 10 1008 36 0 2.24 227 18:41 07.03.2020
1720 Clouds 9 1009 36 0 2.24 230 18:22 07.03.2020
1721 Clouds 9 1009 36 0 2.24 205 17:54 07.03.2020
1722 Clouds 8 1009 39 0 2.68 234 17:36 07.03.2020
1723 Clouds 8 1009 41 0 1.79 220 17:18 07.03.2020
1724 Clouds 7 1009 43 0 2.24 223 16:42 07.03.2020
1725 Clouds 7 1009 45 0 0.89 245 16:23 07.03.2020
1726 Clouds 6 1008 45 0 1.34 225 15:57 07.03.2020
1727 Clouds 6 1008 46 0 1.79 234 15:39 07.03.2020
1728 Clouds 6 1008 46 0 1.79 234 15:39 07.03.2020
1729 Clouds 5 1008 49 0 0.89 241 15:21 07.03.2020
1730 Clouds 6 1008 48 0 1.79 232 14:56 07.03.2020
1731 Clouds 6 1008 47 0 1.34 237 14:37 07.03.2020
1732 Clouds 7 1008 45 0 1.79 216 14:19 07.03.2020
1733 Clouds 7 1008 45 0 0.45 238 13:40 07.03.2020
1734 Clouds 7 1009 46 0 1.34 235 13:20 07.03.2020
1735 Clouds 7 1009 44 0 1.34 239 12:44 07.03.2020
1736 Clouds 7 1009 44 0 2.24 254 12:22 07.03.2020
1737 Clouds 8 1009 43 0 1.79 232 11:59 07.03.2020
1738 Clouds 8 1009 44 0 1.79 245 11:40 07.03.2020
1739 Clouds 8 1010 45 0 1.34 233 11:22 07.03.2020
1740 Clouds 9 1010 39 0 1.34 239 10:42 07.03.2020
1741 Clouds 9 1011 43 0 4.3 243 10:21 07.03.2020
1742 Clouds 10 1011 42 0 0.45 204 09:58 07.03.2020
1743 Clouds 10 1011 41 0 1.79 233 09:39 07.03.2020
1744 Clouds 10 1011 41 0 1.34 204 09:19 07.03.2020
1745 Clouds 10 1011 41 0 4.3 243 08:44 07.03.2020
1746 Clouds 10 1011 40 0 0.89 227 08:22 07.03.2020
1747 Clear 15 1012 32 0 4.08 221 07:59 07.03.2020
1748 Clear 15 1012 32 0 4.08 221 07:41 07.03.2020
1749 Clear 15 1012 32 0 4.08 221 07:20 07.03.2020
1750 Clear 10 1012 46 0 4.08 221 06:37 07.03.2020
1751 Clear 11 1012 43 0 0.45 260 05:57 07.03.2020
1752 Clear 12 1012 40 0 0.89 238 05:35 07.03.2020
1753 Clear 14 1011 24 0 0.89 155 02:58 07.03.2020
1754 Clear 15 1011 23 0 1.34 153 02:39 07.03.2020
1755 Clouds 18 1011 21 0 1.79 247 01:47 07.03.2020
1756 Clouds 19 1012 20 0 2.68 166 00:42 07.03.2020
1757 Clouds 19 1012 19 0 3.13 146 00:23 07.03.2020
1758 Clouds 19 1012 17 0 2.24 243 23:56 06.03.2020
1759 Clouds 19 1012 16 0 1.79 179 23:38 06.03.2020
1760 Clouds 19 1013 17 0 3.13 139 23:20 06.03.2020
1761 Clouds 19 1013 19 0 2.24 229 22:42 06.03.2020
1762 Clouds 19 1014 20 0 2.68 218 22:19 06.03.2020
1763 Clouds 19 1014 20 0 2.68 218 22:19 06.03.2020
1764 Clouds 20 1014 23 0 3.56 154 21:45 06.03.2020
1765 Clouds 20 1014 23 0 3.56 154 21:19 06.03.2020
1766 Clouds 20 1014 23 0 3.56 154 20:42 06.03.2020
1767 Clouds 20 1014 23 0 3.56 154 20:21 06.03.2020
1768 Clouds 18 1016 24 0 2.06 133 19:55 06.03.2020
1769 Clouds 18 1016 24 0 2.06 133 19:36 06.03.2020
1770 Clouds 18 1016 24 0 2.06 133 19:18 06.03.2020
1771 Clouds 18 1017 25 0 1.79 90 18:42 06.03.2020
1772 Clouds 18 1017 25 0 0.89 110 18:20 06.03.2020
1773 Clouds 18 1017 26 0 0.89 190 17:56 06.03.2020
1774 Clouds 16 1017 28 0 2.06 133 17:38 06.03.2020
1775 Clouds 13 1017 37 0 0.24 109 17:20 06.03.2020
1776 Clouds 9 1017 47 0 0.24 109 16:43 06.03.2020
1777 Clouds 13 1017 37 0 0.24 109 16:21 06.03.2020
1778 Clouds 13 1017 37 0 0.24 109 15:59 06.03.2020
1779 Clouds 13 1017 37 0 0.24 109 15:40 06.03.2020
1780 Clouds 13 1017 37 0 0.24 109 15:21 06.03.2020
1781 Clouds 13 1017 37 0 0.24 109 14:40 06.03.2020
1782 Clouds 13 1017 37 0 0.24 109 14:22 06.03.2020
1783 Clouds 13 1016 36 0 0.28 173 13:55 06.03.2020
1784 Clouds 13 1016 36 0 0.28 173 13:36 06.03.2020
1785 Clouds 13 1016 36 0 0.28 173 13:18 06.03.2020
1786 Clouds 12 1016 35 0 0.51 188 12:40 06.03.2020
1787 Clouds 12 1016 35 0 0.51 188 12:20 06.03.2020
1788 Clouds 12 1016 35 0 0.51 188 11:59 06.03.2020
1789 Clouds 12 1016 35 0 0.51 188 11:40 06.03.2020
1790 Clouds 13 1018 33 0 0.67 216 11:20 06.03.2020
1791 Clouds 13 1018 33 0 0.67 216 10:42 06.03.2020
1792 Clouds 13 1018 33 0 0.67 216 10:21 06.03.2020
1793 Clouds 13 1018 33 0 0.67 216 09:59 06.03.2020
1794 Clouds 13 1018 33 0 0.67 216 09:40 06.03.2020
1795 Clouds 13 1018 33 0 0.67 216 09:40 06.03.2020
1796 Clouds 13 1018 33 0 0.67 216 09:22 06.03.2020
1797 Clouds 13 1018 33 0 0.67 216 08:55 06.03.2020
1798 Clouds 13 1018 33 0 0.67 216 08:36 06.03.2020
1799 Clouds 15 1019 30 0 0.68 212 08:18 06.03.2020
1800 Clouds 9 1020 35 0 0.45 247 07:40 06.03.2020
1801 -273 0 0 0 0 0 07:21 06.03.2020
1802 Clouds 9 1020 37 0 0.68 212 06:42 06.03.2020
1803 Clouds 10 1020 36 0 0.68 212 06:18 06.03.2020
1804 Clouds 10 1020 36 0 0.68 212 05:37 06.03.2020
1805 Clouds 16 1018 29 0 0.48 195 05:18 06.03.2020
1806 Clouds 13 1019 31 0 0.48 195 04:25 06.03.2020
1807 Clouds 18 1018 20 0 1.79 208 01:43 06.03.2020
1808 Clouds 18 1018 19 0 2.24 191 01:25 06.03.2020
1809 Clouds 19 1018 20 0 2.68 218 00:49 06.03.2020
1810 Clouds 21 1019 19 0 1.79 168 00:30 06.03.2020
1811 Clouds 20 1017 18 0 2.71 126 23:43 05.03.2020
1812 Clouds 20 1017 18 0 2.71 126 23:24 05.03.2020
1813 Clouds 19 1020 19 0 2.53 114 22:55 05.03.2020
1814 Clouds 19 1020 19 0 2.53 114 22:36 05.03.2020
1815 Clouds 19 1020 19 0 2.53 114 22:18 05.03.2020
1816 Clouds 19 1020 19 0 2.53 114 21:54 05.03.2020
1817 Clouds 19 1020 19 0 2.53 114 21:36 05.03.2020
1818 Clouds 19 1020 19 0 2.53 114 21:36 05.03.2020
1819 Clouds 19 1020 19 0 2.53 114 21:18 05.03.2020
1820 Clouds 19 1020 19 0 2.53 114 20:42 05.03.2020
1821 Clouds 19 1020 19 0 2.53 114 20:42 05.03.2020
1822 Clouds 18 1022 22 0 1.57 101 20:21 05.03.2020
1823 Clouds 18 1022 22 0 1.57 101 19:59 05.03.2020
1824 Clouds 18 1022 22 0 1.57 101 19:40 05.03.2020
1825 Clouds 18 1022 22 0 1.57 101 19:21 05.03.2020
1826 Clouds 18 1022 22 0 1.57 101 18:58 05.03.2020
1827 Clouds 18 1022 22 0 1.57 101 18:37 05.03.2020
1828 Clouds 18 1022 22 0 1.57 101 18:19 05.03.2020
1829 Clouds 18 1022 22 0 1.57 101 17:57 05.03.2020
1830 Clouds 17 1023 28 0 0.45 76 17:39 05.03.2020
1831 Clouds 12 1021 40 0 0.47 56 17:21 05.03.2020
1832 Clouds 9 1023 46 0 0.47 56 16:42 05.03.2020
1833 Clouds 7 1022 49 0 0.47 56 16:24 05.03.2020
1834 Clouds 12 1021 40 0 0.47 56 15:58 05.03.2020
1835 Clouds 12 1021 40 0 0.47 56 15:38 05.03.2020
1836 Clouds 12 1021 40 0 0.47 56 15:20 05.03.2020
1837 Clouds 12 1021 40 0 0.47 56 14:43 05.03.2020
1838 Clouds 12 1021 40 0 0.47 56 14:23 05.03.2020
1839 Clouds 11 1020 40 0 0.22 176 13:59 05.03.2020
1840 Clouds 11 1020 40 0 0.22 176 13:40 05.03.2020
1841 Clouds 11 1020 40 0 0.07 87 13:21 05.03.2020
1842 Clouds 11 1020 40 0 0.07 87 12:56 05.03.2020
1843 Clouds 11 1020 40 0 0.07 87 12:38 05.03.2020
1844 Clouds 11 1020 40 0 0.07 87 12:38 05.03.2020
1845 Clouds 3 1020 58 0 0.07 87 12:18 05.03.2020
1846 Clouds 4 1020 58 0 0.07 87 11:56 05.03.2020
1847 Clouds 4 1020 56 0 0.07 87 11:37 05.03.2020
1848 Clouds 4 1020 55 0 0.56 254 11:18 05.03.2020
1849 Clouds 4 1020 55 0 0.56 254 10:55 05.03.2020
1850 Clouds 4 1020 55 0 0.56 254 10:37 05.03.2020
1851 Clouds 13 1020 39 0 0.56 254 10:19 05.03.2020
1852 Clouds 6 1020 50 0 0.56 254 09:41 05.03.2020
1853 Clouds 4 1020 53 0 0.45 121 09:23 05.03.2020
1854 Clouds 6 1020 51 0 0.56 254 08:43 05.03.2020
1855 Clouds 6 1020 50 0 0.56 254 08:25 05.03.2020
1856 Clear 14 1020 40 0 0.59 251 07:46 05.03.2020
1857 Clear 14 1020 40 0 0.59 251 07:22 05.03.2020
1858 Clear 7 1019 46 0 0.59 251 06:48 05.03.2020
1859 Clear 7 1019 46 0 0.59 251 06:22 05.03.2020
1860 Clear 8 1019 43 0 0.59 251 05:39 05.03.2020
1861 Clear 10 1019 37 0 0.37 231 04:55 05.03.2020
1862 Clear 12 1018 32 0 0.37 231 04:22 05.03.2020
1863 Clear 14 1018 26 0 0.37 231 03:34 05.03.2020
1864 Clouds 19 1017 24 0 1.84 96 01:58 05.03.2020
1865 Clouds 19 1017 25 0 1.73 104 01:22 05.03.2020
1866 Clouds 19 1017 25 0 1.73 104 00:26 05.03.2020
1867 Clouds 19 1017 25 0 1.73 104 23:43 04.03.2020
1868 Clouds 19 1017 25 0 1.73 104 23:23 04.03.2020
1869 Clouds 18 1018 27 0 1.66 90 22:58 04.03.2020
1870 Clouds 18 1018 27 0 1.66 90 22:39 04.03.2020
1871 Clouds 18 1018 27 0 1.66 90 22:19 04.03.2020
1872 Clouds 18 1018 27 0 1.66 90 21:58 04.03.2020
1873 Clouds 18 1018 27 0 1.66 90 21:40 04.03.2020
1874 Clouds 18 1018 27 0 1.66 90 21:20 04.03.2020
1875 Clouds 18 1018 27 0 1.66 90 20:56 04.03.2020
1876 Clouds 18 1018 27 0 1.66 90 20:37 04.03.2020
1877 Clear 16 1020 29 0 2 50 20:18 04.03.2020
1878 Clear 16 1020 29 0 2 50 19:42 04.03.2020
1879 Clear 16 1020 29 0 2 50 19:23 04.03.2020
1880 Clear 16 1020 29 0 2 50 18:56 04.03.2020
1881 Clear 17 1019 25 0 1.34 273 18:36 04.03.2020
1882 Clear 16 1019 27 0 0.89 272 18:18 04.03.2020
1883 Clear 15 1019 26 0 0.89 264 17:55 04.03.2020
1884 Clear 14 1019 28 0 0.45 240 17:37 04.03.2020
1885 Clear 12 1019 41 0 1.4 356 17:18 04.03.2020
1886 Clear 9 1019 41 0 1.4 356 16:42 04.03.2020
1887 Clear 7 1018 44 0 0.45 131 16:24 04.03.2020
1888 Clear 4 1018 53 0 0.45 104 15:57 04.03.2020
1889 Clear 12 1019 41 0 1.4 356 15:39 04.03.2020
1890 Clear 3 1018 53 0 1.4 356 15:21 04.03.2020
1891 Clear 3 1018 53 0 1.4 356 14:54 04.03.2020
1892 Clear 4 1017 49 0 0.45 78 14:36 04.03.2020
1893 Clear 4 1017 49 0 1.28 346 14:18 04.03.2020
1894 Clear 4 1017 48 0 1.28 346 13:55 04.03.2020
1895 Clear 5 1017 45 0 1.28 346 13:36 04.03.2020
1896 Clear 6 1017 42 0 1.28 346 13:18 04.03.2020
1897 Clear 8 1017 36 0 1.65 340 12:42 04.03.2020
1898 Clear 9 1017 35 0 2.24 304 12:23 04.03.2020
1899 Clear 9 1017 36 0 1.79 277 11:55 04.03.2020
1900 Clear 8 1017 37 0 1.79 322 11:37 04.03.2020
1901 Clear 8 1017 38 0 1.79 310 11:19 04.03.2020
1902 Clear 7 1017 40 0 2.27 358 10:45 04.03.2020
1903 Clear 7 1017 42 0 2.27 358 10:25 04.03.2020
1904 Clear 8 1017 39 0 0.45 147 09:58 04.03.2020
1905 Clear 9 1017 36 0 0.45 172 09:40 04.03.2020
1906 Clear 13 1018 36 0 2.27 358 09:20 04.03.2020
1907 Clear 13 1018 36 0 2.27 358 08:43 04.03.2020
1908 Clear 13 1018 36 0 2.27 358 08:24 04.03.2020
1909 Clear 14 1017 33 0 2.52 357 07:48 04.03.2020
1910 Clear 14 1017 33 0 2.52 357 07:30 04.03.2020
1911 Clear 14 1017 33 0 2.52 357 06:54 04.03.2020
1912 Clear 14 1017 33 0 2.52 357 06:26 04.03.2020
1913 Clear 14 1017 33 0 2.52 357 05:59 04.03.2020
1914 Clear 14 1017 33 0 2.52 357 05:32 04.03.2020
1915 Clear 14 1016 28 0 4.47 349 03:58 04.03.2020
1916 Clear 16 1015 30 0 3.21 354 03:37 04.03.2020
1917 Clear 13 1016 29 0 4.02 359 02:59 04.03.2020
1918 Clear 16 1015 30 0 3.21 354 02:31 04.03.2020
1919 Clear 17 1014 23 0 3.59 44 01:57 04.03.2020
1920 Clear 17 1014 23 0 3.59 44 01:37 04.03.2020
1921 Clear 17 1014 23 0 3.73 41 00:42 04.03.2020
1922 Clear 17 1014 23 0 3.73 41 00:24 04.03.2020
1923 Clear 17 1014 23 0 3.73 41 23:44 03.03.2020
1924 Clear 17 1014 23 0 3.73 41 23:24 03.03.2020
1925 Clear 15 1015 24 0 4.18 36 22:56 03.03.2020
1926 Clear 15 1015 24 0 4.18 36 22:38 03.03.2020
1927 Clear 15 1015 24 0 4.18 36 22:19 03.03.2020
1928 Clear 15 1015 24 0 4.18 36 21:56 03.03.2020
1929 Clear 19 1018 22 0 4.02 40 21:36 03.03.2020
1930 Clear 17 1018 24 0 4.92 349 21:18 03.03.2020
1931 Clear 17 1018 24 0 4.92 349 21:18 03.03.2020
1932 Clear 18 1018 23 0 4.92 345 20:40 03.03.2020
1933 Clear 13 1017 26 0 4.78 31 20:20 03.03.2020
1934 Clear 12 1017 26 0 4.56 31 19:58 03.03.2020
1935 Clear 12 1017 27 0 4.73 31 19:37 03.03.2020
1936 Clear 12 1017 27 0 4.73 31 19:19 03.03.2020
1937 Clear 12 1017 27 0 4.73 31 18:58 03.03.2020
1938 Clear 14 1019 26 0 2.68 345 18:40 03.03.2020
1939 Clear 12 1019 29 0 0.89 341 18:20 03.03.2020
1940 Clear 11 1020 29 0 0.89 251 17:56 03.03.2020
1941 Clear 11 1020 29 0 1.34 266 17:37 03.03.2020
1942 Clear 8 1017 35 0 3.97 12 17:19 03.03.2020
1943 Clear 8 1020 34 0 0.45 345 16:56 03.03.2020
1944 Clear 7 1020 37 0 3.97 12 16:37 03.03.2020
1945 Clear 6 1020 38 0 1.34 252 16:18 03.03.2020
1946 Clear 5 1019 38 0 1.34 342 15:43 03.03.2020
1947 Clear 4 1019 39 0 3.58 317 15:22 03.03.2020
1948 Clear 5 1019 37 0 3.13 325 14:57 03.03.2020
1949 Clear 4 1019 39 0 3.13 335 14:37 03.03.2020
1950 Clear 4 1019 39 0 2.68 331 14:19 03.03.2020
1951 Clear 4 1019 38 0 3.58 333 13:56 03.03.2020
1952 Clear 4 1019 39 0 4.02 322 13:38 03.03.2020
1953 Clear 3 1019 39 0 3.13 325 13:18 03.03.2020
1954 Clear 3 1019 39 0 2.68 316 12:43 03.03.2020
1955 Clear 3 1019 38 0 4.47 295 12:24 03.03.2020
1956 Clear 3 1019 37 0 4.47 342 11:55 03.03.2020
1957 Clear 6 1019 31 0 2.68 314 11:37 03.03.2020
1958 Clear 7 1019 28 0 4.47 333 11:18 03.03.2020
1959 Clear 7 1019 26 0 4.47 312 10:55 03.03.2020
1960 Clear 7 1019 26 0 5.81 324 10:36 03.03.2020
1961 Clear 6 1019 27 0 4.92 295 10:18 03.03.2020
1962 Clear 6 1019 28 0 4.02 339 09:42 03.03.2020
1963 Clear 6 1020 29 0 2.24 27 09:21 03.03.2020
1964 Clear 4 1020 32 0 2.68 353 08:42 03.03.2020
1965 Clear 4 1020 31 0 1.34 288 08:24 03.03.2020
1966 Clear 4 1020 30 0 2.24 313 07:56 03.03.2020
1967 Clear 4 1020 29 0 1.34 250 07:38 03.03.2020
1968 Clear 6 1020 27 0 2.24 273 07:19 03.03.2020
1969 Clear 6 1020 27 0 2.24 273 07:19 03.03.2020
1970 Clear 7 1019 24 0 4.47 8 06:40 03.03.2020
1971 Clear 7 1019 24 0 4.92 330 06:21 03.03.2020
1972 Clear 6 1019 24 0 4.92 329 05:43 03.03.2020
1973 Clear 7 1019 22 0 6.26 339 04:56 03.03.2020
1974 Clear 7 1018 23 0 4.92 349 03:26 03.03.2020
1975 Clear 11 1012 21 0 7.72 11 01:35 03.03.2020
1976 Clear 12 1011 21 0 7.7 9 00:47 03.03.2020
1977 Clear 12 1011 21 0 7.7 9 00:47 03.03.2020
1978 Clear 12 1011 21 0 7.7 9 00:24 03.03.2020
1979 Clear 12 1011 21 0 7.7 9 23:51 02.03.2020
1980 Clear 12 1011 21 0 7.7 9 23:23 02.03.2020
1981 Clouds 11 1013 27 0 7.7 15 22:58 02.03.2020
1982 Clouds 11 1013 27 0 7.7 15 22:58 02.03.2020
1983 Clouds 11 1013 27 0 7.7 15 22:39 02.03.2020
1984 Clouds 11 1013 27 0 7.7 15 22:20 02.03.2020
1985 Clouds 11 1013 27 0 7.7 15 21:58 02.03.2020
1986 Clouds 11 1019 21 0 3.13 318 21:39 02.03.2020
1987 Clouds 10 1019 22 0 4.47 312 21:21 02.03.2020
1988 Clouds 10 1019 23 0 4.02 349 20:58 02.03.2020
1989 Clouds 9 1019 24 0 4.92 331 20:38 02.03.2020
1990 Clouds 8 1016 33 0 8.29 19 20:20 02.03.2020
1991 Clear 8 1015 32 0 8.23 20 20:20 02.03.2020
1992 Clear 8 1015 32 0 8.23 20 19:55 02.03.2020
1993 Clear 8 1015 32 0 8.23 20 19:55 02.03.2020
1994 Clear 8 1015 32 0 8.23 20 19:37 02.03.2020
1995 Clear 8 1015 32 0 8.23 20 19:18 02.03.2020
1996 Clear 6 1020 31 0 4.92 335 18:44 02.03.2020
1997 Clear 6 1020 33 0 5.36 337 18:19 02.03.2020
1998 Clear 4 1020 32 0 7.15 329 17:58 02.03.2020
1999 Clear 4 1019 39 0 3.13 314 17:40 02.03.2020
2000 Clear 3 1019 41 0 5.81 358 17:21 02.03.2020
2001 Clear 2 1019 47 0 4.02 357 16:55 02.03.2020
2002 Clear 1 1018 50 0 3.13 302 16:37 02.03.2020
2003 Clear 1 1018 48 0 3.58 342 16:19 02.03.2020
2004 Clear 1 1017 48 0 4.02 343 15:43 02.03.2020
2005 Clear 0 1017 50 0 4.47 316 15:20 02.03.2020
2006 Clear 0 1017 50 0 5.81 327 14:55 02.03.2020
2007 Clear 0 1017 55 0 4.02 339 14:36 02.03.2020
2008 Clouds 0 1016 54 0 4.02 318 14:18 02.03.2020
2009 Clouds 0 1016 53 0 4.02 277 13:39 02.03.2020
2010 Clouds 1 1016 54 0 4.47 318 13:19 02.03.2020
2011 Clouds 1 1015 53 0 6.71 316 12:44 02.03.2020
2012 Clouds 1 1015 58 0 4.02 319 12:21 02.03.2020
2013 Clouds 1 1015 57 0 4.47 349 11:57 02.03.2020
2014 Clouds 1 1015 56 0 4.92 351 11:37 02.03.2020
2015 Rain 1 1015 57 0 4.02 346 11:18 02.03.2020
2016 Rain 1 1015 57 0 5.36 355 10:55 02.03.2020
2017 Rain 1 1015 62 0 4.02 281 10:36 02.03.2020
2018 Rain 1 1015 62 0 4.92 347 10:18 02.03.2020
2019 Rain 1 1015 67 0 5.36 355 09:44 02.03.2020
2020 Rain 1 1015 67 0 5.36 355 09:25 02.03.2020
2021 Rain 1 1015 72 0 5.36 351 08:47 02.03.2020
2022 Rain 1 1015 74 0 4.92 349 08:22 02.03.2020
2023 Rain 0 1014 82 0 2.68 338 07:44 02.03.2020
2024 Rain 0 1014 82 0 2.68 338 07:44 02.03.2020
2025 Rain 0 1014 81 0 4.47 248 07:20 02.03.2020
2026 Rain 1 1014 80 0 3.13 288 06:49 02.03.2020
2027 Rain 1 1013 83 0 3.13 345 05:57 02.03.2020
2028 Rain 1 1011 81 0 4.47 356 04:51 02.03.2020
2029 Rain 1 1010 88 0 1.79 325 03:25 02.03.2020
2030 Rain 1 1009 84 0 2.24 316 02:49 02.03.2020
2031 Clear 1 1008 87 0 2.24 259 01:55 02.03.2020
2032 Clear 1 1008 88 0 2.24 314 01:33 02.03.2020
2033 Clear 3 1006 82 0 2.24 270 00:24 02.03.2020
2034 Clear 3 1006 74 0 2.68 220 23:59 01.03.2020
2035 Clear 4 1006 72 0 2.68 314 23:41 01.03.2020
2036 Clear 4 1005 70 0 2.68 295 23:21 01.03.2020
2037 Clear 7 1005 56 0 3.13 250 22:44 01.03.2020
2038 Clear 9 1004 36 0 2.24 206 22:21 01.03.2020
2039 Clear 9 1004 36 0 2.24 206 22:21 01.03.2020
2040 Clear 9 1004 33 0 1.79 211 21:57 01.03.2020
2041 Clear 9 1004 32 0 1.34 134 21:39 01.03.2020
2042 Clear 9 1004 31 0 3.13 152 21:20 01.03.2020
2043 Clear 9 1005 31 0 1.34 177 20:45 01.03.2020
2044 Clear 11 1005 31 0 3.13 143 20:26 01.03.2020
2045 Clear 10 1008 37 0 5.72 250 19:59 01.03.2020
2046 Clear 10 1008 37 0 5.72 250 19:41 01.03.2020
2047 Clear 10 1008 37 0 5.72 250 19:21 01.03.2020
2048 Clear 10 1008 37 0 5.72 250 18:57 01.03.2020
2049 Clear 11 1005 37 0 2.68 56 18:39 01.03.2020
2050 Clear 10 1005 39 0 1.79 79 18:19 01.03.2020
2051 Clear 9 1005 42 0 2.68 35 17:55 01.03.2020
2052 Clear 9 1005 43 0 1.79 40 17:37 01.03.2020
2053 Clear 7 1008 65 0 5.66 247 17:18 01.03.2020
2054 Clear 7 1008 65 0 5.66 247 16:54 01.03.2020
2055 Clear 7 1008 65 0 5.66 247 16:36 01.03.2020
2056 Clear 7 1004 36 0 0.89 125 16:18 01.03.2020
2057 Clear 7 1005 36 0 2.68 195 15:55 01.03.2020
2058 Clear 7 1008 65 0 5.66 247 15:36 01.03.2020
2059 Clear 7 1008 65 0 5.66 247 15:18 01.03.2020
2060 Clear 7 1008 65 0 5.66 247 14:54 01.03.2020
2061 Clear 7 1008 65 0 5.66 247 14:36 01.03.2020
2062 Clear 7 1008 65 0 5.66 247 14:36 01.03.2020
2063 Clear 6 1004 42 0 4.02 241 14:18 01.03.2020
2064 Clear 6 1005 41 0 0.89 77 13:43 01.03.2020
2065 Clear 7 1005 38 0 0.89 140 13:21 01.03.2020
2066 Clear 7 1005 39 0 1.34 175 12:59 01.03.2020
2067 Clear 9 1008 56 0 5.73 250 12:40 01.03.2020
2068 Clear 7 1005 37 0 1.79 134 12:20 01.03.2020
2069 Clear 7 1005 35 0 2.24 118 11:41 01.03.2020
2070 Clear 7 1006 34 0 1.34 195 11:22 01.03.2020
2071 Clear 7 1005 33 0 2.24 178 10:57 01.03.2020
2072 Clear 8 1006 33 0 2.24 209 10:37 01.03.2020
2073 Clear 7 1006 32 0 4.02 233 10:19 01.03.2020
2074 Clear 7 1006 29 0 7.47 250 09:46 01.03.2020
2075 Clear 10 1008 50 0 6.97 250 09:27 01.03.2020
2076 Clear 9 1007 24 0 3.13 222 08:57 01.03.2020
2077 Clear 9 1007 23 0 3.58 243 08:38 01.03.2020
2078 Clear 10 1007 21 0 5.36 258 08:19 01.03.2020
2079 Clear 9 1007 21 0 2.68 189 07:42 01.03.2020
2080 Clear 9 1007 25 0 5.36 241 07:23 01.03.2020
2081 Clear 12 1009 38 0 5.19 237 06:51 01.03.2020
2082 Clear 12 1009 38 0 5.19 237 06:29 01.03.2020
2083 Clear 11 1008 24 0 3.13 247 04:18 01.03.2020
2084 Clear 15 1009 22 0 6.11 245 02:27 01.03.2020
2085 Clouds 16 1009 20 0 2.68 266 01:52 01.03.2020
2086 Clouds 17 1009 18 0 3.58 254 01:21 01.03.2020
2087 Clouds 16 1009 18 0 4.47 239 00:43 01.03.2020
2088 Clouds 18 1010 15 0 4.02 206 00:21 01.03.2020
2089 Clouds 17 1010 17 0 0.89 173 23:49 29.02.2020
2090 Clouds 19 1010 17 0 6.96 228 23:30 29.02.2020
2091 Clouds 18 1010 19 0 1.34 21 22:44 29.02.2020
2092 Clouds 17 1011 19 0 2.68 33 22:24 29.02.2020
2093 Clouds 19 1011 17 0 1.79 71 21:42 29.02.2020
2094 Clouds 18 1012 17 0 2.68 50 21:24 29.02.2020
2095 Clouds 17 1013 20 0 1.79 40 20:44 29.02.2020
2096 Clouds 18 1012 17 0 2.98 220 20:22 29.02.2020
2097 Clouds 16 1015 21 0 0.84 179 19:57 29.02.2020
2098 Clouds 16 1015 21 0 0.84 179 19:38 29.02.2020
2099 Clouds 16 1014 22 0 0.89 50 19:19 29.02.2020
2100 Clouds 16 1014 22 0 0.89 73 18:43 29.02.2020
2101 Clouds 16 1014 22 0 0.45 73 18:25 29.02.2020
2102 Clouds 13 1014 25 0 0.45 92 17:58 29.02.2020
2103 Clouds 13 1014 25 0 0.84 179 17:40 29.02.2020
2104 Clouds 13 1014 25 0 0.84 179 17:40 29.02.2020
2105 Clouds 13 1014 25 0 0.84 179 17:21 29.02.2020
2106 Clouds 10 1014 34 0 0.45 27 16:56 29.02.2020
2107 Clouds 8 1014 37 0 1.18 286 16:37 29.02.2020
2108 Clouds 6 1014 38 0 1.18 286 16:18 29.02.2020
2109 Clouds 6 1014 38 0 1.18 286 16:18 29.02.2020
2110 Clouds 5 1014 40 0 1.18 286 15:41 29.02.2020
2111 Clouds 4 1014 48 0 1.18 286 15:23 29.02.2020
2112 Clouds 4 1014 49 0 1.18 286 14:42 29.02.2020
2113 Clouds 4 1014 49 0 1.18 286 14:24 29.02.2020
2114 Clouds 4 1014 49 0 1.18 286 14:24 29.02.2020
2115 Clouds 4 1014 45 0 1.28 250 13:58 29.02.2020
2116 Clouds 4 1014 47 0 0.45 10 13:38 29.02.2020
2117 Clouds 12 1015 29 0 1.55 254 13:20 29.02.2020
2118 Clouds 6 1015 41 0 1.55 254 12:43 29.02.2020
2119 Clouds 6 1015 42 0 1.55 254 12:22 29.02.2020
2120 Clouds 6 1015 41 0 1.55 254 11:58 29.02.2020
2121 Clouds 6 1015 39 0 0.89 10 11:39 29.02.2020
2122 Clouds 6 1016 42 0 1.55 254 11:21 29.02.2020
2123 Clouds 7 1016 36 0 1.69 234 10:47 29.02.2020
2124 Clouds 8 1017 33 0 1.69 234 10:28 29.02.2020
2125 Clouds 8 1017 31 0 1.69 234 09:50 29.02.2020
2126 Clouds 8 1017 31 0 0.45 79 09:27 29.02.2020
2127 Clouds 8 1017 31 0 0.45 79 09:27 29.02.2020
2128 Clouds 8 1018 31 0 0.45 144 08:58 29.02.2020
2129 Clouds 8 1018 30 0 1.69 234 08:38 29.02.2020
2130 Clouds 9 1018 32 0 0.45 144 08:19 29.02.2020
2131 Clouds 9 1018 28 0 1.74 213 07:45 29.02.2020
2132 Clouds 9 1019 29 0 1.74 213 07:19 29.02.2020
2133 Clouds 9 1019 30 0 1.74 213 06:50 29.02.2020
2134 Clouds 9 1019 30 0 1.74 213 06:26 29.02.2020
2135 Clouds 9 1019 30 0 1.74 213 05:48 29.02.2020
2136 Clouds 10 1019 28 0 1.43 184 05:18 29.02.2020
2137 Clouds 13 1020 22 0 1.43 184 03:44 29.02.2020
2138 Clouds 13 1019 21 0 1.34 109 03:23 29.02.2020
2139 Clouds 14 1019 19 0 0.45 127 02:42 29.02.2020
2140 Clouds 17 1020 16 0 1.34 171 01:31 29.02.2020
2141 Clouds 18 1019 16 0 1.89 157 00:44 29.02.2020
2142 Clouds 18 1019 16 0 1.89 157 00:25 29.02.2020
2143 Clouds 18 1019 16 0 1.89 157 23:38 28.02.2020
2144 Clouds 18 1019 16 0 1.89 157 23:38 28.02.2020
2145 Clouds 18 1020 17 0 2.38 146 23:20 28.02.2020
2146 Clouds 18 1020 17 0 2.38 146 22:42 28.02.2020
2147 Clouds 18 1020 17 0 2.38 146 22:22 28.02.2020
2148 Clouds 19 1021 16 0 2.68 40 21:42 28.02.2020
2149 Clouds 19 1021 15 0 2.24 20 21:21 28.02.2020
2150 Clouds 20 1022 14 0 2.68 5 20:57 28.02.2020
2151 Clouds 20 1022 14 0 2.24 50 20:38 28.02.2020
2152 Clouds 17 1023 17 0 1.29 78 20:20 28.02.2020
2153 Clouds 17 1023 17 0 1.29 78 19:56 28.02.2020
2154 Clouds 17 1023 17 0 1.29 78 19:38 28.02.2020
2155 Clouds 17 1023 17 0 1.29 78 19:19 28.02.2020
2156 Clouds 17 1023 17 0 1.29 78 19:19 28.02.2020
2157 Clouds 17 1024 16 0 1.34 139 18:46 28.02.2020
2158 Clouds 16 1024 18 0 0.89 133 18:24 28.02.2020
2159 Clouds 14 1024 23 0 0.45 6 17:56 28.02.2020
2160 Clouds 10 1024 33 0 1.29 78 17:36 28.02.2020
2161 Clouds 10 1024 33 0 1.29 78 17:36 28.02.2020
2162 Clouds 8 1024 39 0 0.64 4 17:18 28.02.2020
2163 Clouds 6 1024 46 0 0.64 4 16:38 28.02.2020
2164 Clouds 5 1023 47 0 0.64 4 16:19 28.02.2020
2165 Clouds 5 1023 47 0 0.64 4 16:19 28.02.2020
2166 Clouds 5 1023 45 0 0.64 4 15:56 28.02.2020
2167 Clouds 6 1023 45 0 0.64 4 15:38 28.02.2020
2168 Clouds 6 1023 41 0 0.64 4 15:18 28.02.2020
2169 Clouds 6 1023 38 0 0.64 4 14:45 28.02.2020
2170 Clouds 6 1023 39 0 1.63 14 14:20 28.02.2020
2171 Clouds 5 1023 40 0 1.63 14 13:59 28.02.2020
2172 Clouds 5 1023 41 0 1.63 14 13:40 28.02.2020
2173 Clouds 4 1023 42 0 0.45 264 13:20 28.02.2020
2174 Clouds 5 1023 39 0 1.48 21 12:46 28.02.2020
2175 Clouds 5 1023 43 0 1.48 21 12:28 28.02.2020
2176 Clouds 6 1023 39 0 1.48 21 11:59 28.02.2020
2177 Clouds 6 1024 40 0 1.48 21 11:40 28.02.2020
2178 Clouds 6 1024 38 0 1.48 21 11:21 28.02.2020
2179 Clouds 13 1024 25 0 1.88 11 10:43 28.02.2020
2180 Clouds 4 1024 46 0 1.88 11 10:24 28.02.2020
2181 Clouds 4 1024 47 0 1.88 11 09:59 28.02.2020
2182 Clouds 13 1024 25 0 1.88 11 09:40 28.02.2020
2183 Clouds 13 1024 25 0 1.88 11 09:18 28.02.2020
2184 Clouds 4 1024 44 0 1.88 11 08:42 28.02.2020
2185 Clouds 4 1024 44 0 1.88 11 08:42 28.02.2020
2186 Clouds 5 1024 41 0 0.8 26 08:20 28.02.2020
2187 Clouds 13 1025 29 0 0.8 26 07:46 28.02.2020
2188 Clouds 13 1025 29 0 0.8 26 07:26 28.02.2020
2189 Clouds 8 1025 35 0 0.8 26 06:52 28.02.2020
2190 Clouds 8 1025 31 0 0.8 26 06:33 28.02.2020
2191 Clouds 9 1025 30 0 0.45 34 05:30 28.02.2020
2192 Clouds 10 1025 25 0 0.55 357 04:31 28.02.2020
2193 Clouds 13 1024 20 0 0.55 357 02:55 28.02.2020
2194 Clouds 14 1024 17 0 1.34 10 02:34 28.02.2020
2195 Clouds 17 1024 15 0 1.34 40 01:48 28.02.2020
2196 Clouds 17 1023 18 0 1.61 99 00:32 28.02.2020
2197 Clouds 17 1023 18 0 1.61 99 23:47 27.02.2020
2198 Clouds 17 1023 18 0 1.61 99 23:23 27.02.2020
2199 Clear 17 1024 18 0 2.01 82 22:59 27.02.2020
2200 Clear 17 1024 18 0 2.01 82 22:40 27.02.2020
2201 Clear 17 1024 18 0 2.01 82 22:22 27.02.2020
2202 Clear 17 1024 18 0 2.01 82 21:54 27.02.2020
2203 Clear 17 1024 18 0 2.01 82 21:36 27.02.2020
2204 Clear 17 1024 18 0 2.01 82 21:18 27.02.2020
2205 Clear 17 1024 18 0 2.01 82 20:41 27.02.2020
2206 Clouds 17 1024 17 0 2.06 89 20:23 27.02.2020
2207 Clear 17 1024 18 0 2.01 82 20:23 27.02.2020
2208 Clear 15 1027 18 0 1.46 84 19:57 27.02.2020
2209 Clear 15 1027 18 0 1.46 84 19:39 27.02.2020
2210 Clear 15 1027 18 0 1.46 84 19:21 27.02.2020
2211 Clear 15 1027 18 0 1.46 84 18:57 27.02.2020
2212 Clear 19 1027 15 0 0.89 64 18:39 27.02.2020
2213 Clear 18 1027 18 0 0.45 128 18:20 27.02.2020
2214 Clear 18 1027 17 0 1.46 84 17:56 27.02.2020
2215 Clear 16 1027 19 0 0.45 13 17:37 27.02.2020
2216 Clear 9 1025 32 0 1.34 29 17:18 27.02.2020
2217 Clear 8 1027 36 0 1.34 29 16:41 27.02.2020
2218 Clear 4 1027 39 0 1.34 29 16:20 27.02.2020
2219 Clear 9 1025 32 0 1.34 29 15:59 27.02.2020
2220 Clear 9 1025 32 0 1.34 29 15:38 27.02.2020
2221 Clear 3 1026 43 0 0.45 337 15:20 27.02.2020
2222 Clear 4 1026 41 0 0.45 337 14:59 27.02.2020
2223 Clear 5 1026 38 0 1.34 29 14:39 27.02.2020
2224 Clear 8 1026 31 0 0.62 341 14:20 27.02.2020
2225 Clear 8 1025 34 0 0.62 341 13:43 27.02.2020
2226 Clear 8 1025 34 0 0.62 341 13:22 27.02.2020
2227 Clear 8 1025 33 0 0.43 330 12:59 27.02.2020
2228 Clear 8 1025 33 0 0.43 330 12:41 27.02.2020
2229 Clear 8 1025 33 0 0.43 330 12:19 27.02.2020
2230 Clear 8 1025 33 0 0.43 330 11:45 27.02.2020
2231 Clear 9 1026 27 0 3.13 349 11:23 27.02.2020
2232 Clear 8 1027 29 0 0.89 320 10:55 27.02.2020
2233 Clear 9 1027 28 0 0.89 324 10:37 27.02.2020
2234 Clear 8 1027 30 0 0.89 317 10:18 27.02.2020
2235 Clear 2 1027 48 0 0.82 10 09:40 27.02.2020
2236 Clear 2 1027 48 0 0.82 10 09:40 27.02.2020
2237 Clear 1 1027 50 0 0.82 10 09:22 27.02.2020
2238 Clear 2 1027 49 0 0.82 10 08:42 27.02.2020
2239 Clear 2 1027 46 0 1.01 0 08:23 27.02.2020
2240 Clear 3 1027 41 0 0.8 32 07:48 27.02.2020
2241 Clear 3 1027 41 0 0.8 32 07:48 27.02.2020
2242 Clear 3 1027 38 0 0.45 330 07:28 27.02.2020
2243 Clear 2 1027 48 0 0.8 32 06:59 27.02.2020
2244 Clear 10 1026 33 0 0.8 32 06:20 27.02.2020
2245 Clear 6 1027 34 0 0.32 259 04:22 27.02.2020
2246 Clear 11 1026 20 0 0.45 14 02:54 27.02.2020
2247 Clear 14 1025 19 0 1.68 90 00:59 27.02.2020
2248 Clear 14 1025 19 0 1.68 90 00:37 27.02.2020
2249 Clear 14 1025 19 0 1.68 90 23:41 26.02.2020
2250 Clear 14 1028 18 0 1.88 114 23:20 26.02.2020
2251 Clear 14 1028 18 0 1.88 114 22:59 26.02.2020
2252 Clear 14 1028 18 0 1.88 114 22:40 26.02.2020
2253 Clear 14 1028 18 0 1.88 114 22:22 26.02.2020
2254 Clear 14 1028 18 0 1.88 114 21:58 26.02.2020
2255 Clear 14 1028 18 0 1.88 114 21:38 26.02.2020
2256 Clear 14 1028 18 0 1.88 114 21:19 26.02.2020
2257 Clear 18 1028 14 0 1.34 64 20:56 26.02.2020
2258 Clear 17 1029 15 0 1.79 45 20:38 26.02.2020
2259 Clear 17 1029 15 0 1.79 45 20:38 26.02.2020
2260 Clear 11 1030 20 0 1.85 99 20:19 26.02.2020
2261 Clear 11 1030 20 0 1.85 99 19:55 26.02.2020
2262 Clear 11 1030 20 0 1.85 99 19:36 26.02.2020
2263 Clear 11 1030 20 0 1.85 99 19:18 26.02.2020
2264 Clear 14 1030 18 0 0.89 79 18:41 26.02.2020
2265 Clear 14 1030 19 0 0.89 58 18:23 26.02.2020
2266 Clear 12 1030 20 0 0.89 40 17:59 26.02.2020
2267 Clear 12 1030 20 0 0.89 35 17:39 26.02.2020
2268 Clear 10 1030 23 0 0.89 75 17:18 26.02.2020
2269 Clear 8 1030 27 0 0.45 60 16:56 26.02.2020
2270 Clear 5 1030 36 0 0.44 170 16:37 26.02.2020
2271 Clear 2 1029 45 0 0.44 170 16:18 26.02.2020
2272 Clear 0 1029 46 0 0.44 170 15:43 26.02.2020
2273 Clear 1 1029 45 0 0.44 170 15:25 26.02.2020
2274 Clear 2 1029 38 0 0.44 170 14:43 26.02.2020
2275 Clear 3 1028 38 0 0.44 170 14:23 26.02.2020
2276 Clear 2 1028 37 0 0.76 130 13:44 26.02.2020
2277 Clear 2 1028 37 0 0.66 143 13:23 26.02.2020
2278 Clear 3 1028 40 0 0.66 143 12:59 26.02.2020
2279 Clear 7 1028 26 0 0.45 2 12:38 26.02.2020
2280 Clear 6 1029 32 0 0.66 143 12:18 26.02.2020
2281 Clear 6 1028 30 0 1.34 343 11:43 26.02.2020
2282 Clear 6 1028 30 0 1.34 343 11:23 26.02.2020
2283 Clear 6 1028 30 0 1.34 343 10:59 26.02.2020
2284 Clear 6 1028 30 0 1.34 343 10:39 26.02.2020
2285 Clear 5 1028 35 0 0.45 330 10:21 26.02.2020
2286 Clear 6 1028 33 0 0.45 330 09:44 26.02.2020
2287 Clear 5 1028 38 0 0.89 334 09:24 26.02.2020
2288 Clear 7 1028 32 0 0.75 130 08:59 26.02.2020
2289 Clear 6 1028 31 0 0.89 326 08:37 26.02.2020
2290 Clear 5 1028 36 0 0.89 324 08:19 26.02.2020
2291 Clear 7 1029 33 0 1.08 106 07:45 26.02.2020
2292 Clear 8 1029 30 0 1.08 106 07:26 26.02.2020
2293 Clear 8 1028 29 0 0.45 318 06:53 26.02.2020
2294 Clear 7 1028 31 0 0.45 280 06:34 26.02.2020
2295 Clear 9 1028 27 0 1.08 106 05:53 26.02.2020
2296 Clear 9 1027 25 0 0.45 32 05:25 26.02.2020
2297 Clear 9 1027 27 0 1.85 56 04:36 26.02.2020
2298 Clear 12 1027 22 0 1.85 56 02:33 26.02.2020
2299 Clear 15 1025 15 0 4.76 22 01:48 26.02.2020
2300 Clear 15 1025 15 0 4.5 27 00:51 26.02.2020
2301 Clear 15 1025 15 0 4.5 27 00:25 26.02.2020
2302 Clear 15 1025 15 0 4.5 27 23:57 25.02.2020
2303 Clear 15 1025 15 0 4.5 27 23:38 25.02.2020
2304 Clear 15 1026 16 0 4.55 31 23:20 25.02.2020
2305 Clear 15 1026 16 0 4.55 31 22:42 25.02.2020
2306 Clear 15 1026 16 0 4.55 31 22:19 25.02.2020
2307 Clear 15 1026 16 0 4.55 31 21:58 25.02.2020
2308 Clear 15 1026 16 0 4.55 31 21:37 25.02.2020
2309 Clear 18 1027 14 0 3.13 359 21:18 25.02.2020
2310 Clear 17 1027 14 0 4.92 358 20:55 25.02.2020
2311 Clear 17 1028 14 0 4.02 351 20:36 25.02.2020
2312 Clear 13 1027 19 0 4.6 32 20:18 25.02.2020
2313 Clear 13 1027 19 0 4.6 32 19:42 25.02.2020
2314 Clear 13 1027 19 0 4.6 32 19:20 25.02.2020
2315 Clear 13 1027 19 0 4.6 32 18:58 25.02.2020
2316 Clear 14 1028 16 0 1.34 19 18:38 25.02.2020
2317 Clear 13 1028 16 0 1.79 320 18:19 25.02.2020
2318 Clear 12 1028 15 0 2.68 341 17:54 25.02.2020
2319 Clear 12 1028 18 0 0.89 40 17:36 25.02.2020
2320 Clear 9 1026 27 0 2.88 4 17:18 25.02.2020
2321 Clear 9 1027 21 0 4.02 346 16:42 25.02.2020
2322 Clear 8 1027 22 0 4.47 344 16:22 25.02.2020
2323 Clear 7 1027 22 0 4.02 313 15:59 25.02.2020
2324 Clear 7 1027 22 0 4.02 313 15:59 25.02.2020
2325 Clear 6 1027 25 0 4.02 338 15:41 25.02.2020
2326 Clear 6 1027 25 0 4.02 338 15:41 25.02.2020
2327 Clear 5 1026 29 0 1.34 26 15:20 25.02.2020
2328 Clear 4 1026 29 0 1.79 30 14:58 25.02.2020
2329 Clear 3 1026 34 0 2.88 4 14:38 25.02.2020
2330 Clear 5 1026 34 0 2.96 359 14:18 25.02.2020
2331 Clear 5 1026 27 0 1.34 354 13:57 25.02.2020
2332 Clear 3 1025 34 0 2.24 3 13:38 25.02.2020
2333 Clear 3 1025 39 0 2.81 4 13:20 25.02.2020
2334 Clear 4 1024 33 0 0.45 331 12:42 25.02.2020
2335 Clear 4 1024 34 0 2.81 4 12:23 25.02.2020
2336 Clear 6 1024 27 0 1.79 12 11:59 25.02.2020
2337 Clear 6 1024 26 0 0.89 45 11:41 25.02.2020
2338 Clear 7 1024 26 0 1.34 334 11:20 25.02.2020
2339 Clear 7 1024 24 0 2.24 331 10:59 25.02.2020
2340 Clear 6 1024 26 0 2.68 344 10:41 25.02.2020
2341 Clear 5 1024 31 0 2.44 355 10:22 25.02.2020
2342 Clear 6 1024 29 0 2.24 10 09:42 25.02.2020
2343 Clear 4 1024 31 0 0.89 337 09:23 25.02.2020
2344 Clear 6 1024 31 0 1.34 302 08:56 25.02.2020
2345 Clear 8 1024 22 0 2.44 355 08:37 25.02.2020
2346 Clear 8 1024 22 0 2.68 348 08:19 25.02.2020
2347 Clear 9 1024 19 0 3.58 339 07:41 25.02.2020
2348 Clear 9 1024 21 0 2.24 349 07:20 25.02.2020
2349 Clear 9 1024 21 0 0.45 289 06:41 25.02.2020
2350 Clear 10 1023 24 0 0.89 281 05:39 25.02.2020
2351 Clear 9 1023 27 0 0.59 346 03:44 25.02.2020
2352 Clear 13 1021 24 0 0.59 346 02:31 25.02.2020
2353 Clear 17 1020 11 0 2.05 59 00:55 25.02.2020
2354 Clear 17 1020 11 0 2.05 59 00:29 25.02.2020
2355 Clear 17 1020 11 0 2.05 59 23:44 24.02.2020
2356 Clear 17 1020 11 0 2.05 59 23:22 24.02.2020
2357 Clear 17 1021 15 0 3.19 49 22:43 24.02.2020
2358 Clear 17 1021 15 0 3.19 49 22:21 24.02.2020
2359 Clear 17 1021 15 0 3.19 49 21:58 24.02.2020
2360 Clear 17 1021 15 0 3.19 49 21:39 24.02.2020
2361 Clear 19 1024 10 0 2.24 239 21:20 24.02.2020
2362 Clear 18 1025 11 0 2.68 350 20:59 24.02.2020
2363 Clear 18 1025 11 0 2.68 350 20:59 24.02.2020
2364 Clear 18 1025 9 0 4.02 341 20:41 24.02.2020
2365 Clear 15 1023 29 0 2.35 47 20:19 24.02.2020
2366 Clear 15 1023 29 0 2.35 47 19:58 24.02.2020
2367 Clear 14 1025 14 0 2.24 263 19:40 24.02.2020
2368 Clear 13 1025 19 0 1.79 297 19:21 24.02.2020
2369 Clear 13 1025 23 0 2.24 266 18:56 24.02.2020
2370 Clear 13 1025 23 0 1.34 245 18:37 24.02.2020
2371 Clear 13 1026 25 0 0.89 282 18:19 24.02.2020
2372 Clear 12 1026 26 0 0.89 274 17:42 24.02.2020
2373 Clear 12 1026 26 0 0.89 274 17:42 24.02.2020
2374 Clear 9 1023 56 0 1.15 5 17:21 24.02.2020
2375 Clear 9 1026 34 0 0.89 320 16:58 24.02.2020
2376 Clear 8 1026 35 0 0.89 301 16:39 24.02.2020
2377 Clear 7 1025 36 0 2.24 231 16:21 24.02.2020
2378 Clear 7 1025 41 0 1.79 338 15:59 24.02.2020
2379 Clear 7 1025 39 0 2.68 314 15:40 24.02.2020
2380 Clear 7 1024 43 0 1.79 281 15:21 24.02.2020
2381 Clear 7 1025 44 0 2.68 291 14:58 24.02.2020
2382 Clear 7 1024 45 0 3.58 270 14:40 24.02.2020
2383 Clear 7 1024 49 0 1.34 317 14:19 24.02.2020
2384 Clear 7 1024 50 0 0.89 300 13:56 24.02.2020
2385 Clear 7 1024 50 0 1.79 292 13:37 24.02.2020
2386 Clear 8 1024 51 0 1.34 277 13:19 24.02.2020
2387 Clear 8 1024 50 0 4.02 345 12:56 24.02.2020
2388 Clear 8 1024 52 0 4.02 308 12:38 24.02.2020
2389 Clear 7 1024 56 0 1.34 338 12:19 24.02.2020
2390 Clear 7 1024 57 0 1.79 335 11:44 24.02.2020
2391 Clear 7 1024 56 0 2.24 324 11:26 24.02.2020
2392 Clear 6 1024 62 0 1.34 307 10:45 24.02.2020
2393 Clear 4 1024 69 0 0.86 325 10:26 24.02.2020
2394 Clear 4 1023 68 0 0.86 325 09:54 24.02.2020
2395 Clear 4 1023 68 0 0.86 325 09:36 24.02.2020
2396 Clear 6 1023 66 0 0.86 325 09:18 24.02.2020
2397 Clear 4 1024 72 0 0.86 325 08:44 24.02.2020
2398 Clear 4 1024 76 0 0.86 325 08:24 24.02.2020
2399 Clear 5 1024 73 0 0.45 91 07:44 24.02.2020
2400 Clear 6 1023 72 0 1.85 285 07:24 24.02.2020
2401 Clear 7 1023 65 0 0.45 91 06:36 24.02.2020
2402 Clear 7 1023 66 0 0.45 88 06:18 24.02.2020
2403 Clear 6 1023 68 0 0.45 40 05:28 24.02.2020
2404 Clear 9 1022 53 0 1.63 231 03:45 24.02.2020
2405 Clear 14 1021 43 0 1.63 231 02:52 24.02.2020
2406 Clear 16 1019 35 0 0.95 152 01:42 24.02.2020
2407 Clear 16 1019 32 0 1.05 143 00:52 24.02.2020
2408 Clear 16 1019 32 0 1.05 143 00:23 24.02.2020
2409 Clear 17 1023 23 0 0.89 206 23:59 23.02.2020
2410 Clear 16 1019 32 0 1.05 143 23:40 23.02.2020
2411 Clear 15 1020 37 0 0.59 147 23:18 23.02.2020
2412 Clear 15 1020 37 0 0.59 147 22:54 23.02.2020
2413 Clear 15 1020 37 0 0.59 147 22:36 23.02.2020
2414 Clear 15 1020 37 0 0.59 147 22:18 23.02.2020
2415 Clear 17 1024 34 0 1.34 344 21:43 23.02.2020
2416 Clear 17 1025 32 0 0.45 345 21:19 23.02.2020
2417 Clear 15 1025 35 0 0.59 147 20:56 23.02.2020
2418 Clear 16 1025 35 0 0.45 212 20:37 23.02.2020
2419 Clouds 12 1021 53 0 0.67 201 20:19 23.02.2020
2420 Clouds 12 1021 53 0 0.67 201 19:56 23.02.2020
2421 Clouds 12 1021 53 0 0.67 201 19:37 23.02.2020
2422 Clouds 13 1025 34 0 0.89 265 19:18 23.02.2020
2423 Clouds 12 1025 35 0 0.45 235 18:54 23.02.2020
2424 Clouds 12 1025 41 0 0.45 274 18:36 23.02.2020
2425 Clouds 13 1025 42 0 0.45 327 18:18 23.02.2020
2426 Clouds 12 1025 41 0 0.67 201 17:56 23.02.2020
2427 Clouds 10 1025 50 0 0.67 201 17:37 23.02.2020
2428 Clouds 9 1025 52 0 1.79 275 17:18 23.02.2020
2429 Clouds 7 1025 60 0 0.45 331 16:42 23.02.2020
2430 Clouds 6 1024 58 0 1.34 329 16:24 23.02.2020
2431 Clouds 4 1024 63 0 1.79 326 15:57 23.02.2020
2432 Clouds 4 1023 65 0 1.34 346 15:38 23.02.2020
2433 Clouds 4 1023 65 0 1.34 346 15:38 23.02.2020
2434 Clouds 6 1023 59 0 1.34 277 15:20 23.02.2020
2435 Clouds 6 1023 59 0 1.34 277 15:20 23.02.2020
2436 Clouds 5 1022 64 0 1.34 276 14:56 23.02.2020
2437 Clouds 4 1022 70 0 0.45 326 14:38 23.02.2020
2438 Clouds 5 1021 68 0 1.34 276 14:20 23.02.2020
2439 Clouds 4 1021 73 0 1.34 324 13:57 23.02.2020
2440 Clouds 4 1021 75 0 2.24 326 13:38 23.02.2020
2441 Clouds 4 1021 78 0 1.79 338 13:20 23.02.2020
2442 Clouds 4 1020 79 0 0.89 324 12:42 23.02.2020
2443 Clouds 5 1020 79 0 1.34 325 12:21 23.02.2020
2444 Clouds 5 1020 82 0 1.34 330 11:55 23.02.2020
2445 Clouds 5 1019 84 0 0.89 344 11:37 23.02.2020
2446 Rain 5 1019 84 0 1.34 328 11:18 23.02.2020
2447 Rain 5 1019 87 0 0.45 312 10:42 23.02.2020
2448 Rain 4 1019 88 0 0.89 324 10:23 23.02.2020
2449 Rain 4 1019 91 0 0.45 310 09:59 23.02.2020
2450 Rain 4 1019 92 0 2.07 258 09:39 23.02.2020
2451 Rain 4 1018 92 0 0.45 284 09:20 23.02.2020
2452 Rain 4 1018 92 0 2.07 258 08:51 23.02.2020
2453 Rain 4 1018 92 0 1.41 259 08:30 23.02.2020
2454 Rain 4 1018 91 0 0.45 30 07:54 23.02.2020
2455 Rain 4 1018 93 0 0.89 335 07:35 23.02.2020
2456 Rain 4 1018 93 0 0.45 324 06:39 23.02.2020
2457 Rain 4 1017 92 0 1.34 281 05:43 23.02.2020
2458 Rain 4 1016 92 0 1.34 346 04:35 23.02.2020
2459 Rain 4 1014 91 0 1.34 297 02:59 23.02.2020
2460 Rain 4 1014 91 0 1.34 297 02:59 23.02.2020
2461 Rain 4 1014 91 0 0.45 333 02:26 23.02.2020
2462 Rain 5 1013 89 0 0.89 273 01:24 23.02.2020
2463 Rain 6 1013 89 0 0.89 266 00:46 23.02.2020
2464 Rain 6 1013 88 0 0.45 260 00:24 23.02.2020
2465 Rain 6 1013 87 0 2.24 261 23:45 22.02.2020
2466 Rain 6 1013 87 0 2.24 261 23:45 22.02.2020
2467 Rain 6 1013 88 0 1.79 273 23:26 22.02.2020
2468 Rain 6 1012 87 0 1.34 244 22:56 22.02.2020
2469 Rain 6 1012 88 0 1.79 269 22:36 22.02.2020
2470 Rain 5 1012 87 0 0.89 280 22:18 22.02.2020
2471 Rain 5 1013 87 0 1.79 256 21:40 22.02.2020
2472 Rain 5 1013 88 0 1.79 260 21:21 22.02.2020
2473 Rain 5 1013 88 0 1.79 326 20:44 22.02.2020
2474 Rain 4 1013 89 0 1.34 302 20:24 22.02.2020
2475 Rain 4 1014 89 0 0.45 325 19:55 22.02.2020
2476 Rain 4 1014 88 0 0.89 318 19:37 22.02.2020
2477 Rain 4 1014 89 0 1.34 326 19:18 22.02.2020
2478 Rain 4 1014 87 0 1.34 250 18:39 22.02.2020
2479 Rain 4 1014 88 0 1.79 326 18:21 22.02.2020
2480 Rain 4 1014 86 0 1.34 325 17:57 22.02.2020
2481 Rain 4 1014 86 0 1.34 268 17:39 22.02.2020
2482 Rain 4 1014 86 0 0.89 250 17:21 22.02.2020
2483 Rain 4 1014 85 0 1.79 273 16:57 22.02.2020
2484 Rain 4 1014 83 0 1.34 295 16:38 22.02.2020
2485 Rain 5 1013 82 0 1.79 331 16:19 22.02.2020
2486 Rain 4 1013 82 0 1.34 339 15:43 22.02.2020
2487 Rain 4 1014 83 0 1.79 329 15:24 22.02.2020
2488 Rain 4 1013 82 0 0.89 285 14:43 22.02.2020
2489 Rain 5 1014 80 0 0.89 283 14:23 22.02.2020
2490 Rain 7 1014 66 0 0.89 326 13:58 22.02.2020
2491 Rain 7 1014 61 0 0.89 318 13:40 22.02.2020
2492 Rain 7 1013 63 0 1.34 273 13:18 22.02.2020
2493 Rain 8 1013 57 0 0.89 268 12:42 22.02.2020
2494 Rain 8 1014 52 0 1.79 261 12:23 22.02.2020
2495 Rain 12 1013 38 0 1.9 354 11:48 22.02.2020
2496 Rain 12 1013 38 0 1.9 354 11:29 22.02.2020
2497 Clouds 9 1015 40 0 1.79 317 10:58 22.02.2020
2498 Clouds 9 1014 40 0 1.34 310 10:40 22.02.2020
2499 Clouds 8 1015 42 0 1.77 29 10:20 22.02.2020
2500 Clouds 8 1016 41 0 0.45 207 09:57 22.02.2020
2501 Clouds 9 1016 41 0 0.45 174 09:38 22.02.2020
2502 Clouds 9 1017 40 0 0.45 321 09:20 22.02.2020
2503 Clouds 9 1017 40 0 0.45 291 08:47 22.02.2020
2504 Clouds 9 1017 40 0 1.77 29 08:28 22.02.2020
2505 Clouds 11 1018 35 0 3.13 221 07:49 22.02.2020
2506 Clouds 9 1019 27 0 0.89 138 07:20 22.02.2020
2507 Clouds 9 1018 27 0 1.31 48 06:47 22.02.2020
2508 Clouds 9 1018 28 0 1.34 333 06:29 22.02.2020
2509 Clouds 11 1018 23 0 0.45 350 04:33 22.02.2020
2510 Clouds 12 1018 22 0 0.89 29 03:22 22.02.2020
2511 Clouds 12 1018 20 0 1.79 14 02:29 22.02.2020
2512 Clouds 15 1018 17 0 2.24 35 01:45 22.02.2020
2513 Clouds 15 1018 17 0 2.24 35 01:45 22.02.2020
2514 Clouds 16 1016 18 0 2.15 70 01:25 22.02.2020
2515 Clear 16 1016 17 0 2.06 71 00:45 22.02.2020
2516 Clear 16 1016 17 0 2.06 71 00:26 22.02.2020
2517 Clear 16 1016 17 0 2.06 71 23:47 21.02.2020
2518 Clear 16 1016 17 0 2.06 71 23:22 21.02.2020
2519 Clear 16 1018 17 0 2.43 61 22:55 21.02.2020
2520 Clear 16 1018 17 0 2.43 61 22:37 21.02.2020
2521 Clear 16 1018 17 0 2.43 61 22:18 21.02.2020
2522 Clear 16 1018 17 0 2.43 61 21:42 21.02.2020
2523 Clear 16 1018 17 0 2.43 61 21:42 21.02.2020
2524 Clear 16 1018 17 0 2.43 61 21:23 21.02.2020
2525 Clear 16 1018 17 0 2.43 61 21:23 21.02.2020
2526 Clear 16 1018 17 0 2.43 61 21:23 21.02.2020
2527 Clear 16 1018 17 0 2.43 61 20:49 21.02.2020
2528 Clear 16 1018 17 0 2.43 61 20:29 21.02.2020
2529 Clear 14 1020 19 0 3.11 40 19:57 21.02.2020
2530 Clear 14 1020 19 0 3.11 40 19:37 21.02.2020
2531 Clear 14 1020 19 0 3.11 40 19:18 21.02.2020
2532 Clear 16 1022 17 0 0.89 136 18:40 21.02.2020
2533 Clear 14 1023 18 0 3.11 40 18:22 21.02.2020
2534 Clear 12 1023 20 0 0.89 208 17:42 21.02.2020
2535 Clear 11 1023 23 0 0.45 311 17:23 21.02.2020
2536 Clear 7 1023 29 0 2.55 10 16:58 21.02.2020
2537 Clear 6 1023 31 0 2.55 10 16:40 21.02.2020
2538 Clear 3 1023 38 0 2.55 10 16:21 21.02.2020
2539 Clear 2 1023 41 0 2.55 10 15:56 21.02.2020
2540 Clear 2 1022 40 0 2.55 10 15:38 21.02.2020
2541 Clear 1 1022 40 0 2.55 10 15:18 21.02.2020
2542 Clear 9 1020 28 0 2.55 10 14:42 21.02.2020
2543 Clear 9 1019 26 0 2.55 7 14:19 21.02.2020
2544 Clear 1 1022 40 0 2.55 7 13:44 21.02.2020
2545 Clear 9 1020 26 0 2.48 2 13:24 21.02.2020
2546 Clear 9 1020 26 0 2.48 2 12:55 21.02.2020
2547 Clear 9 1020 26 0 2.48 2 12:37 21.02.2020
2548 Clear 9 1020 26 0 2.48 2 12:18 21.02.2020
2549 Clear 9 1020 26 0 2.48 2 11:42 21.02.2020
2550 Clear 9 1020 26 0 2.48 2 11:22 21.02.2020
2551 Clear 0 1022 40 0 2.01 358 10:57 21.02.2020
2552 Clear 0 1022 41 0 2.01 358 10:39 21.02.2020
2553 Clear 0 1023 41 0 2.01 358 10:19 21.02.2020
2554 Clear 9 1021 24 0 2.01 358 09:57 21.02.2020
2555 Clear 9 1021 24 0 2.01 358 09:57 21.02.2020
2556 Clear 9 1021 24 0 2.01 358 09:38 21.02.2020
2557 Clear 2 1023 37 0 0.45 315 09:19 21.02.2020
2558 Clear 2 1023 35 0 2.01 358 08:43 21.02.2020
2559 Clear 3 1024 32 0 1.99 359 08:22 21.02.2020
2560 Clear 4 1023 31 0 1.31 21 07:59 21.02.2020
2561 Clear 4 1023 31 0 1.31 21 07:59 21.02.2020
2562 Clear 4 1023 30 0 0.45 331 07:40 21.02.2020
2563 Clear 2 1024 33 0 0.89 326 07:19 21.02.2020
2564 Clear 1 1024 36 0 1.31 21 06:52 21.02.2020
2565 Clear 2 1024 34 0 1.31 21 06:31 21.02.2020
2566 Clear 3 1023 31 0 1.31 21 05:50 21.02.2020
2567 Clear 7 1023 24 0 1.48 3 04:38 21.02.2020
2568 Clear 8 1023 22 0 0.89 12 04:19 21.02.2020
2569 Clear 8 1023 21 0 1.34 19 03:42 21.02.2020
2570 Clear 10 1022 20 0 1.34 352 02:58 21.02.2020
2571 Clear 14 1020 16 0 2.45 51 01:25 21.02.2020
2572 Clear 14 1020 16 0 2.45 51 00:46 21.02.2020
2573 Clear 14 1020 16 0 2.45 51 00:23 21.02.2020
2574 Clear 14 1020 16 0 2.45 51 23:46 20.02.2020
2575 Clear 14 1020 16 0 2.45 51 23:26 20.02.2020
2576 Clear 14 1021 16 0 3.59 48 22:59 20.02.2020
2577 Clear 14 1021 16 0 3.59 48 22:39 20.02.2020
2578 Clear 14 1021 16 0 3.59 48 22:20 20.02.2020
2579 Clear 14 1021 16 0 3.59 48 21:56 20.02.2020
2580 Clear 14 1021 16 0 3.59 48 21:37 20.02.2020
2581 Clear 14 1021 16 0 3.59 48 21:19 20.02.2020
2582 Clear 14 1021 16 0 3.59 48 20:55 20.02.2020
2583 Clear 14 1021 16 0 3.59 48 20:55 20.02.2020
2584 Clear 14 1021 16 0 3.59 48 20:37 20.02.2020
2585 Clear 12 1024 19 0 3.75 39 20:19 20.02.2020
2586 Clear 12 1024 19 0 3.81 41 19:58 20.02.2020
2587 Clear 12 1024 19 0 3.81 41 19:40 20.02.2020
2588 Clear 12 1024 19 0 3.81 41 19:21 20.02.2020
2589 Clear 14 1026 18 0 1.34 64 18:40 20.02.2020
2590 Clear 12 1026 20 0 0.89 110 18:20 20.02.2020
2591 Clear 11 1026 21 0 1.34 74 17:56 20.02.2020
2592 Clear 10 1025 22 0 3.81 41 17:38 20.02.2020
2593 Clear 7 1025 29 0 2.94 4 17:18 20.02.2020
2594 Clear 4 1025 35 0 2.94 4 16:56 20.02.2020
2595 Clear 2 1025 42 0 2.94 4 16:37 20.02.2020
2596 Clear 8 1023 28 0 2.94 4 16:18 20.02.2020
2597 Clear 8 1023 28 0 2.94 4 15:42 20.02.2020
2598 Clear 8 1023 28 0 2.94 4 15:22 20.02.2020
2599 Clear 0 1024 39 0 2.94 4 14:57 20.02.2020
2600 Clear 0 1024 39 0 2.94 4 14:39 20.02.2020
2601 Clear 1 1024 38 0 0.89 336 14:20 20.02.2020
2602 Clear 0 1023 39 0 0.89 337 13:46 20.02.2020
2603 Clear 8 1022 26 0 2.78 5 13:21 20.02.2020
2604 Clear 8 1022 26 0 2.78 5 12:59 20.02.2020
2605 Clear 8 1022 26 0 2.78 5 12:40 20.02.2020
2606 Clear 8 1022 26 0 2.78 5 12:20 20.02.2020
2607 Clear 8 1022 26 0 2.78 5 11:57 20.02.2020
2608 Clear 0 1023 39 0 2.78 5 11:39 20.02.2020
2609 Clear 0 1023 39 0 2.83 1 11:19 20.02.2020
2610 Clear 0 1023 38 0 2.83 1 10:55 20.02.2020
2611 Clear 1 1023 36 0 2.83 1 10:36 20.02.2020
2612 Clear 2 1023 35 0 2.83 1 10:18 20.02.2020
2613 Clear 1 1023 36 0 2.83 1 09:38 20.02.2020
2614 Clear 1 1023 37 0 2.83 1 09:19 20.02.2020
2615 Clear 1 1023 35 0 2.83 1 08:41 20.02.2020
2616 Clear 2 1023 34 0 2.83 1 08:23 20.02.2020
2617 Clear 11 1021 23 0 2.71 355 07:47 20.02.2020
2618 Clear 11 1021 23 0 2.71 355 07:27 20.02.2020
2619 Clear 2 1023 33 0 2.71 355 06:57 20.02.2020
2620 Clear 3 1023 32 0 2.71 355 06:37 20.02.2020
2621 Clear 2 1022 32 0 2.71 355 05:47 20.02.2020
2622 Clear 3 1022 31 0 2.71 355 05:24 20.02.2020
2623 Clear 5 1021 26 0 2.07 359 04:47 20.02.2020
2624 Clear 8 1020 23 0 2.07 359 03:46 20.02.2020
2625 Clear 8 1020 23 0 2.07 359 03:46 20.02.2020
2626 Clear 11 1019 19 0 1.34 356 02:45 20.02.2020
2627 Clear 14 1017 18 0 1.87 67 01:24 20.02.2020
2628 Clear 14 1017 18 0 1.87 67 00:42 20.02.2020
2629 Clear 14 1017 18 0 1.87 67 00:19 20.02.2020
2630 Clear 14 1017 18 0 1.87 67 23:42 19.02.2020
2631 Clear 14 1017 19 0 2.24 72 23:18 19.02.2020
2632 Clear 14 1017 19 0 2.24 72 22:41 19.02.2020
2633 Clear 14 1017 19 0 2.24 72 22:22 19.02.2020
2634 Clear 14 1017 19 0 2.24 72 21:57 19.02.2020
2635 Clear 14 1017 19 0 2.24 72 21:39 19.02.2020
2636 Clear 14 1017 19 0 2.24 72 21:19 19.02.2020
2637 Clear 14 1017 19 0 2.24 72 20:56 19.02.2020
2638 Clear 14 1017 19 0 2.24 72 20:37 19.02.2020
2639 Clear 12 1019 21 0 1.85 54 20:18 19.02.2020
2640 Clouds 12 1018 20 0 1.52 59 19:56 19.02.2020
2641 Clouds 12 1018 20 0 1.52 59 19:37 19.02.2020
2642 Clouds 12 1018 20 0 1.52 59 19:19 19.02.2020
2643 Clouds 12 1018 20 0 1.52 59 18:57 19.02.2020
2644 Clouds 13 1020 20 0 1.34 62 18:39 19.02.2020
2645 Clouds 11 1020 21 0 1.52 59 18:20 19.02.2020
2646 Clouds 10 1020 22 0 1.52 59 17:44 19.02.2020
2647 Clouds 7 1020 28 0 0.45 77 17:20 19.02.2020
2648 Clouds 5 1020 32 0 1.24 10 16:56 19.02.2020
2649 Clouds 1 1019 42 0 1.24 10 16:37 19.02.2020
2650 Clouds 0 1019 40 0 1.24 10 16:18 19.02.2020
2651 Clouds 1 1019 36 0 1.24 10 15:43 19.02.2020
2652 Clouds 2 1018 35 0 1.24 10 15:24 19.02.2020
2653 Clouds 0 1018 40 0 1.34 345 14:57 19.02.2020
2654 Clouds 7 1017 32 0 1.24 10 14:39 19.02.2020
2655 Clear 7 1016 30 0 1.67 2 14:21 19.02.2020
2656 Clear 7 1016 30 0 1.67 2 13:41 19.02.2020
2657 Clear 6 1016 32 0 1.35 1 13:22 19.02.2020
2658 Clear 6 1016 32 0 1.35 1 12:55 19.02.2020
2659 Clear 6 1016 32 0 1.35 1 12:36 19.02.2020
2660 Clear 6 1016 32 0 1.35 1 12:18 19.02.2020
2661 Clear 0 1017 38 0 1.35 1 11:38 19.02.2020
2662 Clear 1 1017 37 0 0.27 48 11:20 19.02.2020
2663 Clear 7 1016 32 0 0.27 48 10:58 19.02.2020
2664 Clear 7 1016 32 0 0.27 48 10:38 19.02.2020
2665 Clear 7 1016 32 0 0.27 48 10:20 19.02.2020
2666 Clear 7 1016 32 0 0.27 48 09:58 19.02.2020
2667 Clear 1 1017 36 0 0.27 48 09:38 19.02.2020
2668 Clear 2 1017 34 0 0.89 106 09:19 19.02.2020
2669 Clear 1 1017 36 0 0.27 48 08:46 19.02.2020
2670 Clear 1 1017 35 0 0.59 43 08:24 19.02.2020
2671 Clouds 8 1017 30 0 0.61 19 07:46 19.02.2020
2672 Clouds 2 1017 32 0 0.45 99 07:26 19.02.2020
2673 Clouds 3 1017 30 0 0.61 19 06:57 19.02.2020
2674 Clouds 4 1017 28 0 0.61 19 06:34 19.02.2020
2675 Clouds 6 1016 24 0 0.53 104 04:49 19.02.2020
2676 Clouds 9 1016 21 0 0.89 77 03:22 19.02.2020
2677 Clouds 11 1016 19 0 0.89 25 02:35 19.02.2020
2678 Clouds 12 1015 21 0 1.8 85 01:33 19.02.2020
2679 Clouds 12 1015 19 0 1.7 100 00:59 19.02.2020
2680 Clouds 12 1015 19 0 1.7 100 00:36 19.02.2020
2681 Clouds 12 1015 19 0 1.7 100 23:57 18.02.2020
2682 Clouds 12 1015 19 0 1.7 100 23:39 18.02.2020
2683 Clouds 12 1017 20 0 2.28 69 23:19 18.02.2020
2684 Clouds 12 1017 20 0 2.28 69 23:19 18.02.2020
2685 Clouds 12 1017 20 0 2.28 69 23:19 18.02.2020
2686 Clouds 12 1017 20 0 2.28 69 22:54 18.02.2020
2687 Clouds 12 1017 20 0 2.28 69 22:36 18.02.2020
2688 Clouds 12 1017 20 0 2.28 69 22:18 18.02.2020
2689 Clouds 16 1016 14 0 2.68 18 21:38 18.02.2020
2690 Clouds 16 1016 14 0 2.68 18 21:38 18.02.2020
2691 Clouds 16 1016 14 0 2.68 18 21:38 18.02.2020
2692 Clouds 16 1017 15 0 1.79 40 21:20 18.02.2020
2693 Clouds 15 1017 15 0 1.79 56 20:59 18.02.2020
2694 Clouds 15 1017 14 0 2.68 28 20:39 18.02.2020
2695 Clouds 10 1020 23 0 3.5 32 20:21 18.02.2020
2696 Clouds 10 1020 22 0 3.51 34 19:57 18.02.2020
2697 Clouds 10 1020 22 0 3.51 34 19:57 18.02.2020
2698 Clouds 10 1020 22 0 3.51 34 19:39 18.02.2020
2699 Clouds 10 1020 22 0 3.51 34 19:19 18.02.2020
2700 Clouds 12 1018 19 0 1.34 60 18:42 18.02.2020
2701 Clouds 11 1018 20 0 0.89 57 18:21 18.02.2020
2702 Clouds 11 1018 20 0 0.89 57 18:21 18.02.2020
2703 Clouds 9 1018 21 0 0.89 85 17:57 18.02.2020
2704 Clouds 8 1018 23 0 0.89 81 17:39 18.02.2020
2705 Clouds 8 1018 23 0 0.89 81 17:39 18.02.2020
2706 Clouds 5 1018 30 0 0.89 45 17:19 18.02.2020
2707 Clouds 2 1018 38 0 4.24 11 16:40 18.02.2020
2708 Clouds 2 1018 38 0 4.24 11 16:40 18.02.2020
2709 Clouds 1 1017 37 0 4.24 11 16:21 18.02.2020
2710 Clouds 1 1017 37 0 4.24 11 15:54 18.02.2020
2711 Clouds 1 1017 36 0 4.24 11 15:36 18.02.2020
2712 Clouds 1 1017 38 0 4.24 11 15:18 18.02.2020
2713 Clouds 1 1017 38 0 4.24 11 15:18 18.02.2020
2714 Clouds 1 1017 38 0 4.24 11 14:54 18.02.2020
2715 Clouds 1 1017 37 0 4.24 11 14:36 18.02.2020
2716 Clouds 1 1016 37 0 4.04 8 14:18 18.02.2020
2717 Clouds 2 1016 35 0 4.04 8 13:41 18.02.2020
2718 Clouds 3 1016 32 0 0.45 337 13:21 18.02.2020
2719 Clouds 2 1016 35 0 0.45 85 12:47 18.02.2020
2720 Clouds 2 1016 34 0 4.1 3 12:29 18.02.2020
2721 Clouds 3 1016 29 0 4.1 3 11:59 18.02.2020
2722 Clouds 3 1016 26 0 4.1 3 11:41 18.02.2020
2723 Clouds 5 1016 21 0 0.89 343 11:22 18.02.2020
2724 Clouds 7 1016 17 0 0.89 325 10:44 18.02.2020
2725 Clouds 7 1016 17 0 0.45 327 10:24 18.02.2020
2726 Clouds 4 1016 28 0 0.89 326 09:57 18.02.2020
2727 Clouds 3 1016 31 0 0.89 325 09:39 18.02.2020
2728 Clouds 3 1016 31 0 0.89 325 09:39 18.02.2020
2729 Clouds 3 1016 31 0 0.89 325 09:39 18.02.2020
2730 Clouds 2 1016 35 0 3.36 355 09:20 18.02.2020
2731 Clouds 3 1016 34 0 3.36 355 08:58 18.02.2020
2732 -273 0 0 0 0 0 08:40 18.02.2020
2733 Clouds 3 1016 34 0 0.89 355 08:19 18.02.2020
2734 Clouds 2 1016 39 0 1.63 8 07:52 18.02.2020
2735 Clouds 3 1016 38 0 1.63 8 07:29 18.02.2020
2736 Clouds 3 1016 37 0 1.63 8 06:55 18.02.2020
2737 Clouds 4 1016 35 0 0.45 11 06:29 18.02.2020
2738 Clouds 10 1016 20 0 1.63 8 05:56 18.02.2020
2739 Clouds 3 1016 37 0 1.63 8 05:23 18.02.2020
2740 Clouds 6 1015 29 0 0.94 2 03:57 18.02.2020
2741 Clouds 11 1015 21 0 0.45 8 02:58 18.02.2020
2742 Clouds 15 1014 13 0 3.5 33 01:58 18.02.2020
2743 Clouds 15 1014 11 0 2.83 36 00:46 18.02.2020
2744 Clouds 15 1014 11 0 2.83 36 00:20 18.02.2020
2745 Clouds 15 1014 11 0 2.83 36 23:44 17.02.2020
2746 Clouds 15 1014 11 0 2.83 36 23:25 17.02.2020
2747 Clouds 16 1015 13 0 4.59 27 22:59 17.02.2020
2748 Clouds 16 1015 13 0 4.59 27 22:41 17.02.2020
2749 Clouds 16 1015 13 0 4.59 27 22:20 17.02.2020
2750 Clouds 16 1015 13 0 4.59 27 21:41 17.02.2020
2751 Clouds 16 1015 13 0 4.59 27 21:20 17.02.2020
2752 Clouds 16 1015 13 0 4.59 27 20:59 17.02.2020
2753 Clouds 17 1017 14 0 3.13 351 20:39 17.02.2020
2754 Clouds 14 1016 28 0 4.46 30 20:20 17.02.2020
2755 Clouds 14 1016 28 0 4.46 30 19:56 17.02.2020
2756 Clouds 14 1016 28 0 4.46 30 19:38 17.02.2020
2757 Clouds 14 1016 28 0 4.46 30 19:19 17.02.2020
2758 Clouds 13 1017 36 0 1.79 322 18:37 17.02.2020
2759 Clouds 12 1018 38 0 1.79 336 18:19 17.02.2020
2760 Clouds 12 1018 39 0 2.24 292 17:57 17.02.2020
2761 Clouds 10 1018 44 0 1.34 292 17:37 17.02.2020
2762 Clouds 10 1015 44 0 2.97 10 17:18 17.02.2020
2763 Clouds 10 1015 44 0 2.97 10 17:18 17.02.2020
2764 Clouds 8 1017 48 0 2.68 313 16:54 17.02.2020
2765 Clouds 6 1017 52 0 1.34 307 16:36 17.02.2020
2766 Clouds 6 1017 53 0 2.24 349 16:18 17.02.2020
2767 Clouds 6 1017 54 0 0.89 318 15:41 17.02.2020
2768 Clouds 5 1017 55 0 1.34 306 15:23 17.02.2020
2769 Clouds 5 1016 55 0 2.68 328 14:46 17.02.2020
2770 Clouds 5 1016 55 0 2.68 328 14:46 17.02.2020
2771 Clouds 6 1016 54 0 1.79 323 14:28 17.02.2020
2772 Clouds 6 1017 53 0 1.34 345 13:59 17.02.2020
2773 Clouds 6 1017 53 0 2.24 324 13:40 17.02.2020
2774 Clouds 6 1017 51 0 2.24 302 13:20 17.02.2020
2775 Clouds 6 1017 51 0 3.58 332 12:56 17.02.2020
2776 Clouds 6 1017 51 0 2.68 308 12:37 17.02.2020
2777 Clouds 6 1017 50 0 3.13 337 12:19 17.02.2020
2778 Clouds 7 1017 49 0 1.34 332 11:43 17.02.2020
2779 Clouds 7 1017 47 0 2.24 275 11:24 17.02.2020
2780 Clouds 7 1017 46 0 1.34 274 10:56 17.02.2020
2781 Clouds 8 1017 45 0 1.79 337 10:38 17.02.2020
2782 Clouds 8 1017 44 0 1.34 322 10:19 17.02.2020
2783 Clouds 8 1017 42 0 1.34 314 09:56 17.02.2020
2784 Clouds 12 1015 46 0 1.63 3 09:37 17.02.2020
2785 Clouds 10 1017 37 0 5.36 338 09:18 17.02.2020
2786 Clouds 6 1017 49 0 1.34 347 08:41 17.02.2020
2787 Clouds 7 1017 43 0 0.45 66 08:23 17.02.2020
2788 Clouds 7 1017 46 0 1.79 31 07:57 17.02.2020
2789 Clouds 4 1017 58 0 0.45 283 07:27 17.02.2020
2790 Clouds 5 1017 56 0 1.88 22 06:56 17.02.2020
2791 Clouds 6 1017 53 0 1.88 22 06:36 17.02.2020
2792 Clouds 6 1017 52 0 1.88 22 06:18 17.02.2020
2793 Clouds 7 1017 49 0 0.89 299 05:39 17.02.2020
2794 Clouds 7 1016 44 0 0.53 278 03:55 17.02.2020
2795 Clouds 12 1015 33 0 1.34 322 02:37 17.02.2020
2796 Clear 18 1015 24 0 1.34 40 00:59 17.02.2020
2797 Clear 16 1014 36 0 2.25 87 00:25 17.02.2020
2798 Clear 16 1014 36 0 2.25 87 23:56 16.02.2020
2799 Clear 16 1014 36 0 2.25 87 23:36 16.02.2020
2800 Clear 16 1016 35 0 1.35 155 23:18 16.02.2020
2801 Clear 16 1016 35 0 1.35 155 22:54 16.02.2020
2802 Clear 17 1016 26 0 1.79 40 22:36 16.02.2020
2803 Clear 16 1016 28 0 1.34 65 22:18 16.02.2020
2804 Clear 15 1017 29 0 1.34 60 21:42 16.02.2020
2805 Clear 14 1017 31 0 1.34 60 21:24 16.02.2020
2806 Clear 14 1018 31 0 1.79 69 20:58 16.02.2020
2807 Clear 14 1018 32 0 0.89 79 20:40 16.02.2020
2808 Clear 14 1018 32 0 0.89 79 20:40 16.02.2020
2809 Clear 14 1018 32 0 0.89 79 20:40 16.02.2020
2810 Clear 14 1018 32 0 0.89 79 20:40 16.02.2020
2811 Clear 14 1018 32 0 0.89 79 20:40 16.02.2020
2812 Clear 13 1018 33 0 0.89 45 20:22 16.02.2020
2813 Clouds 12 1018 35 0 0.45 33 19:59 16.02.2020
2814 Clouds 12 1018 35 0 0.45 76 19:40 16.02.2020
2815 Clouds 12 1019 35 0 0.45 340 19:19 16.02.2020
2816 Clouds 12 1019 35 0 0.45 340 19:19 16.02.2020
2817 Clouds 11 1019 36 0 0.45 80 18:58 16.02.2020
2818 Clouds 11 1019 35 0 1.34 72 18:40 16.02.2020
2819 Clouds 12 1019 34 0 0.45 54 18:21 16.02.2020
2820 Clouds 12 1019 34 0 0.45 132 17:43 16.02.2020
2821 Clear 8 1019 47 0 1.04 5 17:20 16.02.2020
2822 Clear 8 1019 47 0 1.04 5 17:20 16.02.2020
2823 Clear 8 1019 45 0 0.89 63 16:56 16.02.2020
2824 Clear 6 1019 50 0 1.04 5 16:38 16.02.2020
2825 Clear 3 1019 56 0 1.04 5 16:20 16.02.2020
2826 Clear 3 1019 54 0 1.04 5 15:56 16.02.2020
2827 Clear 3 1019 55 0 0.89 294 15:37 16.02.2020
2828 Clear 4 1019 52 0 0.45 294 15:18 16.02.2020
2829 Clear 6 1019 48 0 0.45 294 14:38 16.02.2020
2830 Clouds 6 1020 47 0 0.45 269 14:19 16.02.2020
2831 Clouds 3 1020 55 0 0.75 341 13:45 16.02.2020
2832 Clouds 3 1020 55 0 0.75 341 13:24 16.02.2020
2833 Clouds 3 1020 55 0 0.25 235 12:55 16.02.2020
2834 Clouds 4 1020 50 0 0.25 235 12:36 16.02.2020
2835 Clouds 4 1020 52 0 0.45 311 12:18 16.02.2020
2836 Clouds 2 1020 55 0 0.25 235 11:38 16.02.2020
2837 Clouds 3 1020 52 0 0.58 350 11:18 16.02.2020
2838 Clouds 3 1021 52 0 0.45 349 10:56 16.02.2020
2839 Clouds 4 1021 51 0 0.45 349 10:38 16.02.2020
2840 Clouds 3 1020 56 0 0.45 40 10:19 16.02.2020
2841 Clouds 3 1021 57 0 0.58 350 09:55 16.02.2020
2842 Clouds 2 1021 58 0 0.58 350 09:36 16.02.2020
2843 Clouds 2 1021 58 0 0.58 350 09:18 16.02.2020
2844 Clouds 3 1021 56 0 0.58 350 08:45 16.02.2020
2845 Clouds 2 1021 56 0 1.55 257 08:21 16.02.2020
2846 Clouds 2 1021 56 0 1.63 254 08:21 16.02.2020
2847 Clouds 3 1021 53 0 1.63 254 07:52 16.02.2020
2848 Clouds 3 1021 52 0 1.63 254 07:34 16.02.2020
2849 Clouds 2 1021 51 0 1.63 254 06:33 16.02.2020
2850 Clouds 4 1021 43 0 0.93 260 04:44 16.02.2020
2851 Clouds 8 1020 35 0 0.93 260 03:31 16.02.2020
2852 Clouds 11 1020 30 0 0.45 61 02:32 16.02.2020
2853 Clouds 15 1018 29 0 2.58 168 01:43 16.02.2020
2854 Clouds 15 1018 28 0 2.4 161 01:23 16.02.2020
2855 Clouds 15 1018 28 0 2.4 161 00:58 16.02.2020
2856 Clouds 15 1018 28 0 2.4 161 00:34 16.02.2020
2857 Clouds 15 1018 28 0 2.4 161 23:58 15.02.2020
2858 Clouds 15 1018 28 0 2.4 161 23:40 15.02.2020
2859 Clouds 15 1018 28 0 2.4 161 23:22 15.02.2020
2860 Clouds 15 1018 27 0 2.08 139 22:56 15.02.2020
2861 Clouds 15 1018 27 0 2.08 139 22:37 15.02.2020
2862 Clouds 15 1018 27 0 2.08 139 22:18 15.02.2020
2863 Clouds 18 1020 20 0 2.24 40 21:42 15.02.2020
2864 Clouds 17 1020 22 0 1.79 50 21:23 15.02.2020
2865 Clouds 17 1021 21 0 1.79 50 20:42 15.02.2020
2866 Clouds 15 1018 28 0 2.16 141 20:21 15.02.2020
2867 Clouds 13 1021 27 0 0.71 129 19:59 15.02.2020
2868 Clouds 13 1021 27 0 0.71 129 19:40 15.02.2020
2869 Clouds 13 1021 27 0 0.71 129 19:21 15.02.2020
2870 Clouds 14 1021 25 0 0.45 77 18:40 15.02.2020
2871 Clouds 14 1022 26 0 0.89 200 18:20 15.02.2020
2872 Clouds 13 1022 27 0 0.89 343 17:55 15.02.2020
2873 Clouds 12 1022 30 0 0.89 274 17:37 15.02.2020
2874 Clouds 7 1019 37 0 1.64 224 17:18 15.02.2020
2875 Clouds 8 1022 37 0 1.34 315 16:40 15.02.2020
2876 Clouds 5 1022 44 0 1.79 320 16:20 15.02.2020
2877 Clouds 0 1022 55 0 0.45 339 15:49 15.02.2020
2878 Clouds 1 1021 53 0 1.64 224 15:31 15.02.2020
2879 Clouds 7 1019 37 0 1.64 224 14:57 15.02.2020
2880 Clouds 3 1021 45 0 0.45 311 14:38 15.02.2020
2881 Clouds 1 1021 52 0 0.45 270 14:18 15.02.2020
2882 Clouds 0 1022 54 0 0.34 334 13:41 15.02.2020
2883 Clouds 1 1022 50 0 0.45 235 13:22 15.02.2020
2884 Clouds 2 1022 47 0 0.45 198 12:57 15.02.2020
2885 Clouds 3 1022 46 0 0.45 198 12:38 15.02.2020
2886 Clouds 1 1022 52 0 0.32 329 12:19 15.02.2020
2887 Clouds 1 1022 54 0 0.45 316 11:45 15.02.2020
2888 Clouds 1 1022 55 0 0.32 329 11:26 15.02.2020
2889 Clear 0 1021 58 0 0.94 266 10:47 15.02.2020
2890 Clear -1 1021 60 0 0.94 266 10:29 15.02.2020
2891 Clear -1 1021 60 0 0.94 266 09:56 15.02.2020
2892 Clear -1 1021 59 0 0.94 266 09:37 15.02.2020
2893 Clear 8 1019 36 0 0.94 266 09:19 15.02.2020
2894 Clear 1 1022 55 0 0.94 266 08:41 15.02.2020
2895 Clear 1 1021 55 0 0.94 266 08:23 15.02.2020
2896 Clear 1 1021 53 0 0.43 238 07:45 15.02.2020
2897 Clear 1 1021 50 0 0.43 238 07:27 15.02.2020
2898 Clear 9 1019 36 0 0.43 238 06:47 15.02.2020
2899 Clear 9 1019 36 0 0.43 238 06:28 15.02.2020
2900 Clear 3 1021 43 0 0.43 238 05:31 15.02.2020
2901 Clear 4 1020 39 0 0.35 94 04:45 15.02.2020
2902 Clear 8 1019 31 0 0.45 70 03:24 15.02.2020
2903 Clear 9 1018 29 0 1.79 29 02:42 15.02.2020
2904 Clear 11 1018 25 0 2.24 45 02:21 15.02.2020
2905 Clear 14 1016 22 0 1.25 106 01:39 15.02.2020
2906 Clear 14 1016 21 0 1.56 125 00:41 15.02.2020
2907 Clear 14 1016 21 0 1.56 125 00:19 15.02.2020
2908 Clear 14 1016 21 0 1.56 125 23:39 14.02.2020
2909 Clear 14 1016 22 0 2.1 129 23:19 14.02.2020
2910 Clear 14 1016 22 0 2.1 129 22:44 14.02.2020
2911 Clear 14 1016 22 0 2.1 129 22:23 14.02.2020
2912 Clear 14 1016 22 0 2.1 129 21:52 14.02.2020
2913 Clear 14 1016 22 0 2.1 129 21:34 14.02.2020
2914 Clear 16 1019 20 0 1.34 25 20:59 14.02.2020
2915 Clear 16 1019 20 0 1.79 13 20:41 14.02.2020
2916 Clear 12 1018 24 0 1.05 154 20:19 14.02.2020
2917 Clear 12 1018 24 0 1.05 154 19:55 14.02.2020
2918 Clear 12 1018 24 0 1.05 154 19:37 14.02.2020
2919 Clear 12 1018 24 0 1.05 154 19:18 14.02.2020
2920 Clear 12 1018 24 0 1.05 154 18:55 14.02.2020
2921 Clear 13 1020 25 0 0.89 90 18:36 14.02.2020
2922 Clear 12 1020 27 0 1.34 102 18:18 14.02.2020
2923 Clear 9 1020 31 0 1.05 154 17:40 14.02.2020
2924 Clear 6 1020 39 0 0.43 192 17:19 14.02.2020
2925 Clear 1 1020 54 0 0.43 192 16:43 14.02.2020
2926 Clear -1 1019 58 0 0.43 192 16:25 14.02.2020
2927 Clear -2 1019 60 0 0.43 192 15:59 14.02.2020
2928 Clear 5 1017 41 0 0.43 192 15:41 14.02.2020
2929 Clear -2 1018 56 0 0.43 192 15:22 14.02.2020
2930 Clear -1 1018 56 0 0.43 192 14:59 14.02.2020
2931 Clear -1 1018 56 0 0.43 192 14:41 14.02.2020
2932 Clear -2 1018 59 0 0.45 185 14:22 14.02.2020
2933 Clear -2 1018 55 0 0.81 242 13:59 14.02.2020
2934 Clear -1 1018 54 0 0.81 242 13:39 14.02.2020
2935 Clear 0 1018 50 0 0.71 228 13:20 14.02.2020
2936 Clear 1 1018 50 0 0.45 183 12:57 14.02.2020
2937 Clear -1 1018 54 0 0.45 94 12:38 14.02.2020
2938 Clear -1 1018 52 0 0.45 94 12:20 14.02.2020
2939 Clear 0 1018 51 0 0.71 228 11:57 14.02.2020
2940 Clear -1 1018 51 0 0.71 228 11:39 14.02.2020
2941 Clear -1 1019 52 0 1.01 210 11:20 14.02.2020
2942 Clear -1 1019 54 0 1.01 210 10:44 14.02.2020
2943 Clear -1 1019 55 0 1.01 210 10:25 14.02.2020
2944 Clear -1 1019 52 0 1.01 210 09:57 14.02.2020
2945 Clear -1 1019 52 0 1.01 210 09:57 14.02.2020
2946 Clear -1 1019 51 0 1.01 210 09:38 14.02.2020
2947 Clear 1 1019 49 0 1.01 210 09:19 14.02.2020
2948 Clear 1 1018 48 0 1.01 210 08:40 14.02.2020
2949 Clear 7 1017 39 0 1.01 210 08:22 14.02.2020
2950 Clear 1 1018 47 0 1.12 222 07:51 14.02.2020
2951 Clear 1 1018 47 0 1.12 222 07:33 14.02.2020
2952 Clear 9 1017 35 0 1.12 222 06:55 14.02.2020
2953 Clear 1 1018 44 0 1.12 222 06:23 14.02.2020
2954 Clear 2 1018 41 0 1.12 222 05:44 14.02.2020
2955 Clear 3 1018 35 0 0.88 182 04:22 14.02.2020
2956 Clear 7 1018 29 0 0.88 182 03:28 14.02.2020
2957 Clear 12 1017 21 0 1.79 69 02:19 14.02.2020
2958 Clear 14 1015 20 0 2.39 138 01:22 14.02.2020
2959 Clear 14 1015 20 0 2.39 138 00:42 14.02.2020
2960 Clear 14 1015 20 0 2.39 138 00:42 14.02.2020
2961 Clear 14 1015 20 0 2.39 138 00:21 14.02.2020
2962 Clear 14 1015 20 0 2.39 138 23:42 13.02.2020
2963 Clear 14 1017 20 0 2.14 114 23:19 13.02.2020
2964 Clear 14 1017 20 0 2.14 114 22:42 13.02.2020
2965 Clear 14 1017 20 0 2.14 114 22:20 13.02.2020
2966 Clear 14 1017 20 0 2.14 114 21:59 13.02.2020
2967 Clear 17 1018 16 0 2.68 60 21:40 13.02.2020
2968 Clear 14 1017 20 0 2.14 114 21:22 13.02.2020
2969 Clear 14 1017 20 0 2.14 114 20:56 13.02.2020
2970 Clear 14 1017 20 0 2.14 114 20:38 13.02.2020
2971 Clear 12 1019 22 0 1.56 91 20:19 13.02.2020
2972 Clear 12 1018 21 0 1.52 99 19:55 13.02.2020
2973 Clear 12 1018 21 0 1.52 99 19:36 13.02.2020
2974 Clear 12 1018 21 0 1.52 99 19:18 13.02.2020
2975 Clear 12 1018 21 0 1.52 99 19:18 13.02.2020
2976 Clear 15 1020 18 0 0.89 61 18:42 13.02.2020
2977 Clear 15 1020 18 0 0.89 61 18:42 13.02.2020
2978 -273 0 0 0 0 0 18:23 13.02.2020
2979 Clear 11 1020 21 0 0.45 202 17:59 13.02.2020
2980 Clear 11 1020 22 0 0.45 266 17:40 13.02.2020
2981 Clear 11 1020 22 0 0.45 266 17:40 13.02.2020
2982 Clear 7 1019 30 0 0.25 311 17:20 13.02.2020
2983 Clear 5 1019 35 0 0.25 311 16:58 13.02.2020
2984 Clear 4 1019 34 0 0.25 311 16:37 13.02.2020
2985 Clear 4 1019 34 0 0.25 311 16:37 13.02.2020
2986 Clear 3 1019 34 0 0.45 300 16:19 13.02.2020
2987 Clear 3 1019 35 0 0.25 311 15:56 13.02.2020
2988 Clear 4 1019 32 0 0.25 311 15:37 13.02.2020
2989 Clear 4 1019 32 0 0.89 327 15:19 13.02.2020
2990 Clear 4 1019 33 0 1.34 333 14:56 13.02.2020
2991 Clear 4 1018 33 0 0.89 312 14:37 13.02.2020
2992 Clear 1 1018 39 0 0.45 318 14:19 13.02.2020
2993 Clear 3 1018 33 0 0.45 318 13:44 13.02.2020
2994 Clear 3 1018 33 0 0.45 318 13:44 13.02.2020
2995 Clear 5 1018 30 0 1.34 328 13:18 13.02.2020
2996 Clear 5 1019 31 0 1.34 347 12:56 13.02.2020
2997 Clear 5 1019 31 0 0.89 316 12:37 13.02.2020
2998 Clear 3 1019 35 0 1.34 325 12:19 13.02.2020
2999 Clear 0 1018 43 0 0.89 310 11:43 13.02.2020
3000 Clear -1 1018 45 0 0.44 285 11:20 13.02.2020
3001 Clear -1 1018 45 0 0.44 285 10:48 13.02.2020
3002 Clear -1 1018 44 0 0.44 285 10:28 13.02.2020
3003 Clear -1 1018 42 0 0.44 285 09:55 13.02.2020
3004 Clear 1 1018 39 0 0.44 285 09:37 13.02.2020
3005 Clear 2 1018 37 0 0.44 285 09:18 13.02.2020
3006 Clear 2 1018 36 0 0.44 285 08:41 13.02.2020
3007 Clear 2 1018 36 0 0.88 312 08:19 13.02.2020
3008 Clear 3 1018 34 0 0.88 312 07:40 13.02.2020
3009 Clear 3 1018 34 0 0.89 293 07:22 13.02.2020
3010 Clear 3 1018 34 0 0.89 293 07:21 13.02.2020
3011 Clear 2 1018 36 0 0.89 293 06:44 13.02.2020
3012 Clear 3 1018 34 0 0.45 293 06:21 13.02.2020
3013 Clear 2 1018 35 0 0.89 291 05:37 13.02.2020
3014 Clear 6 1017 27 0 1.46 218 04:28 13.02.2020
3015 Clear 7 1016 25 0 1.46 218 03:52 13.02.2020
3016 Clear 8 1016 24 0 0.45 26 03:29 13.02.2020
3017 Clear 9 1016 22 0 0.45 18 02:55 13.02.2020
3018 Clouds 15 1015 15 0 0.89 36 02:19 13.02.2020
3019 Clouds 14 1015 20 0 1.78 120 01:36 13.02.2020
3020 Clouds 14 1014 19 0 1.93 119 00:44 13.02.2020
3021 Clouds 14 1014 19 0 1.93 119 00:25 13.02.2020
3022 Clouds 14 1014 19 0 1.93 119 23:42 12.02.2020
3023 Clouds 14 1014 19 0 1.93 119 23:23 12.02.2020
3024 Clouds 14 1015 19 0 2.03 99 22:56 12.02.2020
3025 Clouds 14 1015 19 0 2.03 99 22:38 12.02.2020
3026 Clouds 14 1015 19 0 2.03 99 22:20 12.02.2020
3027 Clouds 14 1015 19 0 2.03 99 21:55 12.02.2020
3028 Clouds 19 1017 13 0 1.34 24 21:36 12.02.2020
3029 Clouds 19 1017 13 0 1.34 69 21:18 12.02.2020
3030 Clouds 17 1018 14 0 1.79 25 20:42 12.02.2020
3031 Clouds 17 1018 14 0 1.34 50 20:24 12.02.2020
3032 Clouds 11 1017 20 0 0.88 61 19:57 12.02.2020
3033 Clouds 11 1017 20 0 0.88 61 19:38 12.02.2020
3034 Clouds 11 1017 20 0 0.82 88 19:20 12.02.2020
3035 Clouds 12 1018 20 0 0.89 171 18:49 12.02.2020
3036 Clouds 11 1018 21 0 0.45 195 18:20 12.02.2020
3037 Clouds 11 1018 23 0 0.45 141 17:58 12.02.2020
3038 Clouds 9 1018 25 0 0.82 88 17:38 12.02.2020
3039 Clouds 6 1018 32 0 0.71 16 17:19 12.02.2020
3040 Clouds 4 1017 34 0 0.38 359 16:55 12.02.2020
3041 Clouds 2 1017 39 0 0.38 359 16:36 12.02.2020
3042 Clouds 1 1017 39 0 0.38 359 16:18 12.02.2020
3043 Clouds 1 1017 38 0 0.71 16 15:38 12.02.2020
3044 Clouds 3 1016 34 0 0.71 16 15:19 12.02.2020
3045 Clouds 3 1016 34 0 0.38 359 14:42 12.02.2020
3046 Clear 4 1016 31 0 1.06 298 14:21 12.02.2020
3047 Clear 4 1016 30 0 0.45 241 13:59 12.02.2020
3048 Clear 3 1016 32 0 0.45 310 13:40 12.02.2020
3049 Clear 3 1017 32 0 1.06 298 13:22 12.02.2020
3050 Clear 3 1016 31 0 0.45 305 12:58 12.02.2020
3051 Clear 4 1016 29 0 1.06 298 12:39 12.02.2020
3052 Clear 5 1015 31 0 1.06 298 12:19 12.02.2020
3053 Clear 5 1015 31 0 1.06 298 12:19 12.02.2020
3054 Clear 5 1015 31 0 1.06 298 11:59 12.02.2020
3055 Clear 5 1015 31 0 1.06 298 11:40 12.02.2020
3056 Clear 7 1017 25 0 0.89 323 11:21 12.02.2020
3057 Clear 7 1017 25 0 2.24 320 10:58 12.02.2020
3058 Clear 7 1017 25 0 0.89 285 10:40 12.02.2020
3059 Clear 7 1017 25 0 1.79 320 10:20 12.02.2020
3060 Clear 7 1017 25 0 1.79 260 09:54 12.02.2020
3061 Clear 7 1018 25 0 2.24 247 09:36 12.02.2020
3062 Clear 5 1018 26 0 1.25 276 09:18 12.02.2020
3063 Clear 5 1018 26 0 0.45 216 08:55 12.02.2020
3064 Clear 7 1018 24 0 0.45 323 08:36 12.02.2020
3065 Clear 7 1018 23 0 2.24 326 08:18 12.02.2020
3066 Clear 7 1018 23 0 2.24 326 08:18 12.02.2020
3067 Clear 8 1018 21 0 1.79 347 07:41 12.02.2020
3068 Clear 8 1018 21 0 1.79 347 07:41 12.02.2020
3069 Clear 8 1018 22 0 3.13 339 07:21 12.02.2020
3070 Clear 8 1018 22 0 3.58 347 06:47 12.02.2020
3071 Clear 8 1018 22 0 1.79 346 06:20 12.02.2020
3072 Clear 7 1018 22 0 2.24 358 05:33 12.02.2020
3073 Clear 8 1018 18 0 0.89 358 04:43 12.02.2020
3074 Clear 8 1018 19 0 2.24 345 04:24 12.02.2020
3075 Clear 9 1017 26 0 1.4 16 03:31 12.02.2020
3076 Clear 9 1017 26 0 1.4 16 02:58 12.02.2020
3077 Clear 9 1017 26 0 1.4 16 02:28 12.02.2020
3078 Clear 12 1017 18 0 3.13 35 01:40 12.02.2020
3079 Clear 12 1016 17 0 2.82 36 00:44 12.02.2020
3080 Clear 12 1016 17 0 2.82 36 00:25 12.02.2020
3081 Clear 12 1016 17 0 2.82 36 23:55 11.02.2020
3082 Clear 12 1016 17 0 2.82 36 23:36 11.02.2020
3083 Clear 10 1018 22 0 4.34 29 23:18 11.02.2020
3084 Clear 10 1018 22 0 4.34 29 22:42 11.02.2020
3085 Clear 10 1018 22 0 4.34 29 22:21 11.02.2020
3086 Clear 10 1018 22 0 4.34 29 21:57 11.02.2020
3087 Clear 10 1018 22 0 4.34 29 21:39 11.02.2020
3088 Clear 10 1018 22 0 4.34 29 21:19 11.02.2020
3089 Clear 15 1020 16 0 1.34 31 20:59 11.02.2020
3090 Clear 14 1021 16 0 1.79 50 20:39 11.02.2020
3091 Clear 14 1021 16 0 1.79 50 20:39 11.02.2020
3092 Clear 7 1022 27 0 6.03 22 20:20 11.02.2020
3093 Clear 7 1021 28 0 5.54 27 19:59 11.02.2020
3094 Clear 7 1021 28 0 5.54 27 19:41 11.02.2020
3095 Clear 7 1021 28 0 5.54 27 19:23 11.02.2020
3096 Clear 7 1021 28 0 5.54 27 18:55 11.02.2020
3097 Clear 11 1021 21 0 1.34 27 18:37 11.02.2020
3098 Clear 9 1021 21 0 1.34 67 18:18 11.02.2020
3099 Clear 9 1021 20 0 1.34 256 17:54 11.02.2020
3100 Clear 7 1021 24 0 5.81 329 17:36 11.02.2020
3101 Clear 6 1020 26 0 6.26 360 17:18 11.02.2020
3102 Clear 4 1020 30 0 5.81 318 16:55 11.02.2020
3103 Clear 4 1020 31 0 8.05 326 16:36 11.02.2020
3104 Clear 4 1020 30 0 6.26 328 16:18 11.02.2020
3105 Clear 4 1020 30 0 6.26 319 15:42 11.02.2020
3106 Clear 4 1020 30 0 6.26 319 15:23 11.02.2020
3107 Clear 3 1020 32 0 6.26 1 14:44 11.02.2020
3108 Clear 3 1020 32 0 6.71 6 14:20 11.02.2020
3109 Clear 3 1020 33 0 8.05 10 13:59 11.02.2020
3110 Clear 3 1020 32 0 5.36 360 13:40 11.02.2020
3111 Clear 4 1019 30 0 7.6 346 13:21 11.02.2020
3112 Clear 4 1019 30 0 6.71 343 12:57 11.02.2020
3113 Clear 4 1020 30 0 7.6 355 12:39 11.02.2020
3114 Clear 4 1020 31 0 5.81 360 12:20 11.02.2020
3115 Clear 4 1020 29 0 6.26 268 11:41 11.02.2020
3116 Clear 4 1020 28 0 5.81 27 11:20 11.02.2020
3117 Clear 5 1020 28 0 6.26 358 10:57 11.02.2020
3118 Clear 5 1020 27 0 4.47 5 10:38 11.02.2020
3119 Clear 5 1020 27 0 2.68 15 10:20 11.02.2020
3120 Clear 5 1020 26 0 1.79 358 09:55 11.02.2020
3121 Clear 6 1020 25 0 3.58 343 09:37 11.02.2020
3122 Clear 6 1019 37 0 6.46 10 09:19 11.02.2020
3123 Clear 6 1019 37 0 6.46 10 08:44 11.02.2020
3124 Clear 6 1019 37 0 6.46 10 08:23 11.02.2020
3125 Clear 7 1020 22 0 4.02 343 07:48 11.02.2020
3126 Clear 7 1019 22 0 4.92 349 07:26 11.02.2020
3127 Clear 7 1020 22 0 5.81 332 06:44 11.02.2020
3128 Clear 7 1019 22 0 3.13 300 06:22 11.02.2020
3129 Clear 6 1019 23 0 1.34 307 05:56 11.02.2020
3130 Clear 7 1019 22 0 1.34 315 05:24 11.02.2020
3131 Clear 8 1019 20 0 3.13 306 04:40 11.02.2020
3132 Clear 9 1016 25 0 4.97 356 03:21 11.02.2020
3133 Clear 9 1016 25 0 4.97 356 02:32 11.02.2020
3134 Clear 12 1018 13 0 4.02 338 01:38 11.02.2020
3135 Clear 12 1013 14 0 6.67 19 00:41 11.02.2020
3136 Clear 12 1013 14 0 6.67 19 00:20 11.02.2020
3137 Clear 12 1013 14 0 6.67 19 23:39 10.02.2020
3138 Clear 12 1015 18 0 8.26 26 23:20 10.02.2020
3139 Clear 12 1015 18 0 8.26 26 22:42 10.02.2020
3140 Clear 12 1015 18 0 8.26 26 22:21 10.02.2020
3141 Clear 12 1015 18 0 8.26 26 21:57 10.02.2020
3142 Clear 13 1019 9 0 5.36 302 21:39 10.02.2020
3143 Clear 13 1019 9 0 5.36 302 21:39 10.02.2020
3144 Clear 12 1019 10 0 5.81 316 21:20 10.02.2020
3145 Clear 12 1020 10 0 5.36 345 20:54 10.02.2020
3146 Clear 11 1020 11 0 4.92 347 20:36 10.02.2020
3147 Clear 9 1017 22 0 7.57 26 20:18 10.02.2020
3148 Clear 9 1017 22 0 7.57 26 19:54 10.02.2020
3149 Clear 9 1017 22 0 7.57 26 19:36 10.02.2020
3150 Clear 9 1017 22 0 7.57 26 19:36 10.02.2020
3151 Clear 9 1017 22 0 7.57 26 19:36 10.02.2020
3152 Clear 9 1017 22 0 7.57 26 19:18 10.02.2020
3153 Clear 7 1022 18 0 6.26 358 18:41 10.02.2020
3154 Clear 7 1021 19 0 5.36 341 18:22 10.02.2020
3155 Clear 6 1021 21 0 5.81 322 17:59 10.02.2020
3156 Clear 5 1021 23 0 4.02 295 17:39 10.02.2020
3157 Clear 5 1017 31 0 6.09 8 17:21 10.02.2020
3158 Clear 5 1017 31 0 6.09 8 16:59 10.02.2020
3159 Clear 3 1021 28 0 5.36 337 16:40 10.02.2020
3160 Clear 2 1021 30 0 5.81 333 16:20 10.02.2020
3161 Clear 2 1021 30 0 5.81 333 16:20 10.02.2020
3162 Clear 1 1020 31 0 6.71 12 15:58 10.02.2020
3163 Clear 1 1021 32 0 4.92 345 15:39 10.02.2020
3164 Clear 1 1020 32 0 4.47 12 15:21 10.02.2020
3165 Clear 2 1020 32 0 4.02 332 14:57 10.02.2020
3166 Clear 2 1020 32 0 4.02 281 14:39 10.02.2020
3167 Clear 2 1020 33 0 4.02 356 14:19 10.02.2020
3168 Clear 1 1019 33 0 4.92 329 13:44 10.02.2020
3169 Clouds 2 1019 33 0 6.26 357 13:25 10.02.2020
3170 Clouds 2 1019 33 0 4.47 347 12:57 10.02.2020
3171 Clouds 2 1019 33 0 5.81 319 12:39 10.02.2020
3172 Clouds 2 1018 32 0 6.26 333 12:20 10.02.2020
3173 Clouds 2 1019 31 0 4.02 347 11:45 10.02.2020
3174 Clouds 2 1018 31 0 4.47 338 11:21 10.02.2020
3175 Clouds 2 1018 31 0 4.02 333 10:58 10.02.2020
3176 Clouds 2 1018 31 0 4.47 293 10:39 10.02.2020
3177 Clouds 2 1018 31 0 4.92 339 10:20 10.02.2020
3178 Clouds 2 1018 31 0 4.92 6 09:42 10.02.2020
3179 Clouds 2 1018 31 0 4.47 2 09:23 10.02.2020
3180 Clouds 3 1018 30 0 3.13 355 08:41 10.02.2020
3181 Clouds 3 1018 30 0 4.02 339 08:22 10.02.2020
3182 Rain 3 1018 30 0 5.36 324 07:55 10.02.2020
3183 Rain 3 1018 30 0 4.47 342 07:35 10.02.2020
3184 Rain 3 1017 30 0 3.58 339 06:53 10.02.2020
3185 Rain 4 1017 30 0 5.36 2 05:40 10.02.2020
3186 Clouds 3 1016 30 0 4.92 333 04:23 10.02.2020
3187 Clouds 4 1016 30 0 3.58 314 03:28 10.02.2020
3188 Clouds 4 1015 30 0 4.47 347 02:53 10.02.2020
3189 Clouds 6 1014 27 0 5.36 356 01:34 10.02.2020
3190 Clouds 6 1014 27 0 4.47 354 00:46 10.02.2020
3191 Clouds 6 1014 26 0 4.92 333 00:27 10.02.2020
3192 Clouds 8 1011 33 0 9.81 27 23:44 09.02.2020
3193 Clouds 7 1013 25 0 4.47 356 23:26 09.02.2020
3194 Clouds 6 1013 27 0 4.92 341 22:57 09.02.2020
3195 Clouds 6 1013 26 0 5.81 350 22:37 09.02.2020
3196 Clouds 9 1012 32 0 10.97 14 22:19 09.02.2020
3197 Clouds 4 1013 29 0 6.26 348 21:41 09.02.2020
3198 Clouds 4 1013 31 0 6.71 333 21:22 09.02.2020
3199 Clouds 4 1013 33 0 6.26 333 20:47 09.02.2020
3200 Clouds 4 1013 34 0 5.81 331 20:23 09.02.2020
3201 Clouds 4 1013 34 0 5.81 312 19:57 09.02.2020
3202 Clouds 3 1013 35 0 6.26 351 19:39 09.02.2020
3203 Clouds 3 1013 36 0 5.36 314 19:20 09.02.2020
3204 Clouds 3 1013 36 0 5.36 314 19:20 09.02.2020
3205 Clouds 3 1012 36 0 5.36 345 18:42 09.02.2020
3206 Clouds 3 1012 36 0 4.92 360 18:24 09.02.2020
3207 Clouds 3 1012 36 0 4.47 354 17:59 09.02.2020
3208 -273 0 0 0 0 0 17:39 09.02.2020
3209 Clouds 3 1012 36 0 5.36 333 17:39 09.02.2020
3210 Clouds 2 1012 38 0 5.36 324 17:21 09.02.2020
3211 Clouds 2 1011 38 0 6.26 351 16:43 09.02.2020
3212 Clouds 2 1011 38 0 5.36 308 16:24 09.02.2020
3213 Clouds 2 1011 38 0 5.81 345 15:59 09.02.2020
3214 Clouds 2 1011 39 0 4.92 331 15:41 09.02.2020
3215 Clouds 2 1011 39 0 4.92 331 15:41 09.02.2020
3216 Clouds 2 1011 39 0 4.92 331 15:41 09.02.2020
3217 Clouds 2 1011 39 0 3.13 337 15:22 09.02.2020
3218 Clouds 1 1011 41 0 2.68 341 14:57 09.02.2020
3219 Clouds 1 1011 42 0 2.24 349 14:39 09.02.2020
3220 Clear 0 1010 43 0 2.24 307 14:20 09.02.2020
3221 Clear 1 1010 42 0 1.79 306 13:44 09.02.2020
3222 Clear 1 1010 40 0 3.58 333 13:26 09.02.2020
3223 Clear 1 1010 39 0 3.13 337 12:56 09.02.2020
3224 Clear 1 1009 39 0 2.68 304 12:38 09.02.2020
3225 Clear 2 1009 39 0 2.24 332 12:18 09.02.2020
3226 Clear 2 1008 37 0 3.58 305 11:41 09.02.2020
3227 Clear 2 1008 36 0 2.68 331 11:22 09.02.2020
3228 Clear 3 1008 33 0 2.68 316 10:59 09.02.2020
3229 Clear 4 1008 30 0 3.58 323 10:40 09.02.2020
3230 Clear 7 1007 29 0 5.36 331 10:21 09.02.2020
3231 Clear 7 1007 32 0 3.58 360 09:46 09.02.2020
3232 Clear 6 1007 35 0 0.89 345 09:27 09.02.2020
3233 Clear 10 1008 41 0 3.75 15 08:46 09.02.2020
3234 Clear 9 1008 41 0 2.94 8 08:28 09.02.2020
3235 Clouds 7 1007 38 0 2.24 32 07:59 09.02.2020
3236 Clouds 5 1007 42 0 1.79 357 07:41 09.02.2020
3237 Clouds 4 1007 43 0 3.03 240 06:49 09.02.2020
3238 Clouds 3 1007 46 0 0.45 54 06:29 09.02.2020
3239 Clouds 3 1007 44 0 3.03 240 05:43 09.02.2020
3240 Clouds 4 1007 41 0 0.32 279 05:19 09.02.2020
3241 Clouds 6 1008 35 0 0.32 279 03:53 09.02.2020
3242 Clouds 12 1008 25 0 0.32 279 02:46 09.02.2020
3243 Clouds 12 1007 37 0 0.32 279 02:26 09.02.2020
3244 Clear 16 1008 23 0 1.4 161 01:35 09.02.2020
3245 Clear 18 1008 17 0 1.34 50 00:48 09.02.2020
3246 Clear 18 1008 17 0 1.79 45 00:27 09.02.2020
3247 Clear 18 1009 17 0 2.24 40 23:44 08.02.2020
3248 Clear 19 1009 17 0 2.68 58 23:22 08.02.2020
3249 Clear 16 1010 29 0 2.72 147 22:55 08.02.2020
3250 Clear 16 1010 29 0 2.72 147 22:37 08.02.2020
3251 Clear 16 1010 29 0 2.72 147 22:19 08.02.2020
3252 Clear 19 1011 17 0 1.79 50 21:42 08.02.2020
3253 Clear 19 1011 17 0 2.68 58 21:24 08.02.2020
3254 Clear 18 1012 17 0 2.24 54 20:58 08.02.2020
3255 Clear 18 1012 17 0 1.79 71 20:39 08.02.2020
3256 Clear 15 1015 33 0 0.98 165 20:19 08.02.2020
3257 Clear 15 1015 33 0 0.98 165 19:56 08.02.2020
3258 Clear 15 1015 33 0 0.98 165 19:38 08.02.2020
3259 Clear 15 1015 33 0 0.98 165 19:19 08.02.2020
3260 Clear 16 1014 22 0 0.89 87 18:43 08.02.2020
3261 Clear 14 1014 24 0 0.98 165 18:25 08.02.2020
3262 Clear 13 1014 25 0 0.45 156 17:58 08.02.2020
3263 Clear 13 1014 26 0 0.45 156 17:40 08.02.2020
3264 Clear 8 1014 36 0 0.84 221 17:18 08.02.2020
3265 Clear 2 1015 45 0 0.84 221 16:40 08.02.2020
3266 Clear 3 1014 42 0 0.84 221 16:22 08.02.2020
3267 Clear 4 1014 38 0 0.84 221 15:57 08.02.2020
3268 Clear 6 1014 34 0 0.84 221 15:39 08.02.2020
3269 Clear 8 1014 45 0 0.84 221 15:18 08.02.2020
3270 Clear 8 1014 45 0 0.84 221 14:44 08.02.2020
3271 Clear 8 1015 30 0 0.89 325 14:20 08.02.2020
3272 Clear 8 1015 30 0 1.34 321 13:57 08.02.2020
3273 Clear 6 1015 34 0 1.34 317 13:38 08.02.2020
3274 Clear 6 1015 34 0 1.34 317 13:38 08.02.2020
3275 Clear 4 1015 40 0 1.34 326 13:20 08.02.2020
3276 Clear 3 1015 44 0 0.89 297 12:40 08.02.2020
3277 Clear 3 1016 45 0 0.89 297 12:22 08.02.2020
3278 Clear 3 1016 45 0 0.45 79 11:56 08.02.2020
3279 Clear 3 1016 46 0 0.89 40 11:38 08.02.2020
3280 Clear 3 1016 47 0 1.49 257 11:19 08.02.2020
3281 Clear 2 1016 49 0 1.49 257 10:42 08.02.2020
3282 Clear 1 1016 46 0 1.49 257 10:22 08.02.2020
3283 Clear 1 1016 45 0 1.49 257 09:51 08.02.2020
3284 Clear 2 1017 45 0 1.49 257 09:27 08.02.2020
3285 Clear 2 1017 44 0 1.49 257 08:54 08.02.2020
3286 Clear 2 1017 43 0 1.49 257 08:36 08.02.2020
3287 Clear 2 1017 42 0 0.55 216 08:18 08.02.2020
3288 Clear 3 1018 39 0 0.55 216 07:44 08.02.2020
3289 Clear 3 1018 37 0 0.55 216 07:19 08.02.2020
3290 Clear 4 1018 34 0 0.89 40 06:28 08.02.2020
3291 Clear 6 1017 32 0 0.55 216 05:48 08.02.2020
3292 Clear 6 1017 30 0 0.55 216 05:30 08.02.2020
3293 Clear 6 1017 31 0 1.03 222 04:49 08.02.2020
3294 Clear 8 1016 26 0 1.03 222 03:51 08.02.2020
3295 Clear 13 1017 38 0 1.03 222 02:51 08.02.2020
3296 Clear 17 1016 23 0 1.3 106 01:53 08.02.2020
3297 Clear 17 1016 24 0 1.15 104 01:24 08.02.2020
3298 Clear 17 1016 24 0 1.15 104 00:39 08.02.2020
3299 Clear 17 1016 24 0 1.15 104 00:21 08.02.2020
3300 Clear 17 1016 24 0 1.15 104 23:55 07.02.2020
3301 Clear 17 1016 24 0 1.15 104 23:37 07.02.2020
3302 Clear 17 1017 24 0 1.79 71 23:18 07.02.2020
3303 Clear 17 1017 24 0 1.79 71 22:39 07.02.2020
3304 Clear 17 1017 24 0 1.79 71 22:19 07.02.2020
3305 Clear 19 1017 9 0 2.68 258 21:43 07.02.2020
3306 Clear 18 1017 9 0 2.24 232 21:22 07.02.2020
3307 Clear 19 1018 9 0 1.34 202 20:57 07.02.2020
3308 Clear 20 1018 9 0 2.24 264 20:38 07.02.2020
3309 Clear 15 1019 25 0 0.82 85 20:18 07.02.2020
3310 Clear 15 1019 25 0 0.82 85 19:40 07.02.2020
3311 Clear 15 1019 25 0 0.82 85 19:22 07.02.2020
3312 Clear 15 1019 25 0 0.82 85 18:58 07.02.2020
3313 Clear 17 1020 13 0 0.89 254 18:40 07.02.2020
3314 Clear 15 1020 14 0 0.89 272 18:20 07.02.2020
3315 Clear 14 1019 17 0 1.79 334 17:43 07.02.2020
3316 Clear 15 1019 25 0 0.82 85 17:22 07.02.2020
3317 Clear 7 1018 40 0 1.18 8 16:57 07.02.2020
3318 Clear 7 1018 40 0 1.18 8 16:39 07.02.2020
3319 Clear 8 1019 25 0 2.68 344 16:20 07.02.2020
3320 Clear 8 1019 26 0 2.24 326 15:48 07.02.2020
3321 Clear 8 1018 27 0 2.24 329 15:27 07.02.2020
3322 Clear 7 1018 30 0 2.24 329 14:46 07.02.2020
3323 Clear 7 1018 30 0 0.89 308 14:27 07.02.2020
3324 Clouds 8 1018 28 0 2.24 320 13:59 07.02.2020
3325 Clouds 8 1018 28 0 1.79 312 13:40 07.02.2020
3326 Clouds 8 1018 28 0 0.89 308 13:21 07.02.2020
3327 Clouds 8 1018 29 0 2.24 336 12:57 07.02.2020
3328 Clouds 8 1018 43 0 0.79 338 12:39 07.02.2020
3329 Clouds 8 1018 43 0 0.79 338 12:21 07.02.2020
3330 Clouds 8 1018 43 0 0.79 338 11:42 07.02.2020
3331 Clouds 9 1018 27 0 0.89 256 11:22 07.02.2020
3332 Clear 9 1018 28 0 1.79 286 10:42 07.02.2020
3333 Clear 8 1018 28 0 1.79 329 10:24 07.02.2020
3334 Clear 8 1018 28 0 1.79 329 10:24 07.02.2020
3335 Clear 8 1018 28 0 1.79 329 10:24 07.02.2020
3336 Clear 8 1018 29 0 1.34 251 09:58 07.02.2020
3337 Clear 7 1018 30 0 1.79 302 09:39 07.02.2020
3338 Clear 7 1018 30 0 0.45 287 09:21 07.02.2020
3339 Clear 8 1018 28 0 1.34 335 08:44 07.02.2020
3340 Clear 9 1018 27 0 1.34 331 08:21 07.02.2020
3341 Clouds 9 1018 27 0 1.34 331 08:21 07.02.2020
3342 Clouds 8 1018 28 0 1.79 341 07:52 07.02.2020
3343 Clouds 7 1018 29 0 1.79 325 07:30 07.02.2020
3344 Clouds 7 1018 31 0 0.45 304 06:57 07.02.2020
3345 Clouds 8 1017 30 0 0.45 329 06:38 07.02.2020
3346 Clouds 11 1017 26 0 0.45 328 06:18 07.02.2020
3347 Clouds 10 1018 45 0 0.83 316 05:37 07.02.2020
3348 Clear 11 1017 44 0 0.49 271 03:43 07.02.2020
3349 Clear 15 1015 31 0 1.36 109 01:53 07.02.2020
3350 Clear 15 1015 31 0 1.34 121 00:59 07.02.2020
3351 Clear 15 1015 31 0 1.34 121 00:27 07.02.2020
3352 Clear 15 1015 31 0 1.34 121 23:38 06.02.2020
3353 Clear 15 1016 29 0 1.31 100 23:19 06.02.2020
3354 Clear 15 1016 29 0 1.31 100 22:48 06.02.2020
3355 Clear 15 1016 29 0 1.31 100 22:27 06.02.2020
3356 Clear 15 1016 29 0 1.31 100 21:59 06.02.2020
3357 Clear 18 1018 24 0 2.68 243 21:37 06.02.2020
3358 Clear 17 1018 26 0 2.24 257 21:18 06.02.2020
3359 Clear 17 1018 29 0 2.68 256 20:55 06.02.2020
3360 Clear 17 1018 29 0 2.68 256 20:55 06.02.2020
3361 Clear 17 1019 28 0 2.24 284 20:36 06.02.2020
3362 Clouds 12 1019 32 0 0.55 104 20:18 06.02.2020
3363 Clouds 12 1019 33 0 0.52 41 19:56 06.02.2020
3364 Clouds 12 1019 33 0 0.52 41 19:37 06.02.2020
3365 Clouds 12 1019 33 0 0.52 41 19:19 06.02.2020
3366 Clouds 14 1020 41 0 1.34 281 18:42 06.02.2020
3367 Clouds 13 1020 42 0 2.24 264 18:24 06.02.2020
3368 Clouds 12 1020 44 0 2.68 298 17:59 06.02.2020
3369 Clouds 12 1020 45 0 1.79 290 17:41 06.02.2020
3370 Clouds 5 1019 49 0 0.75 17 17:20 06.02.2020
3371 Clouds 8 1021 56 0 1.34 343 16:43 06.02.2020
3372 Clouds 7 1021 58 0 1.34 299 16:25 06.02.2020
3373 Clouds 6 1021 60 0 1.34 341 15:44 06.02.2020
3374 Clouds 7 1020 60 0 0.89 312 15:24 06.02.2020
3375 Clouds 7 1021 58 0 0.89 326 14:59 06.02.2020
3376 Clouds 7 1020 58 0 0.89 327 14:41 06.02.2020
3377 Clouds 7 1020 57 0 0.45 305 14:23 06.02.2020
3378 Clouds 6 1021 58 0 0.45 6 13:45 06.02.2020
3379 Clouds 6 1021 58 0 0.89 360 13:26 06.02.2020
3380 Clouds 7 1021 56 0 2.24 314 12:45 06.02.2020
3381 Clouds 7 1021 56 0 0.61 336 12:20 06.02.2020
3382 Clouds 8 1021 54 0 0.89 5 11:59 06.02.2020
3383 Clouds 8 1021 52 0 3.13 4 11:41 06.02.2020
3384 Clouds 8 1021 53 0 2.68 308 11:22 06.02.2020
3385 Clouds 8 1021 54 0 3.58 351 10:59 06.02.2020
3386 Clouds 7 1021 56 0 3.58 356 10:41 06.02.2020
3387 Clouds 7 1021 55 0 1.79 350 10:21 06.02.2020
3388 Clouds 7 1021 55 0 1.79 350 09:59 06.02.2020
3389 Clouds 7 1021 56 0 2.24 22 09:40 06.02.2020
3390 Clouds 7 1021 54 0 0.89 296 09:20 06.02.2020
3391 Clouds 7 1022 52 0 1.34 318 08:45 06.02.2020
3392 Clouds 7 1022 53 0 2.24 331 08:23 06.02.2020
3393 Clouds 7 1022 52 0 1.34 326 07:55 06.02.2020
3394 Clouds 7 1022 52 0 1.34 326 07:55 06.02.2020
3395 Clouds 7 1022 48 0 0.45 9 07:29 06.02.2020
3396 Clouds 9 1022 43 0 0.89 292 06:48 06.02.2020
3397 Clouds 9 1022 42 0 3.58 322 06:19 06.02.2020
3398 Clouds 10 1021 42 0 4.02 4 05:33 06.02.2020
3399 Clear 8 1018 31 0 1.45 279 03:49 06.02.2020
3400 Clear 8 1018 31 0 1.45 279 03:18 06.02.2020
3401 Clouds 11 1021 35 0 3.58 11 01:56 06.02.2020
3402 Clouds 11 1021 25 0 2.24 45 01:24 06.02.2020
3403 Clouds 13 1021 17 0 2.68 45 00:38 06.02.2020
3404 Clouds 14 1021 21 0 1.79 45 00:19 06.02.2020
3405 Clouds 14 1021 20 0 2.68 36 23:40 05.02.2020
3406 Clouds 10 1017 22 0 0.82 210 23:22 05.02.2020
3407 Clouds 9 1019 21 0 1.18 121 22:54 05.02.2020
3408 Clouds 9 1019 21 0 1.18 121 22:36 05.02.2020
3409 Clouds 9 1019 21 0 1.18 121 22:18 05.02.2020
3410 Clouds 15 1023 21 0 1.34 50 21:40 05.02.2020
3411 Clouds 14 1023 21 0 2.24 85 21:22 05.02.2020
3412 Clouds 14 1024 20 0 1.34 58 20:55 05.02.2020
3413 Clouds 15 1024 21 0 0.89 58 20:36 05.02.2020
3414 Clouds 5 1023 22 0 1.4 43 20:18 05.02.2020
3415 Clouds 5 1023 22 0 1.4 43 19:55 05.02.2020
3416 Clouds 5 1023 22 0 1.4 43 19:36 05.02.2020
3417 Clouds 5 1023 22 0 1.4 43 19:18 05.02.2020
3418 Clouds 10 1026 20 0 2.24 327 18:43 05.02.2020
3419 Clouds 8 1026 20 0 0.89 45 18:20 05.02.2020
3420 Clouds 8 1026 18 0 1.34 50 17:58 05.02.2020
3421 Clouds 4 1026 18 0 1.4 43 17:37 05.02.2020
3422 Clouds 2 1026 21 0 1.58 345 17:18 05.02.2020
3423 Clouds -2 1026 28 0 0.89 241 16:43 05.02.2020
3424 Clouds 0 1023 34 0 1.58 345 16:25 05.02.2020
3425 Clouds -4 1026 28 0 1.58 345 15:58 05.02.2020
3426 Clouds -3 1026 26 0 1.58 345 15:38 05.02.2020
3427 Clouds -4 1026 26 0 1.58 345 15:18 05.02.2020
3428 Clouds -3 1026 26 0 1.58 345 14:42 05.02.2020
3429 Clouds -3 1025 24 0 0.45 322 14:23 05.02.2020
3430 Clouds -2 1025 23 0 0.45 333 13:58 05.02.2020
3431 Clouds -1 1025 21 0 1.27 335 13:38 05.02.2020
3432 Clouds -2 1025 22 0 0.45 332 13:19 05.02.2020
3433 Clouds -2 1026 22 0 1.34 24 12:43 05.02.2020
3434 Clouds -3 1025 24 0 0.45 331 12:23 05.02.2020
3435 Clouds -2 1025 23 0 0.89 277 11:55 05.02.2020
3436 Clouds -3 1026 23 0 1.34 332 11:36 05.02.2020
3437 Clear -3 1026 24 0 0.45 14 11:18 05.02.2020
3438 Clear -4 1026 26 0 2.16 343 10:42 05.02.2020
3439 Clear -3 1025 25 0 2.16 343 10:24 05.02.2020
3440 Clear -2 1026 23 0 2.16 343 09:45 05.02.2020
3441 Clear -1 1026 20 0 2.16 343 09:23 05.02.2020
3442 Clear 0 1026 18 0 0.89 329 08:59 05.02.2020
3443 Clear -1 1026 21 0 1.79 24 08:41 05.02.2020
3444 Clear 0 1026 19 0 1.97 348 08:22 05.02.2020
3445 Clear 1 1027 17 0 4.92 355 07:48 05.02.2020
3446 Clear 2 1027 17 0 2.68 354 07:29 05.02.2020
3447 Clear 1 1026 18 0 4.47 3 06:46 05.02.2020
3448 Clear 1 1026 17 0 2.68 6 06:23 05.02.2020
3449 Clear 1 1026 19 0 5.36 17 05:51 05.02.2020
3450 Clear 1 1026 18 0 4.47 36 05:18 05.02.2020
3451 Clear 1 1025 19 0 5.36 21 04:45 05.02.2020
3452 Clear 1 1025 18 0 7.15 350 03:36 05.02.2020
3453 Clear 1 1025 16 0 7.6 360 02:24 05.02.2020
3454 Clear 2 1025 15 0 5.81 9 01:36 05.02.2020
3455 Clouds 5 1025 11 0 3.58 6 00:42 05.02.2020
3456 Clouds 4 1021 16 0 5.99 16 23:57 04.02.2020
3457 Clouds 4 1021 16 0 5.99 16 23:37 04.02.2020
3458 Clear 4 1023 10 0 6.8 15 23:18 04.02.2020
3459 Clear 4 1023 10 0 6.8 15 22:42 04.02.2020
3460 Clear 4 1023 10 0 6.8 15 22:21 04.02.2020
3461 Clear 4 1023 10 0 6.8 15 21:59 04.02.2020
3462 Clear 6 1026 8 0 4.02 345 21:41 04.02.2020
3463 Clear 5 1026 7 0 4.02 18 21:19 04.02.2020
3464 Clear 5 1026 7 0 3.13 50 20:59 04.02.2020
3465 Clear 5 1027 6 0 4.02 55 20:38 04.02.2020
3466 Clear 3 1024 10 0 6.72 21 20:20 04.02.2020
3467 Clear 3 1024 10 0 6.72 21 20:20 04.02.2020
3468 Clear 3 1024 10 0 6.72 21 19:56 04.02.2020
3469 Clear 3 1024 10 0 6.72 21 19:56 04.02.2020
3470 Clear 3 1024 10 0 6.72 21 19:38 04.02.2020
3471 Clear 3 1024 10 0 6.72 21 19:20 04.02.2020
3472 Clear 3 1024 10 0 6.72 21 18:55 04.02.2020
3473 Clear 1 1028 13 0 5.36 342 18:36 04.02.2020
3474 Clear 0 1028 13 0 4.92 340 18:18 04.02.2020
3475 Clear -2 1028 16 0 4.92 250 17:42 04.02.2020
3476 Clear -3 1027 18 0 5.81 338 17:20 04.02.2020
3477 Clear -4 1027 20 0 4.92 347 16:55 04.02.2020
3478 Clear -5 1027 22 0 4.92 316 16:36 04.02.2020
3479 Clear -6 1027 24 0 4.47 332 16:18 04.02.2020
3480 Clear -6 1026 25 0 4.02 320 15:55 04.02.2020
3481 Clear -6 1026 24 0 5.81 319 15:37 04.02.2020
3482 Clear -6 1026 26 0 3.13 302 15:18 04.02.2020
3483 Clear -6 1026 26 0 0.89 286 14:41 04.02.2020
3484 Clear -6 1026 27 0 1.34 301 14:21 04.02.2020
3485 Clear -6 1026 26 0 1.34 277 13:57 04.02.2020
3486 Clear -6 1025 25 0 1.34 264 13:39 04.02.2020
3487 Clear -6 1025 24 0 0.45 291 13:19 04.02.2020
3488 Clear -5 1024 23 0 0.89 306 12:43 04.02.2020
3489 Clear -5 1024 23 0 0.89 306 12:25 04.02.2020
3490 Clear -5 1024 23 0 0.89 306 11:57 04.02.2020
3491 Clear -5 1024 23 0 0.89 306 11:57 04.02.2020
3492 Clear -5 1024 23 0 1.79 359 11:39 04.02.2020
3493 Clear -6 1024 23 0 1.79 347 11:19 04.02.2020
3494 Clear -6 1023 24 0 1.79 11 10:50 04.02.2020
3495 Clear -6 1024 23 0 1.34 352 10:28 04.02.2020
3496 Clear 0 1022 24 0 3.56 349 09:58 04.02.2020
3497 Clear -5 1023 22 0 3.58 342 09:40 04.02.2020
3498 Clear -5 1023 23 0 2.68 358 09:21 04.02.2020
3499 Clear -4 1023 22 0 3.58 331 08:49 04.02.2020
3500 Clear -4 1023 23 0 4.02 332 08:28 04.02.2020
3501 Clear -4 1023 23 0 4.02 359 07:57 04.02.2020
3502 Clear -4 1022 23 0 4.47 348 07:37 04.02.2020
3503 Clear -4 1022 23 0 4.02 339 07:18 04.02.2020
3504 Clear -4 1022 23 0 3.58 3 06:42 04.02.2020
3505 Clear -3 1020 22 0 4.02 339 05:37 04.02.2020
3506 Clear -3 1020 20 0 4.92 347 04:51 04.02.2020
3507 Clear -2 1019 17 0 3.13 329 03:49 04.02.2020
3508 Clear -2 1019 17 0 4.47 2 03:30 04.02.2020
3509 Clear -1 1018 16 0 5.36 348 02:49 04.02.2020
3510 Clear -1 1017 16 0 3.58 349 02:28 04.02.2020
3511 Clear 2 1016 13 0 4.47 360 01:47 04.02.2020
3512 Clear 4 1015 17 0 7.34 3 01:19 04.02.2020
3513 Clear 4 1015 17 0 7.34 3 00:25 04.02.2020
3514 Clear 4 1015 17 0 7.34 3 23:56 03.02.2020
3515 Clear 4 1015 17 0 7.34 3 23:38 03.02.2020
3516 Clear 4 1015 18 0 2.47 357 23:18 03.02.2020
3517 Clear 4 1015 18 0 2.47 357 22:39 03.02.2020
3518 Clear 4 1015 18 0 2.47 357 22:20 03.02.2020
3519 Clear 5 1014 19 0 4.47 320 21:43 03.02.2020
3520 Clear 4 1015 18 0 2.47 357 21:20 03.02.2020
3521 Clear 4 1015 18 0 2.47 357 20:59 03.02.2020
3522 Clear 5 1014 20 0 3.13 352 20:40 03.02.2020
3523 Clear 3 1016 18 0 2.83 24 20:18 03.02.2020
3524 Clear 3 1016 18 0 2.83 24 19:56 03.02.2020
3525 Clear 3 1016 18 0 2.83 24 19:37 03.02.2020
3526 Clear 3 1016 18 0 2.83 24 19:18 03.02.2020
3527 Clear 1 1014 29 0 3.13 349 18:43 03.02.2020
3528 Clear 1 1014 30 0 3.58 358 18:24 03.02.2020
3529 Clear 0 1013 30 0 4.47 332 17:59 03.02.2020
3530 Clear -1 1013 31 0 3.13 343 17:39 03.02.2020
3531 Clear -2 1013 36 0 0.45 287 17:20 03.02.2020
3532 Clear -2 1013 36 0 0.45 287 17:20 03.02.2020
3533 Clear -4 1013 41 0 1.79 336 16:55 03.02.2020
3534 Clear -5 1013 40 0 1.34 325 16:37 03.02.2020
3535 Clear -5 1013 40 0 1.79 344 16:18 03.02.2020
3536 Clear -5 1013 40 0 1.79 353 15:54 03.02.2020
3537 Clear -5 1012 38 0 1.79 334 15:36 03.02.2020
3538 Clear -5 1012 37 0 1.34 349 15:18 03.02.2020
3539 Clear -5 1012 37 0 1.34 349 15:18 03.02.2020
3540 Clear -4 1012 36 0 2.68 344 14:39 03.02.2020
3541 Clouds -4 1012 35 0 3.13 316 14:21 03.02.2020
3542 Clouds -4 1012 34 0 2.68 330 13:55 03.02.2020
3543 Clouds -4 1012 34 0 2.24 348 13:37 03.02.2020
3544 Clouds -4 1012 34 0 2.24 340 13:18 03.02.2020
3545 Clouds -4 1012 34 0 4.02 359 12:41 03.02.2020
3546 Clouds -4 1012 35 0 4.47 348 12:22 03.02.2020
3547 Clouds -3 1012 35 0 3.58 354 11:58 03.02.2020
3548 Clouds -3 1011 35 0 4.47 355 11:38 03.02.2020
3549 Clouds -3 1011 34 0 3.13 328 11:19 03.02.2020
3550 Clouds -3 1010 35 0 5.36 322 10:54 03.02.2020
3551 Clouds -2 1009 34 0 6.71 335 10:36 03.02.2020
3552 Clouds -2 1009 33 0 5.81 333 10:18 03.02.2020
3553 Clouds -2 1008 33 0 8.94 360 09:38 03.02.2020
3554 Clouds -1 1008 41 0 3.13 292 09:19 03.02.2020
3555 Clouds 0 1007 30 0 2.68 304 08:40 03.02.2020
3556 Clouds 1 1006 29 0 2.68 244 08:22 03.02.2020
3557 Clear 2 1006 25 0 3.13 206 07:42 03.02.2020
3558 Clear 3 1004 17 0 5.36 262 07:23 03.02.2020
3559 Clear 4 1005 20 0 3.58 250 06:56 03.02.2020
3560 Clear 4 1004 24 0 1.79 208 06:31 03.02.2020
3561 Clear 4 1004 23 0 4.92 231 05:55 03.02.2020
3562 Clear 8 1008 55 0 4.04 264 05:33 03.02.2020
3563 Clear 7 1002 26 0 8.94 247 04:45 03.02.2020
3564 Clear 7 1002 26 0 8.94 247 04:45 03.02.2020
3565 Clear 10 1002 50 0 10.07 246 02:48 03.02.2020
3566 Clear 10 1002 50 0 10.07 246 02:28 03.02.2020
3567 Clouds 18 1003 20 0 12.83 239 00:50 03.02.2020
3568 Clouds 18 1003 20 0 12.83 239 00:28 03.02.2020
3569 Clouds 19 1005 14 0 4.92 240 23:56 02.02.2020
3570 Clouds 19 1005 14 0 4.92 240 23:36 02.02.2020
3571 Clear 19 1005 14 0 4.92 240 23:18 02.02.2020
3572 Clear 19 1007 20 0 6.52 217 22:40 02.02.2020
3573 Clear 18 1006 22 0 3.58 151 22:22 02.02.2020
3574 Clear 18 1006 23 0 4.47 146 21:58 02.02.2020
3575 Clear 18 1007 23 0 4.47 188 21:39 02.02.2020
3576 Clear 18 1008 22 0 4.02 107 21:20 02.02.2020
3577 Clear 18 1009 23 0 3.13 175 20:57 02.02.2020
3578 Clear 16 1010 30 0 1.79 118 20:39 02.02.2020
3579 Clouds 16 1010 31 0 2.24 65 20:20 02.02.2020
3580 Clouds 16 1011 31 0 2.24 58 19:57 02.02.2020
3581 Clouds 14 1012 31 0 2.24 50 19:39 02.02.2020
3582 Clouds 15 1012 31 0 1.79 50 19:21 02.02.2020
3583 Clouds 14 1012 31 0 2.24 28 18:56 02.02.2020
3584 Clouds 14 1013 33 0 2.24 21 18:37 02.02.2020
3585 Clouds 13 1013 36 0 1.79 40 18:19 02.02.2020
3586 Clouds 13 1013 36 0 1.79 61 17:57 02.02.2020
3587 Clouds 13 1013 36 0 1.79 61 17:57 02.02.2020
3588 Clouds 12 1014 38 0 1.79 88 17:37 02.02.2020
3589 Clear 9 1014 45 0 1.63 224 17:18 02.02.2020
3590 Clear 7 1014 54 0 1.63 224 16:57 02.02.2020
3591 Clear 9 1014 48 0 1.63 224 16:38 02.02.2020
3592 Clear 4 1015 55 0 0.45 45 16:18 02.02.2020
3593 Clear 4 1015 54 0 0.45 59 15:55 02.02.2020
3594 Clear 9 1014 48 0 1.63 224 15:36 02.02.2020
3595 Clear 2 1016 60 0 1.63 224 15:18 02.02.2020
3596 Clear 9 1014 48 0 1.63 224 14:43 02.02.2020
3597 Clear 3 1016 57 0 1.2 202 14:19 02.02.2020
3598 Clear 3 1017 55 0 1.2 202 13:59 02.02.2020
3599 Clear 3 1017 57 0 0.45 281 13:41 02.02.2020
3600 Clear 3 1017 56 0 0.45 172 13:21 02.02.2020
3601 Clear 3 1017 56 0 0.45 172 13:21 02.02.2020
3602 Clear 3 1017 56 0 1.06 206 12:56 02.02.2020
3603 Clear 2 1018 59 0 0.45 124 12:38 02.02.2020
3604 Clear 3 1018 57 0 1.21 213 12:19 02.02.2020
3605 Clear 3 1019 57 0 1.06 206 11:42 02.02.2020
3606 Clear 3 1019 58 0 0.45 228 11:19 02.02.2020
3607 Clear 3 1019 59 0 0.45 124 10:58 02.02.2020
3608 Clear 3 1019 58 0 0.45 228 10:39 02.02.2020
3609 Clear 3 1019 58 0 0.45 228 10:39 02.02.2020
3610 Clear 3 1020 57 0 0.11 56 10:21 02.02.2020
3611 Clear 3 1021 57 0 0.11 56 09:59 02.02.2020
3612 Clear 3 1021 58 0 0.45 228 09:39 02.02.2020
3613 Clear 3 1022 57 0 0.45 228 09:20 02.02.2020
3614 Clear 3 1022 57 0 0.45 228 09:20 02.02.2020
3615 Clear 3 1022 57 0 0.45 228 08:46 02.02.2020
3616 Clear 3 1022 58 0 0.11 56 08:26 02.02.2020
3617 Clear 4 1022 56 0 0.59 209 07:48 02.02.2020
3618 Clear 3 1022 59 0 0.59 209 07:30 02.02.2020
3619 Clear 3 1023 57 0 0.59 209 06:56 02.02.2020
3620 Clear 12 1021 50 0 0.59 209 06:37 02.02.2020
3621 Clear 12 1021 50 0 0.59 209 06:18 02.02.2020
3622 Clear 4 1023 55 0 0.34 250 05:19 02.02.2020
3623 Clear 7 1024 47 0 0.34 250 03:42 02.02.2020
3624 Clear 8 1024 43 0 0.34 250 03:22 02.02.2020
3625 Clear 14 1024 31 0 1.33 112 02:19 02.02.2020
3626 Clear 18 1024 26 0 1.34 87 01:50 02.02.2020
3627 Clear 17 1022 30 0 1.35 113 00:51 02.02.2020
3628 Clear 17 1022 30 0 1.35 113 00:25 02.02.2020
3629 Clear 17 1022 30 0 1.35 113 23:57 01.02.2020
3630 Clear 17 1022 30 0 1.35 113 23:38 01.02.2020
3631 Clear 18 1024 29 0 1.69 98 23:19 01.02.2020
3632 Clear 18 1024 29 0 1.69 98 22:43 01.02.2020
3633 Clear 18 1024 29 0 1.69 98 22:18 01.02.2020
3634 Clear 18 1024 29 0 1.69 98 21:41 01.02.2020
3635 Clear 18 1024 29 0 1.69 98 21:19 01.02.2020
3636 Clear 18 1024 29 0 1.69 98 20:56 01.02.2020
3637 Clear 23 1028 20 0 0.89 93 20:37 01.02.2020
3638 Clear 16 1028 31 0 1.92 42 20:18 01.02.2020
3639 Clear 16 1028 31 0 1.92 42 19:55 01.02.2020
3640 Clear 16 1028 31 0 1.92 42 19:37 01.02.2020
3641 Clear 16 1028 31 0 1.92 42 19:37 01.02.2020
3642 Clear 16 1028 31 0 1.92 42 19:18 01.02.2020
3643 Clear 16 1028 31 0 1.92 42 18:55 01.02.2020
3644 Clear 18 1030 26 0 0.89 145 18:37 01.02.2020
3645 Clear 16 1030 30 0 0.45 302 18:18 01.02.2020
3646 Clear 14 1030 34 0 1.92 42 17:54 01.02.2020
3647 Clear 12 1030 39 0 1.92 42 17:36 01.02.2020
3648 Clear 9 1030 50 0 1.41 13 17:18 01.02.2020
3649 Clear 4 1030 62 0 1.41 13 16:39 01.02.2020
3650 Clear 4 1030 60 0 0.45 335 16:21 01.02.2020
3651 Clear 8 1027 51 0 1.41 13 15:47 01.02.2020
3652 Clear 8 1027 51 0 1.41 13 15:29 01.02.2020
3653 Clear 3 1029 61 0 1.41 13 14:59 01.02.2020
3654 Clear 3 1029 61 0 1.41 13 14:59 01.02.2020
3655 Clear 3 1029 61 0 1.41 13 14:39 01.02.2020
3656 Clouds 2 1029 64 0 1.72 13 14:20 01.02.2020
3657 Clouds 2 1029 64 0 1.72 13 13:45 01.02.2020
3658 Clouds 2 1029 64 0 1.72 13 13:45 01.02.2020
3659 Clouds 3 1029 63 0 1.72 13 13:22 01.02.2020
3660 Clouds 9 1027 45 0 1.81 12 12:48 01.02.2020
3661 Clouds 9 1027 45 0 1.81 12 12:30 01.02.2020
3662 Clouds 9 1027 45 0 1.81 12 11:59 01.02.2020
3663 Clouds 9 1027 45 0 1.81 12 11:39 01.02.2020
3664 Clouds 3 1029 58 0 1.12 11 11:20 01.02.2020
3665 Clouds 4 1029 57 0 1.12 11 10:57 01.02.2020
3666 Clouds 4 1029 55 0 1.12 11 10:38 01.02.2020
3667 Clouds 5 1029 54 0 1.12 11 10:20 01.02.2020
3668 Clouds 5 1029 54 0 1.12 11 09:58 01.02.2020
3669 Clouds 4 1029 54 0 1.12 11 09:39 01.02.2020
3670 Clouds 4 1029 55 0 0.89 309 09:20 01.02.2020
3671 Clouds 10 1027 45 0 1.12 11 08:45 01.02.2020
3672 Clouds 6 1029 50 0 0.86 11 07:49 01.02.2020
3673 Clouds 6 1029 49 0 0.86 11 07:27 01.02.2020
3674 Clouds 6 1029 49 0 0.86 11 06:56 01.02.2020
3675 Clouds 5 1029 51 0 0.86 11 06:32 01.02.2020
3676 Clouds 6 1028 49 0 0.86 11 05:52 01.02.2020
3677 Clear 7 1027 43 0 0.64 15 03:56 01.02.2020
3678 Clear 10 1027 37 0 0.45 344 03:21 01.02.2020
3679 Clear 12 1027 33 0 0.89 354 02:46 01.02.2020
3680 Clear 12 1025 45 0 0.64 15 02:27 01.02.2020
3681 Clear 16 1027 26 0 0.45 90 01:54 01.02.2020
3682 Clear 15 1025 36 0 1.18 53 01:31 01.02.2020
3683 Clear 15 1025 36 0 1.18 53 00:30 01.02.2020
3684 Clear 15 1025 36 0 1.18 53 23:59 31.01.2020
3685 Clear 15 1025 36 0 1.18 53 23:37 31.01.2020
3686 Clear 15 1026 38 0 2.32 52 23:18 31.01.2020
3687 Clear 15 1026 38 0 2.32 52 22:41 31.01.2020
3688 Clear 15 1026 38 0 2.32 52 22:41 31.01.2020
3689 Clear 15 1026 38 0 2.32 52 22:22 31.01.2020
3690 Clear 15 1026 38 0 2.32 52 21:59 31.01.2020
3691 Clear 19 1027 26 0 0.89 63 21:39 31.01.2020
3692 Clear 20 1028 25 0 0.89 96 21:20 31.01.2020
3693 Clear 19 1028 26 0 0.89 64 20:57 31.01.2020
3694 Clear 19 1028 26 0 0.89 64 20:57 31.01.2020
3695 Clear 19 1028 26 0 0.89 64 20:57 31.01.2020
3696 Clear 19 1029 27 0 1.34 50 20:39 31.01.2020
3697 Clear 19 1029 27 0 1.34 50 20:39 31.01.2020
3698 Clouds 13 1028 44 0 2.78 37 20:20 31.01.2020
3699 Clear 13 1029 43 0 2.52 40 19:56 31.01.2020
3700 Clear 13 1029 43 0 2.52 40 19:38 31.01.2020
3701 Clear 13 1029 43 0 2.52 40 19:19 31.01.2020
3702 Clear 13 1029 40 0 0.45 220 18:46 31.01.2020
3703 Clear 13 1029 41 0 0.89 202 18:27 31.01.2020
3704 Clear 12 1029 43 0 2.52 40 17:59 31.01.2020
3705 Clear 11 1028 47 0 2.52 40 17:40 31.01.2020
3706 Clear 7 1028 61 0 0.45 100 17:21 31.01.2020
3707 Clear 4 1028 67 0 0.45 225 16:56 31.01.2020
3708 Clear 3 1028 70 0 2.75 6 16:37 31.01.2020
3709 Clear 2 1028 71 0 2.75 6 16:18 31.01.2020
3710 Clear 2 1028 70 0 0.45 225 15:56 31.01.2020
3711 Clear 2 1028 69 0 2.75 6 15:37 31.01.2020
3712 Clear 4 1027 62 0 2.75 6 15:19 31.01.2020
3713 Clear 7 1027 55 0 0.45 321 14:42 31.01.2020
3714 Clouds 6 1027 57 0 2.24 351 14:20 31.01.2020
3715 Clouds 6 1027 58 0 2.68 340 13:50 31.01.2020
3716 Clouds 7 1027 55 0 0.89 326 13:32 31.01.2020
3717 Clouds 6 1026 55 0 1.34 342 12:56 31.01.2020
3718 Clear 6 1026 56 0 2.24 325 12:38 31.01.2020
3719 Clouds 6 1027 57 0 0.89 289 12:20 31.01.2020
3720 Clouds 3 1026 65 0 2.47 10 11:41 31.01.2020
3721 Clouds 3 1026 64 0 0.45 108 11:23 31.01.2020
3722 Clouds 5 1026 57 0 0.45 139 10:58 31.01.2020
3723 Clouds 6 1026 57 0 0.45 133 10:38 31.01.2020
3724 Clear 8 1026 49 0 0.45 347 10:20 31.01.2020
3725 Clouds 7 1026 56 0 3.58 355 09:55 31.01.2020
3726 Clouds 7 1026 56 0 3.58 355 09:55 31.01.2020
3727 Clouds 8 1026 49 0 0.45 322 09:37 31.01.2020
3728 Clear 9 1026 46 0 1.34 359 09:18 31.01.2020
3729 Clouds 7 1026 56 0 1.79 320 08:42 31.01.2020
3730 Clear 6 1026 55 0 1.34 329 08:23 31.01.2020
3731 Clouds 9 1026 45 0 0.45 347 07:52 31.01.2020
3732 Clouds 9 1026 47 0 3.58 3 07:20 31.01.2020
3733 Clouds 11 1025 46 0 4.1 8 06:38 31.01.2020
3734 Clouds 11 1025 46 0 4.1 8 05:58 31.01.2020
3735 Clouds 11 1025 46 0 4.1 8 05:33 31.01.2020
3736 Clouds 10 1026 46 0 3.58 350 04:46 31.01.2020
3737 Clouds 11 1025 46 0 2.68 352 02:55 31.01.2020
3738 Clouds 15 1021 36 0 3.34 46 01:32 31.01.2020
3739 Clouds 15 1020 33 0 2.31 49 00:42 31.01.2020
3740 Clouds 15 1020 33 0 2.31 49 00:23 31.01.2020
3741 Clouds 15 1020 33 0 2.31 49 23:48 30.01.2020
3742 Clouds 15 1020 33 0 2.31 49 23:23 30.01.2020
3743 Clouds 13 1021 25 0 3.22 50 22:56 30.01.2020
3744 Clouds 13 1021 25 0 3.22 50 22:56 30.01.2020
3745 Clouds 13 1021 25 0 3.22 50 22:36 30.01.2020
3746 Clouds 13 1021 25 0 3.22 50 22:18 30.01.2020
3747 Clouds 13 1021 25 0 3.22 50 21:43 30.01.2020
3748 Clouds 17 1024 29 0 4.02 4 21:19 30.01.2020
3749 Clouds 15 1024 27 0 3.58 356 20:59 30.01.2020
3750 Clouds 14 1024 28 0 4.47 302 20:39 30.01.2020
3751 Clouds 11 1022 23 0 2.35 30 20:21 30.01.2020
3752 Clouds 11 1022 23 0 2.35 30 19:55 30.01.2020
3753 Clouds 11 1022 23 0 2.35 30 19:36 30.01.2020
3754 Clouds 11 1022 23 0 2.35 30 19:18 30.01.2020
3755 Clouds 14 1025 18 0 0.45 16 18:39 30.01.2020
3756 Clouds 12 1024 19 0 0.45 26 18:20 30.01.2020
3757 Clouds 11 1024 20 0 0.45 24 17:55 30.01.2020
3758 Clouds 8 1024 24 0 2.35 30 17:37 30.01.2020
3759 Clouds 5 1023 29 0 1.75 354 17:18 30.01.2020
3760 Clouds 2 1023 37 0 1.75 354 16:56 30.01.2020
3761 Clouds 5 1021 34 0 1.75 354 16:37 30.01.2020
3762 Clouds 1 1023 34 0 1.75 354 16:18 30.01.2020
3763 Clouds 1 1023 34 0 1.75 354 15:42 30.01.2020
3764 Clouds 1 1022 33 0 0.45 332 15:19 30.01.2020
3765 Clouds 1 1022 32 0 0.45 332 14:46 30.01.2020
3766 Clouds 1 1022 32 0 1.75 354 14:26 30.01.2020
3767 Clouds 1 1022 32 0 1.75 354 14:26 30.01.2020
3768 Clouds 1 1022 33 0 1.99 350 13:54 30.01.2020
3769 Clouds 1 1022 33 0 1.99 350 13:36 30.01.2020
3770 Clouds 1 1022 33 0 2.15 349 13:18 30.01.2020
3771 Clouds 1 1022 32 0 2.15 349 12:41 30.01.2020
3772 Clouds 1 1022 33 0 2.15 349 12:22 30.01.2020
3773 Clouds 1 1022 34 0 2.15 349 11:56 30.01.2020
3774 Clouds 0 1022 36 0 2.15 349 11:38 30.01.2020
3775 Clouds 0 1022 36 0 2.15 349 11:38 30.01.2020
3776 Clouds 1 1022 35 0 0.89 327 11:19 30.01.2020
3777 Clouds 1 1022 33 0 2.78 346 10:42 30.01.2020
3778 Clouds 2 1022 32 0 0.45 327 10:22 30.01.2020
3779 Clouds 3 1022 29 0 0.45 272 09:48 30.01.2020
3780 Clouds 3 1022 29 0 0.45 260 09:30 30.01.2020
3781 Clouds 5 1022 26 0 0.45 274 08:59 30.01.2020
3782 Clouds 6 1022 22 0 1.79 5 08:40 30.01.2020
3783 Clear 6 1022 24 0 2.24 337 08:20 30.01.2020
3784 Clear 5 1023 27 0 0.89 360 07:49 30.01.2020
3785 Clear 6 1023 25 0 1.34 320 07:28 30.01.2020
3786 Clear 6 1023 26 0 3.58 357 06:47 30.01.2020
3787 Clear 6 1023 26 0 1.79 353 06:29 30.01.2020
3788 Clear 7 1023 23 0 4.47 6 05:44 30.01.2020
3789 Clear 7 1023 24 0 3.13 335 05:22 30.01.2020
3790 Clouds 8 1023 23 0 3.13 308 03:55 30.01.2020
3791 Clouds 9 1021 30 0 4.52 5 03:37 30.01.2020
3792 Clouds 8 1022 23 0 4.02 350 02:42 30.01.2020
3793 Clear 12 1019 22 0 7.22 10 00:43 30.01.2020
3794 Clear 12 1019 22 0 7.22 10 00:21 30.01.2020
3795 Clear 12 1019 22 0 7.22 10 23:47 29.01.2020
3796 Clear 12 1019 22 0 7.22 10 23:47 29.01.2020
3797 Clear 12 1019 22 0 7.22 10 23:22 29.01.2020
3798 Clear 12 1019 21 0 8.54 13 22:58 29.01.2020
3799 Clear 12 1019 21 0 8.54 13 22:39 29.01.2020
3800 Clear 12 1019 21 0 8.54 13 22:19 29.01.2020
3801 Clear 12 1019 21 0 8.54 13 21:58 29.01.2020
3802 Clear 12 1021 20 0 8.05 336 21:38 29.01.2020
3803 Clear 12 1021 20 0 8.05 336 21:38 29.01.2020
3804 Clear 12 1021 21 0 7.6 333 21:19 29.01.2020
3805 Clear 12 1021 20 0 8.05 2 20:58 29.01.2020
3806 Clear 11 1023 24 0 6.71 331 20:38 29.01.2020
3807 Clear 11 1021 24 0 6.68 13 20:20 29.01.2020
3808 Clear 11 1021 24 0 6.68 13 19:56 29.01.2020
3809 Clear 11 1021 24 0 6.68 13 19:37 29.01.2020
3810 Clear 11 1021 24 0 6.68 13 19:37 29.01.2020
3811 Clear 11 1021 24 0 6.68 13 19:18 29.01.2020
3812 Clear 9 1023 32 0 4.92 333 18:46 29.01.2020
3813 Clear 7 1023 33 0 6.26 8 18:19 29.01.2020
3814 Clear 7 1023 35 0 5.36 354 17:58 29.01.2020
3815 Clear 7 1023 36 0 6.26 4 17:39 29.01.2020
3816 Clear 6 1021 47 0 4.55 353 17:21 29.01.2020
3817 Clear 6 1021 47 0 4.55 353 17:21 29.01.2020
3818 Clear 4 1023 42 0 6.26 314 16:41 29.01.2020
3819 Clear 4 1023 42 0 4.92 319 16:23 29.01.2020
3820 Clear 4 1022 41 0 8.05 3 15:56 29.01.2020
3821 Clear 4 1021 39 0 9.39 2 15:37 29.01.2020
3822 Clear 4 1021 40 0 8.05 318 15:19 29.01.2020
3823 Clear 4 1021 43 0 7.15 355 14:43 29.01.2020
3824 Clear 4 1021 41 0 4.02 355 14:20 29.01.2020
3825 Clear 4 1021 39 0 5.36 20 13:55 29.01.2020
3826 Clear 3 1021 39 0 4.02 307 13:37 29.01.2020
3827 Clear 3 1021 36 0 2.68 1 13:19 29.01.2020
3828 Clear 4 1021 34 0 3.58 349 12:55 29.01.2020
3829 Clear 4 1020 33 0 4.02 353 12:37 29.01.2020
3830 Clear 4 1020 32 0 3.13 329 12:18 29.01.2020
3831 Clear 5 1020 32 0 2.24 310 11:45 29.01.2020
3832 Clear 6 1020 31 0 2.24 340 11:21 29.01.2020
3833 Clear 6 1020 32 0 1.34 324 10:47 29.01.2020
3834 Clear 6 1020 32 0 1.34 324 10:26 29.01.2020
3835 Clear 6 1020 32 0 1.34 324 10:26 29.01.2020
3836 Clear 6 1020 35 0 0.89 314 09:58 29.01.2020
3837 Clear 6 1020 35 0 0.89 314 09:40 29.01.2020
3838 Clear 6 1020 37 0 1.34 331 09:20 29.01.2020
3839 Clear 6 1020 37 0 1.34 331 09:20 29.01.2020
3840 Clear 6 1021 39 0 1.79 320 08:56 29.01.2020
3841 Clear 6 1021 44 0 1.34 336 08:37 29.01.2020
3842 Clouds 6 1021 43 0 0.89 310 08:18 29.01.2020
3843 Clouds 6 1020 44 0 1.79 328 07:43 29.01.2020
3844 Clouds 4 1021 49 0 1.34 340 07:23 29.01.2020
3845 Clouds 2 1020 56 0 0.82 314 06:38 29.01.2020
3846 Clouds 1 1020 58 0 0.45 299 06:20 29.01.2020
3847 Clouds 2 1020 58 0 0.82 314 05:52 29.01.2020
3848 Clouds 2 1020 58 0 0.82 314 05:52 29.01.2020
3849 Clouds 2 1020 59 0 0.45 324 05:34 29.01.2020
3850 Clouds 2 1020 56 0 1.36 12 04:39 29.01.2020
3851 Clouds 3 1019 52 0 1.36 12 04:18 29.01.2020
3852 Clouds 7 1019 41 0 1.36 12 02:40 29.01.2020
3853 Clouds 14 1019 27 0 1.79 106 01:34 29.01.2020
3854 Clouds 14 1018 33 0 1.39 170 00:39 29.01.2020
3855 Clouds 14 1018 33 0 1.39 170 00:21 29.01.2020
3856 Clouds 14 1018 33 0 1.39 170 23:41 28.01.2020
3857 Clouds 13 1020 30 0 1.34 56 23:20 28.01.2020
3858 Clouds 12 1020 31 0 1.79 25 22:56 28.01.2020
3859 Clouds 13 1021 30 0 1.34 45 22:37 28.01.2020
3860 Clouds 14 1021 28 0 1.34 56 22:18 28.01.2020
3861 Clouds 18 1022 23 0 1.79 73 21:41 28.01.2020
3862 Clouds 18 1023 24 0 0.89 33 21:20 28.01.2020
3863 Clouds 18 1023 24 0 0.89 33 21:20 28.01.2020
3864 Clouds 16 1023 26 0 1.34 58 20:46 28.01.2020
3865 Clouds 14 1023 28 0 0.89 45 20:28 28.01.2020
3866 Clear 13 1023 35 0 0.61 174 19:59 28.01.2020
3867 Clear 13 1023 35 0 0.61 174 19:38 28.01.2020
3868 Clear 13 1023 35 0 0.61 174 19:19 28.01.2020
3869 Clear 11 1024 35 0 0.45 71 18:57 28.01.2020
3870 Clear 11 1024 34 0 0.45 40 18:38 28.01.2020
3871 Clear 11 1024 36 0 0.45 40 18:20 28.01.2020
3872 Clear 10 1024 38 0 0.61 174 17:55 28.01.2020
3873 Clear 9 1024 39 0 0.45 346 17:36 28.01.2020
3874 Clear 8 1024 43 0 0.89 307 17:18 28.01.2020
3875 Clear 4 1025 55 0 0.45 299 16:45 28.01.2020
3876 Clear 3 1024 57 0 0.46 214 16:27 28.01.2020
3877 Clear 2 1024 57 0 0.46 214 15:59 28.01.2020
3878 Clear 1 1024 59 0 0.45 40 15:40 28.01.2020
3879 Clear -1 1024 64 0 0.46 214 15:18 28.01.2020
3880 Clear 0 1024 63 0 0.46 214 14:45 28.01.2020
3881 Clear 1 1024 61 0 0.73 260 14:20 28.01.2020
3882 Clear 1 1024 59 0 0.73 260 13:46 28.01.2020
3883 Clear 1 1024 58 0 0.45 96 13:25 28.01.2020
3884 Clear 3 1024 53 0 0.91 259 12:59 28.01.2020
3885 Clear 2 1024 55 0 0.91 259 12:41 28.01.2020
3886 Clear 0 1025 62 0 0.45 349 12:22 28.01.2020
3887 Clear 1 1025 59 0 0.91 259 11:48 28.01.2020
3888 Clear 1 1025 58 0 0.91 259 11:23 28.01.2020
3889 Clear 0 1025 63 0 0.89 349 10:56 28.01.2020
3890 Clear 0 1025 63 0 0.89 349 10:56 28.01.2020
3891 Clear 0 1025 63 0 1.1 352 10:38 28.01.2020
3892 Clear 0 1025 62 0 1.1 352 10:18 28.01.2020
3893 Clear 1 1025 59 0 1.1 352 09:42 28.01.2020
3894 Clear 1 1025 57 0 1.1 352 09:21 28.01.2020
3895 Clear 2 1025 55 0 1.1 352 08:56 28.01.2020
3896 Clear 3 1025 53 0 1.1 352 08:38 28.01.2020
3897 Clear 2 1025 56 0 0.45 23 08:18 28.01.2020
3898 Clear 2 1025 53 0 1.25 309 07:36 28.01.2020
3899 Clear 3 1026 50 0 1.25 309 06:49 28.01.2020
3900 Clear 3 1026 53 0 1.25 309 06:25 28.01.2020
3901 Clear 2 1025 53 0 1.25 309 05:53 28.01.2020
3902 Clear 2 1025 52 0 1.25 309 05:25 28.01.2020
3903 Clouds 5 1024 43 0 1.53 245 03:57 28.01.2020
3904 Clouds 8 1024 35 0 1.53 245 02:58 28.01.2020
3905 Clouds 9 1023 31 0 1.34 6 02:25 28.01.2020
3906 Clear 12 1023 28 0 1.34 33 01:57 28.01.2020
3907 Clear 14 1022 36 0 1.17 137 01:23 28.01.2020
3908 Clouds 13 1022 38 0 0.98 115 00:45 28.01.2020
3909 Clouds 13 1022 38 0 0.98 115 00:24 28.01.2020
3910 Clouds 13 1022 38 0 0.98 115 23:48 27.01.2020
3911 Clouds 13 1022 38 0 0.98 115 23:29 27.01.2020
3912 Clouds 13 1023 39 0 1.58 79 22:54 27.01.2020
3913 Clouds 13 1023 39 0 1.58 79 22:36 27.01.2020
3914 Clouds 13 1023 39 0 1.58 79 22:18 27.01.2020
3915 Clouds 13 1023 39 0 1.58 79 21:40 27.01.2020
3916 Clouds 17 1024 18 0 0.89 15 21:19 27.01.2020
3917 Clouds 18 1024 18 0 1.34 73 20:59 27.01.2020
3918 Clouds 18 1025 18 0 1.34 8 20:40 27.01.2020
3919 Clear 12 1024 43 0 0.94 50 20:21 27.01.2020
3920 Clear 12 1025 44 0 0.63 84 20:21 27.01.2020
3921 Clear 12 1024 43 0 0.94 50 19:58 27.01.2020
3922 Clear 12 1024 43 0 0.94 50 19:40 27.01.2020
3923 Clear 12 1024 43 0 0.94 50 19:21 27.01.2020
3924 Clear 12 1024 43 0 0.94 50 19:21 27.01.2020
3925 Clear 12 1024 43 0 0.94 50 18:55 27.01.2020
3926 Clear 12 1025 23 0 0.45 202 18:37 27.01.2020
3927 Clear 12 1025 23 0 0.45 202 18:37 27.01.2020
3928 Clear 12 1025 23 0 0.45 202 18:37 27.01.2020
3929 Clear 11 1025 25 0 0.94 50 18:19 27.01.2020
3930 Clear 11 1025 25 0 0.94 50 18:19 27.01.2020
3931 Clear 12 1024 23 0 0.94 50 17:39 27.01.2020
3932 Clear 12 1024 23 0 0.94 50 17:39 27.01.2020
3933 Clear 6 1023 64 0 0.74 359 17:19 27.01.2020
3934 Clear 6 1023 64 0 0.74 359 16:58 27.01.2020
3935 Clear 6 1024 33 0 2.24 325 16:40 27.01.2020
3936 Clear 6 1024 33 0 2.24 325 16:40 27.01.2020
3937 Clear 4 1024 35 0 1.34 336 16:22 27.01.2020
3938 -273 0 0 0 0 0 16:22 27.01.2020
3939 Clear 4 1024 31 0 0.45 334 15:55 27.01.2020
3940 Clear 4 1023 30 0 0.89 325 15:36 27.01.2020
3941 Clear 4 1023 29 0 0.89 354 15:18 27.01.2020
3942 Clear 5 1023 29 0 1.34 347 14:41 27.01.2020
3943 Clear 5 1022 30 0 0.89 326 14:22 27.01.2020
3944 Clear 5 1022 30 0 1.79 318 13:55 27.01.2020
3945 Clear 6 1022 29 0 1.34 335 13:37 27.01.2020
3946 Clear 6 1022 27 0 1.34 322 13:18 27.01.2020
3947 Clear 6 1022 27 0 2.24 326 12:43 27.01.2020
3948 Clear 6 1022 27 0 2.24 295 12:23 27.01.2020
3949 Clear 6 1022 28 0 1.79 344 11:58 27.01.2020
3950 Clear 6 1022 29 0 2.24 331 11:40 27.01.2020
3951 Clear 6 1022 30 0 0.89 303 11:19 27.01.2020
3952 Clear 7 1022 30 0 1.34 318 10:42 27.01.2020
3953 Clear 7 1022 30 0 1.34 351 10:24 27.01.2020
3954 Clear 7 1021 30 0 2.24 356 09:54 27.01.2020
3955 Clear 7 1022 32 0 1.34 336 09:36 27.01.2020
3956 Clear 7 1022 32 0 1.34 341 09:18 27.01.2020
3957 Clear 9 1021 54 0 1.16 28 08:42 27.01.2020
3958 Clear 8 1021 32 0 2.68 327 08:19 27.01.2020
3959 Clear 8 1021 32 0 1.34 294 07:53 27.01.2020
3960 Clear 10 1020 56 0 0.55 345 07:33 27.01.2020
3961 Clear 8 1021 32 0 2.68 330 06:51 27.01.2020
3962 Clear 8 1020 33 0 2.24 333 05:59 27.01.2020
3963 Clear 7 1019 48 0 2.23 2 05:18 27.01.2020
3964 Clear 7 1018 57 0 2.23 2 03:43 27.01.2020
3965 Clear 10 1017 46 0 2.23 2 02:32 27.01.2020
3966 Clear 16 1016 43 0 2.28 331 01:29 27.01.2020
3967 Clear 16 1015 44 0 3.47 353 00:43 27.01.2020
3968 Clear 16 1015 44 0 3.47 353 00:23 27.01.2020
3969 Clear 16 1015 44 0 3.47 353 23:59 26.01.2020
3970 Clear 16 1015 44 0 3.47 353 23:41 26.01.2020
3971 Clear 16 1016 44 0 3.93 211 23:18 26.01.2020
3972 Clear 16 1016 44 0 3.93 211 22:54 26.01.2020
3973 Clear 16 1015 34 0 2.68 50 22:36 26.01.2020
3974 Clear 16 1016 44 0 3.93 211 22:18 26.01.2020
3975 Clear 16 1016 44 0 3.93 211 21:54 26.01.2020
3976 Clear 17 1016 32 0 2.68 98 21:36 26.01.2020
3977 Clear 17 1016 33 0 1.79 70 21:18 26.01.2020
3978 Clear 17 1017 33 0 1.34 69 20:54 26.01.2020
3979 Clear 16 1017 35 0 1.34 71 20:36 26.01.2020
3980 Clouds 14 1018 42 0 2.19 204 20:18 26.01.2020
3981 Clouds 13 1017 39 0 1.34 22 19:40 26.01.2020
3982 Clouds 11 1018 44 0 2.24 84 19:21 26.01.2020
3983 Clouds 9 1018 49 0 0.89 58 18:59 26.01.2020
3984 Clouds 9 1018 49 0 0.89 50 18:40 26.01.2020
3985 Clouds 11 1017 44 0 1.34 101 18:22 26.01.2020
3986 Clouds 10 1017 45 0 0.89 23 17:58 26.01.2020
3987 Clouds 11 1017 45 0 1.79 87 17:38 26.01.2020
3988 Clouds 8 1017 54 0 0.89 93 17:18 26.01.2020
3989 Clouds 8 1017 54 0 0.89 93 17:18 26.01.2020
3990 Clouds 4 1017 65 0 0.45 243 16:57 26.01.2020
3991 Clouds 3 1017 66 0 0.45 243 16:39 26.01.2020
3992 Clouds 3 1017 63 0 1.58 235 16:20 26.01.2020
3993 Clouds 4 1017 61 0 1.58 235 15:55 26.01.2020
3994 Clouds 4 1017 58 0 1.58 235 15:36 26.01.2020
3995 Clouds 5 1017 57 0 1.58 235 15:18 26.01.2020
3996 Clouds 6 1017 53 0 0.45 322 14:40 26.01.2020
3997 Clouds 6 1017 53 0 0.89 93 14:19 26.01.2020
3998 Clouds 6 1017 53 0 0.89 93 14:19 26.01.2020
3999 Clouds 6 1017 54 0 0.45 69 13:42 26.01.2020
4000 Clouds 7 1017 51 0 0.89 70 13:20 26.01.2020
4001 Clouds 7 1018 48 0 0.89 92 12:58 26.01.2020
4002 Clouds 9 1018 45 0 1.39 244 12:40 26.01.2020
4003 Clouds 7 1018 47 0 1.79 111 12:21 26.01.2020
4004 Clouds 7 1018 50 0 1.34 109 11:57 26.01.2020
4005 Clouds 6 1018 53 0 1.39 244 11:39 26.01.2020
4006 Clouds 6 1018 53 0 0.45 115 11:18 26.01.2020
4007 Clouds 6 1019 55 0 0.45 94 10:58 26.01.2020
4008 Clouds 6 1019 55 0 1.58 243 10:38 26.01.2020
4009 Clouds 4 1019 59 0 1.58 243 10:20 26.01.2020
4010 Clouds 4 1019 63 0 0.45 89 09:57 26.01.2020
4011 Clouds 3 1019 66 0 0.45 68 09:39 26.01.2020
4012 Clouds 3 1019 66 0 0.45 68 09:39 26.01.2020
4013 Clouds 2 1019 67 0 1.58 243 09:20 26.01.2020
4014 Clouds 3 1020 65 0 1.58 243 08:43 26.01.2020
4015 Clouds 3 1020 65 0 1.65 240 08:22 26.01.2020
4016 Clouds 3 1020 65 0 1 222 07:57 26.01.2020
4017 Clouds 3 1020 65 0 1 222 07:39 26.01.2020
4018 Clouds 3 1020 63 0 1 222 07:21 26.01.2020
4019 Clouds 4 1020 60 0 1 222 06:31 26.01.2020
4020 Clouds 4 1020 61 0 1 222 05:32 26.01.2020
4021 Clouds 4 1020 60 0 0.67 228 04:45 26.01.2020
4022 Clouds 8 1020 47 0 0.67 228 02:54 26.01.2020
4023 Clouds 12 1019 37 0 1.34 75 01:49 26.01.2020
4024 Clouds 13 1019 36 0 1.34 50 01:25 26.01.2020
4025 Clouds 15 1019 28 0 1.34 58 00:58 26.01.2020
4026 Clouds 15 1017 31 0 0.54 153 00:37 26.01.2020
4027 Clouds 15 1017 31 0 0.54 153 00:19 26.01.2020
4028 Clouds 15 1017 31 0 0.54 153 23:37 25.01.2020
4029 Clouds 15 1018 29 0 1.43 65 23:18 25.01.2020
4030 Clouds 15 1018 29 0 1.43 65 22:40 25.01.2020
4031 Clouds 15 1018 29 0 1.43 65 22:19 25.01.2020
4032 Clouds 15 1018 29 0 1.43 65 21:57 25.01.2020
4033 Clouds 15 1018 29 0 1.43 65 21:38 25.01.2020
4034 Clouds 15 1018 29 0 1.43 65 21:20 25.01.2020
4035 Clouds 15 1018 29 0 1.43 65 20:44 25.01.2020
4036 Clouds 15 1018 29 0 1.43 65 20:25 25.01.2020
4037 Clouds 14 1020 31 0 1.28 43 19:56 25.01.2020
4038 Clouds 14 1020 31 0 1.28 43 19:37 25.01.2020
4039 Clouds 11 1021 39 0 0.89 150 19:19 25.01.2020
4040 Clouds 11 1021 39 0 0.89 150 18:55 25.01.2020
4041 Clouds 12 1021 36 0 0.45 225 18:37 25.01.2020
4042 Clouds 11 1021 39 0 0.89 150 18:18 25.01.2020
4043 Clouds 12 1021 37 0 0.45 196 17:39 25.01.2020
4044 Clouds 8 1019 46 0 1.53 14 17:19 25.01.2020
4045 Clouds 8 1019 46 0 1.72 9 16:56 25.01.2020
4046 Clouds 6 1020 49 0 0.45 347 16:37 25.01.2020
4047 Clouds 7 1020 48 0 0.89 343 16:18 25.01.2020
4048 Clouds 7 1020 47 0 0.89 329 15:42 25.01.2020
4049 Clouds 7 1020 48 0 1.79 349 15:23 25.01.2020
4050 Clouds 7 1020 48 0 2.24 334 14:47 25.01.2020
4051 Clouds 7 1020 48 0 2.68 339 14:20 25.01.2020
4052 Clouds 7 1020 49 0 1.34 316 13:58 25.01.2020
4053 Clouds 6 1020 52 0 1.34 343 13:39 25.01.2020
4054 Clouds 2 1020 66 0 0.89 27 13:20 25.01.2020
4055 Clouds 2 1019 67 0 1.09 8 12:43 25.01.2020
4056 Clouds 2 1019 67 0 1.09 8 12:43 25.01.2020
4057 Clouds 2 1019 66 0 1.09 8 12:21 25.01.2020
4058 Clouds 3 1019 63 0 1.09 8 11:45 25.01.2020
4059 Clouds 3 1019 63 0 1.09 8 11:45 25.01.2020
4060 Clouds 4 1019 59 0 0.87 353 11:21 25.01.2020
4061 Clouds 4 1019 58 0 0.87 353 10:58 25.01.2020
4062 Clouds 4 1019 58 0 0.45 96 10:40 25.01.2020
4063 Clouds 4 1019 60 0 0.45 173 10:20 25.01.2020
4064 Clouds 3 1019 65 0 0.87 353 09:41 25.01.2020
4065 Clouds 3 1019 63 0 0.87 353 09:22 25.01.2020
4066 Clouds 3 1019 63 0 0.87 353 08:44 25.01.2020
4067 Clouds 3 1020 62 0 1.06 354 08:22 25.01.2020
4068 Clouds 4 1020 61 0 0.99 291 07:43 25.01.2020
4069 Clouds 3 1020 66 0 0.99 291 06:51 25.01.2020
4070 Clouds 3 1019 66 0 0.99 291 06:27 25.01.2020
4071 Clouds 2 1019 67 0 0.99 291 05:46 25.01.2020
4072 Clouds 3 1019 62 0 0.83 262 04:43 25.01.2020
4073 Clouds 6 1018 54 0 0.83 262 03:51 25.01.2020
4074 Clouds 6 1018 54 0 0.83 262 03:51 25.01.2020
4075 Clouds 8 1018 46 0 0.45 335 02:57 25.01.2020
4076 Clouds 10 1017 40 0 0.45 29 02:18 25.01.2020
4077 Clouds 12 1017 35 0 0.89 45 01:43 25.01.2020
4078 Clouds 14 1015 38 0 1.16 124 00:44 25.01.2020
4079 Clouds 14 1015 38 0 1.16 124 00:25 25.01.2020
4080 Clouds 14 1015 38 0 1.16 124 23:57 24.01.2020
4081 Clouds 14 1015 38 0 1.16 124 23:39 24.01.2020
4082 Clouds 15 1016 36 0 1.28 79 23:21 24.01.2020
4083 Clouds 15 1016 36 0 1.28 79 22:44 24.01.2020
4084 Clouds 15 1016 36 0 1.28 79 22:25 24.01.2020
4085 Clouds 16 1017 33 0 1.34 61 21:43 24.01.2020
4086 Clouds 14 1017 34 0 1.34 35 21:21 24.01.2020
4087 Clouds 16 1018 33 0 1.79 58 20:57 24.01.2020
4088 Clouds 17 1018 30 0 1.34 61 20:39 24.01.2020
4089 Clouds 13 1018 37 0 1.17 75 20:20 24.01.2020
4090 Clouds 14 1018 37 0 0.7 83 19:57 24.01.2020
4091 Clouds 14 1018 37 0 0.7 83 19:38 24.01.2020
4092 Clouds 14 1018 37 0 0.7 83 19:20 24.01.2020
4093 Clouds 16 1019 34 0 0.45 74 18:43 24.01.2020
4094 Clouds 13 1019 40 0 0.45 59 18:23 24.01.2020
4095 Clouds 11 1019 48 0 0.7 83 17:46 24.01.2020
4096 Clouds 8 1018 54 0 0.7 83 17:23 24.01.2020
4097 Clouds 2 1019 76 0 0.26 8 16:59 24.01.2020
4098 Clouds 1 1018 76 0 0.26 8 16:39 24.01.2020
4099 Clouds 1 1019 73 0 0.26 8 16:20 24.01.2020
4100 Clouds 2 1018 69 0 0.26 8 15:43 24.01.2020
4101 Clouds 2 1018 67 0 0.26 8 15:22 24.01.2020
4102 Clouds 3 1018 65 0 0.26 8 14:57 24.01.2020
4103 Clouds 3 1018 64 0 0.45 85 14:38 24.01.2020
4104 Clouds 3 1018 64 0 0.45 85 14:38 24.01.2020
4105 Clouds 2 1018 68 0 0.45 4 14:20 24.01.2020
4106 Clouds 2 1018 70 0 0.87 288 13:42 24.01.2020
4107 Clouds 2 1018 69 0 0.71 308 13:23 24.01.2020
4108 Clouds 4 1018 63 0 0.45 259 12:44 24.01.2020
4109 Clouds 3 1019 65 0 0.45 74 12:22 24.01.2020
4110 Clouds 3 1019 67 0 0.45 348 11:57 24.01.2020
4111 Clouds 1 1019 75 0 0.71 308 11:38 24.01.2020
4112 Clouds 1 1019 75 0 0.75 276 11:18 24.01.2020
4113 Clouds 1 1019 75 0 0.75 276 11:18 24.01.2020
4114 Clouds 1 1019 72 0 0.75 276 10:41 24.01.2020
4115 Clouds 2 1019 69 0 0.75 276 10:20 24.01.2020
4116 Clouds 3 1020 68 0 0.75 276 09:54 24.01.2020
4117 Clouds 2 1020 72 0 0.75 276 09:36 24.01.2020
4118 Clouds 1 1020 75 0 0.45 272 09:18 24.01.2020
4119 Clouds 1 1020 74 0 0.75 276 08:39 24.01.2020
4120 Clouds 1 1020 74 0 0.75 276 08:39 24.01.2020
4121 Clouds 1 1020 72 0 0.69 291 08:19 24.01.2020
4122 Clouds 2 1021 70 0 0.82 265 07:47 24.01.2020
4123 Clouds 1 1021 72 0 0.82 265 07:22 24.01.2020
4124 Clouds 2 1021 72 0 0.82 265 06:45 24.01.2020
4125 Clouds 2 1021 69 0 0.82 265 06:24 24.01.2020
4126 Clouds 3 1020 67 0 0.82 265 05:37 24.01.2020
4127 Clouds 6 1020 53 0 0.24 299 03:47 24.01.2020
4128 Clouds 9 1020 42 0 0.45 329 02:41 24.01.2020
4129 Clouds 11 1020 41 0 0.89 25 02:22 24.01.2020
4130 Clouds 13 1020 38 0 0.89 40 01:39 24.01.2020
4131 Clear 14 1019 37 0 0.93 90 00:52 24.01.2020
4132 Clear 14 1019 37 0 0.93 90 00:19 24.01.2020
4133 Clear 14 1019 37 0 0.93 90 23:42 23.01.2020
4134 Clear 14 1019 37 0 0.93 90 23:23 23.01.2020
4135 Clear 14 1020 36 0 1.66 58 22:58 23.01.2020
4136 Clear 14 1020 36 0 1.66 58 22:37 23.01.2020
4137 Clear 14 1020 36 0 1.66 58 22:18 23.01.2020
4138 Clear 14 1020 36 0 1.66 58 21:55 23.01.2020
4139 Clear 14 1020 36 0 1.66 58 21:37 23.01.2020
4140 Clear 14 1020 36 0 1.66 58 21:19 23.01.2020
4141 Clear 14 1020 36 0 1.66 58 20:55 23.01.2020
4142 Clear 14 1020 36 0 1.66 58 20:37 23.01.2020
4143 Clouds 13 1023 46 0 1.96 39 20:18 23.01.2020
4144 Clouds 13 1023 46 0 1.96 39 19:44 23.01.2020
4145 Clouds 13 1023 46 0 1.96 39 19:24 23.01.2020
4146 Clouds 13 1023 46 0 1.96 39 18:59 23.01.2020
4147 Clouds 13 1025 39 0 0.89 123 18:39 23.01.2020
4148 Clouds 13 1025 38 0 0.89 150 18:20 23.01.2020
4149 Clouds 13 1025 39 0 1.96 39 17:56 23.01.2020
4150 Clouds 11 1026 44 0 0.89 323 17:38 23.01.2020
4151 Clouds 7 1023 74 0 1.64 8 17:18 23.01.2020
4152 Clouds 7 1026 56 0 1.64 8 16:39 23.01.2020
4153 Clouds 6 1026 57 0 1.34 311 16:20 23.01.2020
4154 Clouds 6 1026 58 0 0.45 329 15:58 23.01.2020
4155 Clouds 6 1026 58 0 1.34 337 15:40 23.01.2020
4156 Clouds 6 1025 59 0 0.89 325 15:19 23.01.2020
4157 Clouds 6 1025 59 0 0.89 325 15:19 23.01.2020
4158 Clouds 6 1025 59 0 1.34 335 14:59 23.01.2020
4159 Clouds 6 1025 60 0 2.24 325 14:41 23.01.2020
4160 Clouds 6 1025 61 0 1.34 334 14:23 23.01.2020
4161 Clear 3 1025 66 0 1.34 266 13:59 23.01.2020
4162 Clear 3 1025 64 0 0.45 77 13:38 23.01.2020
4163 Clear 4 1025 61 0 1.64 357 13:19 23.01.2020
4164 Clear 7 1025 54 0 1.64 357 12:46 23.01.2020
4165 Clear 7 1026 52 0 0.45 223 12:25 23.01.2020
4166 Clear 7 1026 56 0 1.79 347 11:57 23.01.2020
4167 Clear 4 1026 64 0 1.34 2 11:38 23.01.2020
4168 Clear 2 1026 69 0 0.45 119 11:19 23.01.2020
4169 Clear 2 1026 70 0 0.45 117 10:44 23.01.2020
4170 Clear 2 1026 71 0 0.45 77 10:22 23.01.2020
4171 Clear 2 1026 69 0 0.45 323 09:57 23.01.2020
4172 Clear 2 1026 67 0 1.03 13 09:36 23.01.2020
4173 Clear 3 1026 66 0 1.03 13 09:18 23.01.2020
4174 Clear 4 1026 63 0 1.03 13 08:41 23.01.2020
4175 Clear 4 1026 63 0 0.96 10 08:22 23.01.2020
4176 Clear 2 1026 68 0 0.85 3 07:45 23.01.2020
4177 Clear 2 1026 69 0 0.85 3 07:26 23.01.2020
4178 Clear 8 1023 69 0 0.85 3 06:53 23.01.2020
4179 Clear 8 1023 69 0 0.85 3 06:23 23.01.2020
4180 Clear 3 1025 68 0 0.85 3 05:57 23.01.2020
4181 Clouds 3 1024 70 0 0.69 42 04:24 23.01.2020
4182 Clouds 8 1023 53 0 0.45 316 02:34 23.01.2020
4183 Clouds 12 1020 53 0 1.07 128 01:41 23.01.2020
4184 Clouds 12 1020 51 0 1.25 111 00:28 23.01.2020
4185 Clouds 12 1020 51 0 1.25 111 23:48 22.01.2020
4186 Clouds 12 1020 51 0 1.25 111 23:30 22.01.2020
4187 Clouds 11 1020 52 0 1.21 111 22:59 22.01.2020
4188 Clouds 11 1020 52 0 1.21 111 22:41 22.01.2020
4189 Clouds 11 1020 52 0 1.21 111 22:23 22.01.2020
4190 Clouds 16 1023 37 0 1.34 50 21:42 22.01.2020
4191 Clouds 16 1023 37 0 1.34 45 21:22 22.01.2020
4192 Clouds 15 1023 39 0 0.89 92 20:59 22.01.2020
4193 Clouds 14 1024 40 0 1.34 64 20:41 22.01.2020
4194 Clouds 14 1024 41 0 0.89 18 20:23 22.01.2020
4195 Clouds 9 1022 64 0 0.68 80 19:57 22.01.2020
4196 Clouds 9 1022 64 0 0.68 80 19:39 22.01.2020
4197 Clouds 9 1022 64 0 0.68 80 19:19 22.01.2020
4198 Clouds 9 1022 64 0 0.68 80 18:57 22.01.2020
4199 Clouds 9 1024 59 0 0.68 80 18:38 22.01.2020
4200 Clouds 8 1024 60 0 0.45 223 18:20 22.01.2020
4201 Clouds 8 1024 61 0 0.45 223 17:55 22.01.2020
4202 Clouds 7 1024 66 0 0.68 80 17:37 22.01.2020
4203 Clouds 5 1024 75 0 0.38 326 17:19 22.01.2020
4204 Clouds 2 1023 81 0 0.38 326 16:43 22.01.2020
4205 Clouds 2 1023 79 0 0.38 326 16:23 22.01.2020
4206 Clouds 1 1023 84 0 1.34 18 15:59 22.01.2020
4207 Clouds 1 1023 81 0 0.45 346 15:40 22.01.2020
4208 Clouds 1 1022 83 0 0.89 349 15:22 22.01.2020
4209 Clouds 1 1022 87 0 0.45 292 14:57 22.01.2020
4210 Clouds -1 1022 87 0 0.38 326 14:37 22.01.2020
4211 Clouds -1 1022 87 0 0.45 306 14:18 22.01.2020
4212 Clouds -1 1022 83 0 0.47 17 13:54 22.01.2020
4213 Clouds 1 1022 81 0 0.47 17 13:36 22.01.2020
4214 Clouds 1 1021 79 0 0.8 2 13:18 22.01.2020
4215 Clouds 2 1021 77 0 0.8 2 12:55 22.01.2020
4216 Clouds 2 1022 82 0 0.89 316 12:37 22.01.2020
4217 Clouds -2 1022 90 0 0.89 349 12:18 22.01.2020
4218 Clouds -2 1022 90 0 0.89 349 11:56 22.01.2020
4219 Clouds -1 1022 86 0 0.8 2 11:37 22.01.2020
4220 Clouds -1 1022 85 0 0.37 266 11:18 22.01.2020
4221 Clouds -1 1022 85 0 0.37 266 10:43 22.01.2020
4222 Clouds -1 1021 87 0 0.37 266 10:20 22.01.2020
4223 Clouds -1 1021 89 0 0.37 266 09:43 22.01.2020
4224 Clouds -1 1021 85 0 0.45 275 09:25 22.01.2020
4225 Clouds 0 1021 83 0 0.37 266 08:57 22.01.2020
4226 Clouds 0 1021 84 0 0.37 266 08:39 22.01.2020
4227 Clouds 1 1021 82 0 0.04 268 08:21 22.01.2020
4228 Clouds 1 1021 82 0 0.45 274 07:54 22.01.2020
4229 Clouds 0 1021 83 0 0.04 268 07:36 22.01.2020
4230 Clouds 0 1021 81 0 0.04 268 07:18 22.01.2020
4231 Clouds 1 1021 79 0 0.04 268 06:30 22.01.2020
4232 Clouds 7 1019 66 0 0.04 268 05:41 22.01.2020
4233 Clouds 7 1019 66 0 0.04 268 05:41 22.01.2020
4234 Clouds 3 1020 68 0 0.36 45 04:18 22.01.2020
4235 Clouds 4 1020 66 0 0.36 45 03:22 22.01.2020
4236 Clouds 5 1019 63 0 1.79 3 02:27 22.01.2020
4237 Clouds 10 1016 55 0 1.82 140 00:45 22.01.2020
4238 Clouds 10 1016 55 0 1.82 140 00:26 22.01.2020
4239 Clouds 10 1016 55 0 1.82 140 23:39 21.01.2020
4240 Clouds 10 1017 57 0 1.66 131 23:21 21.01.2020
4241 Clouds 10 1017 57 0 1.66 131 22:59 21.01.2020
4242 Clouds 10 1017 57 0 1.66 131 22:39 21.01.2020
4243 Clouds 10 1017 57 0 1.66 131 22:20 21.01.2020
4244 Clouds 10 1017 57 0 1.66 131 21:56 21.01.2020
4245 Clouds 13 1018 43 0 0.89 40 21:37 21.01.2020
4246 Clouds 12 1018 46 0 1.34 28 21:19 21.01.2020
4247 Clouds 12 1018 46 0 1.34 28 21:19 21.01.2020
4248 Clouds 10 1019 51 0 1.34 45 20:55 21.01.2020
4249 Clouds 9 1019 52 0 0.45 45 20:37 21.01.2020
4250 Clouds 8 1019 59 0 0.55 34 20:18 21.01.2020
4251 Clouds 8 1019 59 0 0.55 34 20:18 21.01.2020
4252 Clouds 8 1019 59 0 0.55 34 19:55 21.01.2020
4253 Clouds 8 1019 56 0 0.45 94 19:37 21.01.2020
4254 Clouds 8 1019 59 0 0.55 34 19:18 21.01.2020
4255 Clouds 7 1019 62 0 1.34 95 18:55 21.01.2020
4256 Clouds 6 1019 66 0 0.45 134 18:36 21.01.2020
4257 Clouds 4 1019 71 0 0.55 34 18:18 21.01.2020
4258 Clouds 4 1019 73 0 0.45 303 17:42 21.01.2020
4259 Clouds 3 1019 77 0 2.26 279 17:19 21.01.2020
4260 Clouds 2 1018 80 0 0.45 273 16:57 21.01.2020
4261 Clouds -2 1018 89 0 2.26 279 16:36 21.01.2020
4262 Clouds -2 1018 87 0 2.26 279 16:18 21.01.2020
4263 Clouds -2 1018 84 0 2.26 279 15:41 21.01.2020
4264 Clouds -2 1017 82 0 2.26 279 15:20 21.01.2020
4265 Clouds -1 1017 84 0 2.26 279 14:58 21.01.2020
4266 Clouds -1 1016 82 0 2.26 279 14:37 21.01.2020
4267 Rain -1 1017 79 0 3.11 242 14:19 21.01.2020
4268 Rain 0 1017 77 0 3.11 242 13:39 21.01.2020
4269 Rain 2 1017 73 0 3.11 242 13:19 21.01.2020
4270 Clouds 3 1017 71 0 0.45 175 12:43 21.01.2020
4271 Clouds 3 1017 71 0 0.89 162 12:25 21.01.2020
4272 Clouds 3 1017 71 0 1.34 164 11:57 21.01.2020
4273 Clouds 3 1017 73 0 1.34 160 11:38 21.01.2020
4274 Clouds 3 1017 75 0 1.79 135 11:20 21.01.2020
4275 Clouds 4 1017 71 0 1.79 150 10:44 21.01.2020
4276 Clouds 4 1017 72 0 1.79 212 10:24 21.01.2020
4277 Clouds 3 1017 77 0 2.68 183 09:59 21.01.2020
4278 Clouds 3 1017 77 0 2.68 183 09:41 21.01.2020
4279 Clouds 3 1018 78 0 1.34 104 09:22 21.01.2020
4280 Clouds 3 1018 78 0 1.34 104 09:22 21.01.2020
4281 Clouds 6 1017 59 0 2.68 223 08:48 21.01.2020
4282 Clouds 6 1017 56 0 2.24 252 08:29 21.01.2020
4283 Clouds 7 1017 44 0 1.34 202 07:57 21.01.2020
4284 Clouds 7 1017 42 0 1.9 221 07:38 21.01.2020
4285 Clouds 7 1017 42 0 0.45 74 07:20 21.01.2020
4286 Clouds 7 1017 41 0 1.9 221 06:45 21.01.2020
4287 Clouds 7 1017 41 0 1.9 221 06:25 21.01.2020
4288 Clouds 8 1017 38 0 0.45 148 05:42 21.01.2020
4289 Clouds 8 1017 37 0 0.45 160 04:39 21.01.2020
4290 Clouds 6 1017 37 0 1.2 178 02:56 21.01.2020
4291 Clouds 9 1016 30 0 0.89 140 01:51 21.01.2020
4292 Clouds 13 1017 25 0 2.24 71 01:18 21.01.2020
4293 Clouds 13 1016 30 0 2.41 169 00:36 21.01.2020
4294 Clouds 13 1016 30 0 2.41 169 23:58 20.01.2020
4295 Clouds 12 1017 27 0 1.34 40 23:38 20.01.2020
4296 Clouds 12 1017 26 0 0.89 116 23:19 20.01.2020
4297 Clouds 12 1018 25 0 1.79 106 22:56 20.01.2020
4298 Clouds 12 1017 26 0 2.24 75 22:37 20.01.2020
4299 Clouds 12 1017 26 0 1.79 81 22:19 20.01.2020
4300 Clouds 11 1017 27 0 2.24 29 21:57 20.01.2020
4301 Clouds 12 1017 26 0 1.34 63 21:37 20.01.2020
4302 Clouds 12 1018 26 0 1.79 35 21:19 20.01.2020
4303 Clouds 12 1018 26 0 1.34 50 20:55 20.01.2020
4304 Clouds 13 1019 26 0 1.34 66 20:36 20.01.2020
4305 Clouds 12 1019 29 0 1.79 31 20:18 20.01.2020
4306 Clouds 11 1019 28 0 1.79 60 19:56 20.01.2020
4307 Clouds 10 1020 31 0 1.34 76 19:37 20.01.2020
4308 Clouds 9 1021 33 0 1.34 59 19:18 20.01.2020
4309 Clouds 7 1021 39 0 0.55 106 18:43 20.01.2020
4310 Clouds 6 1021 40 0 0.55 106 18:22 20.01.2020
4311 Clouds 6 1021 42 0 0.55 106 17:41 20.01.2020
4312 Clouds 5 1020 40 0 0.45 339 17:19 20.01.2020
4313 Clouds 4 1020 41 0 0.86 318 16:59 20.01.2020
4314 Clouds 3 1020 48 0 0.86 318 16:37 20.01.2020
4315 Clouds 3 1020 49 0 0.86 318 16:18 20.01.2020
4316 Clouds 3 1020 49 0 0.86 318 16:18 20.01.2020
4317 Clouds 3 1020 49 0 0.86 318 16:18 20.01.2020
4318 Clouds 3 1021 47 0 0.45 347 15:54 20.01.2020
4319 Clouds 3 1021 45 0 0.86 318 15:36 20.01.2020
4320 Clouds 3 1020 44 0 0.45 347 15:18 20.01.2020
4321 Clouds 3 1020 46 0 0.86 318 14:41 20.01.2020
4322 Clouds 3 1020 46 0 0.45 347 14:22 20.01.2020
4323 Clouds 3 1020 47 0 2.11 8 13:58 20.01.2020
4324 Clouds 3 1020 46 0 2.11 8 13:40 20.01.2020
4325 Clouds 3 1020 45 0 1.74 21 13:21 20.01.2020
4326 Clouds 3 1021 45 0 1.74 21 12:46 20.01.2020
4327 Clouds 3 1021 45 0 0.45 347 12:28 20.01.2020
4328 Clouds 3 1021 44 0 1.74 21 11:57 20.01.2020
4329 Clouds 3 1021 44 0 1.74 21 11:38 20.01.2020
4330 Clouds 4 1021 42 0 1.83 322 11:20 20.01.2020
4331 Clouds 4 1022 39 0 0.89 347 10:48 20.01.2020
4332 Clouds 5 1022 39 0 1.83 322 10:22 20.01.2020
4333 Clouds 5 1022 39 0 1.83 322 10:22 20.01.2020
4334 Clouds 5 1021 37 0 0.89 342 09:57 20.01.2020
4335 Clouds 6 1021 35 0 0.89 322 09:38 20.01.2020
4336 Clouds 6 1022 36 0 1.83 322 09:19 20.01.2020
4337 Clouds 7 1023 34 0 1.34 349 08:43 20.01.2020
4338 Clouds 6 1023 35 0 0.45 255 08:25 20.01.2020
4339 Clouds 8 1023 29 0 0.45 327 07:45 20.01.2020
4340 Clouds 8 1023 29 0 0.89 335 07:24 20.01.2020
4341 Clouds 8 1024 29 0 0.89 321 06:48 20.01.2020
4342 Clouds 8 1024 29 0 0.89 349 06:27 20.01.2020
4343 Clouds 7 1024 33 0 2.33 14 05:42 20.01.2020
4344 Clouds 7 1024 32 0 0.89 345 05:22 20.01.2020
4345 Clouds 8 1025 30 0 2.34 13 04:47 20.01.2020
4346 Clouds 7 1025 33 0 0.45 18 02:58 20.01.2020
4347 Clouds 10 1025 26 0 2.7 33 01:55 20.01.2020
4348 Clouds 11 1025 22 0 0.45 20 01:37 20.01.2020
4349 Clouds 12 1025 21 0 0.89 40 00:45 20.01.2020
4350 Clouds 12 1022 25 0 2.69 35 00:24 20.01.2020
4351 Clouds 12 1022 25 0 2.69 35 23:39 19.01.2020
4352 Clouds 13 1023 23 0 3.28 45 23:20 19.01.2020
4353 Clouds 13 1023 23 0 3.28 45 23:20 19.01.2020
4354 Clouds 13 1023 23 0 3.28 45 22:57 19.01.2020
4355 Clouds 13 1023 23 0 3.28 45 22:39 19.01.2020
4356 Clouds 13 1023 23 0 3.28 45 22:20 19.01.2020
4357 Clouds 13 1023 23 0 3.28 45 21:57 19.01.2020
4358 Clouds 13 1023 23 0 3.28 45 21:38 19.01.2020
4359 Clouds 13 1023 23 0 3.28 45 21:20 19.01.2020
4360 Clouds 13 1023 23 0 3.28 45 20:57 19.01.2020
4361 Clouds 17 1027 17 0 1.34 19 20:39 19.01.2020
4362 Clouds 11 1026 25 0 3.37 39 20:21 19.01.2020
4363 Clouds 11 1025 24 0 3.01 39 19:57 19.01.2020
4364 Clouds 11 1025 24 0 3.01 39 19:39 19.01.2020
4365 Clouds 11 1025 24 0 3.01 39 19:20 19.01.2020
4366 Clouds 11 1025 24 0 3.01 39 18:59 19.01.2020
4367 Clouds 13 1029 22 0 0.45 78 18:41 19.01.2020
4368 Clouds 12 1029 24 0 0.89 62 18:21 19.01.2020
4369 Clouds 11 1029 26 0 0.45 326 17:58 19.01.2020
4370 Clouds 10 1029 27 0 0.45 330 17:40 19.01.2020
4371 Clouds 6 1025 31 0 2.53 17 17:21 19.01.2020
4372 Clouds 4 1029 37 0 1.34 351 16:59 19.01.2020
4373 Clouds 3 1029 43 0 2.53 17 16:40 19.01.2020
4374 Clouds 3 1029 38 0 1.34 332 16:21 19.01.2020
4375 Clouds 2 1028 39 0 1.34 337 15:59 19.01.2020
4376 Clouds 2 1028 40 0 2.53 17 15:40 19.01.2020
4377 Clouds 4 1029 35 0 0.45 314 15:21 19.01.2020
4378 Clouds 4 1029 32 0 1.79 314 14:59 19.01.2020
4379 Clouds 4 1029 33 0 0.89 324 14:40 19.01.2020
4380 Clouds 6 1029 28 0 0.89 314 14:19 19.01.2020
4381 Clouds 5 1029 29 0 1.79 322 13:58 19.01.2020
4382 Clouds 6 1028 29 0 0.89 322 13:38 19.01.2020
4383 Clouds 5 1029 30 0 0.45 341 13:20 19.01.2020
4384 Clouds 4 1029 31 0 1.34 340 12:56 19.01.2020
4385 Clouds 4 1029 32 0 0.89 343 12:37 19.01.2020
4386 Clouds 4 1029 31 0 0.45 346 12:19 19.01.2020
4387 Clouds 4 1029 34 0 0.89 332 11:56 19.01.2020
4388 Clouds 5 1030 35 0 2.68 329 11:37 19.01.2020
4389 Clear 4 1030 35 0 1.34 322 11:18 19.01.2020
4390 Clear 5 1030 33 0 2.68 310 10:39 19.01.2020
4391 Clear 5 1030 32 0 4.02 330 10:20 19.01.2020
4392 Clear 4 1030 32 0 2.24 324 09:57 19.01.2020
4393 Clear 4 1030 32 0 2.24 324 09:57 19.01.2020
4394 Clear 4 1031 31 0 2.24 289 09:38 19.01.2020
4395 Clear 3 1031 33 0 2.68 289 09:19 19.01.2020
4396 Clear 2 1031 35 0 1.79 6 08:55 19.01.2020
4397 Clear 6 1027 28 0 2.65 7 08:32 19.01.2020
4398 Clouds -1 1031 44 0 2.8 359 07:54 19.01.2020
4399 Clouds -1 1031 46 0 2.8 359 07:28 19.01.2020
4400 Clouds -1 1031 48 0 0.45 337 06:55 19.01.2020
4401 Clouds 7 1026 25 0 2.8 359 06:22 19.01.2020
4402 Clouds 1 1030 49 0 2.55 4 03:58 19.01.2020
4403 Clouds 6 1030 35 0 2.55 4 02:34 19.01.2020
4404 Clouds 7 1030 31 0 0.89 325 01:42 19.01.2020
4405 Clouds 8 1029 26 0 0.45 40 01:20 19.01.2020
4406 Clouds 10 1029 26 0 0.89 50 00:44 19.01.2020
4407 Clouds 10 1029 26 0 0.89 67 00:21 19.01.2020
4408 Clouds 11 1029 26 0 0.89 50 23:54 18.01.2020
4409 Clouds 10 1025 23 0 2.61 39 23:36 18.01.2020
4410 Clouds 9 1026 23 0 2.53 41 23:18 18.01.2020
4411 Clouds 9 1026 23 0 2.53 41 22:41 18.01.2020
4412 Clouds 9 1026 23 0 2.53 41 22:23 18.01.2020
4413 Clouds 9 1026 23 0 2.53 41 21:58 18.01.2020
4414 Clouds 9 1026 23 0 2.53 41 21:39 18.01.2020
4415 Clouds 12 1030 25 0 0.89 292 21:20 18.01.2020
4416 Clouds 11 1030 27 0 2.53 41 20:57 18.01.2020
4417 Clouds 9 1031 29 0 0.45 301 20:39 18.01.2020
4418 Clouds 8 1031 27 0 0.89 338 20:19 18.01.2020
4419 Clouds 8 1031 29 0 0.45 323 19:43 18.01.2020
4420 Clouds 7 1031 31 0 0.89 326 19:24 18.01.2020
4421 Clouds 7 1032 35 0 1.34 329 18:43 18.01.2020
4422 Clouds 6 1032 35 0 1.34 332 18:25 18.01.2020
4423 Clouds 7 1031 37 0 1.34 347 17:59 18.01.2020
4424 Clouds 6 1031 38 0 1.34 308 17:40 18.01.2020
4425 Clouds 3 1031 43 0 1.34 333 17:21 18.01.2020
4426 Clouds 3 1031 44 0 1.34 337 16:57 18.01.2020
4427 Clouds 2 1031 46 0 3.13 331 16:38 18.01.2020
4428 Clouds 2 1031 48 0 1.34 314 16:19 18.01.2020
4429 Clouds 2 1031 48 0 1.34 314 16:19 18.01.2020
4430 Clouds 1 1031 48 0 2.24 323 15:47 18.01.2020
4431 Clouds 1 1031 48 0 2.24 323 15:47 18.01.2020
4432 Clouds 1 1030 50 0 1.34 331 15:26 18.01.2020
4433 Clouds -2 1030 57 0 1.82 355 14:59 18.01.2020
4434 Clouds -2 1030 59 0 1.82 355 14:41 18.01.2020
4435 Clouds -2 1030 57 0 2.12 356 14:19 18.01.2020
4436 Clouds -1 1030 56 0 2.12 356 13:57 18.01.2020
4437 Clouds -2 1029 59 0 2.12 356 13:36 18.01.2020
4438 Clouds -2 1029 60 0 2.01 359 13:18 18.01.2020
4439 Clouds -2 1029 60 0 2.01 359 13:18 18.01.2020
4440 Clouds -1 1029 54 0 0.45 334 12:41 18.01.2020
4441 Clouds 0 1030 50 0 1.34 337 12:22 18.01.2020
4442 Clouds -1 1030 54 0 1.34 318 11:57 18.01.2020
4443 Clouds -2 1029 59 0 0.45 160 11:38 18.01.2020
4444 Clouds 0 1029 55 0 1.53 0 11:19 18.01.2020
4445 Clouds 1 1029 53 0 1.79 339 10:43 18.01.2020
4446 Clouds -2 1029 65 0 0.45 330 10:21 18.01.2020
4447 Clouds -3 1029 71 0 1.53 0 09:56 18.01.2020
4448 Clouds -4 1029 74 0 1.53 0 09:38 18.01.2020
4449 Clouds -4 1029 71 0 1.53 0 09:18 18.01.2020
4450 Clouds -3 1029 68 0 1.53 0 08:42 18.01.2020
4451 Clouds -3 1029 68 0 1.38 12 08:20 18.01.2020
4452 Clouds -3 1029 67 0 1.38 12 07:58 18.01.2020
4453 Clouds -3 1029 67 0 1.38 12 07:37 18.01.2020
4454 Clouds -2 1028 64 0 1.38 12 06:50 18.01.2020
4455 Clouds -2 1028 61 0 0.45 6 06:27 18.01.2020
4456 Clouds -1 1028 59 0 1.38 12 05:49 18.01.2020
4457 Clouds 0 1028 53 0 0.85 352 04:24 18.01.2020
4458 Clouds 3 1027 42 0 0.89 29 02:34 18.01.2020
4459 Clouds 5 1026 37 0 1.34 4 01:40 18.01.2020
4460 Clouds 7 1024 45 0 1.13 139 00:39 18.01.2020
4461 Clouds 7 1024 45 0 1.13 139 00:19 18.01.2020
4462 Clouds 7 1024 45 0 1.13 139 23:58 17.01.2020
4463 Clouds 7 1024 45 0 1.13 139 23:39 17.01.2020
4464 Clouds 7 1024 51 0 1.91 63 23:18 17.01.2020
4465 Clouds 7 1024 51 0 1.91 63 22:41 17.01.2020
4466 Clouds 7 1024 51 0 1.91 63 22:20 17.01.2020
4467 Clouds 10 1026 30 0 1.34 23 21:56 17.01.2020
4468 Clouds 10 1026 30 0 0.45 28 21:37 17.01.2020
4469 Clouds 11 1026 29 0 0.89 347 21:19 17.01.2020
4470 Clouds 11 1026 31 0 1.79 96 20:41 17.01.2020
4471 Clouds 6 1025 48 0 1.18 78 20:21 17.01.2020
4472 Clouds 6 1025 48 0 1.18 78 19:58 17.01.2020
4473 Clouds 6 1025 48 0 1.18 78 19:39 17.01.2020
4474 Clouds 6 1025 48 0 1.18 78 19:20 17.01.2020
4475 Clouds 5 1026 43 0 1.34 293 18:58 17.01.2020
4476 Clouds 4 1025 43 0 0.89 322 18:39 17.01.2020
4477 Clouds 4 1025 45 0 0.89 333 18:21 17.01.2020
4478 Clouds 3 1024 48 0 1.34 314 17:40 17.01.2020
4479 Clear -1 1023 63 0 1.72 305 17:22 17.01.2020
4480 Clear -4 1023 76 0 1.72 305 16:57 17.01.2020
4481 Clear -4 1023 76 0 1.72 305 16:39 17.01.2020
4482 Clear -4 1022 74 0 1.72 305 16:19 17.01.2020
4483 Clear -3 1021 69 0 1.72 305 15:45 17.01.2020
4484 Clear -2 1021 66 0 1.72 305 15:26 17.01.2020
4485 Clear -1 1020 67 0 1.79 330 14:46 17.01.2020
4486 Clear -2 1019 71 0 1.79 305 14:27 17.01.2020
4487 Clouds -3 1019 73 0 3.61 266 13:58 17.01.2020
4488 Clouds -3 1019 73 0 3.61 266 13:58 17.01.2020
4489 Clouds -3 1019 73 0 3.61 266 13:38 17.01.2020
4490 Clouds -4 1018 74 0 0.45 324 13:19 17.01.2020
4491 Clouds -3 1018 72 0 0.45 311 12:44 17.01.2020
4492 Clouds -2 1017 68 0 0.45 320 12:22 17.01.2020
4493 Clouds -1 1016 52 0 0.89 26 11:40 17.01.2020
4494 Clouds -1 1016 46 0 0.89 262 11:19 17.01.2020
4495 Clouds -1 1015 45 0 4.59 251 10:45 17.01.2020
4496 Clouds 1 1015 39 0 0.45 233 10:23 17.01.2020
4497 Clouds 3 1017 73 0 4.59 251 09:59 17.01.2020
4498 Clouds 3 1017 73 0 4.59 251 09:41 17.01.2020
4499 Clouds 3 1017 73 0 4.59 251 09:20 17.01.2020
4500 Clouds 3 1017 73 0 4.59 251 08:46 17.01.2020
4501 Clouds 3 1017 73 0 4.59 251 08:26 17.01.2020
4502 Clouds 2 1013 62 0 3.13 223 07:56 17.01.2020
4503 Clouds 3 1012 52 0 6.71 229 07:36 17.01.2020
4504 Clouds 3 1012 53 0 5.81 241 07:18 17.01.2020
4505 Clouds 2 1012 59 0 4.92 225 06:43 17.01.2020
4506 Clouds 1 1012 85 0 1.79 223 05:59 17.01.2020
4507 Clear 3 1010 54 0 4.02 236 03:44 17.01.2020
4508 Clear 7 1011 48 0 5.78 215 02:55 17.01.2020
4509 Clear 7 1011 48 0 5.78 215 02:28 17.01.2020
4510 Clouds 8 1010 14 0 5.36 208 01:32 17.01.2020
4511 Clear 11 1010 31 0 5.02 209 00:58 17.01.2020
4512 Clear 11 1010 31 0 5.02 209 00:29 17.01.2020
4513 Clear 11 1010 31 0 5.02 209 23:54 16.01.2020
4514 Clear 11 1010 31 0 5.02 209 23:36 16.01.2020
4515 Clear 10 1011 28 0 4.92 254 23:18 16.01.2020
4516 Clear 11 1012 27 0 6.26 252 22:40 16.01.2020
4517 Clear 11 1012 25 0 6.26 231 22:21 16.01.2020
4518 Clear 11 1012 25 0 4.47 262 21:56 16.01.2020
4519 Clear 10 1012 25 0 5.36 227 21:37 16.01.2020
4520 Clear 11 1013 26 0 4.92 287 21:18 16.01.2020
4521 Clear 11 1013 25 0 4.47 235 20:56 16.01.2020
4522 Clear 11 1014 27 0 4.47 293 20:37 16.01.2020
4523 Clouds 10 1015 42 0 3.1 200 20:18 16.01.2020
4524 Clouds 10 1015 42 0 3.1 200 19:55 16.01.2020
4525 Clouds 9 1015 28 0 3.13 148 19:36 16.01.2020
4526 Clouds 9 1015 28 0 3.13 148 19:18 16.01.2020
4527 Clouds 10 1016 28 0 1.79 155 18:55 16.01.2020
4528 Clouds 9 1016 28 0 2.24 98 18:36 16.01.2020
4529 Clouds 9 1016 30 0 1.79 85 18:18 16.01.2020
4530 Clouds 8 1016 31 0 0.89 143 17:41 16.01.2020
4531 Clouds 7 1016 32 0 2.24 123 17:22 16.01.2020
4532 Clouds 4 1016 39 0 0.45 141 16:57 16.01.2020
4533 Clouds 4 1016 39 0 0.45 141 16:38 16.01.2020
4534 Clouds 4 1016 40 0 0.45 127 16:19 16.01.2020
4535 Clouds 2 1017 46 0 0.45 132 15:44 16.01.2020
4536 Clouds 0 1017 55 0 0.45 352 15:22 16.01.2020
4537 Clouds 1 1017 55 0 2.42 224 14:57 16.01.2020
4538 Clouds 0 1017 54 0 2.42 224 14:38 16.01.2020
4539 Clear -1 1017 60 0 1.26 211 14:20 16.01.2020
4540 Clear -1 1017 62 0 0.45 81 13:44 16.01.2020
4541 Clouds 0 1017 58 0 1.42 207 13:25 16.01.2020
4542 Clouds 0 1017 63 0 0.45 70 12:47 16.01.2020
4543 Clouds -1 1017 62 0 0.45 71 12:28 16.01.2020
4544 Clouds 0 1017 60 0 1.42 207 11:59 16.01.2020
4545 Clouds 1 1017 60 0 1.42 207 11:40 16.01.2020
4546 Clouds 1 1018 59 0 0.89 70 11:22 16.01.2020
4547 Clear 4 1016 56 0 1.06 205 10:40 16.01.2020
4548 -273 0 0 0 0 0 10:22 16.01.2020
4549 Clear 1 1018 58 0 1.06 205 09:59 16.01.2020
4550 Clear 1 1018 59 0 1.06 205 09:41 16.01.2020
4551 Clear 0 1018 61 0 0.45 101 09:23 16.01.2020
4552 Clear 1 1018 60 0 0.89 76 08:55 16.01.2020
4553 Clear 1 1018 59 0 1.06 205 08:36 16.01.2020
4554 Clear 2 1019 58 0 0.89 40 07:59 16.01.2020
4555 Clear 2 1019 58 0 0.89 40 07:41 16.01.2020
4556 Clear 1 1019 58 0 1.34 87 07:23 16.01.2020
4557 Clear 2 1019 58 0 1.34 87 06:46 16.01.2020
4558 Clear 1 1019 59 0 0.45 91 06:28 16.01.2020
4559 Clear 2 1019 57 0 1.34 79 05:46 16.01.2020
4560 Clear 1 1019 60 0 1.34 129 04:46 16.01.2020
4561 Clear 2 1019 54 0 0.15 336 03:29 16.01.2020
4562 Clear 3 1019 49 0 0.45 33 02:44 16.01.2020
4563 Clouds 9 1018 34 0 2.24 50 01:24 16.01.2020
4564 Clouds 9 1015 44 0 1.41 103 00:41 16.01.2020
4565 Clouds 9 1015 44 0 1.41 103 00:19 16.01.2020
4566 Clouds 9 1015 44 0 1.41 103 23:40 15.01.2020
4567 Clouds 9 1016 43 0 1.79 96 23:20 15.01.2020
4568 Clouds 9 1016 43 0 1.79 96 23:19 15.01.2020
4569 Clouds 9 1016 43 0 1.79 96 22:56 15.01.2020
4570 Clouds 9 1016 43 0 1.79 96 22:36 15.01.2020
4571 Clouds 9 1016 43 0 1.79 96 22:18 15.01.2020
4572 Clouds 13 1019 28 0 1.79 21 21:55 15.01.2020
4573 Clouds 13 1019 28 0 1.34 40 21:36 15.01.2020
4574 Clouds 13 1020 30 0 1.34 50 21:18 15.01.2020
4575 Clouds 13 1020 30 0 1.34 50 21:18 15.01.2020
4576 Clouds 13 1020 29 0 1.34 83 20:54 15.01.2020
4577 Clouds 13 1020 30 0 1.34 29 20:36 15.01.2020
4578 Clear 7 1018 48 0 1.63 55 20:18 15.01.2020
4579 Clear 8 1019 43 0 1.84 42 19:54 15.01.2020
4580 Clear 8 1019 43 0 1.84 42 19:36 15.01.2020
4581 Clear 8 1019 43 0 1.84 42 19:18 15.01.2020
4582 Clear 8 1019 43 0 1.84 42 19:18 15.01.2020
4583 Clear 8 1019 43 0 1.84 42 18:54 15.01.2020
4584 Clear 8 1021 38 0 1.84 42 18:36 15.01.2020
4585 Clear 9 1021 37 0 1.84 42 18:18 15.01.2020
4586 Clear 8 1019 43 0 1.84 42 17:40 15.01.2020
4587 Clear 1 1021 72 0 0.92 18 17:22 15.01.2020
4588 Clear 2 1018 65 0 0.92 18 16:57 15.01.2020
4589 Clear -4 1021 82 0 0.92 18 16:38 15.01.2020
4590 Clear -4 1020 82 0 0.92 18 16:20 15.01.2020
4591 Clear -4 1020 82 0 0.92 18 16:20 15.01.2020
4592 Clear -4 1020 82 0 0.92 18 16:20 15.01.2020
4593 Clear -5 1020 82 0 0.92 18 15:43 15.01.2020
4594 Clear -5 1020 81 0 0.92 18 15:21 15.01.2020
4595 Clear -4 1020 80 0 0.92 18 14:57 15.01.2020
4596 Clear -4 1020 77 0 0.92 18 14:39 15.01.2020
4597 Clear -4 1020 79 0 0.52 17 14:18 15.01.2020
4598 Clear -5 1019 82 0 0.52 17 13:44 15.01.2020
4599 Clear -5 1019 82 0 0.52 17 13:44 15.01.2020
4600 Clear -5 1019 82 0 0.52 17 13:23 15.01.2020
4601 Clear -5 1019 80 0 0.78 26 12:57 15.01.2020
4602 Clear -4 1019 77 0 0.78 26 12:39 15.01.2020
4603 Clear -4 1019 75 0 0.78 26 12:19 15.01.2020
4604 Clear 3 1018 65 0 0.78 26 11:55 15.01.2020
4605 Clear -2 1020 71 0 0.78 26 11:36 15.01.2020
4606 Clear -2 1020 71 0 0.78 26 11:36 15.01.2020
4607 Clear -2 1020 70 0 0.45 344 11:18 15.01.2020
4608 Clear -3 1019 75 0 0.89 141 10:41 15.01.2020
4609 Clear -4 1020 77 0 0.45 141 10:21 15.01.2020
4610 Clear -3 1020 75 0 0.76 234 09:42 15.01.2020
4611 Clear -3 1020 76 0 0.76 234 09:22 15.01.2020
4612 Clear -3 1020 75 0 0.76 234 08:55 15.01.2020
4613 Clear -3 1020 73 0 0.76 234 08:37 15.01.2020
4614 Clear -3 1020 71 0 0.25 243 08:19 15.01.2020
4615 Clear -1 1019 64 0 0.25 243 07:43 15.01.2020
4616 Clear -1 1019 65 0 0.25 243 07:24 15.01.2020
4617 Clear -1 1019 65 0 0.25 243 06:44 15.01.2020
4618 Clear -2 1019 68 0 0.25 243 05:57 15.01.2020
4619 Clear -1 1018 66 0 1.63 352 04:34 15.01.2020
4620 Clear 4 1018 49 0 1.63 352 02:30 15.01.2020
4621 Clear 9 1014 41 0 1.27 103 01:25 15.01.2020
4622 Clear 8 1015 43 0 1.45 59 00:45 15.01.2020
4623 Clear 8 1015 43 0 1.45 59 00:26 15.01.2020
4624 Clear 8 1015 43 0 1.45 59 23:48 14.01.2020
4625 Clear 8 1015 43 0 1.45 59 23:29 14.01.2020
4626 Clear 11 1017 34 0 1.79 50 22:59 14.01.2020
4627 Clear 11 1017 35 0 2.24 60 22:40 14.01.2020
4628 Clear 11 1017 36 0 1.79 55 22:19 14.01.2020
4629 Clear 11 1017 36 0 2.68 45 21:58 14.01.2020
4630 Clear 11 1017 37 0 2.68 34 21:39 14.01.2020
4631 Clear 10 1018 38 0 2.24 40 21:21 14.01.2020
4632 Clear 10 1018 39 0 2.24 45 20:58 14.01.2020
4633 Clear 9 1018 40 0 1.34 54 20:40 14.01.2020
4634 Clouds 7 1018 46 0 0.9 216 20:19 14.01.2020
4635 Clear 7 1018 49 0 0.54 178 19:55 14.01.2020
4636 Clear 8 1019 45 0 1.34 50 19:37 14.01.2020
4637 Clear 7 1019 47 0 1.34 91 19:18 14.01.2020
4638 Clear 6 1019 52 0 1.34 71 18:41 14.01.2020
4639 Clear 5 1020 54 0 2.24 348 18:21 14.01.2020
4640 Clear 4 1019 55 0 0.45 188 17:59 14.01.2020
4641 Clear 2 1019 66 0 0.89 59 17:37 14.01.2020
4642 Clear 1 1019 69 0 0.45 316 17:19 14.01.2020
4643 Clear -1 1018 76 0 0.89 103 16:55 14.01.2020
4644 Clear -4 1018 80 0 0.89 23 16:37 14.01.2020
4645 Clear -4 1019 81 0 0.89 230 16:19 14.01.2020
4646 Clear -3 1019 74 0 0.67 339 15:42 14.01.2020
4647 Clear -3 1019 78 0 0.45 40 15:19 14.01.2020
4648 Clear -3 1018 78 0 0.89 235 14:47 14.01.2020
4649 Clear -3 1018 78 0 0.89 235 14:23 14.01.2020
4650 Clear 3 1017 66 0 1.87 272 13:59 14.01.2020
4651 Clear -1 1019 71 0 0.45 329 13:41 14.01.2020
4652 Clear -2 1019 75 0 1.34 3 13:19 14.01.2020
4653 Clear 2 1017 68 0 1.32 272 12:42 14.01.2020
4654 Clear 2 1017 68 0 1.32 272 12:24 14.01.2020
4655 Clear 2 1017 68 0 1.32 272 11:58 14.01.2020
4656 Clear 2 1017 68 0 1.32 272 11:40 14.01.2020
4657 Clear -3 1019 80 0 0.45 351 11:22 14.01.2020
4658 Clear -3 1019 80 0 0.45 352 10:56 14.01.2020
4659 Clear -4 1019 81 0 1.52 258 10:37 14.01.2020
4660 Clear -4 1019 84 0 1.52 258 10:19 14.01.2020
4661 Clear -5 1019 83 0 1.52 258 09:43 14.01.2020
4662 Clear -5 1019 83 0 1.52 258 09:43 14.01.2020
4663 Clear -4 1019 80 0 0.45 84 09:24 14.01.2020
4664 Clear -4 1019 79 0 1.52 258 08:59 14.01.2020
4665 Clear -3 1020 78 0 0.45 84 08:40 14.01.2020
4666 Clear -3 1020 76 0 0.45 75 08:21 14.01.2020
4667 Clear -3 1020 76 0 1.9 239 07:51 14.01.2020
4668 Clear -3 1020 76 0 1.9 239 07:25 14.01.2020
4669 Clear -3 1020 78 0 1.9 239 06:44 14.01.2020
4670 Clear -3 1020 77 0 1.9 239 05:59 14.01.2020
4671 Clear -3 1020 74 0 0.45 87 04:56 14.01.2020
4672 Clear -2 1020 68 0 2.05 223 03:48 14.01.2020
4673 Clear 1 1020 60 0 2.05 223 02:40 14.01.2020
4674 Clear 7 1020 40 0 1.34 74 01:31 14.01.2020
4675 Clear 9 1020 37 0 1.79 70 00:48 14.01.2020
4676 Clear 8 1017 50 0 2.14 158 00:26 14.01.2020
4677 Clear 8 1017 50 0 2.14 158 23:47 13.01.2020
4678 Clear 10 1020 36 0 1.79 69 23:19 13.01.2020
4679 Clear 10 1020 36 0 1.79 69 22:59 13.01.2020
4680 Clear 8 1018 51 0 2.27 154 22:40 13.01.2020
4681 Clear 10 1020 34 0 2.24 40 22:20 13.01.2020
4682 Clear 10 1020 34 0 2.24 40 21:56 13.01.2020
4683 Clear 10 1020 35 0 2.24 27 21:37 13.01.2020
4684 Clear 10 1020 35 0 2.68 40 21:18 13.01.2020
4685 Clear 10 1021 34 0 2.24 40 20:56 13.01.2020
4686 Clear 10 1021 35 0 2.24 40 20:38 13.01.2020
4687 Clouds 5 1020 60 0 1.23 111 20:20 13.01.2020
4688 Clouds 5 1020 60 0 1.23 111 19:56 13.01.2020
4689 Clouds 5 1020 60 0 1.23 111 19:37 13.01.2020
4690 Clouds 5 1020 60 0 1.23 111 19:18 13.01.2020
4691 Clouds 5 1020 60 0 1.23 111 18:55 13.01.2020
4692 Clouds 6 1021 46 0 0.45 259 18:36 13.01.2020
4693 Clouds 5 1021 47 0 0.89 259 18:18 13.01.2020
4694 Clouds 3 1021 59 0 1.23 111 17:40 13.01.2020
4695 Clouds 1 1021 68 0 0.49 41 17:21 13.01.2020
4696 Clouds 1 1018 81 0 0.49 41 16:56 13.01.2020
4697 Clouds 1 1018 81 0 0.49 41 16:37 13.01.2020
4698 Clouds -5 1019 82 0 0.49 41 16:18 13.01.2020
4699 Clouds 1 1018 81 0 0.49 41 15:43 13.01.2020
4700 Clouds 1 1018 81 0 0.49 41 15:22 13.01.2020
4701 Clouds 1 1018 81 0 0.49 41 14:57 13.01.2020
4702 Clouds 1 1018 81 0 0.49 41 14:37 13.01.2020
4703 Clouds 1 1018 81 0 0.49 41 14:37 13.01.2020
4704 Clouds -4 1018 76 0 0.62 6 14:18 13.01.2020
4705 Clouds -4 1017 78 0 0.62 6 13:41 13.01.2020
4706 Clouds -4 1017 78 0 0.62 6 13:23 13.01.2020
4707 Clear -4 1017 75 0 0.68 16 12:58 13.01.2020
4708 Clear -4 1017 74 0 0.68 16 12:40 13.01.2020
4709 -273 0 0 0 0 0 12:22 13.01.2020
4710 Clear -4 1017 76 0 0.68 16 11:56 13.01.2020
4711 Clear -4 1017 76 0 0.68 16 11:37 13.01.2020
4712 Clear -4 1017 75 0 0.51 281 11:18 13.01.2020
4713 Clear -4 1017 76 0 0.51 281 10:55 13.01.2020
4714 Clear -4 1017 75 0 0.51 281 10:36 13.01.2020
4715 Clear -4 1017 73 0 0.51 281 10:18 13.01.2020
4716 Clear -4 1017 73 0 0.51 281 10:18 13.01.2020
4717 Clear -2 1017 65 0 0.45 245 09:40 13.01.2020
4718 Clear -2 1017 65 0 0.51 281 09:22 13.01.2020
4719 Clear -3 1017 68 0 0.51 281 08:44 13.01.2020
4720 Clouds -3 1017 68 0 0.63 268 08:21 13.01.2020
4721 Clouds -3 1017 68 0 0.45 339 07:59 13.01.2020
4722 Clouds -3 1017 68 0 0.45 339 07:59 13.01.2020
4723 Clouds -3 1017 66 0 0.63 268 07:40 13.01.2020
4724 Clouds -3 1017 65 0 0.63 268 07:18 13.01.2020
4725 Clouds -3 1017 67 0 0.63 268 06:37 13.01.2020
4726 Clouds -3 1017 67 0 0.63 268 06:37 13.01.2020
4727 Clouds -2 1017 58 0 0.63 268 05:36 13.01.2020
4728 Clouds -2 1017 59 0 1.11 208 04:25 13.01.2020
4729 Clouds 1 1018 50 0 1.11 208 03:35 13.01.2020
4730 Clouds 3 1017 43 0 1.34 24 02:49 13.01.2020
4731 Clouds 3 1017 43 0 1.34 24 02:30 13.01.2020
4732 Clouds 7 1017 34 0 1.34 40 01:33 13.01.2020
4733 Clouds 7 1017 34 0 1.34 40 00:44 13.01.2020
4734 Clouds 7 1017 34 0 1.34 40 00:25 13.01.2020
4735 Clouds 9 1016 30 0 2.24 1 23:57 12.01.2020
4736 Clouds 8 1015 45 0 2.15 146 23:38 12.01.2020
4737 Clouds 7 1016 45 0 1.59 113 23:20 12.01.2020
4738 Clouds 7 1016 45 0 1.59 113 22:43 12.01.2020
4739 Clouds 7 1016 45 0 1.59 113 22:25 12.01.2020
4740 Clouds 7 1016 45 0 1.59 113 21:59 12.01.2020
4741 Clouds 11 1017 28 0 2.24 31 21:40 12.01.2020
4742 Clouds 11 1018 29 0 1.34 40 21:20 12.01.2020
4743 Clouds 11 1018 29 0 1.34 40 20:58 12.01.2020
4744 Clouds 11 1019 29 0 1.34 50 20:39 12.01.2020
4745 Clear 7 1020 45 0 1.41 93 20:21 12.01.2020
4746 Clear 7 1020 45 0 1.41 93 19:56 12.01.2020
4747 Clear 7 1020 45 0 1.41 93 19:56 12.01.2020
4748 Clear 7 1020 45 0 1.41 93 19:38 12.01.2020
4749 Clear 7 1020 45 0 1.41 93 19:38 12.01.2020
4750 Clear 7 1020 45 0 1.41 93 19:19 12.01.2020
4751 Clear 7 1020 45 0 1.41 93 18:58 12.01.2020
4752 Clear 7 1020 37 0 0.89 32 18:40 12.01.2020
4753 Clear 6 1020 41 0 0.89 21 18:21 12.01.2020
4754 Clear 6 1020 41 0 0.89 21 17:58 12.01.2020
4755 Clear 4 1020 43 0 1.34 97 17:40 12.01.2020
4756 Clear 1 1020 55 0 1.02 281 17:19 12.01.2020
4757 Clear 1 1020 55 0 1.02 281 16:56 12.01.2020
4758 Clear 1 1020 55 0 1.02 281 16:56 12.01.2020
4759 Clear -1 1020 58 0 0.45 85 16:37 12.01.2020
4760 Clear -2 1020 59 0 1.02 281 16:19 12.01.2020
4761 Clear -1 1020 55 0 1.02 281 15:43 12.01.2020
4762 Clear 0 1020 54 0 0.89 104 15:24 12.01.2020
4763 Clear -2 1020 64 0 0.45 111 14:57 12.01.2020
4764 Clear 2 1019 63 0 1.02 281 14:38 12.01.2020
4765 Clouds -3 1020 68 0 1.13 287 14:20 12.01.2020
4766 Clouds -3 1020 68 0 1.13 287 13:54 12.01.2020
4767 Clouds -4 1020 69 0 1.13 287 13:36 12.01.2020
4768 Clear -3 1021 63 0 1.5 246 13:18 12.01.2020
4769 Clear -3 1021 63 0 1.5 246 13:18 12.01.2020
4770 Clear -3 1021 63 0 1.5 246 13:18 12.01.2020
4771 Clear -2 1021 60 0 1.5 246 12:43 12.01.2020
4772 Clear -1 1020 58 0 1.5 246 12:21 12.01.2020
4773 Clear -1 1020 58 0 1.5 246 11:59 12.01.2020
4774 Clear -1 1020 56 0 1.5 246 11:39 12.01.2020
4775 Clear -2 1020 57 0 0.45 152 11:21 12.01.2020
4776 Clear -2 1020 57 0 0.45 152 10:42 12.01.2020
4777 Clear -2 1020 57 0 0.45 152 10:22 12.01.2020
4778 Clear -2 1020 55 0 0.68 240 09:59 12.01.2020
4779 Clear -1 1020 54 0 0.68 240 09:41 12.01.2020
4780 Clear -2 1021 55 0 0.45 28 09:21 12.01.2020
4781 Clear -1 1021 52 0 0.68 240 08:47 12.01.2020
4782 Clear 0 1021 49 0 0.45 8 08:21 12.01.2020
4783 Clear 0 1021 48 0 1.45 350 07:45 12.01.2020
4784 Clear 1 1021 47 0 0.89 11 07:25 12.01.2020
4785 Clear 1 1021 46 0 0.45 360 06:50 12.01.2020
4786 Clear 1 1021 45 0 1.45 350 06:32 12.01.2020
4787 Clear 1 1020 46 0 1.45 350 05:49 12.01.2020
4788 Clear 2 1020 40 0 0.45 88 04:53 12.01.2020
4789 Clear 1 1019 47 0 2.02 14 03:33 12.01.2020
4790 Clear 3 1018 42 0 2.02 14 02:43 12.01.2020
4791 Clear 4 1017 37 0 2.24 57 02:22 12.01.2020
4792 Clear 8 1015 36 0 1.64 63 01:30 12.01.2020
4793 Clear 8 1015 36 0 1.64 63 00:46 12.01.2020
4794 Clear 8 1015 36 0 1.64 63 00:22 12.01.2020
4795 Clear 8 1015 36 0 1.64 63 23:56 11.01.2020
4796 Clear 8 1015 36 0 1.64 63 23:37 11.01.2020
4797 Clear 8 1015 35 0 1.61 122 23:18 11.01.2020
4798 Clear 8 1015 35 0 1.61 122 22:56 11.01.2020
4799 Clear 8 1015 35 0 1.61 122 22:37 11.01.2020
4800 Clear 8 1015 35 0 1.61 122 22:19 11.01.2020
4801 Clear 14 1017 22 0 1.79 30 21:44 11.01.2020
4802 Clear 13 1017 24 0 0.89 20 21:19 11.01.2020
4803 Clear 13 1017 24 0 0.89 20 21:19 11.01.2020
4804 Clear 11 1017 28 0 0.89 34 20:56 11.01.2020
4805 Clear 7 1019 30 0 1.79 205 20:38 11.01.2020
4806 Clear 7 1019 30 0 1.79 205 20:19 11.01.2020
4807 Clear 7 1019 30 0 1.79 205 19:56 11.01.2020
4808 Clear 8 1020 30 0 1.34 176 19:38 11.01.2020
4809 Clear 7 1020 30 0 1.34 81 19:20 11.01.2020
4810 Clear 7 1020 30 0 1.34 79 18:55 11.01.2020
4811 Clear 6 1020 34 0 2.24 45 18:36 11.01.2020
4812 Clear 6 1020 34 0 2.24 45 18:18 11.01.2020
4813 Clear 6 1020 34 0 2.24 45 18:18 11.01.2020
4814 Clear 6 1020 34 0 2.24 45 18:18 11.01.2020
4815 Clear 6 1020 34 0 2.24 45 18:18 11.01.2020
4816 Clear 6 1019 37 0 2.68 349 17:57 11.01.2020
4817 Clear 5 1019 40 0 1.34 33 17:38 11.01.2020
4818 Clear 2 1018 50 0 0.45 230 17:18 11.01.2020
4819 Clear -3 1019 63 0 1.34 104 16:43 11.01.2020
4820 Clear -4 1019 65 0 0.45 335 16:24 11.01.2020
4821 Clear -4 1019 65 0 1.08 355 15:56 11.01.2020
4822 Clear -4 1019 62 0 1.08 355 15:38 11.01.2020
4823 Clear -3 1020 57 0 1.08 355 15:19 11.01.2020
4824 Clear -2 1020 53 0 1.08 355 14:46 11.01.2020
4825 Clear 2 1019 53 0 1.08 355 14:25 11.01.2020
4826 Clouds -4 1020 61 0 0.45 345 13:57 11.01.2020
4827 Clouds -4 1020 63 0 1.66 242 13:38 11.01.2020
4828 Clouds -4 1020 62 0 1.44 266 13:19 11.01.2020
4829 Clouds -4 1020 64 0 1.44 266 12:55 11.01.2020
4830 Clouds -3 1021 58 0 1.44 266 12:36 11.01.2020
4831 Clouds -3 1021 58 0 1.44 266 12:18 11.01.2020
4832 Clouds 3 1020 47 0 1.44 266 11:42 11.01.2020
4833 Clouds -2 1022 53 0 1.44 266 11:23 11.01.2020
4834 Clouds -1 1022 49 0 2.04 249 10:46 11.01.2020
4835 Clouds -1 1022 47 0 2.04 249 10:25 11.01.2020
4836 Clouds -1 1023 47 0 0.45 214 09:43 11.01.2020
4837 Clouds 0 1023 46 0 0.45 91 09:21 11.01.2020
4838 Clouds 0 1023 44 0 1.79 96 08:57 11.01.2020
4839 Clouds 0 1024 45 0 0.45 323 08:38 11.01.2020
4840 Clouds 0 1024 44 0 0.45 133 08:19 11.01.2020
4841 Clouds 0 1025 45 0 1.51 246 07:42 11.01.2020
4842 Clouds -1 1025 48 0 1.51 246 07:24 11.01.2020
4843 Clouds 0 1026 47 0 0.45 318 06:43 11.01.2020
4844 Clouds -1 1026 53 0 1.51 246 05:30 11.01.2020
4845 Clear 5 1024 40 0 1.3 237 04:42 11.01.2020
4846 Clear 5 1024 40 0 1.3 237 04:24 11.01.2020
4847 Clear 3 1026 35 0 0.89 60 02:48 11.01.2020
4848 Clear 6 1026 31 0 0.89 50 01:47 11.01.2020
4849 Clear 8 1024 28 0 1.05 180 01:28 11.01.2020
4850 Clear 8 1024 26 0 0.91 146 00:54 11.01.2020
4851 Clear 8 1024 26 0 0.91 146 00:29 11.01.2020
4852 Clear 8 1024 26 0 0.91 146 23:59 10.01.2020
4853 Clear 8 1024 26 0 0.91 146 23:39 10.01.2020
4854 Clear 8 1024 25 0 2.02 41 23:20 10.01.2020
4855 Clear 8 1024 25 0 2.02 41 22:54 10.01.2020
4856 Clear 8 1024 25 0 2.02 41 22:36 10.01.2020
4857 Clear 8 1024 25 0 2.02 41 22:18 10.01.2020
4858 Clear 8 1024 25 0 2.02 41 21:41 10.01.2020
4859 Clear 8 1024 25 0 2.02 41 21:21 10.01.2020
4860 Clear 8 1024 25 0 2.02 41 21:00 10.01.2020
4861 Clear 13 1027 16 0 1.34 50 20:41 10.01.2020
4862 Clear 8 1024 26 0 1.73 52 20:23 10.01.2020
4863 Clear 7 1026 28 0 2.98 28 19:54 10.01.2020
4864 Clear 7 1026 28 0 2.98 28 19:36 10.01.2020
4865 Clear 7 1026 28 0 2.98 28 19:18 10.01.2020
4866 Clear 7 1028 25 0 0.45 210 18:41 10.01.2020
4867 Clear 6 1027 26 0 0.45 229 18:19 10.01.2020
4868 Clear 6 1027 26 0 0.45 30 17:57 10.01.2020
4869 Clear 6 1027 27 0 2.98 28 17:38 10.01.2020
4870 Clear 1 1027 44 0 0.94 13 17:20 10.01.2020
4871 Clear 1 1027 44 0 0.94 13 17:20 10.01.2020
4872 Clear -2 1026 52 0 0.94 13 16:55 10.01.2020
4873 Clear 1 1024 36 0 0.94 13 16:37 10.01.2020
4874 Clear 1 1024 36 0 0.94 13 16:19 10.01.2020
4875 Clear 1 1024 36 0 0.94 13 15:55 10.01.2020
4876 Clear 1 1024 36 0 0.94 13 15:36 10.01.2020
4877 Clear 1 1024 36 0 0.94 13 15:18 10.01.2020
4878 Clear -4 1024 52 0 0.94 13 14:54 10.01.2020
4879 Clear -2 1024 46 0 0.94 13 14:36 10.01.2020
4880 Clear -2 1024 46 0 1.17 20 14:18 10.01.2020
4881 Clear -1 1023 41 0 0.45 333 13:42 10.01.2020
4882 Clear -1 1023 40 0 0.89 331 13:23 10.01.2020
4883 Clear -1 1023 42 0 1.34 316 12:58 10.01.2020
4884 Clear 1 1023 42 0 1.79 335 12:39 10.01.2020
4885 Clear 1 1023 42 0 1.79 335 12:39 10.01.2020
4886 Clear 1 1023 42 0 1.79 335 12:39 10.01.2020
4887 Clear 1 1023 42 0 1.79 302 12:19 10.01.2020
4888 Clear 0 1023 44 0 1.79 268 11:55 10.01.2020
4889 Clear 0 1023 45 0 0.89 282 11:37 10.01.2020
4890 Clear 0 1023 45 0 0.89 282 11:18 10.01.2020
4891 Clear -1 1023 48 0 0.89 345 10:57 10.01.2020
4892 Clear -1 1022 51 0 4.47 324 10:36 10.01.2020
4893 Clear -1 1022 52 0 4.02 332 10:18 10.01.2020
4894 Clear 0 1022 51 0 4.47 355 09:42 10.01.2020
4895 Clear 0 1021 53 0 4.47 340 09:23 10.01.2020
4896 Clear -1 1022 58 0 1.79 326 08:43 10.01.2020
4897 Clear 0 1022 58 0 0.89 310 08:24 10.01.2020
4898 Clear 1 1022 54 0 2.68 329 07:47 10.01.2020
4899 Clear 1 1021 56 0 1.79 326 07:28 10.01.2020
4900 Clear 1 1021 54 0 1.79 348 06:56 10.01.2020
4901 Clear 2 1021 49 0 4.02 331 06:27 10.01.2020
4902 -273 0 0 0 0 0 05:52 10.01.2020
4903 Clear 4 1018 40 0 4.02 341 03:50 10.01.2020
4904 Clear 3 1018 41 0 3.13 332 03:31 10.01.2020
4905 Clear 6 1016 43 0 2.58 340 02:51 10.01.2020
4906 Clouds 5 1017 37 0 3.58 29 01:53 10.01.2020
4907 Clouds 8 1012 43 0 1.72 20 01:29 10.01.2020
4908 Clouds 8 1013 36 0 2.24 18 00:49 10.01.2020
4909 Clouds 8 1013 36 0 2.24 18 00:31 10.01.2020
4910 Clouds 8 1013 36 0 2.24 18 23:55 09.01.2020
4911 Clouds 8 1013 36 0 2.24 18 23:36 09.01.2020
4912 Clouds 7 1011 44 0 1.9 57 23:18 09.01.2020
4913 Clouds 7 1011 44 0 1.9 57 22:54 09.01.2020
4914 Clouds 7 1011 44 0 1.9 57 22:36 09.01.2020
4915 Clouds 7 1011 44 0 1.9 57 22:18 09.01.2020
4916 Clouds 7 1011 44 0 1.9 57 21:54 09.01.2020
4917 Clouds 7 1011 44 0 1.9 57 21:36 09.01.2020
4918 Clouds 7 1011 44 0 1.9 57 21:18 09.01.2020
4919 Clouds 7 1011 44 0 1.9 57 20:54 09.01.2020
4920 Clouds 7 1011 44 0 1.9 57 20:36 09.01.2020
4921 Clouds 6 1012 51 0 0.68 125 20:18 09.01.2020
4922 Clouds 6 1012 51 0 0.68 125 19:39 09.01.2020
4923 Clouds 6 1012 51 0 0.68 125 19:20 09.01.2020
4924 Clouds 6 1012 51 0 0.68 125 18:57 09.01.2020
4925 Clouds 8 1014 38 0 0.45 71 18:39 09.01.2020
4926 Clouds 7 1014 41 0 0.45 21 18:20 09.01.2020
4927 Clouds 4 1013 50 0 0.45 61 17:41 09.01.2020
4928 Clouds 4 1013 50 0 0.45 61 17:41 09.01.2020
4929 Clouds 0 1014 67 0 0.57 243 17:19 09.01.2020
4930 Clouds -2 1013 73 0 0.57 243 16:59 09.01.2020
4931 Clouds 3 1012 63 0 0.57 243 16:41 09.01.2020
4932 Clouds -4 1013 77 0 0.57 243 16:21 09.01.2020
4933 Clouds 3 1012 63 0 0.57 243 15:43 09.01.2020
4934 Clouds -3 1013 71 0 0.57 243 15:23 09.01.2020
4935 Clouds -3 1013 71 0 0.57 243 14:58 09.01.2020
4936 Clouds -4 1012 73 0 0.57 243 14:40 09.01.2020
4937 Clouds -4 1012 75 0 2.19 264 14:19 09.01.2020
4938 Clouds -4 1013 73 0 2.19 264 13:55 09.01.2020
4939 Clouds -3 1013 72 0 2.19 264 13:37 09.01.2020
4940 Clouds -3 1013 70 0 1.52 271 13:19 09.01.2020
4941 Clouds -3 1013 70 0 1.52 271 12:56 09.01.2020
4942 Clouds -3 1013 70 0 1.52 271 12:56 09.01.2020
4943 Clouds -3 1013 70 0 1.52 271 12:38 09.01.2020
4944 Clouds 3 1013 60 0 1.52 271 12:18 09.01.2020
4945 Clouds -2 1013 66 0 0.45 215 11:42 09.01.2020
4946 Clouds -2 1013 66 0 1.52 271 11:24 09.01.2020
4947 Clouds -2 1013 66 0 1.52 271 11:24 09.01.2020
4948 Clouds -1 1013 61 0 0.86 233 10:58 09.01.2020
4949 Clouds -1 1013 63 0 0.89 215 10:40 09.01.2020
4950 Clouds -1 1013 61 0 0.89 214 10:21 09.01.2020
4951 Clouds -1 1013 65 0 0.86 233 09:47 09.01.2020
4952 Clouds -2 1013 69 0 0.86 233 09:25 09.01.2020
4953 Clouds -3 1013 72 0 0.86 233 08:59 09.01.2020
4954 Clouds -3 1013 74 0 0.86 233 08:39 09.01.2020
4955 Clouds -3 1013 71 0 1.74 246 08:21 09.01.2020
4956 Clouds -2 1014 66 0 1.74 246 07:53 09.01.2020
4957 Clouds -2 1014 65 0 1.74 246 07:33 09.01.2020
4958 Clouds 6 1014 48 0 1.74 246 06:52 09.01.2020
4959 Clouds 6 1014 48 0 1.74 246 06:32 09.01.2020
4960 Clouds 6 1014 48 0 1.74 246 05:52 09.01.2020
4961 Clouds -2 1014 67 0 1.74 246 05:26 09.01.2020
4962 Clouds -2 1014 64 0 0.41 261 04:40 09.01.2020
4963 Clouds 2 1014 50 0 0.41 261 03:28 09.01.2020
4964 Clouds 4 1014 43 0 0.45 193 02:47 09.01.2020
4965 Clouds 6 1014 37 0 1.34 40 01:42 09.01.2020
4966 Clouds 10 1013 39 0 1.82 209 01:18 09.01.2020
4967 Clouds 10 1013 39 0 1.82 209 00:39 09.01.2020
4968 Clouds 8 1013 30 0 1.79 50 00:19 09.01.2020
4969 Clouds 10 1013 39 0 1.82 209 23:41 08.01.2020
4970 Clouds 10 1013 39 0 1.82 209 23:23 08.01.2020
4971 Clear 10 1013 34 0 1.1 128 22:56 08.01.2020
4972 Clear 10 1013 34 0 1.1 128 22:38 08.01.2020
4973 Clear 10 1013 34 0 1.1 128 22:19 08.01.2020
4974 Clear 10 1013 34 0 1.1 128 21:55 08.01.2020
4975 Clear 10 1013 34 0 1.1 128 21:37 08.01.2020
4976 Clear 10 1013 34 0 1.1 128 21:18 08.01.2020
4977 Clear 10 1013 34 0 1.1 128 20:56 08.01.2020
4978 Clear 10 1013 34 0 1.1 128 20:37 08.01.2020
4979 Clear 9 1016 33 0 0.9 1 20:19 08.01.2020
4980 Clear 9 1016 30 0 1.34 29 19:39 08.01.2020
4981 Clear 9 1016 30 0 1.34 29 19:20 08.01.2020
4982 Clear 9 1016 30 0 1.34 29 18:59 08.01.2020
4983 Clear 8 1016 23 0 2.24 268 18:40 08.01.2020
4984 Clear 9 1016 27 0 0.45 308 18:19 08.01.2020
4985 Clear 9 1016 27 0 0.45 308 18:19 08.01.2020
4986 Clear 9 1016 27 0 0.45 308 18:19 08.01.2020
4987 Clear 8 1016 29 0 1.34 29 17:59 08.01.2020
4988 Clear 7 1015 34 0 1.34 343 17:40 08.01.2020
4989 Clear 4 1015 42 0 0.45 171 17:22 08.01.2020
4990 Clear 2 1014 50 0 0.45 295 16:57 08.01.2020
4991 Clear 0 1014 55 0 2.8 322 16:38 08.01.2020
4992 Clear 0 1014 53 0 0.89 151 16:19 08.01.2020
4993 Clear 1 1014 51 0 2.8 322 15:56 08.01.2020
4994 Clear 3 1013 42 0 1.79 97 15:38 08.01.2020
4995 Clear 3 1013 38 0 1.34 356 15:18 08.01.2020
4996 Clear 3 1012 41 0 1.34 16 14:41 08.01.2020
4997 Clouds 7 1014 38 0 4.35 254 14:21 08.01.2020
4998 Clouds 7 1014 38 0 4.35 254 13:56 08.01.2020
4999 Clouds 7 1014 38 0 4.35 254 13:37 08.01.2020
5000 Clouds 6 1013 38 0 4.15 258 13:18 08.01.2020
5001 Clouds 6 1013 38 0 4.15 258 12:40 08.01.2020
5002 Clouds 2 1015 47 0 0.89 216 12:18 08.01.2020
5003 Clouds 2 1015 48 0 0.45 277 11:49 08.01.2020
5004 Clouds 1 1015 49 0 0.45 311 11:20 08.01.2020
5005 Clouds 1 1015 51 0 0.89 273 10:59 08.01.2020
5006 Clouds 2 1015 48 0 3.31 251 10:41 08.01.2020
5007 Clouds 2 1015 47 0 0.45 40 10:22 08.01.2020
5008 Clouds 1 1015 48 0 1.34 10 09:58 08.01.2020
5009 Clouds 1 1016 52 0 0.45 2 09:38 08.01.2020
5010 Clouds 2 1017 49 0 0.45 89 09:18 08.01.2020
5011 Clouds 2 1017 46 0 3.31 251 08:42 08.01.2020
5012 Clouds 2 1017 46 0 3.66 246 08:24 08.01.2020
5013 Clouds 2 1018 48 0 0.89 81 07:59 08.01.2020
5014 Clouds 2 1018 46 0 0.45 31 07:41 08.01.2020
5015 Clouds 3 1019 44 0 1.34 125 07:23 08.01.2020
5016 Clouds 3 1019 44 0 0.89 360 06:44 08.01.2020
5017 Clouds 3 1019 40 0 0.45 104 05:57 08.01.2020
5018 Clouds 4 1020 39 0 2.8 229 05:27 08.01.2020
5019 Clouds 6 1020 34 0 1.34 125 04:46 08.01.2020
5020 Clouds 5 1020 35 0 1.34 105 03:32 08.01.2020
5021 Clouds 6 1021 32 0 1.79 154 02:44 08.01.2020
5022 Clouds 6 1021 35 0 0.89 101 02:19 08.01.2020
5023 Clouds 7 1021 34 0 1.79 104 01:39 08.01.2020
5024 Clouds 11 1021 27 0 2.24 81 00:54 08.01.2020
5025 Clouds 10 1021 28 0 1.34 75 00:26 08.01.2020
5026 Clouds 11 1021 28 0 1.79 59 23:47 07.01.2020
5027 Clouds 12 1022 26 0 2.24 87 23:22 07.01.2020
5028 Clouds 12 1020 25 0 1.3 115 22:58 07.01.2020
5029 Clouds 12 1022 24 0 1.79 58 22:39 07.01.2020
5030 Clouds 12 1020 25 0 1.3 115 22:19 07.01.2020
5031 Clouds 14 1023 21 0 1.79 29 21:55 07.01.2020
5032 Clouds 15 1024 21 0 1.79 58 21:37 07.01.2020
5033 Clouds 14 1024 21 0 1.79 56 21:19 07.01.2020
5034 Clouds 14 1025 21 0 1.79 56 20:42 07.01.2020
5035 Clouds 12 1020 25 0 1.3 115 20:24 07.01.2020
5036 Clouds 10 1025 25 0 1.82 36 19:59 07.01.2020
5037 Clouds 10 1025 25 0 1.82 36 19:38 07.01.2020
5038 Clouds 10 1025 25 0 1.82 36 19:19 07.01.2020
5039 Clouds 13 1028 23 0 0.45 79 18:58 07.01.2020
5040 Clouds 13 1028 23 0 0.45 79 18:39 07.01.2020
5041 Clouds 11 1028 28 0 1.82 36 18:18 07.01.2020
5042 Clouds 11 1028 28 0 1.82 36 18:18 07.01.2020
5043 Clouds 11 1028 28 0 1.82 36 17:58 07.01.2020
5044 Clouds 9 1028 32 0 1.82 36 17:38 07.01.2020
5045 Clear 3 1028 48 0 2.16 5 17:20 07.01.2020
5046 Clear 5 1025 34 0 2.16 5 16:56 07.01.2020
5047 Clear 5 1025 34 0 2.16 5 16:37 07.01.2020
5048 Clear 5 1025 34 0 2.16 5 16:37 07.01.2020
5049 Clear -2 1028 62 0 2.16 5 16:18 07.01.2020
5050 Clear -3 1028 65 0 2.16 5 15:55 07.01.2020
5051 Clear -3 1028 66 0 2.16 5 15:36 07.01.2020
5052 Clear -3 1028 66 0 2.16 5 15:18 07.01.2020
5053 Clear 5 1025 34 0 2.16 5 14:42 07.01.2020
5054 Clear 5 1025 34 0 2.16 5 14:23 07.01.2020
5055 Clouds -2 1028 60 0 1.69 6 13:56 07.01.2020
5056 Clouds -1 1028 55 0 1.69 6 13:37 07.01.2020
5057 Clouds -1 1028 55 0 1.69 6 13:18 07.01.2020
5058 Clouds -2 1029 58 0 0.45 360 12:40 07.01.2020
5059 Clouds -2 1029 58 0 0.45 360 12:40 07.01.2020
5060 Clouds -2 1029 61 0 0.45 360 12:19 07.01.2020
5061 Clouds -3 1029 64 0 1.92 6 11:43 07.01.2020
5062 Clouds -3 1029 64 0 1.92 6 11:23 07.01.2020
5063 Clear -2 1029 64 0 2.34 9 10:59 07.01.2020
5064 Clear -2 1029 62 0 2.34 9 10:40 07.01.2020
5065 Clear -2 1029 62 0 2.34 9 10:40 07.01.2020
5066 Clear -2 1029 62 0 2.34 9 10:22 07.01.2020
5067 Clear -2 1029 60 0 2.34 9 09:56 07.01.2020
5068 Clear -1 1030 57 0 2.34 9 09:37 07.01.2020
5069 Clear -1 1030 56 0 2.34 9 09:19 07.01.2020
5070 Clear -1 1030 54 0 2.34 9 08:41 07.01.2020
5071 Clear -1 1030 54 0 2.34 9 08:41 07.01.2020
5072 Clear 0 1031 52 0 2.1 14 08:21 07.01.2020
5073 Clear 0 1031 52 0 2.1 14 07:51 07.01.2020
5074 Clear 0 1031 50 0 0.45 360 07:26 07.01.2020
5075 Clear 1 1031 50 0 2.1 14 06:52 07.01.2020
5076 Clear 1 1031 47 0 2.1 14 06:32 07.01.2020
5077 Clear 1 1031 46 0 0.89 2 05:46 07.01.2020
5078 Clear 3 1030 37 0 0.45 8 03:52 07.01.2020
5079 Clear 3 1030 37 0 0.45 31 03:25 07.01.2020
5080 Clear 8 1030 27 0 0.45 31 02:21 07.01.2020
5081 Clear 10 1028 28 0 1.54 60 01:45 07.01.2020
5082 Clear 10 1028 27 0 1.56 60 01:21 07.01.2020
5083 Clear 10 1028 27 0 1.56 60 00:22 07.01.2020
5084 Clear 10 1028 27 0 1.56 60 23:59 06.01.2020
5085 Clear 10 1028 27 0 1.56 60 23:39 06.01.2020
5086 Clear 11 1029 24 0 2.6 50 23:21 06.01.2020
5087 Clear 11 1029 24 0 2.6 50 22:56 06.01.2020
5088 Clear 11 1029 24 0 2.6 50 22:37 06.01.2020
5089 Clear 11 1029 24 0 2.6 50 22:19 06.01.2020
5090 Clear 11 1029 24 0 2.6 50 21:55 06.01.2020
5091 Clear 11 1029 24 0 2.6 50 21:37 06.01.2020
5092 Clear 11 1029 24 0 2.6 50 21:18 06.01.2020
5093 Clear 11 1029 24 0 2.6 50 20:55 06.01.2020
5094 Clear 11 1029 24 0 2.6 50 20:37 06.01.2020
5095 Clear 9 1032 26 0 2.94 33 20:19 06.01.2020
5096 Clear 9 1032 26 0 2.94 33 19:55 06.01.2020
5097 Clear 9 1032 26 0 2.94 33 19:37 06.01.2020
5098 Clear 9 1032 26 0 2.94 33 19:18 06.01.2020
5099 Clear 11 1034 17 0 2.94 33 18:44 06.01.2020
5100 Clear 11 1034 17 0 0.45 98 18:21 06.01.2020
5101 Clear 9 1032 26 0 2.94 33 17:40 06.01.2020
5102 Clear 5 1033 35 0 3.42 4 17:20 06.01.2020
5103 Clear 4 1033 23 0 0.89 327 16:58 06.01.2020
5104 Clear 2 1033 30 0 0.89 360 16:40 06.01.2020
5105 Clear 1 1033 31 0 0.89 18 16:22 06.01.2020
5106 Clear 2 1033 30 0 0.45 29 15:59 06.01.2020
5107 Clear 4 1033 24 0 0.89 40 15:37 06.01.2020
5108 Clear 4 1032 20 0 1.34 14 15:18 06.01.2020
5109 Clear 4 1032 20 0 1.34 14 15:18 06.01.2020
5110 Clear 3 1032 23 0 1.34 357 14:42 06.01.2020
5111 Clear 3 1032 26 0 0.45 26 14:22 06.01.2020
5112 Clear 3 1032 26 0 0.45 26 14:22 06.01.2020
5113 Clear 4 1032 26 0 0.45 8 13:59 06.01.2020
5114 Clear 4 1032 21 0 1.34 12 13:39 06.01.2020
5115 Clear 4 1032 24 0 0.45 351 13:21 06.01.2020
5116 Clear 4 1032 24 0 0.45 351 13:21 06.01.2020
5117 Clear 4 1032 27 0 3.43 7 12:58 06.01.2020
5118 Clear 5 1031 37 0 3.43 7 12:39 06.01.2020
5119 Clear 4 1032 26 0 1.79 336 12:19 06.01.2020
5120 Clear 4 1032 26 0 1.79 336 12:19 06.01.2020
5121 Clear 5 1031 37 0 3.43 7 11:43 06.01.2020
5122 Clear 5 1031 37 0 3.43 7 11:43 06.01.2020
5123 Clear 5 1031 37 0 3.43 7 11:24 06.01.2020
5124 Clear 4 1032 31 0 2.68 294 11:00 06.01.2020
5125 Clear 4 1032 38 0 1.34 336 10:41 06.01.2020
5126 Clear 4 1032 38 0 0.89 297 10:21 06.01.2020
5127 Clear 4 1033 38 0 1.79 304 09:42 06.01.2020
5128 Clear 5 1032 34 0 0.45 332 09:24 06.01.2020
5129 Clear 6 1031 36 0 3.23 2 08:57 06.01.2020
5130 Clear 6 1031 36 0 3.23 2 08:38 06.01.2020
5131 Clear 6 1031 36 0 3.23 2 08:38 06.01.2020
5132 Clear 6 1032 29 0 3.58 343 08:19 06.01.2020
5133 Clear 6 1033 32 0 0.89 347 07:44 06.01.2020
5134 Clear 6 1032 33 0 3.13 2 06:53 06.01.2020
5135 Clear 5 1033 35 0 2.24 18 06:35 06.01.2020
5136 Clear 6 1032 32 0 2.68 9 05:48 06.01.2020
5137 Clear 6 1032 32 0 3.58 4 05:24 06.01.2020
5138 Clouds 6 1032 33 0 3.58 7 04:24 06.01.2020
5139 Clouds 4 1032 37 0 0.89 354 03:51 06.01.2020
5140 Clouds 8 1030 36 0 2.29 7 02:28 06.01.2020
5141 Clouds 9 1029 39 0 0.89 35 01:53 06.01.2020
5142 Clouds 11 1027 34 0 2.12 47 01:30 06.01.2020
5143 Clouds 11 1027 34 0 2.12 47 00:46 06.01.2020
5144 Clouds 11 1027 34 0 2.12 47 00:28 06.01.2020
5145 Clouds 11 1027 34 0 2.12 47 23:58 05.01.2020
5146 Clouds 11 1027 34 0 2.12 47 23:39 05.01.2020
5147 Clouds 11 1026 39 0 2.53 32 23:21 05.01.2020
5148 Clouds 11 1026 39 0 2.53 32 22:40 05.01.2020
5149 Clouds 11 1026 39 0 2.53 32 22:21 05.01.2020
5150 Clouds 11 1026 39 0 2.53 32 21:58 05.01.2020
5151 Clouds 11 1026 39 0 2.53 32 21:40 05.01.2020
5152 Clouds 14 1029 25 0 1.34 2 21:20 05.01.2020
5153 Clouds 14 1030 25 0 1.79 339 20:58 05.01.2020
5154 Clouds 14 1030 25 0 1.79 339 20:39 05.01.2020
5155 Clouds 14 1030 25 0 1.79 339 20:39 05.01.2020
5156 Clouds 10 1026 44 0 3.12 11 20:19 05.01.2020
5157 Clouds 10 1026 44 0 3.12 11 19:58 05.01.2020
5158 Clouds 10 1026 44 0 3.12 11 19:39 05.01.2020
5159 Clouds 10 1026 44 0 3.12 11 19:39 05.01.2020
5160 Clouds 10 1030 46 0 1.34 219 19:20 05.01.2020
5161 Clouds 10 1029 48 0 0.89 155 18:56 05.01.2020
5162 Clouds 9 1029 51 0 3.58 19 18:38 05.01.2020
5163 Clouds 8 1028 55 0 1.34 57 18:19 05.01.2020
5164 Clouds 6 1028 61 0 2.68 34 17:58 05.01.2020
5165 Clouds 4 1027 67 0 1.34 50 17:39 05.01.2020
5166 Clouds 3 1027 69 0 1.34 35 17:20 05.01.2020
5167 Clouds -1 1027 77 0 2.77 268 16:57 05.01.2020
5168 Clouds 6 1026 57 0 2.77 268 16:39 05.01.2020
5169 Clouds -1 1027 79 0 2.77 268 16:19 05.01.2020
5170 Clouds -1 1027 80 0 0.45 90 15:40 05.01.2020
5171 Clouds -1 1027 78 0 2.77 268 15:21 05.01.2020
5172 Clouds 1 1027 72 0 2.77 268 14:57 05.01.2020
5173 Clouds 1 1027 76 0 0.89 83 14:38 05.01.2020
5174 Clouds 1 1027 76 0 0.89 83 14:20 05.01.2020
5175 Clouds 0 1027 75 0 0.45 301 13:57 05.01.2020
5176 Clouds 1 1027 74 0 0.45 72 13:38 05.01.2020
5177 Clouds 1 1027 74 0 0.45 128 13:20 05.01.2020
5178 Clouds 1 1027 74 0 0.45 128 13:20 05.01.2020
5179 Clouds 1 1027 73 0 0.45 1 12:56 05.01.2020
5180 Clouds 1 1027 69 0 0.45 12 12:37 05.01.2020
5181 Clouds 2 1027 67 0 1.44 249 12:19 05.01.2020
5182 Clouds 2 1027 67 0 1.44 249 12:19 05.01.2020
5183 Clouds 2 1027 67 0 0.45 63 11:54 05.01.2020
5184 Clouds 2 1028 65 0 0.89 93 11:36 05.01.2020
5185 Clouds 3 1028 63 0 0.45 90 11:18 05.01.2020
5186 Clouds 4 1027 60 0 0.89 45 10:40 05.01.2020
5187 Clouds 3 1027 64 0 0.89 58 10:20 05.01.2020
5188 Clouds 1 1028 74 0 0.3 211 09:43 05.01.2020
5189 Clouds 1 1028 73 0 0.3 211 09:22 05.01.2020
5190 Clouds 1 1028 73 0 0.45 5 08:56 05.01.2020
5191 Clouds 1 1029 75 0 0.3 211 08:38 05.01.2020
5192 Clouds 1 1029 75 0 0.78 357 08:20 05.01.2020
5193 Clouds 1 1029 77 0 0.45 5 07:39 05.01.2020
5194 Clouds 1 1030 77 0 0.78 357 07:21 05.01.2020
5195 Clouds 1 1030 77 0 0.78 357 06:54 05.01.2020
5196 Clouds 2 1029 74 0 0.78 357 05:41 05.01.2020
5197 Clouds 1 1029 74 0 1.8 358 04:56 05.01.2020
5198 Clouds 2 1029 71 0 1.8 358 04:19 05.01.2020
5199 Clouds 2 1029 71 0 1.8 358 04:19 05.01.2020
5200 Clouds 4 1029 65 0 1.8 358 03:31 05.01.2020
5201 Clouds 8 1027 49 0 1.8 358 02:33 05.01.2020
5202 Clouds 10 1028 43 0 0.89 32 01:52 05.01.2020
5203 Clouds 10 1025 45 0 1.66 29 01:20 05.01.2020
5204 Clouds 10 1025 45 0 1.66 29 00:57 05.01.2020
5205 Clouds 10 1025 45 0 1.66 29 00:39 05.01.2020
5206 Clouds 10 1025 45 0 1.66 29 00:20 05.01.2020
5207 Clouds 10 1025 45 0 1.66 29 23:42 04.01.2020
5208 Clouds 10 1025 45 0 1.66 29 23:42 04.01.2020
5209 Clouds 12 1024 38 0 0.67 75 23:21 04.01.2020
5210 Clouds 12 1024 38 0 0.67 75 22:59 04.01.2020
5211 Clouds 12 1024 38 0 0.67 75 22:39 04.01.2020
5212 Clouds 12 1024 38 0 0.67 75 22:20 04.01.2020
5213 Clouds 12 1024 38 0 0.67 75 21:56 04.01.2020
5214 Clouds 15 1025 37 0 1.79 50 21:37 04.01.2020
5215 Clouds 13 1026 40 0 1.34 67 21:19 04.01.2020
5216 Clouds 13 1026 40 0 0.89 50 20:55 04.01.2020
5217 Clouds 14 1026 40 0 1.79 50 20:36 04.01.2020
5218 Clouds 10 1027 36 0 0.3 286 20:18 04.01.2020
5219 Clouds 10 1027 36 0 0.3 286 19:41 04.01.2020
5220 Clouds 10 1027 36 0 0.3 286 19:41 04.01.2020
5221 Clouds 10 1027 36 0 0.3 286 19:41 04.01.2020
5222 Clouds 10 1027 36 0 0.3 286 19:23 04.01.2020
5223 Clouds 10 1027 36 0 0.3 286 18:58 04.01.2020
5224 Clouds 9 1027 52 0 0.89 45 18:39 04.01.2020
5225 Clouds 8 1026 55 0 0.89 89 18:20 04.01.2020
5226 Clouds 7 1026 58 0 0.45 45 17:58 04.01.2020
5227 Clouds 6 1026 63 0 0.3 286 17:40 04.01.2020
5228 Clouds 4 1026 67 0 0.73 271 17:21 04.01.2020
5229 Clouds 1 1025 79 0 0.73 271 16:42 04.01.2020
5230 Clouds 0 1025 77 0 0.45 360 16:24 04.01.2020
5231 Clouds 0 1025 77 0 0.45 360 16:24 04.01.2020
5232 Clouds 1 1025 74 0 0.73 271 15:58 04.01.2020
5233 Clouds 1 1025 73 0 0.73 271 15:39 04.01.2020
5234 Clouds 1 1025 71 0 0.73 271 15:19 04.01.2020
5235 Clouds 2 1025 69 0 0.73 271 14:57 04.01.2020
5236 Clouds 2 1025 69 0 0.73 271 14:57 04.01.2020
5237 Clouds 2 1025 69 0 0.73 271 14:39 04.01.2020
5238 Clouds 2 1024 67 0 1.79 241 14:19 04.01.2020
5239 Clouds 2 1024 68 0 0.89 2 13:56 04.01.2020
5240 Clouds 3 1024 64 0 0.45 259 13:37 04.01.2020
5241 Clouds 3 1024 64 0 0.45 259 13:37 04.01.2020
5242 Clouds 3 1025 64 0 0.45 267 13:18 04.01.2020
5243 Clouds 3 1025 63 0 3.13 91 12:42 04.01.2020
5244 Clouds 5 1025 53 0 1.41 241 12:20 04.01.2020
5245 Clouds 5 1025 53 0 1.41 241 11:59 04.01.2020
5246 Clouds 5 1025 53 0 1.41 241 11:40 04.01.2020
5247 Clouds 7 1025 53 0 0.89 96 11:19 04.01.2020
5248 Clouds 7 1025 53 0 1.79 131 10:58 04.01.2020
5249 Clouds 6 1025 49 0 1.56 240 10:38 04.01.2020
5250 Clouds 6 1026 56 0 2.68 108 10:19 04.01.2020
5251 Clouds 5 1026 56 0 1.79 85 09:42 04.01.2020
5252 Clouds 5 1026 56 0 0.89 104 09:24 04.01.2020
5253 Clouds 6 1027 56 0 1.79 65 08:44 04.01.2020
5254 Clouds 5 1027 57 0 1.79 99 08:25 04.01.2020
5255 Clouds 2 1027 67 0 0.45 230 07:51 04.01.2020
5256 Clouds 2 1027 67 0 0.45 230 07:32 04.01.2020
5257 Clouds 3 1028 61 0 0.94 218 06:39 04.01.2020
5258 Clouds 2 1027 69 0 0.94 218 05:46 04.01.2020
5259 Clouds 2 1027 68 0 0.45 317 04:47 04.01.2020
5260 Clouds 3 1027 67 0 0.26 134 04:27 04.01.2020
5261 Clouds 4 1026 59 0 0.26 134 03:19 04.01.2020
5262 Clouds 6 1026 54 0 0.26 134 02:38 04.01.2020
5263 Clouds 7 1026 48 0 1.34 97 02:18 04.01.2020
5264 Clouds 9 1026 42 0 0.45 64 01:32 04.01.2020
5265 Clouds 9 1026 42 0 0.45 64 01:32 04.01.2020
5266 Clouds 11 1025 38 0 1.34 35 00:58 04.01.2020
5267 Clouds 11 1025 51 0 0.81 172 00:29 04.01.2020
5268 Clouds 11 1025 51 0 0.81 172 23:53 03.01.2020
5269 Clouds 11 1025 51 0 0.81 172 23:28 03.01.2020
5270 Clouds 12 1024 37 0 0.55 81 22:57 03.01.2020
5271 Clouds 12 1024 37 0 0.55 81 22:39 03.01.2020
5272 Clouds 12 1024 37 0 0.55 81 22:18 03.01.2020
5273 Clouds 12 1024 37 0 0.55 81 21:57 03.01.2020
5274 Clouds 17 1026 30 0 1.79 0 21:37 03.01.2020
5275 Clouds 17 1026 32 0 1.34 87 21:18 03.01.2020
5276 Clouds 17 1026 32 0 1.34 87 20:54 03.01.2020
5277 Clouds 14 1026 28 0 0.55 81 20:36 03.01.2020
5278 Clouds 11 1027 39 0 1.06 360 20:18 03.01.2020
5279 Clouds 11 1027 39 0 1.06 360 19:44 03.01.2020
5280 Clouds 11 1027 39 0 1.06 360 19:23 03.01.2020
5281 Clouds 13 1027 28 0 1.34 341 18:57 03.01.2020
5282 Clouds 13 1027 28 0 1.34 341 18:38 03.01.2020
5283 Clouds 13 1027 31 0 1.34 347 18:20 03.01.2020
5284 Clouds 11 1027 34 0 0.45 324 17:42 03.01.2020
5285 Clouds 6 1025 49 0 1.35 348 17:22 03.01.2020
5286 Clouds 4 1027 50 0 0.45 339 16:59 03.01.2020
5287 Clouds 2 1026 62 0 0.45 339 16:40 03.01.2020
5288 Clouds 2 1026 63 0 1.35 348 16:21 03.01.2020
5289 Clouds 3 1025 57 0 1.35 348 15:42 03.01.2020
5290 Clouds 3 1025 56 0 1.35 348 15:19 03.01.2020
5291 Clouds 4 1025 56 0 1.35 348 14:56 03.01.2020
5292 Clouds 4 1025 54 0 1.35 348 14:37 03.01.2020
5293 Clouds 4 1025 52 0 1.34 334 14:19 03.01.2020
5294 Clouds 4 1025 54 0 0.89 336 13:41 03.01.2020
5295 Clouds 3 1024 56 0 2.07 352 13:23 03.01.2020
5296 Clouds 4 1024 55 0 0.89 350 12:56 03.01.2020
5297 Clouds 4 1024 54 0 2.07 352 12:38 03.01.2020
5298 Clouds 6 1024 49 0 2.07 352 12:19 03.01.2020
5299 Clouds 6 1023 49 0 2.24 334 11:42 03.01.2020
5300 Clouds 6 1023 50 0 1.34 330 11:18 03.01.2020
5301 Clouds 4 1023 57 0 0.45 311 10:43 03.01.2020
5302 Clouds 5 1023 54 0 1.79 346 10:24 03.01.2020
5303 Clouds 6 1023 50 0 1.79 346 09:57 03.01.2020
5304 Clouds 7 1022 47 0 1.79 346 09:38 03.01.2020
5305 Clouds 7 1022 47 0 1.79 346 09:20 03.01.2020
5306 Clouds 7 1022 47 0 1.79 346 08:54 03.01.2020
5307 Clouds 7 1022 47 0 1.79 346 08:36 03.01.2020
5308 Clouds 8 1022 43 0 2.19 353 08:18 03.01.2020
5309 Clouds 7 1021 44 0 2.01 346 07:39 03.01.2020
5310 Clouds 7 1021 44 0 2.01 346 07:18 03.01.2020
5311 Clouds 7 1021 44 0 2.01 346 06:43 03.01.2020
5312 Clouds 7 1021 44 0 2.01 346 06:24 03.01.2020
5313 Clouds 7 1021 44 0 2.01 346 05:28 03.01.2020
5314 Clouds 6 1021 44 0 0.89 11 03:55 03.01.2020
5315 Clouds 8 1019 46 0 1.6 343 02:55 03.01.2020
5316 Clouds 8 1019 46 0 1.6 343 02:26 03.01.2020
5317 Clouds 9 1019 37 0 0.89 60 01:39 03.01.2020
5318 Clouds 11 1017 45 0 0.59 84 00:49 03.01.2020
5319 Clouds 11 1017 45 0 0.59 84 00:29 03.01.2020
5320 Clouds 11 1017 45 0 0.59 84 23:55 02.01.2020
5321 Clouds 11 1017 45 0 0.59 84 23:37 02.01.2020
5322 Clear 11 1016 40 0 2.46 36 23:18 02.01.2020
5323 Clear 11 1016 40 0 2.46 36 22:44 02.01.2020
5324 Clear 11 1016 40 0 2.46 36 22:21 02.01.2020
5325 Clear 11 1016 40 0 2.46 36 21:59 02.01.2020
5326 Clear 11 1016 40 0 2.46 36 21:41 02.01.2020
5327 Clear 11 1016 40 0 2.46 36 21:23 02.01.2020
5328 Clear 11 1016 40 0 2.46 36 20:58 02.01.2020
5329 Clear 11 1016 40 0 2.46 36 20:39 02.01.2020
5330 Clear 11 1016 40 0 2.46 36 20:39 02.01.2020
5331 Clear 9 1018 54 0 2.82 23 20:20 02.01.2020
5332 Clear 9 1018 54 0 2.82 23 19:55 02.01.2020
5333 Clear 9 1018 54 0 2.82 23 19:55 02.01.2020
5334 Clear 9 1018 54 0 2.82 23 19:37 02.01.2020
5335 Clear 9 1018 54 0 2.82 23 19:19 02.01.2020
5336 Clear 9 1018 54 0 2.82 23 18:56 02.01.2020
5337 Clear 12 1019 29 0 0.45 314 18:38 02.01.2020
5338 Clear 11 1019 32 0 0.89 50 18:20 02.01.2020
5339 Clear 10 1019 30 0 2.82 23 17:56 02.01.2020
5340 Clear 8 1019 35 0 0.45 40 17:36 02.01.2020
5341 Clear 7 1018 36 0 0.45 271 17:18 02.01.2020
5342 Clear 6 1018 41 0 1.91 353 16:56 02.01.2020
5343 Clear 4 1018 41 0 1.34 346 16:38 02.01.2020
5344 Clear 4 1017 41 0 1.34 317 16:19 02.01.2020
5345 Clear 3 1017 50 0 0.89 330 15:45 02.01.2020
5346 Clear 3 1016 52 0 0.45 306 15:24 02.01.2020
5347 Clear 3 1016 49 0 0.45 331 14:58 02.01.2020
5348 Clear 2 1015 60 0 0.89 335 14:38 02.01.2020
5349 Clear 2 1015 60 0 0.89 335 14:20 02.01.2020
5350 Clear 2 1015 60 0 0.45 177 13:58 02.01.2020
5351 Clear 3 1015 56 0 1.96 4 13:40 02.01.2020
5352 Clear 5 1016 49 0 0.45 181 13:19 02.01.2020
5353 Clear 6 1016 45 0 4.02 346 12:43 02.01.2020
5354 Clear 6 1016 45 0 4.02 346 12:23 02.01.2020
5355 Clear 6 1015 47 0 3.58 349 11:42 02.01.2020
5356 Clear 6 1015 47 0 2.68 332 11:23 02.01.2020
5357 Clear 6 1015 46 0 1.34 333 10:56 02.01.2020
5358 Clear 5 1014 63 0 1.33 20 10:36 02.01.2020
5359 Clear 6 1015 47 0 2.24 345 10:18 02.01.2020
5360 Clear 6 1015 48 0 1.79 352 09:41 02.01.2020
5361 Clear 4 1015 54 0 1.79 25 09:21 02.01.2020
5362 Clear 4 1015 59 0 0.45 21 08:41 02.01.2020
5363 Clear 4 1015 57 0 0.75 310 08:22 02.01.2020
5364 Clouds 5 1015 56 0 0.89 354 07:47 02.01.2020
5365 Clouds 6 1016 54 0 0.89 341 07:27 02.01.2020
5366 Clouds 6 1015 58 0 0.89 291 06:43 02.01.2020
5367 Clouds 6 1015 62 0 0.89 326 05:54 02.01.2020
5368 Clouds 4 1015 64 0 1.31 338 04:37 02.01.2020
5369 Clouds 4 1016 61 0 1.31 338 03:54 02.01.2020
5370 Clouds 7 1015 54 0 0.45 63 02:21 02.01.2020
5371 Clouds 7 1016 52 0 1.05 203 01:57 02.01.2020
5372 Clouds 9 1015 45 0 0.45 50 01:30 02.01.2020
5373 Clouds 10 1013 42 0 0.57 138 00:52 02.01.2020
5374 Clouds 10 1013 42 0 0.57 138 00:28 02.01.2020
5375 Clouds 10 1013 42 0 0.57 138 23:47 01.01.2020
5376 Clouds 10 1013 42 0 0.57 138 23:24 01.01.2020
5377 Clouds 13 1014 40 0 0.45 133 22:54 01.01.2020
5378 Clouds 12 1014 40 0 1.79 220 22:36 01.01.2020
5379 Clouds 12 1015 39 0 0.89 205 22:18 01.01.2020
5380 Clouds 15 1015 31 0 1.34 234 21:42 01.01.2020
5381 Clouds 13 1016 36 0 0.89 22 21:21 01.01.2020
5382 Clouds 12 1017 38 0 2.24 50 20:58 01.01.2020
5383 Clouds 12 1016 40 0 1.34 50 20:39 01.01.2020
5384 Clouds 9 1017 36 0 0.52 180 20:20 01.01.2020
5385 Clouds 9 1018 37 0 1.53 88 19:58 01.01.2020
5386 Clouds 9 1018 37 0 1.53 88 19:39 01.01.2020
5387 Clouds 9 1018 37 0 1.53 88 19:20 01.01.2020
5388 Clouds 9 1018 37 0 1.53 88 18:57 01.01.2020
5389 Clouds 11 1019 42 0 0.89 271 18:39 01.01.2020
5390 Clouds 9 1019 42 0 1.53 88 18:20 01.01.2020
5391 Clouds 9 1020 44 0 0.45 188 17:59 01.01.2020
5392 Clouds 8 1020 45 0 0.89 126 17:40 01.01.2020
5393 Clouds 4 1018 50 0 1.02 317 17:20 01.01.2020
5394 Clouds 2 1020 62 0 1.02 317 16:59 01.01.2020
5395 Clouds 1 1020 63 0 0.89 341 16:38 01.01.2020
5396 Clouds 2 1020 63 0 1.02 317 16:20 01.01.2020
5397 Clouds 3 1020 59 0 1.02 317 15:57 01.01.2020
5398 Clouds 3 1021 55 0 0.45 312 15:38 01.01.2020
5399 Clouds 1 1021 67 0 0.89 319 15:20 01.01.2020
5400 Clouds 1 1020 68 0 1.02 317 14:56 01.01.2020
5401 Clouds -1 1020 72 0 0.45 276 14:38 01.01.2020
5402 Clouds 0 1021 70 0 0.74 7 14:19 01.01.2020
5403 Clouds 0 1021 70 0 0.74 7 14:19 01.01.2020
5404 Clouds 0 1021 72 0 0.74 7 13:55 01.01.2020
5405 Clouds 1 1021 71 0 0.74 7 13:37 01.01.2020
5406 Clouds 1 1021 67 0 0.56 352 13:18 01.01.2020
5407 Clouds 2 1021 65 0 0.56 352 12:55 01.01.2020
5408 Clouds 1 1020 66 0 0.89 61 12:36 01.01.2020
5409 Clouds 1 1020 66 0 0.89 61 12:18 01.01.2020
5410 Clouds 1 1021 69 0 0.56 352 11:42 01.01.2020
5411 Clear 1 1021 69 0 1.58 347 11:21 01.01.2020
5412 Clear 1 1022 70 0 1.58 347 10:57 01.01.2020
5413 Clear 1 1021 70 0 0.89 313 10:38 01.01.2020
5414 Clear 0 1021 72 0 1.58 347 10:19 01.01.2020
5415 Clear 1 1021 69 0 1.58 347 09:42 01.01.2020
5416 Clear 1 1021 73 0 1.58 347 09:22 01.01.2020
5417 Clear 0 1021 74 0 1.58 347 08:57 01.01.2020
5418 Clear 1 1021 72 0 1.58 347 08:39 01.01.2020
5419 Clear 1 1022 72 0 1.37 9 08:20 01.01.2020
5420 Clear 0 1022 71 0 0.45 24 07:59 01.01.2020
5421 Clear 0 1022 73 0 0.84 355 07:41 01.01.2020
5422 Clear 0 1023 73 0 0.84 355 07:20 01.01.2020
5423 Clear 0 1023 72 0 0.45 24 06:40 01.01.2020
5424 Clear 1 1022 71 0 0.45 25 06:19 01.01.2020
5425 Clear 2 1022 66 0 1.61 6 04:36 01.01.2020
5426 Clear 2 1022 65 0 1.61 6 03:41 01.01.2020
5427 Clear 3 1021 60 0 1.61 6 03:22 01.01.2020
5428 Clear 6 1020 50 0 1.61 6 02:54 01.01.2020
5429 Clear 6 1020 50 0 1.61 6 02:30 01.01.2020
5430 Clear 9 1019 43 0 2.34 24 01:45 01.01.2020
5431 Clear 9 1019 43 0 2.34 24 01:24 01.01.2020
5432 Clear 9 1019 41 0 2.56 26 00:56 01.01.2020
5433 Clear 9 1019 41 0 2.56 26 00:37 01.01.2020
5434 Clear 9 1019 41 0 2.56 26 00:18 01.01.2020
5435 Clear 9 1019 41 0 2.56 26 23:39 31.12.2019
5436 Clear 9 1020 43 0 3.93 31 23:19 31.12.2019
5437 Clear 9 1020 43 0 3.93 31 22:57 31.12.2019
5438 Clear 9 1020 43 0 3.93 31 22:38 31.12.2019
5439 Clear 9 1020 43 0 3.93 31 22:18 31.12.2019
5440 Clear 9 1020 43 0 3.93 31 21:54 31.12.2019
5441 Clear 9 1020 43 0 3.93 31 21:36 31.12.2019
5442 Clear 9 1020 43 0 3.93 31 21:18 31.12.2019
5443 Clear 12 1022 37 0 2.68 356 20:40 31.12.2019
5444 Clear 8 1022 49 0 5.56 28 20:21 31.12.2019
5445 Clear 7 1022 51 0 5.22 29 19:59 31.12.2019
5446 Clear 7 1022 51 0 5.22 29 19:40 31.12.2019
5447 Clear 6 1024 53 0 6.26 358 19:22 31.12.2019
5448 Clear 6 1024 53 0 6.26 358 18:57 31.12.2019
5449 Clear 6 1024 53 0 6.26 358 18:39 31.12.2019
5450 Clear 6 1024 53 0 6.26 358 18:19 31.12.2019
5451 Clear 6 1024 55 0 5.81 326 17:56 31.12.2019
5452 Clear 5 1024 56 0 4.47 292 17:37 31.12.2019
5453 Clear 5 1022 66 0 4.65 9 17:19 31.12.2019
5454 Clear 5 1022 66 0 4.65 9 17:19 31.12.2019
5455 Clear 5 1022 66 0 4.65 9 16:56 31.12.2019
5456 Clear 3 1023 63 0 3.13 333 16:38 31.12.2019
5457 Clear 3 1023 63 0 4.92 350 16:19 31.12.2019
5458 Clear 2 1023 64 0 3.13 356 15:56 31.12.2019
5459 Clear 2 1023 66 0 1.79 21 15:38 31.12.2019
5460 Clear 2 1023 68 0 1.79 4 15:20 31.12.2019
5461 Clear 5 1022 66 0 4.65 9 14:57 31.12.2019
5462 Clear 3 1023 66 0 4.47 8 14:38 31.12.2019
5463 Clear 3 1023 66 0 4.47 8 14:38 31.12.2019
5464 Clear 3 1023 66 0 4.92 342 14:19 31.12.2019
5465 Clear 3 1023 66 0 4.47 351 13:57 31.12.2019
5466 Clear 3 1024 68 0 4.02 347 13:39 31.12.2019
5467 Clear 3 1023 67 0 4.02 344 13:20 31.12.2019
5468 Clear 3 1024 67 0 3.58 355 12:56 31.12.2019
5469 Clear 3 1024 67 0 3.13 341 12:38 31.12.2019
5470 Clear 3 1024 67 0 3.13 337 12:19 31.12.2019
5471 Clear 3 1024 67 0 3.13 337 12:19 31.12.2019
5472 Clear 3 1024 66 0 4.02 2 11:56 31.12.2019
5473 Clear 3 1024 66 0 4.02 2 11:56 31.12.2019
5474 Clear 3 1024 66 0 4.02 2 11:56 31.12.2019
5475 Clear 3 1024 68 0 3.58 344 11:38 31.12.2019
5476 Clear 3 1024 69 0 4.92 331 11:19 31.12.2019
5477 Clear 2 1024 73 0 3.58 333 10:57 31.12.2019
5478 Clear 2 1024 73 0 3.58 333 10:57 31.12.2019
5479 Clear 3 1024 71 0 3.13 351 10:38 31.12.2019
5480 Clear 3 1024 72 0 4.02 319 10:20 31.12.2019
5481 Clear 3 1024 71 0 2.24 329 09:58 31.12.2019
5482 Clear 3 1024 71 0 3.13 302 09:39 31.12.2019
5483 Clear 3 1024 71 0 3.13 302 09:39 31.12.2019
5484 Clear 3 1024 71 0 4.02 351 09:20 31.12.2019
5485 Clear 3 1024 70 0 4.02 329 08:57 31.12.2019
5486 Clear 3 1024 70 0 4.02 329 08:57 31.12.2019
5487 Clear 3 1024 71 0 2.24 320 08:37 31.12.2019
5488 Clear 3 1024 71 0 2.24 320 08:37 31.12.2019
5489 Clear 3 1024 71 0 2.24 320 08:18 31.12.2019
5490 Clear 4 1024 68 0 3.58 341 07:41 31.12.2019
5491 Clear 3 1024 69 0 4.02 347 07:19 31.12.2019
5492 Clear 3 1024 68 0 3.58 352 06:49 31.12.2019
5493 Clear 4 1024 66 0 4.47 347 05:57 31.12.2019
5494 Clear 4 1023 67 0 4.92 333 04:28 31.12.2019
5495 Clear 3 1023 70 0 4.47 326 03:27 31.12.2019
5496 Clear 7 1020 55 0 4.07 16 02:54 31.12.2019
5497 Clear 7 1020 55 0 4.07 16 02:54 31.12.2019
5498 Clouds 4 1022 69 0 2.68 333 01:58 31.12.2019
5499 Clouds 4 1022 67 0 3.13 316 01:40 31.12.2019
5500 Clear 7 1022 59 0 3.13 337 01:22 31.12.2019
5501 Clear 8 1018 45 0 3.9 34 00:45 31.12.2019
5502 Clear 8 1018 45 0 3.9 34 00:22 31.12.2019
5503 Clear 8 1018 45 0 3.9 34 23:56 30.12.2019
5504 Clear 8 1018 45 0 3.9 34 23:38 30.12.2019
5505 Clear 8 1019 38 0 3.96 39 23:20 30.12.2019
5506 Clear 8 1019 38 0 3.96 39 22:57 30.12.2019
5507 Clear 8 1019 38 0 3.96 39 22:38 30.12.2019
5508 Clear 8 1019 38 0 3.96 39 22:19 30.12.2019
5509 Clear 8 1019 38 0 3.96 39 21:56 30.12.2019
5510 Clear 8 1019 38 0 3.96 39 21:38 30.12.2019
5511 Clear 8 1019 38 0 3.96 39 21:18 30.12.2019
5512 Clear 8 1019 38 0 3.96 39 20:56 30.12.2019
5513 Clear 8 1019 38 0 3.96 39 20:38 30.12.2019
5514 Clouds 6 1022 45 0 3.2 36 20:20 30.12.2019
5515 Clouds 6 1022 45 0 3.2 36 19:57 30.12.2019
5516 Clouds 6 1022 45 0 3.2 36 19:37 30.12.2019
5517 Clouds 6 1022 45 0 3.2 36 19:19 30.12.2019
5518 Clouds 6 1022 45 0 3.2 36 19:19 30.12.2019
5519 Clouds 6 1024 62 0 3.58 314 18:56 30.12.2019
5520 Clouds 3 1024 66 0 1.34 279 18:38 30.12.2019
5521 Clouds 4 1024 65 0 1.34 317 18:20 30.12.2019
5522 Clouds 3 1024 69 0 1.34 308 17:55 30.12.2019
5523 Clouds 2 1024 72 0 1.79 322 17:37 30.12.2019
5524 Clouds 2 1021 52 0 2.77 11 17:18 30.12.2019
5525 Clouds 1 1023 72 0 0.89 285 16:57 30.12.2019
5526 Clouds 1 1023 75 0 0.89 309 16:36 30.12.2019
5527 Clouds 1 1023 75 0 0.89 309 16:36 30.12.2019
5528 Clouds 1 1023 74 0 1.34 345 16:18 30.12.2019
5529 Clouds 1 1023 73 0 0.45 320 15:55 30.12.2019
5530 Clouds 0 1023 73 0 1.34 343 15:36 30.12.2019
5531 Clouds 1 1023 73 0 1.34 325 15:18 30.12.2019
5532 Clouds 1 1022 73 0 2.24 322 14:42 30.12.2019
5533 Clouds 1 1022 74 0 1.34 329 14:19 30.12.2019
5534 Clouds 1 1022 75 0 0.45 333 13:56 30.12.2019
5535 Clouds 1 1022 74 0 1.99 9 13:37 30.12.2019
5536 Clouds 0 1022 75 0 0.89 333 13:19 30.12.2019
5537 Clouds -1 1022 78 0 0.89 331 12:43 30.12.2019
5538 Clouds -2 1022 87 0 2.3 19 12:22 30.12.2019
5539 Clouds -2 1022 88 0 2.3 19 11:59 30.12.2019
5540 Clouds -2 1022 88 0 2.3 19 11:40 30.12.2019
5541 Clouds -2 1022 89 0 1.8 22 11:19 30.12.2019
5542 Clouds -2 1022 89 0 1.8 22 11:19 30.12.2019
5543 Clouds -2 1022 89 0 1.8 22 10:57 30.12.2019
5544 Clouds -2 1022 87 0 1.8 22 10:38 30.12.2019
5545 Clouds -2 1022 86 0 1.8 22 10:18 30.12.2019
5546 Clouds -2 1022 89 0 1.8 22 09:41 30.12.2019
5547 Clouds -3 1022 90 0 1.8 22 09:20 30.12.2019
5548 Clouds -3 1022 90 0 1.8 22 08:55 30.12.2019
5549 Clouds -3 1022 88 0 1.8 22 08:36 30.12.2019
5550 Clouds -2 1022 87 0 1.26 13 08:18 30.12.2019
5551 Clouds -2 1022 87 0 1.11 16 08:18 30.12.2019
5552 Clouds -2 1022 85 0 1.26 13 07:40 30.12.2019
5553 Clouds -1 1022 82 0 1.26 13 06:55 30.12.2019
5554 Clouds -1 1022 77 0 1.26 13 06:23 30.12.2019
5555 Clouds -1 1022 77 0 1.26 13 06:23 30.12.2019
5556 Clouds -1 1022 74 0 0.44 25 03:58 30.12.2019
5557 Clouds -1 1022 75 0 0.44 25 03:39 30.12.2019
5558 Clouds 1 1022 68 0 0.44 25 02:41 30.12.2019
5559 Clouds 1 1021 66 0 0.45 50 02:20 30.12.2019
5560 Clouds 2 1021 63 0 0.89 29 01:25 30.12.2019
5561 Clouds 4 1021 57 0 1.34 45 00:46 30.12.2019
5562 Clouds 6 1018 39 0 1.36 121 00:26 30.12.2019
5563 Clouds 6 1018 39 0 1.36 121 23:40 29.12.2019
5564 Clear 6 1021 53 0 2.24 89 23:22 29.12.2019
5565 Clear 6 1019 35 0 1.8 110 22:57 29.12.2019
5566 Clear 6 1019 35 0 1.8 110 22:38 29.12.2019
5567 Clear 6 1019 35 0 1.8 110 22:38 29.12.2019
5568 Clear 6 1019 35 0 1.8 110 22:20 29.12.2019
5569 Clear 6 1019 35 0 1.8 110 21:55 29.12.2019
5570 Clear 6 1019 35 0 1.8 110 21:36 29.12.2019
5571 Clear 6 1022 54 0 1.34 66 21:18 29.12.2019
5572 Clear 6 1022 52 0 1.34 50 20:55 29.12.2019
5573 Clear 6 1022 52 0 1.34 50 20:55 29.12.2019
5574 Clear 6 1023 52 0 1.34 68 20:37 29.12.2019
5575 Clouds 5 1022 35 0 1.19 106 20:18 29.12.2019
5576 Clouds 5 1024 54 0 1.79 66 19:55 29.12.2019
5577 Clouds 4 1024 57 0 1.34 36 19:37 29.12.2019
5578 Clouds 4 1025 56 0 1.34 69 19:18 29.12.2019
5579 Clouds 5 1025 54 0 0.45 79 18:54 29.12.2019
5580 Clouds 6 1025 53 0 0.45 75 18:36 29.12.2019
5581 Clouds 4 1025 55 0 1.34 80 18:18 29.12.2019
5582 Clouds 4 1025 57 0 0.45 83 17:54 29.12.2019
5583 Clouds 3 1024 61 0 0.45 83 17:36 29.12.2019
5584 Clouds 2 1024 67 0 0.45 83 17:18 29.12.2019
5585 Clouds -1 1024 75 0 0.25 190 16:54 29.12.2019
5586 Clouds -2 1024 79 0 0.25 190 16:36 29.12.2019
5587 Clouds -3 1024 82 0 0.25 190 16:18 29.12.2019
5588 Clouds -3 1024 84 0 0.25 190 15:55 29.12.2019
5589 Clouds -3 1024 85 0 0.25 190 15:37 29.12.2019
5590 Clouds -3 1024 84 0 0.25 190 15:18 29.12.2019
5591 Clouds -3 1024 84 0 0.25 190 14:55 29.12.2019
5592 Clouds -3 1023 81 0 0.25 190 14:37 29.12.2019
5593 Clouds -3 1023 79 0 0.5 332 14:18 29.12.2019
5594 Clouds -3 1023 78 0 0.45 83 13:40 29.12.2019
5595 Clouds -3 1023 78 0 0.45 83 13:40 29.12.2019
5596 Clear -2 1023 75 0 0.56 323 13:22 29.12.2019
5597 Clear -2 1023 74 0 0.56 323 12:59 29.12.2019
5598 Clear -2 1024 73 0 0.45 83 12:41 29.12.2019
5599 Clear -1 1023 73 0 0.89 82 12:22 29.12.2019
5600 Clear -1 1023 74 0 0.56 323 11:46 29.12.2019
5601 Clear -1 1023 71 0 0.56 323 11:23 29.12.2019
5602 Clear -1 1023 73 0 0.45 113 11:00 29.12.2019
5603 Clear -2 1023 75 0 0.45 121 10:41 29.12.2019
5604 Clear -2 1023 79 0 0.45 157 10:20 29.12.2019
5605 Clear -2 1023 80 0 0.4 357 09:54 29.12.2019
5606 Clear -2 1023 77 0 0.4 357 09:36 29.12.2019
5607 Clear -2 1023 77 0 0.45 157 09:18 29.12.2019
5608 Clear -2 1023 76 0 0.45 157 08:44 29.12.2019
5609 Clear -1 1023 74 0 0.4 357 08:24 29.12.2019
5610 Clear -1 1023 72 0 0.47 296 07:49 29.12.2019
5611 Clear -1 1023 70 0 0.47 296 07:27 29.12.2019
5612 Clear 1 1023 63 0 0.47 296 06:53 29.12.2019
5613 Clear 3 1023 53 0 0.89 139 06:23 29.12.2019
5614 Clear 4 1022 46 0 3.13 35 05:48 29.12.2019
5615 Clouds -1 1023 67 0 0.45 62 04:34 29.12.2019
5616 Clouds -1 1022 67 0 0.95 2 03:40 29.12.2019
5617 Clouds 2 1022 62 0 0.95 2 02:49 29.12.2019
5618 Clear 3 1022 51 0 0.45 21 02:19 29.12.2019
5619 Clear 4 1021 45 0 0.89 33 01:31 29.12.2019
5620 Clouds 7 1018 37 0 1.23 66 00:51 29.12.2019
5621 Clouds 7 1018 37 0 1.23 66 00:27 29.12.2019
5622 Clouds 7 1018 37 0 1.23 66 23:57 28.12.2019
5623 Clouds 7 1018 37 0 1.23 66 23:39 28.12.2019
5624 Clouds 6 1018 35 0 1.18 74 23:18 28.12.2019
5625 Clouds 6 1018 35 0 1.18 74 22:39 28.12.2019
5626 Clouds 6 1018 35 0 1.18 74 22:19 28.12.2019
5627 Clouds 6 1018 35 0 1.18 74 21:57 28.12.2019
5628 Clouds 10 1021 29 0 0.45 154 21:38 28.12.2019
5629 Clouds 9 1022 25 0 0.45 125 21:20 28.12.2019
5630 Clouds 9 1022 23 0 0.45 230 20:56 28.12.2019
5631 Clouds 8 1022 25 0 1.18 74 20:37 28.12.2019
5632 Clouds 8 1022 26 0 0.45 238 20:18 28.12.2019
5633 Clouds 7 1023 27 0 0.89 268 19:55 28.12.2019
5634 Clouds 5 1020 31 0 1.66 55 19:37 28.12.2019
5635 Clouds 5 1020 31 0 1.66 55 19:18 28.12.2019
5636 Clouds 7 1023 28 0 0.45 297 18:56 28.12.2019
5637 Clouds 6 1023 29 0 0.45 220 18:38 28.12.2019
5638 Clouds 6 1023 28 0 0.89 210 18:18 28.12.2019
5639 Clouds 5 1023 29 0 0.89 265 17:42 28.12.2019
5640 Clouds 5 1023 29 0 0.89 265 17:42 28.12.2019
5641 Clouds 3 1023 36 0 0.98 9 17:21 28.12.2019
5642 Clouds 0 1023 44 0 0.98 9 16:59 28.12.2019
5643 Clouds -3 1022 54 0 0.98 9 16:41 28.12.2019
5644 Clouds -3 1022 54 0 0.98 9 16:23 28.12.2019
5645 Clouds 0 1020 43 0 0.98 9 15:43 28.12.2019
5646 Clouds -1 1022 51 0 0.98 9 15:23 28.12.2019
5647 Clouds -1 1021 40 0 0.89 10 14:57 28.12.2019
5648 Clouds 0 1022 37 0 0.89 342 14:38 28.12.2019
5649 Clear 0 1021 41 0 1.34 10 14:20 28.12.2019
5650 Clear -1 1021 46 0 1.34 327 13:43 28.12.2019
5651 Clear -2 1021 49 0 0.45 115 13:22 28.12.2019
5652 Clear -3 1021 56 0 0.95 345 12:59 28.12.2019
5653 Clear -1 1021 44 0 0.95 345 12:41 28.12.2019
5654 Clear 0 1021 42 0 0.45 27 12:22 28.12.2019
5655 Clear 0 1021 37 0 1.34 10 11:55 28.12.2019
5656 Clear 0 1021 41 0 0.89 349 11:37 28.12.2019
5657 Clear -1 1021 43 0 0.89 25 11:18 28.12.2019
5658 Clear 1 1021 44 0 0.89 26 10:43 28.12.2019
5659 Clear 1 1020 40 0 1.34 337 10:20 28.12.2019
5660 Clear 1 1020 41 0 2.68 329 09:57 28.12.2019
5661 Clear -1 1020 48 0 3.13 339 09:39 28.12.2019
5662 Clear -2 1020 55 0 0.89 40 09:19 28.12.2019
5663 Clear -1 1020 55 0 1.34 91 08:44 28.12.2019
5664 Clear -1 1020 54 0 0.89 10 08:26 28.12.2019
5665 Clear -2 1020 56 0 0.89 243 07:49 28.12.2019
5666 Clear -3 1020 61 0 0.45 351 07:27 28.12.2019
5667 Clear -2 1020 64 0 1.8 350 06:21 28.12.2019
5668 Clear 2 1019 43 0 5.81 360 04:36 28.12.2019
5669 Clear 4 1016 42 0 1.73 319 03:39 28.12.2019
5670 Clear 2 1018 44 0 3.58 331 02:48 28.12.2019
5671 Clear 3 1018 45 0 0.45 195 01:59 28.12.2019
5672 Clear 4 1017 36 0 3.13 338 01:30 28.12.2019
5673 Clear 7 1013 39 0 1.9 15 00:55 28.12.2019
5674 Clear 7 1013 39 0 1.9 15 00:37 28.12.2019
5675 Clear 7 1013 39 0 1.9 15 00:19 28.12.2019
5676 Clear 7 1013 39 0 1.9 15 23:43 27.12.2019
5677 Clear 7 1013 37 0 2.58 45 23:19 27.12.2019
5678 Clear 7 1013 37 0 2.58 45 23:19 27.12.2019
5679 Clear 7 1013 37 0 2.58 45 22:57 27.12.2019
5680 Clear 7 1013 37 0 2.58 45 22:38 27.12.2019
5681 Clear 7 1013 37 0 2.58 45 22:20 27.12.2019
5682 Clear 6 1017 50 0 4.47 337 21:55 27.12.2019
5683 Clear 4 1017 52 0 1.34 227 21:36 27.12.2019
5684 Clear 5 1017 55 0 0.45 227 21:18 27.12.2019
5685 Clear 3 1018 61 0 0.89 230 20:41 27.12.2019
5686 Clear 4 1018 57 0 0.89 263 20:22 27.12.2019
5687 Clear 5 1016 49 0 1.53 47 19:42 27.12.2019
5688 Clear 5 1016 49 0 1.53 47 19:21 27.12.2019
5689 Clear 5 1016 49 0 1.53 47 18:59 27.12.2019
5690 Clear 5 1019 52 0 0.89 329 18:39 27.12.2019
5691 Clear 2 1019 60 0 1.79 347 18:21 27.12.2019
5692 Clear 1 1018 63 0 0.45 270 17:58 27.12.2019
5693 Clear 1 1018 64 0 1.79 304 17:39 27.12.2019
5694 Clouds 2 1015 60 0 2.03 347 17:19 27.12.2019
5695 Clouds 1 1018 66 0 3.13 341 16:58 27.12.2019
5696 Clouds -2 1017 73 0 2.68 342 16:38 27.12.2019
5697 Clouds 0 1017 68 0 5.36 354 16:19 27.12.2019
5698 Clouds -1 1017 71 0 6.26 344 15:45 27.12.2019
5699 Clouds -3 1017 78 0 3.58 335 15:22 27.12.2019
5700 Clouds -3 1017 77 0 2.24 326 14:58 27.12.2019
5701 Clouds -2 1017 74 0 1.79 260 14:39 27.12.2019
5702 Clouds -2 1017 72 0 2.24 299 14:20 27.12.2019
5703 Clouds -1 1017 70 0 1.34 297 13:57 27.12.2019
5704 Clouds -3 1017 78 0 1.34 329 13:38 27.12.2019
5705 Clouds -3 1017 78 0 1.34 329 13:38 27.12.2019
5706 Clouds -3 1017 80 0 2.24 341 13:20 27.12.2019
5707 Clouds -2 1017 78 0 1.34 341 12:42 27.12.2019
5708 Clouds -2 1017 79 0 1.79 341 12:23 27.12.2019
5709 Clouds -3 1017 81 0 1.34 316 11:46 27.12.2019
5710 Clouds -3 1017 80 0 0.89 325 11:27 27.12.2019
5711 Clouds -3 1017 78 0 0.89 344 10:59 27.12.2019
5712 Clouds -2 1017 77 0 0.89 354 10:41 27.12.2019
5713 Clouds -1 1017 76 0 1.34 352 10:22 27.12.2019
5714 Clouds -1 1017 75 0 2.68 328 09:49 27.12.2019
5715 Clouds 0 1017 74 0 1.79 348 09:22 27.12.2019
5716 Clouds 1 1017 75 0 3.13 336 08:59 27.12.2019
5717 Clouds 0 1018 77 0 3.13 344 08:38 27.12.2019
5718 Clouds 0 1018 77 0 2.24 343 08:18 27.12.2019
5719 Clouds 0 1018 78 0 3.58 322 07:38 27.12.2019
5720 Clouds 1 1018 78 0 4.92 347 06:43 27.12.2019
5721 Clouds 1 1018 79 0 4.02 337 06:22 27.12.2019
5722 Rain 0 1018 84 0 2.68 337 04:32 27.12.2019
5723 Rain 0 1017 85 0 4.26 10 02:28 27.12.2019
5724 Rain 0 1016 86 0 4.52 38 01:42 27.12.2019
5725 Rain 0 1016 88 0 5.48 20 01:20 27.12.2019
5726 Rain 0 1016 88 0 5.48 20 00:46 27.12.2019
5727 Rain 0 1015 89 0 5.48 20 00:25 27.12.2019
5728 Rain 0 1015 89 0 5.48 20 23:56 26.12.2019
5729 Rain 1 1015 88 0 1.79 349 23:37 26.12.2019
5730 Rain 1 1015 87 0 2.68 358 23:19 26.12.2019
5731 Rain 1 1014 87 0 3.13 318 22:40 26.12.2019
5732 Rain 1 1014 86 0 2.68 345 22:18 26.12.2019
5733 Rain 1 1014 88 0 2.68 333 21:40 26.12.2019
5734 Rain 1 1014 87 0 3.13 347 21:21 26.12.2019
5735 Rain 1 1015 87 0 2.24 356 20:58 26.12.2019
5736 Rain 1 1015 86 0 3.58 348 20:38 26.12.2019
5737 Rain 1 1015 86 0 3.58 348 20:38 26.12.2019
5738 Snow 1 1015 87 0 2.24 27 20:20 26.12.2019
5739 Rain 1 1015 87 0 2.68 325 19:56 26.12.2019
5740 Rain 1 1015 88 0 1.34 319 19:38 26.12.2019
5741 Rain 1 1016 89 0 1.79 351 19:19 26.12.2019
5742 Rain 1 1015 89 0 1.34 356 18:57 26.12.2019
5743 Rain 1 1015 90 0 0.89 347 18:36 26.12.2019
5744 Rain 1 1015 90 0 0.45 332 18:18 26.12.2019
5745 Rain 0 1015 91 0 0.45 16 17:42 26.12.2019
5746 Rain 0 1014 92 0 0.45 345 17:22 26.12.2019
5747 Rain -1 1014 91 0 1.34 344 16:50 26.12.2019
5748 Rain -1 1014 92 0 0.89 350 16:28 26.12.2019
5749 Rain -1 1014 91 0 0.89 2 15:58 26.12.2019
5750 Rain -1 1014 92 0 1.34 351 15:40 26.12.2019
5751 Rain -1 1014 91 0 0.89 359 15:19 26.12.2019
5752 Rain 0 1014 89 0 0.89 354 14:42 26.12.2019
5753 Rain 0 1013 89 0 1.34 5 14:23 26.12.2019
5754 -273 0 0 0 0 0 13:58 26.12.2019
5755 Rain -1 1013 91 0 0.89 343 13:39 26.12.2019
5756 Rain -1 1013 91 0 0.89 349 13:18 26.12.2019
5757 Rain -1 1014 91 0 0.89 87 12:56 26.12.2019
5758 Rain -1 1014 90 0 1.34 358 12:36 26.12.2019
5759 Rain -1 1014 88 0 4.26 26 12:18 26.12.2019
5760 Rain -1 1014 90 0 0.45 5 11:42 26.12.2019
5761 Rain -1 1014 91 0 0.89 29 11:23 26.12.2019
5762 Rain -1 1014 91 0 0.45 31 10:54 26.12.2019
5763 Rain -1 1014 89 0 0.45 40 10:36 26.12.2019
5764 Rain -1 1014 90 0 1.79 45 10:18 26.12.2019
5765 Rain -1 1014 90 0 1.34 23 09:42 26.12.2019
5766 Rain -1 1014 91 0 0.89 19 09:24 26.12.2019
5767 Rain 0 1014 90 0 1.34 359 08:40 26.12.2019
5768 Rain 0 1014 90 0 1.34 359 08:40 26.12.2019
5769 Clouds 0 1014 90 0 1.79 31 08:22 26.12.2019
5770 Clouds 0 1014 89 0 1.79 15 07:50 26.12.2019
5771 Clouds 0 1014 89 0 1.34 11 07:26 26.12.2019
5772 Clouds 0 1014 90 0 0.79 56 06:48 26.12.2019
5773 Clouds 0 1014 91 0 0.45 87 06:30 26.12.2019
5774 Clouds -1 1014 92 0 0.79 56 05:45 26.12.2019
5775 Clouds -1 1014 88 0 0.39 121 04:38 26.12.2019
5776 Clouds 0 1014 87 0 0.45 87 03:47 26.12.2019
5777 Clouds 0 1013 86 0 0.89 32 02:54 26.12.2019
5778 Clouds 1 1013 85 0 1.79 40 02:32 26.12.2019
5779 Clouds 1 1013 82 0 1.79 40 01:46 26.12.2019
5780 Clouds 1 1013 80 0 1.34 40 01:27 26.12.2019
5781 Clouds 3 1013 76 0 1.79 31 00:48 26.12.2019
5782 Clouds 3 1012 75 0 1.79 31 00:24 26.12.2019
5783 Clouds 6 1011 46 0 0.75 303 23:58 25.12.2019
5784 Clouds 6 1011 46 0 0.75 303 23:38 25.12.2019
5785 Clouds 5 1011 50 0 1.72 213 23:20 25.12.2019
5786 Clouds 5 1011 50 0 1.72 213 22:58 25.12.2019
5787 Clouds 5 1011 50 0 1.72 213 22:38 25.12.2019
5788 Clouds 4 1012 73 0 1.34 17 22:20 25.12.2019
5789 Clouds 5 1011 50 0 1.72 213 21:57 25.12.2019
5790 Clouds 5 1011 50 0 1.72 213 21:39 25.12.2019
5791 Clouds 3 1013 79 0 0.45 95 21:19 25.12.2019
5792 Clouds 3 1013 81 0 0.89 113 20:54 25.12.2019
5793 Clouds 3 1013 79 0 0.89 102 20:36 25.12.2019
5794 Clouds 3 1013 81 0 0.45 89 20:18 25.12.2019
5795 Clouds 3 1013 85 0 0.45 73 19:42 25.12.2019
5796 Clouds 2 1013 90 0 0.89 56 19:22 25.12.2019
5797 Clouds 1 1013 92 0 0.89 70 18:56 25.12.2019
5798 Clouds 1 1013 92 0 0.45 62 18:36 25.12.2019
5799 Clouds 0 1013 93 0 1.58 233 18:18 25.12.2019
5800 Clouds 0 1013 95 0 1.58 233 17:40 25.12.2019
5801 Clouds -1 1012 95 0 0.45 64 17:19 25.12.2019
5802 Clouds -1 1012 96 0 0.45 36 16:57 25.12.2019
5803 Clouds -1 1012 96 0 0.45 64 16:37 25.12.2019
5804 Clouds -1 1012 95 0 2.3 258 16:18 25.12.2019
5805 Clouds -1 1012 95 0 2.3 258 16:18 25.12.2019
5806 Clouds -1 1011 95 0 2.3 258 15:56 25.12.2019
5807 Clouds -1 1011 95 0 0.45 67 15:38 25.12.2019
5808 Clouds -1 1011 95 0 0.45 67 15:38 25.12.2019
5809 Clouds -1 1011 95 0 0.45 67 15:19 25.12.2019
5810 Clouds -1 1011 95 0 0.45 67 15:19 25.12.2019
5811 Clouds -1 1011 95 0 0.89 67 14:56 25.12.2019
5812 Clouds -1 1011 95 0 0.45 91 14:37 25.12.2019
5813 Clouds -1 1011 95 0 2.47 258 14:19 25.12.2019
5814 Clouds -1 1011 94 0 2.47 258 13:44 25.12.2019
5815 Clouds -1 1011 94 0 2.43 259 13:21 25.12.2019
5816 Clouds -1 1011 94 0 0.45 50 12:56 25.12.2019
5817 Clouds 0 1011 94 0 2.43 259 12:38 25.12.2019
5818 Clouds 0 1011 94 0 2.43 259 12:19 25.12.2019
5819 Clouds 1 1011 93 0 2.43 259 11:43 25.12.2019
5820 Clouds 1 1011 93 0 1.84 239 11:22 25.12.2019
5821 Clouds 1 1011 93 0 0.45 50 10:59 25.12.2019
5822 Clouds 1 1011 93 0 0.45 67 10:36 25.12.2019
5823 Clouds 1 1011 93 0 0.89 19 10:18 25.12.2019
5824 Clouds 1 1011 92 0 1.84 239 09:43 25.12.2019
5825 Clouds 1 1011 91 0 1.84 239 09:25 25.12.2019
5826 Clouds 1 1011 93 0 0.45 206 08:46 25.12.2019
5827 Clouds 1 1011 93 0 1.84 239 08:26 25.12.2019
5828 Clouds 1 1011 93 0 1.17 220 07:45 25.12.2019
5829 Clouds 1 1011 91 0 1.17 220 07:23 25.12.2019
5830 Clouds 1 1011 91 0 1.17 220 06:49 25.12.2019
5831 Clouds 1 1011 91 0 1.17 220 06:22 25.12.2019
5832 Clouds 2 1011 82 0 0.89 331 04:50 25.12.2019
5833 Clouds 2 1011 81 0 0.89 329 04:26 25.12.2019
5834 Clouds 2 1011 82 0 0.89 358 03:58 25.12.2019
5835 Clouds 2 1011 89 0 0.34 17 03:40 25.12.2019
5836 Clouds 2 1011 79 0 0.34 17 02:39 25.12.2019
5837 Clouds 2 1011 75 0 0.95 200 01:58 25.12.2019
5838 Clouds 3 1011 76 0 1.23 210 01:25 25.12.2019
5839 Clouds 3 1011 74 0 0.89 318 00:50 25.12.2019
5840 Clouds 3 1011 73 0 1.23 210 00:29 25.12.2019
5841 Clouds 3 1011 72 0 0.89 324 23:56 24.12.2019
5842 Clouds 3 1011 73 0 0.89 270 23:37 24.12.2019
5843 Clouds 3 1011 74 0 1.79 268 23:19 24.12.2019
5844 Clouds 4 1011 70 0 0.45 278 22:40 24.12.2019
5845 Clouds 4 1011 74 0 0.45 335 22:21 24.12.2019
5846 Clouds 4 1011 75 0 0.59 139 21:43 24.12.2019
5847 Clouds 3 1012 75 0 0.89 276 21:22 24.12.2019
5848 Clouds 4 1012 74 0 0.89 288 20:54 24.12.2019
5849 Clouds 5 1012 75 0 0.45 322 20:36 24.12.2019
5850 Clouds 5 1011 72 0 0.76 240 20:18 24.12.2019
5851 Clouds 5 1012 74 0 0.64 253 20:18 24.12.2019
5852 Clouds 3 1013 81 0 0.45 312 19:43 24.12.2019
5853 Clouds 3 1013 81 0 0.76 240 19:19 24.12.2019
5854 Clouds 2 1014 85 0 0.45 339 18:43 24.12.2019
5855 Clouds 2 1014 88 0 0.45 344 18:23 24.12.2019
5856 Clouds 2 1014 90 0 0.76 240 17:58 24.12.2019
5857 Clouds 1 1014 94 0 0.76 240 17:37 24.12.2019
5858 Clouds 0 1014 94 0 0.76 277 17:19 24.12.2019
5859 Clouds -1 1013 94 0 0.76 277 16:55 24.12.2019
5860 Clouds -1 1013 94 0 0.76 277 16:36 24.12.2019
5861 Clouds -1 1013 93 0 0.76 277 16:18 24.12.2019
5862 Clouds -1 1013 93 0 0.76 277 15:54 24.12.2019
5863 Clouds -1 1013 94 0 0.76 277 15:36 24.12.2019
5864 Clouds -1 1013 95 0 0.76 277 15:18 24.12.2019
5865 Clouds 0 1013 95 0 0.76 277 14:54 24.12.2019
5866 Clouds 0 1013 96 0 0.76 277 14:36 24.12.2019
5867 Clouds 0 1013 96 0 0.76 277 14:36 24.12.2019
5868 Clouds -1 1013 95 0 1.01 277 14:18 24.12.2019
5869 Clouds -1 1013 95 0 1.01 277 13:54 24.12.2019
5870 Clouds -1 1013 95 0 1.01 277 13:36 24.12.2019
5871 Clouds -1 1013 94 0 0.93 272 13:18 24.12.2019
5872 Clouds -1 1013 94 0 0.93 272 12:54 24.12.2019
5873 Clouds -1 1013 92 0 0.45 107 12:36 24.12.2019
5874 Clouds -1 1013 93 0 0.89 113 12:18 24.12.2019
5875 Clouds 0 1013 94 0 0.89 108 11:54 24.12.2019
5876 Clouds 0 1013 95 0 1.34 67 11:36 24.12.2019
5877 Clouds 0 1013 96 0 0.45 111 11:18 24.12.2019
5878 Clouds 0 1013 94 0 1.34 112 10:54 24.12.2019
5879 Clouds 1 1012 94 0 0.45 112 10:36 24.12.2019
5880 Clouds 1 1013 95 0 0.89 112 10:18 24.12.2019
5881 Clouds 1 1013 95 0 0.45 112 09:54 24.12.2019
5882 Clouds 1 1013 95 0 0.89 112 09:36 24.12.2019
5883 Clouds 1 1013 96 0 1.1 220 09:18 24.12.2019
5884 Clouds 1 1013 96 0 0.45 87 08:42 24.12.2019
5885 Rain 1 1013 96 0 0.64 203 08:19 24.12.2019
5886 Rain 1 1013 96 0 0.52 124 07:44 24.12.2019
5887 Rain 1 1013 96 0 0.52 124 07:22 24.12.2019
5888 Rain 0 1013 96 0 0.52 124 06:41 24.12.2019
5889 Rain 1 1013 96 0 0.89 76 06:22 24.12.2019
5890 Rain 1 1012 96 0 0.45 75 05:56 24.12.2019
5891 Clouds 0 1011 95 0 0.45 73 05:20 24.12.2019
5892 Clouds 1 1011 95 0 0.89 82 04:33 24.12.2019
5893 Clouds 0 1012 95 0 0.45 81 03:50 24.12.2019
5894 Clouds 0 1011 94 0 0.89 73 02:59 24.12.2019
5895 Clouds 1 1011 93 0 0.45 68 02:19 24.12.2019
5896 Clouds 1 1011 92 0 1.46 123 01:42 24.12.2019
5897 Clouds 1 1011 92 0 0.89 40 01:19 24.12.2019
5898 Rain 2 1011 89 0 0.45 324 00:41 24.12.2019
5899 Rain 2 1011 89 0 1.07 107 00:22 24.12.2019
5900 Rain 2 1010 90 0 1.07 107 23:55 23.12.2019
5901 Rain 2 1010 89 0 0.45 324 23:37 23.12.2019
5902 Rain 2 1010 89 0 0.45 324 23:37 23.12.2019
5903 Rain 2 1010 90 0 0.45 324 23:19 23.12.2019
5904 Rain 2 1010 90 0 0.45 319 22:54 23.12.2019
5905 Rain 2 1010 89 0 1.46 74 22:36 23.12.2019
5906 Rain 2 1011 88 0 1.46 74 22:18 23.12.2019
5907 Rain 2 1011 88 0 1.46 74 22:18 23.12.2019
5908 Rain 2 1010 87 0 1.46 74 21:54 23.12.2019
5909 Rain 2 1011 89 0 0.45 350 21:36 23.12.2019
5910 Rain 2 1011 89 0 1.46 74 21:18 23.12.2019
5911 Rain 2 1012 90 0 1.46 74 20:56 23.12.2019
5912 Rain 2 1011 90 0 0.45 350 20:38 23.12.2019
5913 Rain 1 1012 92 0 0.86 329 20:18 23.12.2019
5914 Rain 1 1012 91 0 0.86 329 19:54 23.12.2019
5915 Rain 1 1013 90 0 0.86 329 19:36 23.12.2019
5916 Rain 1 1013 92 0 0.86 329 19:18 23.12.2019
5917 Rain 1 1013 91 0 1.34 57 18:54 23.12.2019
5918 Rain 1 1013 90 0 1.34 50 18:36 23.12.2019
5919 Rain 1 1014 90 0 0.45 67 18:18 23.12.2019
5920 Rain 1 1013 91 0 0.45 62 17:55 23.12.2019
5921 Rain 0 1013 93 0 0.45 65 17:37 23.12.2019
5922 Rain 0 1013 93 0 0.45 65 17:37 23.12.2019
5923 Rain 0 1014 93 0 1.67 358 17:18 23.12.2019
5924 Rain 0 1013 93 0 0.89 89 16:42 23.12.2019
5925 Rain 0 1013 93 0 0.45 55 16:19 23.12.2019
5926 Rain 0 1013 93 0 0.45 55 16:19 23.12.2019
5927 Rain 0 1013 93 0 0.45 55 16:19 23.12.2019
5928 Rain 0 1013 93 0 0.45 10 15:58 23.12.2019
5929 Rain 5 1013 81 0 1.67 358 15:38 23.12.2019
5930 Rain 0 1013 91 0 1.67 358 15:19 23.12.2019
5931 Rain 0 1013 91 0 1.67 358 14:58 23.12.2019
5932 Rain 0 1013 91 0 1.67 358 14:39 23.12.2019
5933 Clouds 0 1013 91 0 1.66 335 14:21 23.12.2019
5934 Clouds 1 1012 90 0 0.45 123 13:58 23.12.2019
5935 Clouds 1 1012 88 0 0.89 214 13:40 23.12.2019
5936 Rain 1 1012 86 0 1.72 329 13:22 23.12.2019
5937 Rain 1 1012 87 0 0.45 40 12:56 23.12.2019
5938 Rain 1 1012 86 0 1.72 329 12:37 23.12.2019
5939 Rain 1 1012 84 0 0.45 243 12:19 23.12.2019
5940 Rain 2 1012 79 0 0.45 243 11:44 23.12.2019
5941 Rain 2 1012 79 0 1.72 329 11:25 23.12.2019
5942 Clouds 2 1013 77 0 2.68 236 10:57 23.12.2019
5943 Clouds 2 1013 77 0 2.68 236 10:57 23.12.2019
5944 Clouds 3 1013 73 0 3.13 219 10:39 23.12.2019
5945 Clouds 3 1012 63 0 0.45 270 10:20 23.12.2019
5946 Clouds 3 1012 66 0 1.13 225 09:59 23.12.2019
5947 Clouds 3 1012 65 0 1.34 241 09:39 23.12.2019
5948 Clouds 8 1011 45 0 1.13 225 09:20 23.12.2019
5949 Clouds 8 1011 45 0 1.13 225 08:56 23.12.2019
5950 Clouds 8 1011 45 0 1.13 225 08:38 23.12.2019
5951 Clouds 7 1012 39 0 1.29 182 08:19 23.12.2019
5952 Clouds 7 1012 39 0 1.29 182 07:43 23.12.2019
5953 Clouds 7 1012 39 0 1.29 182 07:20 23.12.2019
5954 Clouds 7 1012 39 0 1.29 182 06:52 23.12.2019
5955 Clouds 7 1012 39 0 1.29 182 06:25 23.12.2019
5956 Clouds 7 1012 39 0 1.29 182 05:50 23.12.2019
5957 Clouds 7 1012 39 0 1.29 182 05:27 23.12.2019
5958 Clouds 7 1013 34 0 1.79 152 04:31 23.12.2019
5959 Clouds 7 1013 31 0 1.34 152 02:58 23.12.2019
5960 Clouds 7 1012 31 0 1.34 87 02:40 23.12.2019
5961 Clouds 7 1012 31 0 1.79 90 02:18 23.12.2019
5962 Clouds 7 1012 31 0 1.79 90 02:18 23.12.2019
5963 Clouds 8 1012 31 0 1.34 86 01:41 23.12.2019
5964 Clouds 8 1013 28 0 1.34 147 01:19 23.12.2019
5965 Clouds 11 1011 28 0 2.93 168 00:43 23.12.2019
5966 Clouds 11 1011 28 0 2.93 168 00:21 23.12.2019
5967 Clouds 11 1011 28 0 2.93 168 23:39 22.12.2019
5968 Clouds 11 1011 28 0 2.93 168 23:39 22.12.2019
5969 Clouds 12 1013 20 0 2.68 186 23:21 22.12.2019
5970 Clouds 13 1011 21 0 3.53 163 22:58 22.12.2019
5971 Clouds 13 1011 21 0 3.53 163 22:39 22.12.2019
5972 Clouds 12 1013 21 0 3.58 157 22:19 22.12.2019
5973 Clouds 12 1013 22 0 2.24 73 21:57 22.12.2019
5974 Clouds 13 1013 23 0 1.79 31 21:39 22.12.2019
5975 Clouds 12 1014 25 0 2.24 81 21:21 22.12.2019
5976 Clouds 12 1014 25 0 3.13 358 20:57 22.12.2019
5977 Clouds 9 1015 31 0 2.24 73 20:38 22.12.2019
5978 Clouds 7 1015 33 0 1.34 55 20:18 22.12.2019
5979 Clouds 8 1016 31 0 1.79 71 19:55 22.12.2019
5980 Clouds 7 1016 32 0 2.24 26 19:37 22.12.2019
5981 Clouds 8 1017 31 0 2.24 59 19:19 22.12.2019
5982 Clouds 7 1017 33 0 1.34 40 18:40 22.12.2019
5983 Clouds 6 1017 32 0 3.13 77 18:22 22.12.2019
5984 Clouds 6 1017 33 0 1.34 95 17:55 22.12.2019
5985 Clouds 5 1017 36 0 1.79 87 17:37 22.12.2019
5986 Clouds 4 1017 36 0 2.24 91 17:18 22.12.2019
5987 Clouds 4 1017 37 0 0.45 89 16:56 22.12.2019
5988 Clouds 4 1017 37 0 0.45 89 16:56 22.12.2019
5989 Clouds 4 1017 38 0 0.89 80 16:38 22.12.2019
5990 Clouds 4 1017 39 0 0.89 96 16:19 22.12.2019
5991 Clouds 4 1017 38 0 0.89 76 15:56 22.12.2019
5992 Clouds 4 1017 37 0 1.79 33 15:37 22.12.2019
5993 Clouds 4 1017 38 0 1.34 81 15:19 22.12.2019
5994 Clouds 4 1017 38 0 0.45 90 14:54 22.12.2019
5995 Clouds 4 1017 40 0 1.34 73 14:36 22.12.2019
5996 Clouds 3 1017 42 0 1.79 81 14:18 22.12.2019
5997 Clouds 2 1017 44 0 1.11 127 13:55 22.12.2019
5998 Clouds 3 1018 45 0 1.11 127 13:36 22.12.2019
5999 Clouds 3 1018 45 0 0.45 64 13:18 22.12.2019
6000 Clouds 3 1018 44 0 1.34 87 12:55 22.12.2019
6001 Clouds 1 1018 52 0 0.45 213 12:37 22.12.2019
6002 Clouds 1 1018 51 0 1.1 124 12:18 22.12.2019
6003 Clouds 2 1019 49 0 1.1 124 11:54 22.12.2019
6004 Clouds 2 1019 48 0 0.45 85 11:36 22.12.2019
6005 Clouds 2 1019 48 0 0.45 85 11:18 22.12.2019
6006 Clouds 2 1019 46 0 0.63 118 10:54 22.12.2019
6007 Clouds 2 1019 49 0 0.63 118 10:36 22.12.2019
6008 Clouds 2 1019 49 0 0.63 118 10:18 22.12.2019
6009 Clouds 2 1019 48 0 0.45 322 09:40 22.12.2019
6010 Clouds 3 1020 45 0 0.63 118 09:22 22.12.2019
6011 Clouds 3 1020 43 0 0.63 118 08:59 22.12.2019
6012 Clouds 4 1020 41 0 0.89 245 08:38 22.12.2019
6013 Clouds 3 1021 43 0 0.45 171 08:18 22.12.2019
6014 Clouds 3 1021 43 0 0.45 171 08:18 22.12.2019
6015 Clouds 3 1021 44 0 0.89 36 07:38 22.12.2019
6016 Clouds 2 1021 48 0 1.27 125 07:20 22.12.2019
6017 Clouds 3 1021 45 0 1.27 125 06:40 22.12.2019
6018 Clouds 3 1021 44 0 0.89 62 05:54 22.12.2019
6019 Clouds 3 1022 45 0 0.89 96 05:21 22.12.2019
6020 Clouds 3 1022 47 0 1.15 151 04:29 22.12.2019
6021 Clouds 3 1022 47 0 0.89 45 03:53 22.12.2019
6022 Clouds 3 1022 47 0 1.15 151 02:42 22.12.2019
6023 Clouds 4 1022 43 0 0.84 109 01:51 22.12.2019
6024 Clouds 6 1022 42 0 0.45 155 01:30 22.12.2019
6025 Clouds 7 1022 34 0 1.34 24 00:47 22.12.2019
6026 Clouds 8 1022 33 0 1.34 50 00:24 22.12.2019
6027 Clouds 8 1022 31 0 1.34 40 23:57 21.12.2019
6028 Clouds 9 1022 29 0 1.79 40 23:38 21.12.2019
6029 Clouds 9 1022 29 0 1.79 2 23:19 21.12.2019
6030 Clouds 10 1022 30 0 2.24 64 22:41 21.12.2019
6031 Clouds 10 1022 29 0 2.24 99 22:20 21.12.2019
6032 Clouds 12 1022 27 0 2.68 33 21:57 21.12.2019
6033 Clouds 12 1023 28 0 1.79 35 21:38 21.12.2019
6034 Clouds 12 1023 28 0 1.34 9 21:20 21.12.2019
6035 Clouds 11 1024 30 0 1.34 62 20:59 21.12.2019
6036 Clouds 11 1024 33 0 1.34 57 20:40 21.12.2019
6037 Clouds 10 1025 33 0 1.34 360 20:22 21.12.2019
6038 Clouds 9 1025 35 0 1.34 50 19:58 21.12.2019
6039 Clouds 9 1026 36 0 1.79 70 19:40 21.12.2019
6040 Clouds 8 1026 38 0 1.34 91 19:19 21.12.2019
6041 Clouds 8 1026 38 0 2.24 100 18:56 21.12.2019
6042 Clouds 8 1026 38 0 1.34 40 18:37 21.12.2019
6043 Clouds 7 1026 40 0 2.68 103 18:19 21.12.2019
6044 Clouds 6 1026 42 0 1.79 89 17:55 21.12.2019
6045 Clouds 6 1026 42 0 1.79 89 17:55 21.12.2019
6046 Clouds 6 1026 42 0 1.79 89 17:55 21.12.2019
6047 Clouds 5 1026 44 0 2.24 89 17:37 21.12.2019
6048 Clouds 4 1026 45 0 1.79 58 17:18 21.12.2019
6049 Clouds 3 1026 49 0 2.24 108 16:41 21.12.2019
6050 Clouds 3 1026 50 0 0.45 151 16:19 21.12.2019
6051 Clouds 3 1026 50 0 0.45 151 16:19 21.12.2019
6052 Clouds 1 1026 55 0 2.24 75 15:58 21.12.2019
6053 Clouds -1 1026 60 0 0.89 77 15:39 21.12.2019
6054 Clouds 5 1023 46 0 1.06 20 15:20 21.12.2019
6055 Clouds 0 1026 60 0 1.06 20 14:59 21.12.2019
6056 Clouds 0 1026 59 0 0.89 334 14:40 21.12.2019
6057 Clouds 1 1026 58 0 1.19 20 14:22 21.12.2019
6058 Clouds 1 1026 56 0 1.19 20 13:57 21.12.2019
6059 Clouds 2 1026 54 0 1.19 20 13:38 21.12.2019
6060 Clouds 1 1026 56 0 0.95 35 13:18 21.12.2019
6061 Clouds 1 1027 60 0 0.95 35 12:56 21.12.2019
6062 Clouds 1 1027 58 0 0.45 23 12:37 21.12.2019
6063 Clouds 1 1027 58 0 0.95 35 12:19 21.12.2019
6064 Clouds 1 1027 58 0 0.95 35 11:45 21.12.2019
6065 Clouds 1 1027 57 0 0.95 35 11:26 21.12.2019
6066 Clouds 2 1027 53 0 0.94 47 10:57 21.12.2019
6067 Clouds 2 1028 52 0 0.45 271 10:39 21.12.2019
6068 Clouds 2 1028 52 0 0.94 47 10:21 21.12.2019
6069 Clouds 2 1028 52 0 0.94 47 09:56 21.12.2019
6070 Clouds 2 1028 55 0 0.45 27 09:38 21.12.2019
6071 Clouds 1 1028 60 0 0.94 47 09:19 21.12.2019
6072 Clouds 1 1028 57 0 0.94 47 08:46 21.12.2019
6073 Clouds 1 1029 55 0 0.94 47 08:26 21.12.2019
6074 Clouds 1 1029 57 0 1.05 37 07:47 21.12.2019
6075 Clouds 1 1030 59 0 1.05 37 07:23 21.12.2019
6076 Clouds 1 1030 59 0 1.05 37 07:23 21.12.2019
6077 Clouds 1 1029 57 0 1.05 37 06:46 21.12.2019
6078 Clouds 1 1029 58 0 1.05 37 06:28 21.12.2019
6079 Clouds 1 1030 57 0 1.05 37 05:55 21.12.2019
6080 Clouds 1 1029 59 0 1.65 10 04:58 21.12.2019
6081 Clouds 1 1030 57 0 1.65 10 04:19 21.12.2019
6082 Clouds 1 1030 58 0 1.65 10 03:56 21.12.2019
6083 Clouds 5 1029 43 0 0.82 4 02:19 21.12.2019
6084 Clouds 7 1029 36 0 0.82 4 01:41 21.12.2019
6085 Clouds 9 1029 30 0 0.89 160 01:23 21.12.2019
6086 Clouds 9 1025 35 0 0.77 9 00:39 21.12.2019
6087 Clouds 9 1025 35 0 0.77 9 00:19 21.12.2019
6088 Clouds 9 1025 35 0 0.77 9 23:38 20.12.2019
6089 Clouds 11 1025 25 0 1.47 97 23:20 20.12.2019
6090 Clouds 11 1025 25 0 1.47 97 22:57 20.12.2019
6091 Clouds 11 1025 25 0 1.47 97 22:36 20.12.2019
6092 Clouds 11 1025 25 0 1.47 97 22:18 20.12.2019
6093 Clouds 14 1028 23 0 1.79 71 21:41 20.12.2019
6094 Clouds 13 1029 24 0 1.79 30 21:21 20.12.2019
6095 Clouds 13 1029 24 0 1.79 30 21:21 20.12.2019
6096 Clouds 13 1029 24 0 1.34 45 20:57 20.12.2019
6097 Clouds 13 1030 24 0 0.89 69 20:38 20.12.2019
6098 Clouds 9 1027 25 0 1.23 52 20:18 20.12.2019
6099 Clouds 9 1027 25 0 1.23 52 19:42 20.12.2019
6100 Clouds 9 1027 25 0 1.23 52 19:21 20.12.2019
6101 Clouds 9 1027 25 0 1.23 52 18:58 20.12.2019
6102 Clouds 12 1031 28 0 0.45 66 18:39 20.12.2019
6103 Clouds 11 1030 32 0 1.23 52 18:21 20.12.2019
6104 Clouds 9 1031 37 0 1.23 52 17:56 20.12.2019
6105 Clouds 9 1031 37 0 1.23 52 17:56 20.12.2019
6106 Clouds 4 1031 52 0 1.23 52 17:38 20.12.2019
6107 Clouds 2 1031 61 0 1.45 14 17:20 20.12.2019
6108 Clouds 0 1031 66 0 1.45 14 16:56 20.12.2019
6109 Clouds -2 1030 67 0 1.45 14 16:37 20.12.2019
6110 Clouds -3 1030 71 0 1.45 14 16:19 20.12.2019
6111 Clouds -3 1030 70 0 1.45 14 15:54 20.12.2019
6112 Clouds -3 1029 68 0 1.45 14 15:36 20.12.2019
6113 Clouds -2 1029 67 0 0.45 333 15:18 20.12.2019
6114 Clouds -2 1030 66 0 1.45 14 14:41 20.12.2019
6115 Clouds -2 1030 66 0 1.45 14 14:41 20.12.2019
6116 Clouds -2 1029 64 0 1.45 14 14:23 20.12.2019
6117 Clouds -2 1029 65 0 0.45 333 13:56 20.12.2019
6118 Clouds -2 1029 66 0 1.31 21 13:37 20.12.2019
6119 Clouds -2 1029 65 0 1.22 37 13:18 20.12.2019
6120 Clouds -2 1029 64 0 1.22 37 12:55 20.12.2019
6121 Clouds -1 1029 62 0 1.22 37 12:36 20.12.2019
6122 Clouds -1 1029 61 0 1.22 37 12:18 20.12.2019
6123 Clouds -1 1029 60 0 1.22 37 11:57 20.12.2019
6124 Clouds 0 1029 57 0 1.22 37 11:38 20.12.2019
6125 Clouds 1 1030 56 0 1.26 28 11:18 20.12.2019
6126 Clouds -1 1029 58 0 1.26 28 10:55 20.12.2019
6127 Clouds 4 1026 35 0 1.26 28 10:37 20.12.2019
6128 Clouds -2 1029 61 0 1.26 28 10:18 20.12.2019
6129 Clouds 4 1026 35 0 1.26 28 09:42 20.12.2019
6130 Clouds -1 1029 56 0 1.26 28 09:21 20.12.2019
6131 Clouds 4 1026 35 0 1.26 28 08:54 20.12.2019
6132 Clouds -1 1030 55 0 1.26 28 08:36 20.12.2019
6133 Clear -1 1030 54 0 0.91 9 08:18 20.12.2019
6134 Clear -1 1030 54 0 0.91 9 07:41 20.12.2019
6135 Clear -1 1030 54 0 0.91 9 07:23 20.12.2019
6136 Clear -1 1029 52 0 0.91 9 06:55 20.12.2019
6137 Clear -1 1029 51 0 0.91 9 06:36 20.12.2019
6138 Clear -1 1029 53 0 0.45 18 06:18 20.12.2019
6139 Clear -1 1028 55 0 0.91 9 05:45 20.12.2019
6140 Clear -1 1028 51 0 0.74 15 04:46 20.12.2019
6141 Clear 1 1027 49 0 0.74 15 03:33 20.12.2019
6142 Clear 2 1027 43 0 0.74 15 02:45 20.12.2019
6143 Clear 6 1026 32 0 0.7 104 01:55 20.12.2019
6144 Clear 8 1022 29 0 0.7 104 01:35 20.12.2019
6145 Clouds 8 1022 29 0 0.61 117 00:54 20.12.2019
6146 Clouds 8 1022 29 0 0.61 117 00:35 20.12.2019
6147 Clouds 8 1022 29 0 0.61 117 23:57 19.12.2019
6148 Clouds 8 1022 29 0 0.61 117 23:39 19.12.2019
6149 Clouds 9 1021 20 0 1.02 105 23:19 19.12.2019
6150 Clouds 9 1021 20 0 1.02 105 22:39 19.12.2019
6151 Clouds 9 1021 20 0 1.02 105 22:21 19.12.2019
6152 Clouds 9 1021 20 0 1.02 105 21:56 19.12.2019
6153 Clouds 14 1025 18 0 1.34 64 21:38 19.12.2019
6154 Clouds 13 1025 18 0 1.79 91 21:19 19.12.2019
6155 Clouds 13 1025 17 0 1.34 94 20:56 19.12.2019
6156 Clouds 9 1021 20 0 1.02 105 20:37 19.12.2019
6157 Clouds 7 1023 19 0 0.96 64 20:19 19.12.2019
6158 Clouds 7 1023 19 0 0.96 64 19:58 19.12.2019
6159 Clouds 7 1023 19 0 0.96 64 19:58 19.12.2019
6160 Clouds 7 1023 19 0 0.96 64 19:39 19.12.2019
6161 Clouds 7 1023 19 0 0.96 64 19:19 19.12.2019
6162 Clouds 7 1023 19 0 0.96 64 19:19 19.12.2019
6163 Clouds 7 1023 19 0 0.96 64 19:19 19.12.2019
6164 Clouds 7 1023 19 0 0.96 64 18:57 19.12.2019
6165 Clouds 9 1026 20 0 0.89 326 18:39 19.12.2019
6166 Clouds 8 1026 21 0 1.34 338 18:19 19.12.2019
6167 Clouds 7 1026 23 0 1.34 341 17:55 19.12.2019
6168 Clouds 4 1026 25 0 1.79 342 17:37 19.12.2019
6169 Clear 1 1021 34 0 0.91 3 17:18 19.12.2019
6170 Clear 2 1026 30 0 0.45 339 16:55 19.12.2019
6171 Clear 0 1025 32 0 0.89 322 16:37 19.12.2019
6172 Clear 0 1025 33 0 1.34 323 16:19 19.12.2019
6173 Clear 0 1025 32 0 0.89 329 15:56 19.12.2019
6174 Clear 0 1025 31 0 1.79 333 15:37 19.12.2019
6175 Clear -1 1025 33 0 1.34 322 15:19 19.12.2019
6176 Clear -1 1025 33 0 1.34 322 15:19 19.12.2019
6177 Clear 0 1024 32 0 0.89 320 14:43 19.12.2019
6178 Clear -1 1024 36 0 1.79 335 14:20 19.12.2019
6179 Clear -4 1024 45 0 1.79 339 13:59 19.12.2019
6180 Clear 1 1020 37 0 0.73 276 13:38 19.12.2019
6181 Clear 1 1020 37 0 0.54 289 13:19 19.12.2019
6182 Clear 1 1020 37 0 0.54 289 12:57 19.12.2019
6183 Clear 1 1020 37 0 0.54 289 12:39 19.12.2019
6184 Clear 1 1020 37 0 0.54 289 12:19 19.12.2019
6185 Clear 1 1020 37 0 0.54 289 11:58 19.12.2019
6186 Clear 1 1020 37 0 0.54 289 11:40 19.12.2019
6187 Clear 1 1020 39 0 0.39 23 11:18 19.12.2019
6188 Clear 1 1020 39 0 0.39 23 11:18 19.12.2019
6189 Clear 1 1020 39 0 0.39 23 10:58 19.12.2019
6190 Clear 1 1020 39 0 0.39 23 10:38 19.12.2019
6191 Clear 1 1020 39 0 0.39 23 10:20 19.12.2019
6192 Clear 1 1020 39 0 0.39 23 09:56 19.12.2019
6193 Clear 1 1020 39 0 0.39 23 09:37 19.12.2019
6194 Clear 1 1020 39 0 0.39 23 09:18 19.12.2019
6195 Clear -4 1023 47 0 0.45 343 08:55 19.12.2019
6196 Clear -3 1023 43 0 0.39 23 08:36 19.12.2019
6197 Clouds -2 1023 42 0 1.08 342 08:18 19.12.2019
6198 Clouds -3 1024 43 0 0.45 273 07:40 19.12.2019
6199 Clouds -3 1023 46 0 0.45 359 07:22 19.12.2019
6200 Clouds -3 1023 43 0 1.08 342 06:58 19.12.2019
6201 Clouds -3 1023 43 0 1.34 314 06:39 19.12.2019
6202 Clouds -4 1023 47 0 1.08 342 06:21 19.12.2019
6203 Clouds 2 1020 38 0 1.08 342 05:42 19.12.2019
6204 Clouds -4 1023 49 0 1.59 8 05:19 19.12.2019
6205 Clouds -1 1021 39 0 1.59 8 03:51 19.12.2019
6206 Clouds 1 1021 33 0 1.79 35 02:28 19.12.2019
6207 Clouds 2 1020 29 0 1.34 32 01:25 19.12.2019
6208 Clouds 4 1020 26 0 1.34 16 00:57 19.12.2019
6209 Clouds 6 1018 28 0 0.99 77 00:38 19.12.2019
6210 Clouds 4 1020 26 0 1.79 69 00:19 19.12.2019
6211 Clouds 6 1020 24 0 1.79 32 23:44 18.12.2019
6212 Clouds 7 1020 24 0 1.79 31 23:19 18.12.2019
6213 Clouds 5 1020 25 0 0.89 56 22:58 18.12.2019
6214 Clouds 5 1020 25 0 1.34 62 22:39 18.12.2019
6215 Clouds 5 1020 25 0 1.34 62 22:39 18.12.2019
6216 Clouds 6 1020 25 0 1.79 79 22:21 18.12.2019
6217 Clouds 6 1021 24 0 1.79 50 21:59 18.12.2019
6218 Clouds 6 1021 25 0 0.45 88 21:40 18.12.2019
6219 Clouds 4 1021 25 0 1.34 6 21:20 18.12.2019
6220 Clouds 4 1021 26 0 1.34 40 20:57 18.12.2019
6221 Clouds 4 1022 26 0 1.34 50 20:38 18.12.2019
6222 Clouds 3 1022 25 0 2.24 64 20:20 18.12.2019
6223 Clouds 5 1022 24 0 1.79 54 19:57 18.12.2019
6224 Clouds 5 1021 22 0 1.17 90 19:39 18.12.2019
6225 Clouds 5 1021 22 0 1.17 90 19:19 18.12.2019
6226 Clouds 4 1023 23 0 1.79 158 18:56 18.12.2019
6227 Clouds 3 1024 24 0 1.34 133 18:37 18.12.2019
6228 Clouds 3 1024 25 0 0.89 141 18:18 18.12.2019
6229 Clouds 2 1024 27 0 1.17 90 17:55 18.12.2019
6230 Clouds 1 1024 29 0 1.17 90 17:37 18.12.2019
6231 Clouds 1 1024 29 0 0.45 62 17:18 18.12.2019
6232 Clouds 0 1024 31 0 0.69 98 16:42 18.12.2019
6233 Clouds 0 1024 29 0 1.79 173 16:24 18.12.2019
6234 Clouds -2 1024 30 0 0.69 98 15:57 18.12.2019
6235 Clouds -2 1024 37 0 0.89 87 15:39 18.12.2019
6236 Clouds -3 1025 38 0 0.69 98 15:21 18.12.2019
6237 Clouds -4 1025 42 0 0.45 154 14:56 18.12.2019
6238 Clouds -4 1025 42 0 0.45 154 14:56 18.12.2019
6239 Clouds -4 1025 43 0 0.69 98 14:38 18.12.2019
6240 Clouds 1 1022 28 0 1.75 358 14:19 18.12.2019
6241 Clouds 1 1022 28 0 1.75 358 13:55 18.12.2019
6242 Clouds -3 1025 34 0 1.75 358 13:36 18.12.2019
6243 Clouds -3 1025 34 0 1.53 357 13:18 18.12.2019
6244 Clouds -3 1025 34 0 1.53 357 13:18 18.12.2019
6245 Clouds -2 1025 33 0 0.45 310 12:40 18.12.2019
6246 Clouds -2 1025 33 0 0.45 212 12:22 18.12.2019
6247 Clouds -3 1024 34 0 0.89 80 11:57 18.12.2019
6248 Clouds -2 1025 34 0 0.45 223 11:39 18.12.2019
6249 Clouds -2 1025 32 0 0.89 85 11:20 18.12.2019
6250 Clouds -2 1025 33 0 0.45 60 10:59 18.12.2019
6251 Clouds -2 1025 35 0 1.6 26 10:40 18.12.2019
6252 Clouds -2 1026 36 0 0.45 7 10:21 18.12.2019
6253 Clouds -2 1026 36 0 0.45 50 09:59 18.12.2019
6254 Clouds -3 1027 39 0 1.6 26 09:21 18.12.2019
6255 Clouds -4 1027 42 0 1.6 26 08:57 18.12.2019
6256 Clouds -4 1027 42 0 1.6 26 08:57 18.12.2019
6257 Clouds 2 1023 32 0 1.6 26 08:39 18.12.2019
6258 Clouds -4 1028 47 0 2.32 33 08:20 18.12.2019
6259 Clouds -2 1028 39 0 2.32 33 07:42 18.12.2019
6260 Clouds -1 1028 37 0 2.32 33 07:21 18.12.2019
6261 Clouds -2 1028 42 0 2.32 33 06:53 18.12.2019
6262 Clouds -2 1029 44 0 2.32 33 06:26 18.12.2019
6263 Clouds -2 1029 44 0 2.32 33 05:39 18.12.2019
6264 Clouds -2 1029 47 0 2.24 22 04:35 18.12.2019
6265 Clouds -1 1030 38 0 2.24 22 02:50 18.12.2019
6266 Clouds 0 1030 38 0 2.24 22 02:30 18.12.2019
6267 Clouds 2 1030 25 0 0.89 85 01:47 18.12.2019
6268 Clouds 2 1030 23 0 0.89 77 01:28 18.12.2019
6269 Clouds 3 1030 22 0 1.34 45 00:59 18.12.2019
6270 Clouds 4 1030 22 0 1.34 45 00:40 18.12.2019
6271 Clouds 4 1030 22 0 1.34 58 00:21 18.12.2019
6272 Clouds 5 1030 21 0 1.79 45 23:54 17.12.2019
6273 Clouds 5 1030 19 0 2.24 29 23:36 17.12.2019
6274 Clouds 6 1030 20 0 1.79 19 23:18 17.12.2019
6275 Clouds 6 1030 20 0 1.79 65 22:54 17.12.2019
6276 Clouds 6 1031 19 0 1.34 78 22:36 17.12.2019
6277 Clouds 7 1031 19 0 1.34 31 22:18 17.12.2019
6278 Clouds 7 1031 19 0 1.34 83 21:55 17.12.2019
6279 Clouds 9 1032 18 0 0.89 67 21:36 17.12.2019
6280 Clouds 9 1032 18 0 0.89 67 21:18 17.12.2019
6281 Clouds 8 1033 16 0 0.89 94 20:55 17.12.2019
6282 Clouds 7 1033 17 0 0.45 108 20:36 17.12.2019
6283 Clouds 4 1032 23 0 3.44 27 20:18 17.12.2019
6284 Clouds 4 1032 23 0 3.44 27 19:41 17.12.2019
6285 Clouds 4 1035 22 0 3.44 27 19:20 17.12.2019
6286 Clouds 3 1035 23 0 3.44 27 18:58 17.12.2019
6287 Clouds 3 1035 23 0 0.45 221 18:40 17.12.2019
6288 Clouds 3 1035 25 0 0.45 194 18:21 17.12.2019
6289 Clouds 3 1035 28 0 0.45 299 17:58 17.12.2019
6290 Clouds 2 1035 32 0 0.45 19 17:40 17.12.2019
6291 Clouds 0 1035 36 0 3.23 10 17:19 17.12.2019
6292 Clouds -2 1035 42 0 3.23 10 16:56 17.12.2019
6293 Clouds 1 1033 29 0 3.23 10 16:37 17.12.2019
6294 Clouds 1 1033 29 0 3.23 10 16:37 17.12.2019
6295 Clouds 1 1033 29 0 3.23 10 16:19 17.12.2019
6296 Clouds 1 1033 29 0 3.23 10 15:55 17.12.2019
6297 Clouds -4 1035 44 0 3.23 10 15:37 17.12.2019
6298 Clouds -4 1035 41 0 3.23 10 15:18 17.12.2019
6299 Clouds -4 1035 40 0 3.23 10 14:55 17.12.2019
6300 Clouds -3 1035 40 0 3.23 10 14:36 17.12.2019
6301 Clouds -3 1035 40 0 3.23 10 14:36 17.12.2019
6302 Clear -3 1035 36 0 0.89 341 14:18 17.12.2019
6303 Clear -2 1034 36 0 0.89 267 13:55 17.12.2019
6304 Clear -3 1034 37 0 0.45 329 13:37 17.12.2019
6305 Clear -2 1034 35 0 3.75 17 13:18 17.12.2019
6306 Clear -1 1034 26 0 0.45 352 12:40 17.12.2019
6307 Clear -2 1034 30 0 3.58 349 12:19 17.12.2019
6308 Clear -4 1034 40 0 1.79 345 11:59 17.12.2019
6309 Clear -3 1034 42 0 0.89 302 11:37 17.12.2019
6310 Clear -3 1034 38 0 0.89 351 11:19 17.12.2019
6311 Clear -3 1034 44 0 0.45 358 10:59 17.12.2019
6312 Clear -3 1034 44 0 0.45 107 10:40 17.12.2019
6313 Clear -1 1034 39 0 0.45 7 10:21 17.12.2019
6314 Clear -1 1034 38 0 0.89 33 09:59 17.12.2019
6315 Clear 0 1034 36 0 0.89 318 09:41 17.12.2019
6316 Clear 0 1034 36 0 0.89 318 09:41 17.12.2019
6317 Clear 1 1034 33 0 2.68 350 09:20 17.12.2019
6318 Clear 1 1034 32 0 2.68 309 08:56 17.12.2019
6319 Clear 0 1034 35 0 2.24 325 08:38 17.12.2019
6320 Clear 0 1035 39 0 0.89 334 08:19 17.12.2019
6321 Clear 1 1035 37 0 1.79 349 07:46 17.12.2019
6322 Clear 1 1035 37 0 2.68 346 07:26 17.12.2019
6323 Clear 1 1035 37 0 4.02 360 06:56 17.12.2019
6324 Clear 1 1034 35 0 3.58 353 06:35 17.12.2019
6325 Clear 1 1034 37 0 3.58 5 05:53 17.12.2019
6326 Clear 1 1034 37 0 2.24 6 05:35 17.12.2019
6327 Clear 1 1033 36 0 3.58 6 04:30 17.12.2019
6328 Clear 2 1033 35 0 4.02 348 02:34 17.12.2019
6329 Clear 2 1032 34 0 2.24 348 01:55 17.12.2019
6330 Clear 5 1028 25 0 3.74 21 00:59 17.12.2019
6331 Clear 5 1028 25 0 3.74 21 00:38 17.12.2019
6332 Clear 5 1028 25 0 3.74 21 00:19 17.12.2019
6333 Clear 5 1028 25 0 3.74 21 23:41 16.12.2019
6334 Clear 6 1028 24 0 5.1 28 23:19 16.12.2019
6335 Clear 6 1028 24 0 5.1 28 23:19 16.12.2019
6336 Clear 6 1028 24 0 5.1 28 22:56 16.12.2019
6337 Clear 6 1028 24 0 5.1 28 22:37 16.12.2019
6338 Clear 6 1028 24 0 5.1 28 22:19 16.12.2019
6339 Clear 6 1028 24 0 5.1 28 22:19 16.12.2019
6340 Clear 6 1028 24 0 5.1 28 21:55 16.12.2019
6341 Clear 6 1028 24 0 5.1 28 21:55 16.12.2019
6342 Clear 6 1028 24 0 5.1 28 21:37 16.12.2019
6343 Clear 6 1028 24 0 5.1 28 21:19 16.12.2019
6344 Clear 6 1028 24 0 5.1 28 20:57 16.12.2019
6345 Clear 6 1028 24 0 5.1 28 20:37 16.12.2019
6346 Clouds 5 1030 30 0 5.1 25 20:19 16.12.2019
6347 Clouds 5 1030 28 0 4.85 28 19:56 16.12.2019
6348 Clouds 5 1030 28 0 4.85 28 19:37 16.12.2019
6349 Clouds 5 1030 28 0 4.85 28 19:19 16.12.2019
6350 Clouds 5 1030 28 0 4.85 28 18:56 16.12.2019
6351 Clouds 5 1030 28 0 4.85 28 18:56 16.12.2019
6352 Clouds 6 1032 34 0 2.24 360 18:38 16.12.2019
6353 Clouds 6 1032 34 0 2.24 360 18:38 16.12.2019
6354 Clouds 5 1032 36 0 0.89 60 18:19 16.12.2019
6355 Clouds 3 1032 40 0 1.79 360 17:57 16.12.2019
6356 Clouds 3 1031 40 0 0.45 155 17:38 16.12.2019
6357 Clouds 2 1028 46 0 3.84 7 17:20 16.12.2019
6358 Clouds 1 1031 42 0 3.58 353 16:56 16.12.2019
6359 Clouds -1 1030 51 0 3.13 17 16:38 16.12.2019
6360 Clouds 2 1028 46 0 3.84 7 16:19 16.12.2019
6361 Clouds 2 1028 46 0 3.84 7 15:57 16.12.2019
6362 Clouds 2 1028 46 0 3.84 7 15:38 16.12.2019
6363 Clouds -4 1029 65 0 3.84 7 15:20 16.12.2019
6364 Clouds -3 1029 63 0 3.84 7 14:55 16.12.2019
6365 Clouds -3 1028 61 0 3.84 7 14:37 16.12.2019
6366 Clouds -3 1028 61 0 3.84 7 14:37 16.12.2019
6367 Clouds -2 1028 59 0 3.38 10 14:18 16.12.2019
6368 Clouds -2 1028 59 0 3.38 10 14:18 16.12.2019
6369 Clouds -1 1028 56 0 0.89 183 13:56 16.12.2019
6370 Clouds -1 1027 54 0 0.45 152 13:37 16.12.2019
6371 Clouds 0 1027 50 0 3.27 8 13:19 16.12.2019
6372 Clouds 0 1027 50 0 2.24 360 12:56 16.12.2019
6373 Clouds -1 1027 52 0 4.47 352 12:38 16.12.2019
6374 Clouds -1 1027 54 0 3.13 347 12:18 16.12.2019
6375 Clouds -1 1027 56 0 0.89 304 11:57 16.12.2019
6376 Clouds -1 1027 57 0 1.34 338 11:39 16.12.2019
6377 Clouds -2 1026 58 0 2.88 6 11:19 16.12.2019
6378 Clouds -1 1026 56 0 0.89 333 10:54 16.12.2019
6379 Clouds -1 1026 55 0 0.89 336 10:36 16.12.2019
6380 Clouds -1 1025 56 0 0.89 328 10:18 16.12.2019
6381 Clouds -1 1025 56 0 0.45 312 09:44 16.12.2019
6382 Clouds -2 1025 59 0 2.88 6 09:26 16.12.2019
6383 Clouds -2 1024 57 0 1.34 320 08:41 16.12.2019
6384 Clear -3 1024 67 0 0.89 329 08:20 16.12.2019
6385 Clear -3 1024 64 0 1.33 21 07:53 16.12.2019
6386 Clear -3 1024 67 0 1.33 21 07:31 16.12.2019
6387 Clear -3 1024 66 0 1.33 21 06:59 16.12.2019
6388 Clear -3 1023 65 0 1.33 21 06:40 16.12.2019
6389 Clear -2 1023 62 0 1.33 21 06:21 16.12.2019
6390 Clear 0 1022 50 0 0.45 268 05:41 16.12.2019
6391 Clear 2 1022 46 0 1.79 333 05:23 16.12.2019
6392 Clear 1 1021 45 0 0.62 98 03:29 16.12.2019
6393 Clouds 4 1019 33 0 2.68 360 01:52 16.12.2019
6394 Clouds 6 1019 31 0 3.58 339 01:33 16.12.2019
6395 Clear 9 1017 32 0 1.78 79 00:41 16.12.2019
6396 Clear 9 1017 32 0 1.78 79 00:21 16.12.2019
6397 Clear 9 1017 32 0 1.78 79 23:57 15.12.2019
6398 Clear 9 1017 32 0 1.78 79 23:37 15.12.2019
6399 Clear 9 1016 38 0 0.94 55 23:19 15.12.2019
6400 Clear 9 1016 38 0 0.94 55 22:54 15.12.2019
6401 Clear 9 1016 38 0 0.94 55 22:36 15.12.2019
6402 Clear 9 1016 38 0 0.94 55 22:18 15.12.2019
6403 Clear 9 1016 38 0 0.94 55 21:55 15.12.2019
6404 Clear 10 1017 27 0 2.24 339 21:36 15.12.2019
6405 Clear 10 1017 26 0 1.34 227 21:18 15.12.2019
6406 Clear 8 1017 32 0 0.45 349 20:54 15.12.2019
6407 Clear 7 1017 34 0 0.89 270 20:36 15.12.2019
6408 Clouds 8 1016 46 0 1.38 269 20:18 15.12.2019
6409 Clouds 7 1017 36 0 1.79 241 19:54 15.12.2019
6410 Clouds 6 1017 37 0 2.68 261 19:36 15.12.2019
6411 Clouds 6 1017 41 0 1.79 244 19:18 15.12.2019
6412 Clouds 5 1017 42 0 1.34 309 18:54 15.12.2019
6413 Clouds 6 1016 38 0 1.79 250 18:36 15.12.2019
6414 Clouds 6 1016 41 0 1.79 6 18:18 15.12.2019
6415 Clouds 4 1016 45 0 2.24 339 17:55 15.12.2019
6416 Clouds 4 1016 46 0 0.89 331 17:36 15.12.2019
6417 Clouds 5 1015 65 0 2.8 284 17:18 15.12.2019
6418 Clouds 2 1014 47 0 1.79 307 16:42 15.12.2019
6419 Clouds 1 1013 52 0 2.24 331 16:22 15.12.2019
6420 Clouds 1 1013 56 0 1.34 320 15:57 15.12.2019
6421 Clouds 1 1013 55 0 2.68 323 15:39 15.12.2019
6422 Clouds 1 1012 58 0 2.68 339 15:19 15.12.2019
6423 Clouds 1 1012 59 0 2.68 351 14:56 15.12.2019
6424 Clouds 0 1011 62 0 1.79 341 14:37 15.12.2019
6425 Clouds 0 1011 62 0 2.24 337 14:19 15.12.2019
6426 Clouds 1 1010 61 0 1.34 313 13:58 15.12.2019
6427 Clouds 2 1010 56 0 2.24 272 13:39 15.12.2019
6428 Clouds 2 1010 58 0 3.13 287 13:20 15.12.2019
6429 Clouds 1 1009 76 0 0.89 345 12:57 15.12.2019
6430 Clouds 1 1009 76 0 0.89 345 12:57 15.12.2019
6431 Clouds 1 1009 90 0 0.45 57 12:39 15.12.2019
6432 Clouds 1 1009 88 0 0.89 313 12:21 15.12.2019
6433 Clouds 1 1009 90 0 0.45 344 11:59 15.12.2019
6434 Clouds 1 1009 90 0 3.27 272 11:37 15.12.2019
6435 Clouds 1 1009 90 0 3.24 264 11:19 15.12.2019
6436 Clouds 1 1009 91 0 3.24 264 10:55 15.12.2019
6437 Clouds 1 1008 92 0 3.24 264 10:37 15.12.2019
6438 Clouds 1 1008 92 0 3.24 264 10:19 15.12.2019
6439 Clouds 1 1008 91 0 0.45 286 09:56 15.12.2019
6440 Clouds 1 1008 88 0 3.24 264 09:37 15.12.2019
6441 Clouds 2 1008 88 0 3.24 264 09:18 15.12.2019
6442 Clouds 3 1008 88 0 3.24 264 08:41 15.12.2019
6443 Clouds 3 1008 88 0 0.31 229 08:22 15.12.2019
6444 Clouds 3 1008 89 0 0.45 78 07:57 15.12.2019
6445 Clouds 3 1008 88 0 0.45 30 07:37 15.12.2019
6446 Clouds 3 1008 86 0 0.31 229 06:57 15.12.2019
6447 Clouds 4 1008 81 0 0.31 229 06:23 15.12.2019
6448 Clouds 3 1008 89 0 0.31 229 05:42 15.12.2019
6449 Rain 3 1009 78 0 0.5 311 05:20 15.12.2019
6450 Rain 6 1008 71 0 0.89 17 04:18 15.12.2019
6451 Rain 7 1008 65 0 1.34 11 02:35 15.12.2019
6452 Clouds 8 1008 62 0 1.34 16 01:57 15.12.2019
6453 Clouds 9 1008 56 0 1.79 45 01:39 15.12.2019
6454 Clouds 11 1009 51 0 1.34 33 01:18 15.12.2019
6455 Clouds 11 1007 67 0 0.98 88 00:47 15.12.2019
6456 Clouds 11 1007 67 0 0.98 88 00:29 15.12.2019
6457 Clouds 12 1009 47 0 1.79 26 23:41 14.12.2019
6458 Clouds 12 1009 62 0 1.44 98 23:22 14.12.2019
6459 Clouds 12 1009 62 0 1.44 98 22:59 14.12.2019
6460 Clouds 12 1009 62 0 1.44 98 22:41 14.12.2019
6461 Clouds 12 1009 62 0 1.44 98 22:22 14.12.2019
6462 Clouds 12 1009 62 0 1.44 98 21:57 14.12.2019
6463 Clouds 13 1010 58 0 1.34 50 21:38 14.12.2019
6464 Clouds 13 1010 60 0 1.34 50 21:19 14.12.2019
6465 Clouds 13 1010 60 0 1.34 50 21:19 14.12.2019
6466 Clouds 13 1010 60 0 1.34 55 20:59 14.12.2019
6467 Clouds 12 1010 64 0 0.89 72 20:40 14.12.2019
6468 Clear 11 1010 65 0 1.43 273 20:20 14.12.2019
6469 Clear 11 1010 65 0 1.43 273 19:57 14.12.2019
6470 Clear 11 1010 65 0 1.43 273 19:39 14.12.2019
6471 Clear 11 1010 65 0 1.43 273 19:20 14.12.2019
6472 Clear 11 1012 68 0 0.89 74 18:56 14.12.2019
6473 Clear 11 1012 71 0 0.89 79 18:38 14.12.2019
6474 Clear 11 1011 69 0 1.34 40 18:19 14.12.2019
6475 Clear 8 1011 78 0 1.34 34 17:44 14.12.2019
6476 Clear 7 1011 83 0 0.89 62 17:24 14.12.2019
6477 Clear 6 1011 88 0 0.89 87 16:59 14.12.2019
6478 Clear 3 1011 86 0 0.89 95 16:40 14.12.2019
6479 Clear 2 1011 93 0 0.45 266 16:19 14.12.2019
6480 Clear 2 1011 89 0 0.45 50 15:54 14.12.2019
6481 Clear 3 1011 87 0 0.45 50 15:36 14.12.2019
6482 Clear 3 1011 87 0 0.45 50 15:36 14.12.2019
6483 Clear 3 1011 87 0 0.45 50 15:36 14.12.2019
6484 Clear 3 1011 87 0 2.81 268 15:18 14.12.2019
6485 Clear 3 1011 85 0 2.81 268 14:40 14.12.2019
6486 Clouds 3 1011 87 0 0.45 54 14:21 14.12.2019
6487 Clouds 3 1011 92 0 0.89 218 13:59 14.12.2019
6488 Clouds 2 1010 90 0 0.89 31 13:41 14.12.2019
6489 Clouds 2 1010 90 0 0.89 31 13:41 14.12.2019
6490 Clouds 3 1011 88 0 2.98 268 13:19 14.12.2019
6491 Clouds 3 1011 85 0 0.45 8 12:57 14.12.2019
6492 Clouds 4 1011 82 0 3.21 269 12:38 14.12.2019
6493 Clouds 4 1012 85 0 0.89 240 12:20 14.12.2019
6494 Clouds 4 1012 83 0 0.45 262 11:56 14.12.2019
6495 Clouds 4 1012 83 0 0.45 244 11:38 14.12.2019
6496 Clouds 4 1012 83 0 0.45 17 11:19 14.12.2019
6497 Clouds 4 1012 84 0 2.73 262 10:56 14.12.2019
6498 Clouds 4 1012 83 0 0.45 231 10:38 14.12.2019
6499 Clouds 4 1012 82 0 2.73 262 10:19 14.12.2019
6500 Clouds 4 1013 83 0 2.73 262 09:43 14.12.2019
6501 Clouds 4 1013 85 0 2.73 262 09:23 14.12.2019
6502 Clouds 4 1013 85 0 0.45 349 08:57 14.12.2019
6503 Clouds 3 1014 86 0 0.45 50 08:38 14.12.2019
6504 Clouds 3 1014 84 0 1.61 223 08:19 14.12.2019
6505 Clouds 4 1015 82 0 1.61 223 07:40 14.12.2019
6506 Clouds 5 1015 80 0 1.61 223 07:21 14.12.2019
6507 Clouds 5 1015 82 0 1.34 92 06:48 14.12.2019
6508 Clouds 5 1015 79 0 1.61 223 06:30 14.12.2019
6509 Clouds 6 1015 76 0 0.45 337 05:50 14.12.2019
6510 Clouds 8 1015 68 0 2.24 80 03:44 14.12.2019
6511 Clouds 8 1015 63 0 0.45 62 02:24 14.12.2019
6512 Clear 8 1016 62 0 0.45 90 01:44 14.12.2019
6513 Clear 10 1016 54 0 0.94 181 01:20 14.12.2019
6514 Clear 12 1016 49 0 0.89 100 00:43 14.12.2019
6515 Clear 11 1017 55 0 0.45 239 00:22 14.12.2019
6516 Clear 12 1016 48 0 1.34 25 23:41 13.12.2019
6517 Clear 14 1017 43 0 0.89 59 23:20 13.12.2019
6518 Clear 14 1017 43 0 1.34 50 22:59 13.12.2019
6519 Clear 15 1017 42 0 1.34 82 22:40 13.12.2019
6520 Clear 16 1018 40 0 1.34 67 22:19 13.12.2019
6521 Clear 16 1019 41 0 1.34 79 21:55 13.12.2019
6522 Clear 15 1019 42 0 1.79 40 21:36 13.12.2019
6523 Clear 14 1019 44 0 1.34 80 21:18 13.12.2019
6524 Clear 14 1020 44 0 1.34 63 20:40 13.12.2019
6525 Clear 13 1021 46 0 1.79 33 20:21 13.12.2019
6526 Clear 13 1021 48 0 2.24 93 19:58 13.12.2019
6527 Clear 13 1021 46 0 2.68 94 19:40 13.12.2019
6528 Clear 12 1021 48 0 2.24 56 19:20 13.12.2019
6529 Clear 12 1022 50 0 3.13 4 18:57 13.12.2019
6530 Clear 12 1022 48 0 3.13 45 18:39 13.12.2019
6531 Clear 12 1022 53 0 1.34 45 18:18 13.12.2019
6532 Clear 10 1023 57 0 1.34 87 17:41 13.12.2019
6533 Clear 8 1023 63 0 0.17 29 17:19 13.12.2019
6534 Clear 8 1023 63 0 0.17 29 17:19 13.12.2019
6535 Clear 6 1023 71 0 0.17 29 16:59 13.12.2019
6536 Clear 2 1023 82 0 0.45 84 16:39 13.12.2019
6537 Clear 2 1023 81 0 0.17 29 16:20 13.12.2019
6538 Clear 1 1023 83 0 0.45 123 15:43 13.12.2019
6539 Clear 2 1023 80 0 0.45 225 15:23 13.12.2019
6540 Clear 2 1023 80 0 0.17 29 14:58 13.12.2019
6541 Clear 2 1023 81 0 0.45 326 14:40 13.12.2019
6542 Clouds 2 1023 80 0 0.45 326 14:20 13.12.2019
6543 Clouds 2 1023 79 0 0.38 2 13:57 13.12.2019
6544 Clouds 3 1024 77 0 0.38 2 13:37 13.12.2019
6545 Clouds 3 1024 75 0 0.19 243 13:19 13.12.2019
6546 Clouds 3 1024 76 0 0.45 223 12:42 13.12.2019
6547 Clouds 2 1024 80 0 0.45 285 12:20 13.12.2019
6548 Clouds 2 1024 79 0 0.19 243 11:57 13.12.2019
6549 Clouds 2 1024 79 0 0.19 243 11:57 13.12.2019
6550 Clouds 2 1024 78 0 0.89 285 11:39 13.12.2019
6551 Clouds 3 1025 77 0 0.45 25 11:21 13.12.2019
6552 Clouds 2 1024 79 0 0.45 1 10:42 13.12.2019
6553 Clouds 2 1024 79 0 0.45 1 10:42 13.12.2019
6554 Clouds 3 1024 77 0 0.11 214 10:23 13.12.2019
6555 Clouds 3 1024 77 0 0.11 214 09:56 13.12.2019
6556 Clouds 2 1024 79 0 0.89 11 09:38 13.12.2019
6557 Clouds 3 1024 75 0 0.11 214 09:18 13.12.2019
6558 Clouds 3 1024 75 0 0.11 214 09:18 13.12.2019
6559 Clouds 7 1022 69 0 0.11 214 08:41 13.12.2019
6560 Clouds 3 1024 75 0 0.27 327 08:23 13.12.2019
6561 Clouds 4 1024 73 0 0.02 225 07:46 13.12.2019
6562 Clouds 4 1024 73 0 0.02 225 07:21 13.12.2019
6563 Clouds 4 1024 73 0 0.02 225 06:55 13.12.2019
6564 Clouds 4 1024 72 0 0.02 225 06:29 13.12.2019
6565 Clouds 5 1024 71 0 0.45 250 05:46 13.12.2019
6566 Clouds 5 1024 71 0 0.89 72 05:27 13.12.2019
6567 Clouds 4 1025 75 0 0.25 277 04:46 13.12.2019
6568 Clouds 6 1024 69 0 0.25 277 03:47 13.12.2019
6569 Clouds 6 1024 67 0 0.25 277 02:34 13.12.2019
6570 Clouds 9 1024 57 0 0.68 106 01:48 13.12.2019
6571 Clouds 13 1024 46 0 0.45 96 00:57 13.12.2019
6572 Clouds 13 1024 46 0 0.68 104 00:37 13.12.2019
6573 Clouds 11 1022 54 0 0.68 104 23:59 12.12.2019
6574 Clouds 11 1022 54 0 0.68 104 23:41 12.12.2019
6575 Clouds 12 1022 48 0 1.26 142 23:22 12.12.2019
6576 Clouds 12 1022 48 0 1.26 142 22:56 12.12.2019
6577 Clouds 12 1022 48 0 1.26 142 22:38 12.12.2019
6578 Clouds 12 1022 48 0 1.26 142 22:19 12.12.2019
6579 Clouds 12 1022 48 0 1.26 142 21:55 12.12.2019
6580 Clouds 16 1025 41 0 1.34 54 21:37 12.12.2019
6581 Clouds 16 1025 41 0 0.89 33 21:19 12.12.2019
6582 Clouds 16 1025 42 0 0.45 40 20:57 12.12.2019
6583 Clouds 14 1025 47 0 1.34 17 20:38 12.12.2019
6584 Clouds 12 1025 47 0 0.89 57 20:20 12.12.2019
6585 Clouds 13 1026 46 0 0.89 58 19:55 12.12.2019
6586 Clouds 12 1026 50 0 0.89 63 19:37 12.12.2019
6587 Clouds 12 1026 49 0 0.89 81 19:18 12.12.2019
6588 Clouds 12 1026 46 0 0.45 108 18:55 12.12.2019
6589 Clouds 11 1026 49 0 0.45 162 18:36 12.12.2019
6590 Clouds 9 1026 57 0 0.41 119 18:18 12.12.2019
6591 Clouds 7 1026 68 0 0.41 119 17:55 12.12.2019
6592 Clouds 5 1026 70 0 0.41 119 17:37 12.12.2019
6593 Clouds 4 1026 76 0 0.45 343 17:18 12.12.2019
6594 Clouds 3 1026 78 0 0.28 351 16:42 12.12.2019
6595 Clouds 2 1026 79 0 0.28 351 16:21 12.12.2019
6596 Clouds 3 1026 78 0 0.45 40 15:59 12.12.2019
6597 Clouds 3 1025 76 0 0.28 351 15:41 12.12.2019
6598 Clouds 3 1025 76 0 0.28 351 15:19 12.12.2019
6599 Clouds 3 1025 73 0 0.28 351 14:57 12.12.2019
6600 Clouds 5 1025 67 0 0.45 326 14:36 12.12.2019
6601 Clouds 6 1025 67 0 0.89 340 14:18 12.12.2019
6602 Clouds 5 1025 68 0 1.34 333 13:54 12.12.2019
6603 Clouds 3 1024 73 0 0.89 326 13:36 12.12.2019
6604 Clouds 3 1024 75 0 0.45 323 13:18 12.12.2019
6605 Clouds 3 1024 75 0 0.45 323 13:18 12.12.2019
6606 Clouds 4 1024 73 0 0.41 24 12:42 12.12.2019
6607 Clouds 5 1024 69 0 0.41 24 12:23 12.12.2019
6608 Clouds 4 1024 70 0 0.89 343 11:59 12.12.2019
6609 Clouds 4 1024 73 0 0.45 303 11:40 12.12.2019
6610 Clouds 3 1025 75 0 0.72 1 11:22 12.12.2019
6611 Clouds 3 1025 73 0 0.45 138 10:59 12.12.2019
6612 Clouds 4 1025 69 0 0.72 1 10:40 12.12.2019
6613 Clouds 5 1024 65 0 0.45 288 10:22 12.12.2019
6614 Clouds 5 1025 65 0 0.89 281 09:56 12.12.2019
6615 Clouds 5 1025 65 0 0.89 281 09:56 12.12.2019
6616 Clouds 5 1025 66 0 0.89 295 09:38 12.12.2019
6617 Clouds 4 1026 68 0 0.45 337 09:20 12.12.2019
6618 Clouds 3 1025 73 0 0.45 342 08:48 12.12.2019
6619 Clouds 3 1025 76 0 0.72 1 08:29 12.12.2019
6620 Clouds 3 1025 76 0 1.05 250 07:59 12.12.2019
6621 Clouds 4 1025 73 0 1.05 250 07:39 12.12.2019
6622 Clouds 4 1025 72 0 0.45 319 07:20 12.12.2019
6623 Clouds 4 1026 74 0 1.34 316 06:42 12.12.2019
6624 Clouds 4 1025 78 0 0.89 82 06:23 12.12.2019
6625 Clouds 3 1025 80 0 1.05 250 05:34 12.12.2019
6626 Clouds 3 1025 81 0 0.45 335 04:48 12.12.2019
6627 Clouds 4 1024 72 0 0.5 259 02:44 12.12.2019
6628 Clouds 5 1024 71 0 0.5 259 02:25 12.12.2019
6629 Clouds 6 1024 68 0 0.93 153 01:59 12.12.2019
6630 Clouds 8 1024 61 0 0.45 138 01:36 12.12.2019
6631 Clouds 11 1024 52 0 1.34 62 00:58 12.12.2019
6632 Clouds 10 1021 52 0 0.97 60 00:38 12.12.2019
6633 Clouds 10 1021 52 0 0.97 60 00:18 12.12.2019
6634 Clouds 10 1021 52 0 0.97 60 23:40 11.12.2019
6635 Clouds 11 1021 49 0 1.74 92 23:20 11.12.2019
6636 Clouds 11 1021 49 0 1.74 92 22:57 11.12.2019
6637 Clouds 11 1021 49 0 1.74 92 22:38 11.12.2019
6638 Clouds 11 1021 49 0 1.74 92 22:38 11.12.2019
6639 Clouds 11 1021 49 0 1.74 92 22:19 11.12.2019
6640 Clouds 11 1021 49 0 1.74 92 21:55 11.12.2019
6641 Clouds 11 1021 49 0 1.74 92 21:55 11.12.2019
6642 Clouds 11 1021 49 0 1.74 92 21:37 11.12.2019
6643 Clouds 11 1021 49 0 1.74 92 21:19 11.12.2019
6644 Clouds 11 1021 49 0 1.74 92 20:55 11.12.2019
6645 Clouds 13 1025 40 0 0.45 212 20:37 11.12.2019
6646 Clouds 9 1024 54 0 1.87 56 20:18 11.12.2019
6647 Clouds 10 1024 45 0 1.37 56 19:55 11.12.2019
6648 Clouds 10 1024 45 0 1.37 56 19:36 11.12.2019
6649 Clouds 10 1024 45 0 1.37 56 19:18 11.12.2019
6650 Clouds 10 1026 50 0 1.37 56 18:40 11.12.2019
6651 Clouds 8 1026 57 0 0.45 166 18:21 11.12.2019
6652 Clouds 8 1026 57 0 0.45 166 18:21 11.12.2019
6653 Clouds 8 1026 59 0 0.45 164 17:57 11.12.2019
6654 Clouds 7 1026 61 0 0.45 213 17:38 11.12.2019
6655 Clear 6 1026 67 0 1.18 11 17:18 11.12.2019
6656 Clear 4 1026 72 0 1.18 11 16:56 11.12.2019
6657 Clear 4 1026 72 0 1.18 11 16:56 11.12.2019
6658 Clear 2 1025 75 0 1.18 11 16:38 11.12.2019
6659 Clear 2 1025 75 0 0.89 320 16:19 11.12.2019
6660 Clear 2 1025 75 0 0.89 326 15:58 11.12.2019
6661 Clear 2 1025 77 0 1.79 322 15:39 11.12.2019
6662 Clear 2 1025 78 0 0.45 333 15:20 11.12.2019
6663 Clear 1 1025 78 0 0.89 330 14:56 11.12.2019
6664 Clear 1 1025 79 0 1.18 11 14:37 11.12.2019
6665 Clear 1 1025 79 0 1.18 11 14:37 11.12.2019
6666 Clouds 1 1025 78 0 0.78 287 14:19 11.12.2019
6667 Clouds 2 1025 78 0 0.45 259 13:54 11.12.2019
6668 Clouds 1 1025 79 0 0.45 294 13:36 11.12.2019
6669 Clouds 2 1025 78 0 1.34 330 13:18 11.12.2019
6670 Clouds 2 1025 76 0 0.45 347 12:54 11.12.2019
6671 Clouds 2 1025 76 0 0.89 344 12:36 11.12.2019
6672 Clouds 3 1024 74 0 1.28 9 12:18 11.12.2019
6673 Clouds 3 1024 75 0 0.45 90 11:55 11.12.2019
6674 Clouds 2 1024 78 0 0.89 30 11:37 11.12.2019
6675 Clouds 2 1024 81 0 0.45 68 11:18 11.12.2019
6676 Clouds 2 1025 82 0 0.83 258 10:44 11.12.2019
6677 Clouds 2 1025 81 0 0.45 66 10:25 11.12.2019
6678 Clouds 2 1025 82 0 0.83 258 09:58 11.12.2019
6679 Clouds 2 1025 82 0 0.83 258 09:38 11.12.2019
6680 Clouds 2 1026 78 0 0.83 258 09:20 11.12.2019
6681 Clouds 2 1026 80 0 0.83 258 08:57 11.12.2019
6682 Clouds 1 1026 83 0 0.45 273 08:37 11.12.2019
6683 Clouds 1 1026 85 0 0.42 201 08:19 11.12.2019
6684 Clouds -1 1026 88 0 0.42 201 07:45 11.12.2019
6685 Clouds -1 1027 86 0 0.42 201 07:26 11.12.2019
6686 Clouds -1 1027 85 0 0.42 201 06:57 11.12.2019
6687 Clouds 6 1023 64 0 0.42 201 06:37 11.12.2019
6688 Clouds 6 1023 64 0 0.42 201 06:18 11.12.2019
6689 Clouds 6 1023 64 0 0.42 201 05:37 11.12.2019
6690 Clouds 1 1026 83 0 0.21 329 05:18 11.12.2019
6691 Clouds 2 1027 75 0 0.21 329 03:50 11.12.2019
6692 Clouds 4 1026 70 0 0.21 329 02:49 11.12.2019
6693 Clouds 7 1025 59 0 0.89 89 01:23 11.12.2019
6694 Clouds 8 1025 55 0 1.34 65 00:46 11.12.2019
6695 Clouds 9 1025 52 0 0.89 45 00:21 11.12.2019
6696 Clouds 10 1025 47 0 1.34 25 23:47 10.12.2019
6697 Clouds 10 1025 45 0 1.34 12 23:28 10.12.2019
6698 Clouds 11 1023 43 0 1.12 133 22:58 10.12.2019
6699 Clouds 11 1023 43 0 1.12 133 22:40 10.12.2019
6700 Clouds 11 1023 43 0 1.12 133 22:40 10.12.2019
6701 Clouds 11 1023 43 0 1.12 133 22:22 10.12.2019
6702 Clouds 11 1023 43 0 1.12 133 21:56 10.12.2019
6703 Clouds 12 1025 44 0 1.34 55 21:38 10.12.2019
6704 Clouds 12 1025 44 0 1.34 55 21:38 10.12.2019
6705 Clouds 11 1026 45 0 0.89 45 21:19 10.12.2019
6706 Clouds 11 1026 45 0 0.89 28 20:57 10.12.2019
6707 Clouds 11 1026 40 0 0.45 229 20:37 10.12.2019
6708 Clouds 11 1026 40 0 0.45 229 20:37 10.12.2019
6709 Clouds 11 1026 38 0 0.45 229 20:19 10.12.2019
6710 Clouds 11 1026 39 0 1.19 56 19:55 10.12.2019
6711 Clouds 10 1027 42 0 0.45 212 19:37 10.12.2019
6712 Clouds 9 1027 50 0 1.19 56 19:18 10.12.2019
6713 Clouds 7 1028 51 0 1.19 56 18:40 10.12.2019
6714 Clouds 7 1027 61 0 1.19 56 18:20 10.12.2019
6715 Clouds 6 1027 60 0 1.19 56 17:58 10.12.2019
6716 Clouds 5 1027 68 0 1.19 56 17:40 10.12.2019
6717 Clouds 4 1027 70 0 1.58 2 17:20 10.12.2019
6718 Clouds 1 1027 81 0 1.58 2 16:54 10.12.2019
6719 Clouds -1 1026 83 0 1.58 2 16:36 10.12.2019
6720 Clouds -1 1026 81 0 1.58 2 16:18 10.12.2019
6721 Clouds -1 1026 80 0 1.58 2 15:38 10.12.2019
6722 Clouds -1 1026 81 0 1.58 2 15:18 10.12.2019
6723 Clouds -1 1025 82 0 1.58 2 14:56 10.12.2019
6724 Clouds -2 1025 82 0 1.58 2 14:37 10.12.2019
6725 Clear -1 1025 81 0 0.89 331 14:19 10.12.2019
6726 Clear -1 1025 80 0 0.45 140 13:57 10.12.2019
6727 Clear -1 1025 80 0 0.45 140 13:57 10.12.2019
6728 Clear -1 1024 81 0 0.89 331 13:38 10.12.2019
6729 Clear -2 1024 84 0 0.89 331 13:19 10.12.2019
6730 Clear -1 1024 81 0 1.07 316 12:47 10.12.2019
6731 Clear -1 1024 80 0 1.07 316 12:27 10.12.2019
6732 Clear 1 1024 77 0 1.07 316 11:55 10.12.2019
6733 Clear 0 1024 78 0 0.45 324 11:37 10.12.2019
6734 Clear 0 1024 79 0 0.45 345 11:18 10.12.2019
6735 Clear 1 1024 77 0 1.52 325 10:42 10.12.2019
6736 Clear 2 1024 74 0 1.52 325 10:24 10.12.2019
6737 Clear 2 1024 74 0 0.45 158 09:57 10.12.2019
6738 Clear 1 1024 76 0 1.52 325 09:38 10.12.2019
6739 Clear 1 1024 76 0 1.52 325 09:20 10.12.2019
6740 Clear 2 1024 75 0 1.52 325 08:58 10.12.2019
6741 Clear 2 1024 74 0 1.52 325 08:39 10.12.2019
6742 Clear 2 1024 75 0 0.89 349 08:19 10.12.2019
6743 Clear 3 1024 71 0 0.89 322 07:44 10.12.2019
6744 Clear 3 1024 71 0 0.45 310 07:26 10.12.2019
6745 Clear 2 1023 74 0 2.47 2 06:50 10.12.2019
6746 Clear 2 1023 73 0 0.45 340 06:25 10.12.2019
6747 Clear 2 1023 74 0 2.47 2 05:57 10.12.2019
6748 Clear 2 1023 75 0 0.45 355 05:38 10.12.2019
6749 Clear 4 1022 67 0 0.45 187 03:55 10.12.2019
6750 Clear 4 1022 67 0 0.45 187 03:55 10.12.2019
6751 Clear 5 1021 64 0 1.85 355 02:57 10.12.2019
6752 Clouds 7 1021 51 0 0.45 19 01:55 10.12.2019
6753 Clouds 11 1018 43 0 1.69 49 01:28 10.12.2019
6754 Clouds 11 1018 40 0 1.68 42 00:58 10.12.2019
6755 Clouds 11 1018 40 0 1.68 42 00:25 10.12.2019
6756 Clouds 11 1018 40 0 1.68 42 23:57 09.12.2019
6757 Clouds 11 1018 40 0 1.68 42 23:37 09.12.2019
6758 Clouds 11 1018 38 0 2.37 40 23:18 09.12.2019
6759 Clouds 11 1018 38 0 2.37 40 22:55 09.12.2019
6760 Clouds 11 1018 38 0 2.37 40 22:37 09.12.2019
6761 Clouds 11 1018 38 0 2.37 40 22:18 09.12.2019
6762 Clouds 11 1018 38 0 2.37 40 21:55 09.12.2019
6763 Clouds 11 1018 38 0 2.37 40 21:37 09.12.2019
6764 Clouds 11 1018 38 0 2.37 40 21:18 09.12.2019
6765 Clouds 11 1018 38 0 2.37 40 20:55 09.12.2019
6766 Clouds 11 1018 38 0 2.37 40 20:37 09.12.2019
6767 Clouds 11 1018 38 0 2.37 40 20:37 09.12.2019
6768 Clear 10 1019 39 0 2.63 32 20:18 09.12.2019
6769 Clear 11 1019 39 0 2.36 28 19:55 09.12.2019
6770 Clear 11 1019 39 0 2.36 28 19:37 09.12.2019
6771 Clear 11 1019 39 0 2.36 28 19:37 09.12.2019
6772 Clear 11 1019 39 0 2.36 28 19:18 09.12.2019
6773 Clear 11 1019 39 0 2.36 28 18:54 09.12.2019
6774 Clear 8 1021 54 0 0.89 243 18:36 09.12.2019
6775 Clear 8 1021 52 0 1.79 243 18:18 09.12.2019
6776 Clear 8 1021 54 0 1.34 347 17:55 09.12.2019
6777 Clear 8 1020 53 0 3.13 337 17:37 09.12.2019
6778 Clear 6 1018 53 0 1.48 8 17:18 09.12.2019
6779 Clear 6 1018 53 0 1.48 8 16:54 09.12.2019
6780 Clear 2 1020 74 0 0.89 337 16:36 09.12.2019
6781 Clear 2 1020 73 0 1.34 335 16:18 09.12.2019
6782 Clear 3 1020 71 0 0.45 299 15:54 09.12.2019
6783 Clear 3 1019 69 0 1.79 345 15:36 09.12.2019
6784 Clear 2 1019 73 0 4.02 322 15:18 09.12.2019
6785 Clear 2 1019 75 0 0.45 279 14:41 09.12.2019
6786 Clouds 3 1019 72 0 0.89 336 14:18 09.12.2019
6787 Clouds 3 1019 72 0 0.89 336 14:18 09.12.2019
6788 Clouds 3 1019 71 0 0.89 341 13:56 09.12.2019
6789 Clouds 3 1019 69 0 2.24 341 13:38 09.12.2019
6790 Clouds 4 1019 65 0 2.68 332 13:19 09.12.2019
6791 Clouds 4 1019 63 0 4.47 357 12:56 09.12.2019
6792 Clouds 3 1019 70 0 0.89 352 12:37 09.12.2019
6793 Clouds 4 1018 66 0 1.34 326 12:19 09.12.2019
6794 Clouds 6 1018 62 0 3.13 306 11:55 09.12.2019
6795 Clouds 6 1018 63 0 4.92 337 11:36 09.12.2019
6796 Clouds 6 1018 65 0 5.36 335 11:18 09.12.2019
6797 Clouds 6 1018 66 0 5.81 353 10:40 09.12.2019
6798 Clouds 6 1018 66 0 4.92 314 10:20 09.12.2019
6799 Clouds 6 1017 67 0 3.13 343 09:58 09.12.2019
6800 Clouds 6 1017 66 0 5.81 336 09:40 09.12.2019
6801 Clouds 6 1017 72 0 5.36 341 09:21 09.12.2019
6802 Clouds 6 1017 76 0 3.13 320 08:43 09.12.2019
6803 Clouds 6 1017 76 0 2.24 335 08:25 09.12.2019
6804 Rain 6 1017 77 0 4.02 332 07:56 09.12.2019
6805 Rain 5 1016 81 0 3.58 351 07:38 09.12.2019
6806 Rain 3 1016 88 0 2.24 325 07:20 09.12.2019
6807 Rain 3 1016 90 0 2.01 341 06:43 09.12.2019
6808 Rain 3 1016 91 0 2.01 341 06:24 09.12.2019
6809 Rain 3 1016 91 0 2.01 341 06:24 09.12.2019
6810 Rain 3 1016 88 0 2.01 341 05:26 09.12.2019
6811 Rain 5 1015 86 0 1.34 359 04:33 09.12.2019
6812 Rain 6 1014 82 0 0.89 351 03:19 09.12.2019
6813 Rain 7 1013 79 0 0.45 13 02:24 09.12.2019
6814 Clouds 7 1013 79 0 1.79 354 01:42 09.12.2019
6815 Clouds 12 1013 52 0 0.95 284 00:46 09.12.2019
6816 Clouds 12 1013 52 0 0.95 284 00:26 09.12.2019
6817 Clouds 11 1012 66 0 0.45 50 23:41 08.12.2019
6818 Clouds 12 1013 52 0 0.95 284 23:23 08.12.2019
6819 Clouds 12 1012 57 0 2.37 277 22:57 08.12.2019
6820 Clouds 12 1012 57 0 2.37 277 22:57 08.12.2019
6821 Clouds 12 1012 57 0 2.37 277 22:38 08.12.2019
6822 Clouds 12 1012 57 0 2.37 277 22:19 08.12.2019
6823 Clouds 12 1012 57 0 2.37 277 21:58 08.12.2019
6824 Clouds 12 1012 57 0 2.37 277 21:40 08.12.2019
6825 Clouds 12 1012 57 0 2.37 277 21:20 08.12.2019
6826 Clouds 12 1012 57 0 2.37 277 21:20 08.12.2019
6827 Clouds 12 1012 57 0 2.37 277 20:57 08.12.2019
6828 Clouds 12 1012 57 0 2.37 277 20:38 08.12.2019
6829 Clouds 11 1015 67 0 2.13 263 20:20 08.12.2019
6830 Clouds 11 1015 67 0 2.13 263 19:59 08.12.2019
6831 Clouds 11 1015 67 0 2.13 263 19:41 08.12.2019
6832 Clouds 11 1015 67 0 2.13 263 19:22 08.12.2019
6833 Clouds 11 1015 67 0 2.13 263 18:55 08.12.2019
6834<